<?xml version="1.0" encoding="UTF-8" standalone="no" ?>
<gpx xmlns="http://www.topografix.com/GPX/1/1" xmlns:xsi="http://www.w3.org/2001/XMLSchema-instance" xsi:schemaLocation="http://www.topografix.com/GPX/1/1 http://www.topografix.com/GPX/1/1/gpx.xsd" version="1.1" creator="VisuGPX - https://www.visugpx.com">
  <metadata>
    <name>131012ROBPourraquesChataigniers</name>
    <desc><![CDATA[22 km agrémentés de 6 crevaisons!]]></desc>
  </metadata>
  <trk>
    <name><![CDATA[131012ROBPourraquesChataigniers]]></name>
    <trkseg>
      <trkpt lat="43.40398" lon="6.0653">
        <ele>236.19999694824</ele>
        <time>2013-10-12T12:06:46Z</time>
      </trkpt>
      <trkpt lat="43.40398" lon="6.0653">
        <ele>236.19999694824</ele>
        <time>2013-10-12T12:06:50Z</time>
      </trkpt>
      <trkpt lat="43.404" lon="6.06523">
        <ele>236.19999694824</ele>
        <time>2013-10-12T12:06:53Z</time>
      </trkpt>
      <trkpt lat="43.40401" lon="6.06515">
        <ele>236.19999694824</ele>
        <time>2013-10-12T12:06:56Z</time>
      </trkpt>
      <trkpt lat="43.40402" lon="6.06507">
        <ele>236.19999694824</ele>
        <time>2013-10-12T12:06:58Z</time>
      </trkpt>
      <trkpt lat="43.40403" lon="6.06493">
        <ele>236.19999694824</ele>
        <time>2013-10-12T12:07:01Z</time>
      </trkpt>
      <trkpt lat="43.404" lon="6.06486">
        <ele>236.19999694824</ele>
        <time>2013-10-12T12:07:03Z</time>
      </trkpt>
      <trkpt lat="43.40398" lon="6.06483">
        <ele>236.19999694824</ele>
        <time>2013-10-12T12:07:04Z</time>
      </trkpt>
      <trkpt lat="43.40391" lon="6.06484">
        <ele>236.19999694824</ele>
        <time>2013-10-12T12:07:07Z</time>
      </trkpt>
      <trkpt lat="43.40385" lon="6.06488">
        <ele>236.19999694824</ele>
        <time>2013-10-12T12:07:11Z</time>
      </trkpt>
      <trkpt lat="43.40383" lon="6.0649">
        <ele>236.19999694824</ele>
        <time>2013-10-12T12:07:13Z</time>
      </trkpt>
      <trkpt lat="43.40372" lon="6.06497">
        <ele>236.19999694824</ele>
        <time>2013-10-12T12:07:19Z</time>
      </trkpt>
      <trkpt lat="43.40336" lon="6.06522">
        <ele>236.19999694824</ele>
        <time>2013-10-12T12:07:32Z</time>
      </trkpt>
      <trkpt lat="43.40319" lon="6.06534">
        <ele>236.19999694824</ele>
        <time>2013-10-12T12:07:37Z</time>
      </trkpt>
      <trkpt lat="43.40306" lon="6.06542">
        <ele>236.19999694824</ele>
        <time>2013-10-12T12:07:40Z</time>
      </trkpt>
      <trkpt lat="43.40297" lon="6.06544">
        <ele>236.19999694824</ele>
        <time>2013-10-12T12:07:42Z</time>
      </trkpt>
      <trkpt lat="43.40282" lon="6.06546">
        <ele>236.19999694824</ele>
        <time>2013-10-12T12:07:45Z</time>
      </trkpt>
      <trkpt lat="43.40273" lon="6.06549">
        <ele>236.19999694824</ele>
        <time>2013-10-12T12:07:47Z</time>
      </trkpt>
      <trkpt lat="43.40265" lon="6.06553">
        <ele>236.19999694824</ele>
        <time>2013-10-12T12:07:49Z</time>
      </trkpt>
      <trkpt lat="43.40244" lon="6.06566">
        <ele>236.19999694824</ele>
        <time>2013-10-12T12:07:54Z</time>
      </trkpt>
      <trkpt lat="43.40241" lon="6.0657">
        <ele>236.19999694824</ele>
        <time>2013-10-12T12:07:55Z</time>
      </trkpt>
      <trkpt lat="43.40231" lon="6.066">
        <ele>236.19999694824</ele>
        <time>2013-10-12T12:08:00Z</time>
      </trkpt>
      <trkpt lat="43.40222" lon="6.06615">
        <ele>236.19999694824</ele>
        <time>2013-10-12T12:08:03Z</time>
      </trkpt>
      <trkpt lat="43.40218" lon="6.06619">
        <ele>236.19999694824</ele>
        <time>2013-10-12T12:08:04Z</time>
      </trkpt>
      <trkpt lat="43.40211" lon="6.06627">
        <ele>236.19999694824</ele>
        <time>2013-10-12T12:08:06Z</time>
      </trkpt>
      <trkpt lat="43.40206" lon="6.06638">
        <ele>236.19999694824</ele>
        <time>2013-10-12T12:08:08Z</time>
      </trkpt>
      <trkpt lat="43.40197" lon="6.06665">
        <ele>236.19999694824</ele>
        <time>2013-10-12T12:08:13Z</time>
      </trkpt>
      <trkpt lat="43.40181" lon="6.067">
        <ele>236.19999694824</ele>
        <time>2013-10-12T12:08:21Z</time>
      </trkpt>
      <trkpt lat="43.40171" lon="6.06722">
        <ele>236.19999694824</ele>
        <time>2013-10-12T12:08:26Z</time>
      </trkpt>
      <trkpt lat="43.40163" lon="6.06739">
        <ele>236.19999694824</ele>
        <time>2013-10-12T12:08:30Z</time>
      </trkpt>
      <trkpt lat="43.40155" lon="6.06758">
        <ele>237</ele>
        <time>2013-10-12T12:08:34Z</time>
      </trkpt>
      <trkpt lat="43.4015" lon="6.06773">
        <ele>238.19999694824</ele>
        <time>2013-10-12T12:08:37Z</time>
      </trkpt>
      <trkpt lat="43.4014" lon="6.06797">
        <ele>238.19999694824</ele>
        <time>2013-10-12T12:08:42Z</time>
      </trkpt>
      <trkpt lat="43.40134" lon="6.06811">
        <ele>238.60000610352</ele>
        <time>2013-10-12T12:08:45Z</time>
      </trkpt>
      <trkpt lat="43.40131" lon="6.0682">
        <ele>239.39999389648</ele>
        <time>2013-10-12T12:08:47Z</time>
      </trkpt>
      <trkpt lat="43.40128" lon="6.0683">
        <ele>240.19999694824</ele>
        <time>2013-10-12T12:08:49Z</time>
      </trkpt>
      <trkpt lat="43.40126" lon="6.06834">
        <ele>240.19999694824</ele>
        <time>2013-10-12T12:08:50Z</time>
      </trkpt>
      <trkpt lat="43.40119" lon="6.06858">
        <ele>240.60000610352</ele>
        <time>2013-10-12T12:08:56Z</time>
      </trkpt>
      <trkpt lat="43.40117" lon="6.06865">
        <ele>241.39999389648</ele>
        <time>2013-10-12T12:08:58Z</time>
      </trkpt>
      <trkpt lat="43.40115" lon="6.06868">
        <ele>242</ele>
        <time>2013-10-12T12:08:59Z</time>
      </trkpt>
      <trkpt lat="43.40114" lon="6.06871">
        <ele>242.39999389648</ele>
        <time>2013-10-12T12:09:00Z</time>
      </trkpt>
      <trkpt lat="43.40112" lon="6.06877">
        <ele>242.39999389648</ele>
        <time>2013-10-12T12:09:02Z</time>
      </trkpt>
      <trkpt lat="43.40108" lon="6.06907">
        <ele>242.39999389648</ele>
        <time>2013-10-12T12:09:08Z</time>
      </trkpt>
      <trkpt lat="43.40114" lon="6.06939">
        <ele>242.39999389648</ele>
        <time>2013-10-12T12:09:13Z</time>
      </trkpt>
      <trkpt lat="43.40121" lon="6.06988">
        <ele>242.39999389648</ele>
        <time>2013-10-12T12:09:20Z</time>
      </trkpt>
      <trkpt lat="43.40121" lon="6.07036">
        <ele>242.39999389648</ele>
        <time>2013-10-12T12:09:27Z</time>
      </trkpt>
      <trkpt lat="43.40121" lon="6.07064">
        <ele>242.39999389648</ele>
        <time>2013-10-12T12:09:31Z</time>
      </trkpt>
      <trkpt lat="43.40123" lon="6.07105">
        <ele>242.39999389648</ele>
        <time>2013-10-12T12:09:37Z</time>
      </trkpt>
      <trkpt lat="43.40128" lon="6.07138">
        <ele>242.39999389648</ele>
        <time>2013-10-12T12:09:42Z</time>
      </trkpt>
      <trkpt lat="43.40133" lon="6.07172">
        <ele>242.39999389648</ele>
        <time>2013-10-12T12:09:47Z</time>
      </trkpt>
      <trkpt lat="43.40137" lon="6.07205">
        <ele>242.39999389648</ele>
        <time>2013-10-12T12:09:53Z</time>
      </trkpt>
      <trkpt lat="43.40143" lon="6.07236">
        <ele>242.39999389648</ele>
        <time>2013-10-12T12:09:58Z</time>
      </trkpt>
      <trkpt lat="43.40145" lon="6.07272">
        <ele>242.39999389648</ele>
        <time>2013-10-12T12:10:04Z</time>
      </trkpt>
      <trkpt lat="43.40146" lon="6.07283">
        <ele>242.39999389648</ele>
        <time>2013-10-12T12:10:06Z</time>
      </trkpt>
      <trkpt lat="43.40145" lon="6.07311">
        <ele>242.39999389648</ele>
        <time>2013-10-12T12:10:11Z</time>
      </trkpt>
      <trkpt lat="43.40142" lon="6.07338">
        <ele>242.39999389648</ele>
        <time>2013-10-12T12:10:16Z</time>
      </trkpt>
      <trkpt lat="43.40137" lon="6.07376">
        <ele>242.39999389648</ele>
        <time>2013-10-12T12:10:23Z</time>
      </trkpt>
      <trkpt lat="43.40138" lon="6.07398">
        <ele>242.39999389648</ele>
        <time>2013-10-12T12:10:27Z</time>
      </trkpt>
      <trkpt lat="43.40141" lon="6.0741">
        <ele>242.39999389648</ele>
        <time>2013-10-12T12:10:29Z</time>
      </trkpt>
      <trkpt lat="43.40147" lon="6.07441">
        <ele>242.39999389648</ele>
        <time>2013-10-12T12:10:35Z</time>
      </trkpt>
      <trkpt lat="43.40147" lon="6.07467">
        <ele>242.39999389648</ele>
        <time>2013-10-12T12:10:40Z</time>
      </trkpt>
      <trkpt lat="43.40142" lon="6.07494">
        <ele>242.80000305176</ele>
        <time>2013-10-12T12:10:45Z</time>
      </trkpt>
      <trkpt lat="43.40136" lon="6.07513">
        <ele>244.39999389648</ele>
        <time>2013-10-12T12:10:49Z</time>
      </trkpt>
      <trkpt lat="43.40121" lon="6.07544">
        <ele>246</ele>
        <time>2013-10-12T12:10:56Z</time>
      </trkpt>
      <trkpt lat="43.40098" lon="6.07582">
        <ele>246.39999389648</ele>
        <time>2013-10-12T12:11:06Z</time>
      </trkpt>
      <trkpt lat="43.4009" lon="6.0761">
        <ele>246.39999389648</ele>
        <time>2013-10-12T12:11:12Z</time>
      </trkpt>
      <trkpt lat="43.40089" lon="6.07621">
        <ele>247</ele>
        <time>2013-10-12T12:11:14Z</time>
      </trkpt>
      <trkpt lat="43.40089" lon="6.07632">
        <ele>247.80000305176</ele>
        <time>2013-10-12T12:11:16Z</time>
      </trkpt>
      <trkpt lat="43.40089" lon="6.07642">
        <ele>248.60000610352</ele>
        <time>2013-10-12T12:11:18Z</time>
      </trkpt>
      <trkpt lat="43.40085" lon="6.0766">
        <ele>249</ele>
        <time>2013-10-12T12:11:22Z</time>
      </trkpt>
      <trkpt lat="43.40082" lon="6.07671">
        <ele>250.60000610352</ele>
        <time>2013-10-12T12:11:25Z</time>
      </trkpt>
      <trkpt lat="43.40079" lon="6.07678">
        <ele>251</ele>
        <time>2013-10-12T12:11:27Z</time>
      </trkpt>
      <trkpt lat="43.40076" lon="6.07684">
        <ele>251.80000305176</ele>
        <time>2013-10-12T12:11:29Z</time>
      </trkpt>
      <trkpt lat="43.40072" lon="6.0769">
        <ele>252.60000610352</ele>
        <time>2013-10-12T12:11:31Z</time>
      </trkpt>
      <trkpt lat="43.40062" lon="6.07707">
        <ele>252.60000610352</ele>
        <time>2013-10-12T12:11:36Z</time>
      </trkpt>
      <trkpt lat="43.40046" lon="6.07728">
        <ele>252.60000610352</ele>
        <time>2013-10-12T12:11:42Z</time>
      </trkpt>
      <trkpt lat="43.40039" lon="6.0774">
        <ele>253.19999694824</ele>
        <time>2013-10-12T12:11:45Z</time>
      </trkpt>
      <trkpt lat="43.40035" lon="6.07748">
        <ele>254</ele>
        <time>2013-10-12T12:11:47Z</time>
      </trkpt>
      <trkpt lat="43.40029" lon="6.07765">
        <ele>254.80000305176</ele>
        <time>2013-10-12T12:11:51Z</time>
      </trkpt>
      <trkpt lat="43.40022" lon="6.07796">
        <ele>254.80000305176</ele>
        <time>2013-10-12T12:11:58Z</time>
      </trkpt>
      <trkpt lat="43.40011" lon="6.07832">
        <ele>254.80000305176</ele>
        <time>2013-10-12T12:12:06Z</time>
      </trkpt>
      <trkpt lat="43.40004" lon="6.07856">
        <ele>254.80000305176</ele>
        <time>2013-10-12T12:12:11Z</time>
      </trkpt>
      <trkpt lat="43.39994" lon="6.07892">
        <ele>254.80000305176</ele>
        <time>2013-10-12T12:12:18Z</time>
      </trkpt>
      <trkpt lat="43.39991" lon="6.07902">
        <ele>255.60000610352</ele>
        <time>2013-10-12T12:12:20Z</time>
      </trkpt>
      <trkpt lat="43.39988" lon="6.07912">
        <ele>256.39999389648</ele>
        <time>2013-10-12T12:12:22Z</time>
      </trkpt>
      <trkpt lat="43.39985" lon="6.07926">
        <ele>256.79998779297</ele>
        <time>2013-10-12T12:12:25Z</time>
      </trkpt>
      <trkpt lat="43.39978" lon="6.07948">
        <ele>257.20001220703</ele>
        <time>2013-10-12T12:12:30Z</time>
      </trkpt>
      <trkpt lat="43.39977" lon="6.07957">
        <ele>258</ele>
        <time>2013-10-12T12:12:32Z</time>
      </trkpt>
      <trkpt lat="43.39973" lon="6.07965">
        <ele>258.79998779297</ele>
        <time>2013-10-12T12:12:34Z</time>
      </trkpt>
      <trkpt lat="43.39968" lon="6.07973">
        <ele>258.79998779297</ele>
        <time>2013-10-12T12:12:37Z</time>
      </trkpt>
      <trkpt lat="43.39964" lon="6.07977">
        <ele>260</ele>
        <time>2013-10-12T12:12:39Z</time>
      </trkpt>
      <trkpt lat="43.39959" lon="6.0798">
        <ele>261</ele>
        <time>2013-10-12T12:12:41Z</time>
      </trkpt>
      <trkpt lat="43.39957" lon="6.07981">
        <ele>261</ele>
        <time>2013-10-12T12:12:42Z</time>
      </trkpt>
      <trkpt lat="43.39942" lon="6.07991">
        <ele>261</ele>
        <time>2013-10-12T12:12:48Z</time>
      </trkpt>
      <trkpt lat="43.39927" lon="6.07999">
        <ele>261</ele>
        <time>2013-10-12T12:12:53Z</time>
      </trkpt>
      <trkpt lat="43.39917" lon="6.08007">
        <ele>261</ele>
        <time>2013-10-12T12:12:56Z</time>
      </trkpt>
      <trkpt lat="43.39899" lon="6.08031">
        <ele>261</ele>
        <time>2013-10-12T12:13:02Z</time>
      </trkpt>
      <trkpt lat="43.39882" lon="6.08033">
        <ele>261</ele>
        <time>2013-10-12T12:13:06Z</time>
      </trkpt>
      <trkpt lat="43.39868" lon="6.08026">
        <ele>261</ele>
        <time>2013-10-12T12:13:09Z</time>
      </trkpt>
      <trkpt lat="43.39854" lon="6.08016">
        <ele>261</ele>
        <time>2013-10-12T12:13:12Z</time>
      </trkpt>
      <trkpt lat="43.39836" lon="6.08003">
        <ele>261</ele>
        <time>2013-10-12T12:13:16Z</time>
      </trkpt>
      <trkpt lat="43.39814" lon="6.07989">
        <ele>261</ele>
        <time>2013-10-12T12:13:21Z</time>
      </trkpt>
      <trkpt lat="43.39794" lon="6.07979">
        <ele>261</ele>
        <time>2013-10-12T12:13:26Z</time>
      </trkpt>
      <trkpt lat="43.39774" lon="6.07971">
        <ele>261</ele>
        <time>2013-10-12T12:13:32Z</time>
      </trkpt>
      <trkpt lat="43.39762" lon="6.07967">
        <ele>261</ele>
        <time>2013-10-12T12:13:36Z</time>
      </trkpt>
      <trkpt lat="43.39756" lon="6.07965">
        <ele>261.79998779297</ele>
        <time>2013-10-12T12:13:38Z</time>
      </trkpt>
      <trkpt lat="43.39753" lon="6.07963">
        <ele>262.20001220703</ele>
        <time>2013-10-12T12:13:39Z</time>
      </trkpt>
      <trkpt lat="43.39748" lon="6.0796">
        <ele>263</ele>
        <time>2013-10-12T12:13:41Z</time>
      </trkpt>
      <trkpt lat="43.3974" lon="6.07953">
        <ele>263</ele>
        <time>2013-10-12T12:13:44Z</time>
      </trkpt>
      <trkpt lat="43.39724" lon="6.07938">
        <ele>263</ele>
        <time>2013-10-12T12:13:50Z</time>
      </trkpt>
      <trkpt lat="43.39722" lon="6.07934">
        <ele>263.39999389648</ele>
        <time>2013-10-12T12:13:51Z</time>
      </trkpt>
      <trkpt lat="43.39718" lon="6.07929">
        <ele>264.79998779297</ele>
        <time>2013-10-12T12:13:53Z</time>
      </trkpt>
      <trkpt lat="43.39703" lon="6.07911">
        <ele>266</ele>
        <time>2013-10-12T12:14:01Z</time>
      </trkpt>
      <trkpt lat="43.39698" lon="6.07904">
        <ele>267.39999389648</ele>
        <time>2013-10-12T12:14:04Z</time>
      </trkpt>
      <trkpt lat="43.39693" lon="6.07898">
        <ele>267.79998779297</ele>
        <time>2013-10-12T12:14:07Z</time>
      </trkpt>
      <trkpt lat="43.39691" lon="6.07897">
        <ele>268.20001220703</ele>
        <time>2013-10-12T12:14:08Z</time>
      </trkpt>
      <trkpt lat="43.39689" lon="6.07895">
        <ele>268.60000610352</ele>
        <time>2013-10-12T12:14:09Z</time>
      </trkpt>
      <trkpt lat="43.39687" lon="6.07894">
        <ele>269</ele>
        <time>2013-10-12T12:14:10Z</time>
      </trkpt>
      <trkpt lat="43.39685" lon="6.07893">
        <ele>269.39999389648</ele>
        <time>2013-10-12T12:14:11Z</time>
      </trkpt>
      <trkpt lat="43.39674" lon="6.07889">
        <ele>269.39999389648</ele>
        <time>2013-10-12T12:14:16Z</time>
      </trkpt>
      <trkpt lat="43.39663" lon="6.07888">
        <ele>269.79998779297</ele>
        <time>2013-10-12T12:14:20Z</time>
      </trkpt>
      <trkpt lat="43.39657" lon="6.07888">
        <ele>270.79998779297</ele>
        <time>2013-10-12T12:14:22Z</time>
      </trkpt>
      <trkpt lat="43.39651" lon="6.07888">
        <ele>271.60000610352</ele>
        <time>2013-10-12T12:14:24Z</time>
      </trkpt>
      <trkpt lat="43.39637" lon="6.07891">
        <ele>271.60000610352</ele>
        <time>2013-10-12T12:14:29Z</time>
      </trkpt>
      <trkpt lat="43.39617" lon="6.07895">
        <ele>271.60000610352</ele>
        <time>2013-10-12T12:14:36Z</time>
      </trkpt>
      <trkpt lat="43.39605" lon="6.07902">
        <ele>272</ele>
        <time>2013-10-12T12:14:41Z</time>
      </trkpt>
      <trkpt lat="43.39598" lon="6.07902">
        <ele>273.20001220703</ele>
        <time>2013-10-12T12:14:44Z</time>
      </trkpt>
      <trkpt lat="43.39592" lon="6.07902">
        <ele>273.60000610352</ele>
        <time>2013-10-12T12:14:47Z</time>
      </trkpt>
      <trkpt lat="43.39585" lon="6.07904">
        <ele>275.20001220703</ele>
        <time>2013-10-12T12:14:51Z</time>
      </trkpt>
      <trkpt lat="43.39583" lon="6.07905">
        <ele>275.60000610352</ele>
        <time>2013-10-12T12:14:52Z</time>
      </trkpt>
      <trkpt lat="43.39581" lon="6.07907">
        <ele>275.60000610352</ele>
        <time>2013-10-12T12:14:53Z</time>
      </trkpt>
      <trkpt lat="43.39574" lon="6.07927">
        <ele>276.20001220703</ele>
        <time>2013-10-12T12:15:01Z</time>
      </trkpt>
      <trkpt lat="43.39571" lon="6.0793">
        <ele>277</ele>
        <time>2013-10-12T12:15:03Z</time>
      </trkpt>
      <trkpt lat="43.3957" lon="6.0793">
        <ele>277.39999389648</ele>
        <time>2013-10-12T12:15:04Z</time>
      </trkpt>
      <trkpt lat="43.39566" lon="6.07932">
        <ele>277.79998779297</ele>
        <time>2013-10-12T12:15:06Z</time>
      </trkpt>
      <trkpt lat="43.39561" lon="6.07934">
        <ele>278.20001220703</ele>
        <time>2013-10-12T12:15:09Z</time>
      </trkpt>
      <trkpt lat="43.39555" lon="6.07937">
        <ele>279.79998779297</ele>
        <time>2013-10-12T12:15:13Z</time>
      </trkpt>
      <trkpt lat="43.39539" lon="6.07944">
        <ele>280.60000610352</ele>
        <time>2013-10-12T12:15:22Z</time>
      </trkpt>
      <trkpt lat="43.39531" lon="6.07947">
        <ele>282</ele>
        <time>2013-10-12T12:15:27Z</time>
      </trkpt>
      <trkpt lat="43.39523" lon="6.0795">
        <ele>282.39999389648</ele>
        <time>2013-10-12T12:15:33Z</time>
      </trkpt>
      <trkpt lat="43.39513" lon="6.07954">
        <ele>284</ele>
        <time>2013-10-12T12:15:39Z</time>
      </trkpt>
      <trkpt lat="43.39502" lon="6.07959">
        <ele>284</ele>
        <time>2013-10-12T12:15:46Z</time>
      </trkpt>
      <trkpt lat="43.39495" lon="6.07961">
        <ele>284</ele>
        <time>2013-10-12T12:15:50Z</time>
      </trkpt>
      <trkpt lat="43.39493" lon="6.07962">
        <ele>284.39999389648</ele>
        <time>2013-10-12T12:15:52Z</time>
      </trkpt>
      <trkpt lat="43.39492" lon="6.07962">
        <ele>284.79998779297</ele>
        <time>2013-10-12T12:15:53Z</time>
      </trkpt>
      <trkpt lat="43.39491" lon="6.07962">
        <ele>286.20001220703</ele>
        <time>2013-10-12T12:15:55Z</time>
      </trkpt>
      <trkpt lat="43.39491" lon="6.07962">
        <ele>286.20001220703</ele>
        <time>2013-10-12T12:16:12Z</time>
      </trkpt>
      <trkpt lat="43.39491" lon="6.07962">
        <ele>286.20001220703</ele>
        <time>2013-10-12T12:16:24Z</time>
      </trkpt>
      <trkpt lat="43.39491" lon="6.07962">
        <ele>286.20001220703</ele>
        <time>2013-10-12T12:16:27Z</time>
      </trkpt>
      <trkpt lat="43.39491" lon="6.07962">
        <ele>286.20001220703</ele>
        <time>2013-10-12T12:16:33Z</time>
      </trkpt>
      <trkpt lat="43.3949" lon="6.07962">
        <ele>286.20001220703</ele>
        <time>2013-10-12T12:16:38Z</time>
      </trkpt>
      <trkpt lat="43.39489" lon="6.07962">
        <ele>286.20001220703</ele>
        <time>2013-10-12T12:16:42Z</time>
      </trkpt>
      <trkpt lat="43.39489" lon="6.07962">
        <ele>286.20001220703</ele>
        <time>2013-10-12T12:16:53Z</time>
      </trkpt>
      <trkpt lat="43.39489" lon="6.07962">
        <ele>286.20001220703</ele>
        <time>2013-10-12T12:17:04Z</time>
      </trkpt>
      <trkpt lat="43.39488" lon="6.07961">
        <ele>286.20001220703</ele>
        <time>2013-10-12T12:17:06Z</time>
      </trkpt>
      <trkpt lat="43.39484" lon="6.0796">
        <ele>286.20001220703</ele>
        <time>2013-10-12T12:17:08Z</time>
      </trkpt>
      <trkpt lat="43.3948" lon="6.07956">
        <ele>286.20001220703</ele>
        <time>2013-10-12T12:17:11Z</time>
      </trkpt>
      <trkpt lat="43.39478" lon="6.0795">
        <ele>286.20001220703</ele>
        <time>2013-10-12T12:17:13Z</time>
      </trkpt>
      <trkpt lat="43.3947" lon="6.07926">
        <ele>286.20001220703</ele>
        <time>2013-10-12T12:17:21Z</time>
      </trkpt>
      <trkpt lat="43.39462" lon="6.07903">
        <ele>286.60000610352</ele>
        <time>2013-10-12T12:17:30Z</time>
      </trkpt>
      <trkpt lat="43.39461" lon="6.07898">
        <ele>287.39999389648</ele>
        <time>2013-10-12T12:17:32Z</time>
      </trkpt>
      <trkpt lat="43.3946" lon="6.07895">
        <ele>288</ele>
        <time>2013-10-12T12:17:33Z</time>
      </trkpt>
      <trkpt lat="43.39457" lon="6.07893">
        <ele>288.39999389648</ele>
        <time>2013-10-12T12:17:35Z</time>
      </trkpt>
      <trkpt lat="43.39448" lon="6.07896">
        <ele>288.39999389648</ele>
        <time>2013-10-12T12:17:39Z</time>
      </trkpt>
      <trkpt lat="43.39447" lon="6.07897">
        <ele>288.79998779297</ele>
        <time>2013-10-12T12:17:40Z</time>
      </trkpt>
      <trkpt lat="43.39446" lon="6.07897">
        <ele>289.39999389648</ele>
        <time>2013-10-12T12:17:41Z</time>
      </trkpt>
      <trkpt lat="43.39444" lon="6.07898">
        <ele>290.20001220703</ele>
        <time>2013-10-12T12:17:43Z</time>
      </trkpt>
      <trkpt lat="43.39442" lon="6.07897">
        <ele>290.79998779297</ele>
        <time>2013-10-12T12:17:44Z</time>
      </trkpt>
      <trkpt lat="43.3944" lon="6.07899">
        <ele>291.20001220703</ele>
        <time>2013-10-12T12:17:46Z</time>
      </trkpt>
      <trkpt lat="43.39441" lon="6.07903">
        <ele>292.20001220703</ele>
        <time>2013-10-12T12:17:48Z</time>
      </trkpt>
      <trkpt lat="43.3944" lon="6.07906">
        <ele>293</ele>
        <time>2013-10-12T12:17:50Z</time>
      </trkpt>
      <trkpt lat="43.3944" lon="6.07914">
        <ele>293</ele>
        <time>2013-10-12T12:17:54Z</time>
      </trkpt>
      <trkpt lat="43.39437" lon="6.07925">
        <ele>293</ele>
        <time>2013-10-12T12:17:58Z</time>
      </trkpt>
      <trkpt lat="43.39434" lon="6.07934">
        <ele>293</ele>
        <time>2013-10-12T12:18:01Z</time>
      </trkpt>
      <trkpt lat="43.39424" lon="6.07959">
        <ele>293</ele>
        <time>2013-10-12T12:18:12Z</time>
      </trkpt>
      <trkpt lat="43.39408" lon="6.07966">
        <ele>293</ele>
        <time>2013-10-12T12:18:18Z</time>
      </trkpt>
      <trkpt lat="43.39397" lon="6.07969">
        <ele>293</ele>
        <time>2013-10-12T12:18:23Z</time>
      </trkpt>
      <trkpt lat="43.39392" lon="6.07969">
        <ele>293</ele>
        <time>2013-10-12T12:18:26Z</time>
      </trkpt>
      <trkpt lat="43.39392" lon="6.07968">
        <ele>293</ele>
        <time>2013-10-12T12:18:27Z</time>
      </trkpt>
      <trkpt lat="43.39389" lon="6.07968">
        <ele>293</ele>
        <time>2013-10-12T12:18:29Z</time>
      </trkpt>
      <trkpt lat="43.39385" lon="6.07968">
        <ele>293</ele>
        <time>2013-10-12T12:18:31Z</time>
      </trkpt>
      <trkpt lat="43.39376" lon="6.07972">
        <ele>293.39999389648</ele>
        <time>2013-10-12T12:18:36Z</time>
      </trkpt>
      <trkpt lat="43.39374" lon="6.07974">
        <ele>293.79998779297</ele>
        <time>2013-10-12T12:18:37Z</time>
      </trkpt>
      <trkpt lat="43.39373" lon="6.07976">
        <ele>294.20001220703</ele>
        <time>2013-10-12T12:18:38Z</time>
      </trkpt>
      <trkpt lat="43.39372" lon="6.07978">
        <ele>294.60000610352</ele>
        <time>2013-10-12T12:18:39Z</time>
      </trkpt>
      <trkpt lat="43.39371" lon="6.07981">
        <ele>295</ele>
        <time>2013-10-12T12:18:40Z</time>
      </trkpt>
      <trkpt lat="43.3937" lon="6.07985">
        <ele>295</ele>
        <time>2013-10-12T12:18:41Z</time>
      </trkpt>
      <trkpt lat="43.39364" lon="6.08001">
        <ele>295</ele>
        <time>2013-10-12T12:18:45Z</time>
      </trkpt>
      <trkpt lat="43.39358" lon="6.08017">
        <ele>295</ele>
        <time>2013-10-12T12:18:50Z</time>
      </trkpt>
      <trkpt lat="43.39357" lon="6.08019">
        <ele>295</ele>
        <time>2013-10-12T12:18:51Z</time>
      </trkpt>
      <trkpt lat="43.39355" lon="6.0802">
        <ele>295</ele>
        <time>2013-10-12T12:18:55Z</time>
      </trkpt>
      <trkpt lat="43.39355" lon="6.0802">
        <ele>295</ele>
        <time>2013-10-12T12:19:06Z</time>
      </trkpt>
      <trkpt lat="43.39355" lon="6.0802">
        <ele>295</ele>
        <time>2013-10-12T12:19:16Z</time>
      </trkpt>
      <trkpt lat="43.39355" lon="6.08019">
        <ele>295</ele>
        <time>2013-10-12T12:19:17Z</time>
      </trkpt>
      <trkpt lat="43.39353" lon="6.08022">
        <ele>295</ele>
        <time>2013-10-12T12:19:21Z</time>
      </trkpt>
      <trkpt lat="43.39352" lon="6.08028">
        <ele>295</ele>
        <time>2013-10-12T12:19:24Z</time>
      </trkpt>
      <trkpt lat="43.39349" lon="6.08032">
        <ele>295</ele>
        <time>2013-10-12T12:19:26Z</time>
      </trkpt>
      <trkpt lat="43.39342" lon="6.08037">
        <ele>295</ele>
        <time>2013-10-12T12:19:29Z</time>
      </trkpt>
      <trkpt lat="43.39339" lon="6.0804">
        <ele>295</ele>
        <time>2013-10-12T12:19:31Z</time>
      </trkpt>
      <trkpt lat="43.39337" lon="6.08041">
        <ele>295</ele>
        <time>2013-10-12T12:19:32Z</time>
      </trkpt>
      <trkpt lat="43.39336" lon="6.08044">
        <ele>295</ele>
        <time>2013-10-12T12:19:33Z</time>
      </trkpt>
      <trkpt lat="43.39333" lon="6.08049">
        <ele>295</ele>
        <time>2013-10-12T12:19:35Z</time>
      </trkpt>
      <trkpt lat="43.39332" lon="6.08051">
        <ele>295</ele>
        <time>2013-10-12T12:19:36Z</time>
      </trkpt>
      <trkpt lat="43.39324" lon="6.08062">
        <ele>295</ele>
        <time>2013-10-12T12:19:42Z</time>
      </trkpt>
      <trkpt lat="43.39324" lon="6.08066">
        <ele>295</ele>
        <time>2013-10-12T12:19:45Z</time>
      </trkpt>
      <trkpt lat="43.39322" lon="6.0807">
        <ele>295</ele>
        <time>2013-10-12T12:19:47Z</time>
      </trkpt>
      <trkpt lat="43.39318" lon="6.08076">
        <ele>295</ele>
        <time>2013-10-12T12:19:50Z</time>
      </trkpt>
      <trkpt lat="43.39314" lon="6.08082">
        <ele>295</ele>
        <time>2013-10-12T12:19:53Z</time>
      </trkpt>
      <trkpt lat="43.39309" lon="6.08089">
        <ele>295.39999389648</ele>
        <time>2013-10-12T12:19:57Z</time>
      </trkpt>
      <trkpt lat="43.39301" lon="6.08101">
        <ele>297.20001220703</ele>
        <time>2013-10-12T12:20:04Z</time>
      </trkpt>
      <trkpt lat="43.39296" lon="6.08109">
        <ele>297.20001220703</ele>
        <time>2013-10-12T12:20:08Z</time>
      </trkpt>
      <trkpt lat="43.3929" lon="6.08125">
        <ele>297.20001220703</ele>
        <time>2013-10-12T12:20:15Z</time>
      </trkpt>
      <trkpt lat="43.39288" lon="6.08129">
        <ele>298</ele>
        <time>2013-10-12T12:20:17Z</time>
      </trkpt>
      <trkpt lat="43.39288" lon="6.08131">
        <ele>298.39999389648</ele>
        <time>2013-10-12T12:20:18Z</time>
      </trkpt>
      <trkpt lat="43.39288" lon="6.08133">
        <ele>298.79998779297</ele>
        <time>2013-10-12T12:20:19Z</time>
      </trkpt>
      <trkpt lat="43.39286" lon="6.08137">
        <ele>299.20001220703</ele>
        <time>2013-10-12T12:20:21Z</time>
      </trkpt>
      <trkpt lat="43.39285" lon="6.08144">
        <ele>299.20001220703</ele>
        <time>2013-10-12T12:20:24Z</time>
      </trkpt>
      <trkpt lat="43.39286" lon="6.08147">
        <ele>299.20001220703</ele>
        <time>2013-10-12T12:20:26Z</time>
      </trkpt>
      <trkpt lat="43.39286" lon="6.08148">
        <ele>299.20001220703</ele>
        <time>2013-10-12T12:20:30Z</time>
      </trkpt>
      <trkpt lat="43.39286" lon="6.08152">
        <ele>299.20001220703</ele>
        <time>2013-10-12T12:20:33Z</time>
      </trkpt>
      <trkpt lat="43.39284" lon="6.08157">
        <ele>299.60000610352</ele>
        <time>2013-10-12T12:20:35Z</time>
      </trkpt>
      <trkpt lat="43.39281" lon="6.08165">
        <ele>301.20001220703</ele>
        <time>2013-10-12T12:20:39Z</time>
      </trkpt>
      <trkpt lat="43.3928" lon="6.08169">
        <ele>301.20001220703</ele>
        <time>2013-10-12T12:20:41Z</time>
      </trkpt>
      <trkpt lat="43.39278" lon="6.08171">
        <ele>301.20001220703</ele>
        <time>2013-10-12T12:20:42Z</time>
      </trkpt>
      <trkpt lat="43.39278" lon="6.08174">
        <ele>301.20001220703</ele>
        <time>2013-10-12T12:20:45Z</time>
      </trkpt>
      <trkpt lat="43.39277" lon="6.08183">
        <ele>301.20001220703</ele>
        <time>2013-10-12T12:20:49Z</time>
      </trkpt>
      <trkpt lat="43.39274" lon="6.08186">
        <ele>301.60000610352</ele>
        <time>2013-10-12T12:20:51Z</time>
      </trkpt>
      <trkpt lat="43.39274" lon="6.08186">
        <ele>302.20001220703</ele>
        <time>2013-10-12T12:20:52Z</time>
      </trkpt>
      <trkpt lat="43.39274" lon="6.08186">
        <ele>302.60000610352</ele>
        <time>2013-10-12T12:20:53Z</time>
      </trkpt>
      <trkpt lat="43.39274" lon="6.08186">
        <ele>303.39999389648</ele>
        <time>2013-10-12T12:20:55Z</time>
      </trkpt>
      <trkpt lat="43.39273" lon="6.0819">
        <ele>303.39999389648</ele>
        <time>2013-10-12T12:21:00Z</time>
      </trkpt>
      <trkpt lat="43.39273" lon="6.08191">
        <ele>303.39999389648</ele>
        <time>2013-10-12T12:21:02Z</time>
      </trkpt>
      <trkpt lat="43.39273" lon="6.08193">
        <ele>303.39999389648</ele>
        <time>2013-10-12T12:21:07Z</time>
      </trkpt>
      <trkpt lat="43.39273" lon="6.08194">
        <ele>303.39999389648</ele>
        <time>2013-10-12T12:21:13Z</time>
      </trkpt>
      <trkpt lat="43.39273" lon="6.08194">
        <ele>303.39999389648</ele>
        <time>2013-10-12T12:21:24Z</time>
      </trkpt>
      <trkpt lat="43.39273" lon="6.08194">
        <ele>303.39999389648</ele>
        <time>2013-10-12T12:21:36Z</time>
      </trkpt>
      <trkpt lat="43.39273" lon="6.08203">
        <ele>303.39999389648</ele>
        <time>2013-10-12T12:21:41Z</time>
      </trkpt>
      <trkpt lat="43.3927" lon="6.08221">
        <ele>303.39999389648</ele>
        <time>2013-10-12T12:21:48Z</time>
      </trkpt>
      <trkpt lat="43.3927" lon="6.08226">
        <ele>304.20001220703</ele>
        <time>2013-10-12T12:21:50Z</time>
      </trkpt>
      <trkpt lat="43.39269" lon="6.08228">
        <ele>304.60000610352</ele>
        <time>2013-10-12T12:21:51Z</time>
      </trkpt>
      <trkpt lat="43.39267" lon="6.08232">
        <ele>305.39999389648</ele>
        <time>2013-10-12T12:21:53Z</time>
      </trkpt>
      <trkpt lat="43.39264" lon="6.08257">
        <ele>307.39999389648</ele>
        <time>2013-10-12T12:22:04Z</time>
      </trkpt>
      <trkpt lat="43.3926" lon="6.08264">
        <ele>307.39999389648</ele>
        <time>2013-10-12T12:22:08Z</time>
      </trkpt>
      <trkpt lat="43.39257" lon="6.08267">
        <ele>307.39999389648</ele>
        <time>2013-10-12T12:22:10Z</time>
      </trkpt>
      <trkpt lat="43.39252" lon="6.08272">
        <ele>308</ele>
        <time>2013-10-12T12:22:14Z</time>
      </trkpt>
      <trkpt lat="43.39249" lon="6.08274">
        <ele>308.79998779297</ele>
        <time>2013-10-12T12:22:16Z</time>
      </trkpt>
      <trkpt lat="43.39246" lon="6.08277">
        <ele>309.60000610352</ele>
        <time>2013-10-12T12:22:18Z</time>
      </trkpt>
      <trkpt lat="43.39241" lon="6.08286">
        <ele>309.60000610352</ele>
        <time>2013-10-12T12:22:27Z</time>
      </trkpt>
      <trkpt lat="43.39241" lon="6.08288">
        <ele>309.60000610352</ele>
        <time>2013-10-12T12:22:32Z</time>
      </trkpt>
      <trkpt lat="43.39236" lon="6.08299">
        <ele>310</ele>
        <time>2013-10-12T12:22:38Z</time>
      </trkpt>
      <trkpt lat="43.39235" lon="6.08301">
        <ele>310.39999389648</ele>
        <time>2013-10-12T12:22:39Z</time>
      </trkpt>
      <trkpt lat="43.39234" lon="6.08302">
        <ele>310.79998779297</ele>
        <time>2013-10-12T12:22:40Z</time>
      </trkpt>
      <trkpt lat="43.39233" lon="6.08305">
        <ele>311.20001220703</ele>
        <time>2013-10-12T12:22:41Z</time>
      </trkpt>
      <trkpt lat="43.39233" lon="6.08308">
        <ele>311.60000610352</ele>
        <time>2013-10-12T12:22:42Z</time>
      </trkpt>
      <trkpt lat="43.39231" lon="6.08314">
        <ele>311.60000610352</ele>
        <time>2013-10-12T12:22:46Z</time>
      </trkpt>
      <trkpt lat="43.39229" lon="6.08315">
        <ele>312</ele>
        <time>2013-10-12T12:22:47Z</time>
      </trkpt>
      <trkpt lat="43.39228" lon="6.08316">
        <ele>312.39999389648</ele>
        <time>2013-10-12T12:22:48Z</time>
      </trkpt>
      <trkpt lat="43.39228" lon="6.08316">
        <ele>312.79998779297</ele>
        <time>2013-10-12T12:22:49Z</time>
      </trkpt>
      <trkpt lat="43.39228" lon="6.08316">
        <ele>313.60000610352</ele>
        <time>2013-10-12T12:22:52Z</time>
      </trkpt>
      <trkpt lat="43.39228" lon="6.08316">
        <ele>313.60000610352</ele>
        <time>2013-10-12T12:23:04Z</time>
      </trkpt>
      <trkpt lat="43.39228" lon="6.08316">
        <ele>313.60000610352</ele>
        <time>2013-10-12T12:23:13Z</time>
      </trkpt>
      <trkpt lat="43.39228" lon="6.08316">
        <ele>313.60000610352</ele>
        <time>2013-10-12T12:23:21Z</time>
      </trkpt>
      <trkpt lat="43.39227" lon="6.08316">
        <ele>313.60000610352</ele>
        <time>2013-10-12T12:23:26Z</time>
      </trkpt>
      <trkpt lat="43.39225" lon="6.08318">
        <ele>313.60000610352</ele>
        <time>2013-10-12T12:23:28Z</time>
      </trkpt>
      <trkpt lat="43.39223" lon="6.08321">
        <ele>313.60000610352</ele>
        <time>2013-10-12T12:23:29Z</time>
      </trkpt>
      <trkpt lat="43.39223" lon="6.08324">
        <ele>313.60000610352</ele>
        <time>2013-10-12T12:23:32Z</time>
      </trkpt>
      <trkpt lat="43.39222" lon="6.08326">
        <ele>313.60000610352</ele>
        <time>2013-10-12T12:23:37Z</time>
      </trkpt>
      <trkpt lat="43.39222" lon="6.08326">
        <ele>313.60000610352</ele>
        <time>2013-10-12T12:23:44Z</time>
      </trkpt>
      <trkpt lat="43.39222" lon="6.08327">
        <ele>313.60000610352</ele>
        <time>2013-10-12T12:23:47Z</time>
      </trkpt>
      <trkpt lat="43.3922" lon="6.08334">
        <ele>313.60000610352</ele>
        <time>2013-10-12T12:23:50Z</time>
      </trkpt>
      <trkpt lat="43.39219" lon="6.08342">
        <ele>314.20001220703</ele>
        <time>2013-10-12T12:23:53Z</time>
      </trkpt>
      <trkpt lat="43.39219" lon="6.08347">
        <ele>315</ele>
        <time>2013-10-12T12:23:55Z</time>
      </trkpt>
      <trkpt lat="43.39218" lon="6.08351">
        <ele>315.79998779297</ele>
        <time>2013-10-12T12:23:57Z</time>
      </trkpt>
      <trkpt lat="43.39217" lon="6.08358">
        <ele>315.79998779297</ele>
        <time>2013-10-12T12:24:00Z</time>
      </trkpt>
      <trkpt lat="43.39217" lon="6.08365">
        <ele>315.79998779297</ele>
        <time>2013-10-12T12:24:03Z</time>
      </trkpt>
      <trkpt lat="43.39211" lon="6.08382">
        <ele>317</ele>
        <time>2013-10-12T12:24:12Z</time>
      </trkpt>
      <trkpt lat="43.39211" lon="6.08387">
        <ele>317.79998779297</ele>
        <time>2013-10-12T12:24:14Z</time>
      </trkpt>
      <trkpt lat="43.39212" lon="6.08401">
        <ele>317.79998779297</ele>
        <time>2013-10-12T12:24:20Z</time>
      </trkpt>
      <trkpt lat="43.39209" lon="6.08412">
        <ele>318.60000610352</ele>
        <time>2013-10-12T12:24:25Z</time>
      </trkpt>
      <trkpt lat="43.39207" lon="6.08416">
        <ele>319.39999389648</ele>
        <time>2013-10-12T12:24:27Z</time>
      </trkpt>
      <trkpt lat="43.39207" lon="6.08418">
        <ele>319.79998779297</ele>
        <time>2013-10-12T12:24:28Z</time>
      </trkpt>
      <trkpt lat="43.39205" lon="6.08424">
        <ele>320.39999389648</ele>
        <time>2013-10-12T12:24:32Z</time>
      </trkpt>
      <trkpt lat="43.39204" lon="6.08426">
        <ele>321.20001220703</ele>
        <time>2013-10-12T12:24:33Z</time>
      </trkpt>
      <trkpt lat="43.39204" lon="6.08431">
        <ele>322</ele>
        <time>2013-10-12T12:24:35Z</time>
      </trkpt>
      <trkpt lat="43.39204" lon="6.08431">
        <ele>322</ele>
        <time>2013-10-12T12:24:37Z</time>
      </trkpt>
      <trkpt lat="43.39203" lon="6.08433">
        <ele>322</ele>
        <time>2013-10-12T12:24:42Z</time>
      </trkpt>
      <trkpt lat="43.39203" lon="6.08435">
        <ele>322</ele>
        <time>2013-10-12T12:24:43Z</time>
      </trkpt>
      <trkpt lat="43.39204" lon="6.08439">
        <ele>322</ele>
        <time>2013-10-12T12:24:48Z</time>
      </trkpt>
      <trkpt lat="43.39204" lon="6.08439">
        <ele>324.20001220703</ele>
        <time>2013-10-12T12:24:57Z</time>
      </trkpt>
      <trkpt lat="43.39204" lon="6.08441">
        <ele>324.20001220703</ele>
        <time>2013-10-12T12:25:02Z</time>
      </trkpt>
      <trkpt lat="43.39204" lon="6.08441">
        <ele>324.20001220703</ele>
        <time>2013-10-12T12:25:21Z</time>
      </trkpt>
      <trkpt lat="43.39204" lon="6.0844">
        <ele>324.20001220703</ele>
        <time>2013-10-12T12:26:00Z</time>
      </trkpt>
      <trkpt lat="43.39204" lon="6.0844">
        <ele>324.20001220703</ele>
        <time>2013-10-12T12:26:11Z</time>
      </trkpt>
      <trkpt lat="43.39204" lon="6.08442">
        <ele>324.20001220703</ele>
        <time>2013-10-12T12:26:22Z</time>
      </trkpt>
      <trkpt lat="43.39204" lon="6.08444">
        <ele>324.20001220703</ele>
        <time>2013-10-12T12:26:23Z</time>
      </trkpt>
      <trkpt lat="43.39202" lon="6.08453">
        <ele>324.20001220703</ele>
        <time>2013-10-12T12:26:26Z</time>
      </trkpt>
      <trkpt lat="43.392" lon="6.08469">
        <ele>324.20001220703</ele>
        <time>2013-10-12T12:26:32Z</time>
      </trkpt>
      <trkpt lat="43.39198" lon="6.08482">
        <ele>325</ele>
        <time>2013-10-12T12:26:37Z</time>
      </trkpt>
      <trkpt lat="43.39196" lon="6.08488">
        <ele>325.79998779297</ele>
        <time>2013-10-12T12:26:39Z</time>
      </trkpt>
      <trkpt lat="43.39196" lon="6.08494">
        <ele>326.20001220703</ele>
        <time>2013-10-12T12:26:42Z</time>
      </trkpt>
      <trkpt lat="43.39195" lon="6.08499">
        <ele>326.20001220703</ele>
        <time>2013-10-12T12:26:47Z</time>
      </trkpt>
      <trkpt lat="43.39195" lon="6.085">
        <ele>326.20001220703</ele>
        <time>2013-10-12T12:26:53Z</time>
      </trkpt>
      <trkpt lat="43.39191" lon="6.08505">
        <ele>326.20001220703</ele>
        <time>2013-10-12T12:26:59Z</time>
      </trkpt>
      <trkpt lat="43.39188" lon="6.08518">
        <ele>326.20001220703</ele>
        <time>2013-10-12T12:27:03Z</time>
      </trkpt>
      <trkpt lat="43.39181" lon="6.08544">
        <ele>326.20001220703</ele>
        <time>2013-10-12T12:27:09Z</time>
      </trkpt>
      <trkpt lat="43.39175" lon="6.08564">
        <ele>326.20001220703</ele>
        <time>2013-10-12T12:27:13Z</time>
      </trkpt>
      <trkpt lat="43.39172" lon="6.08575">
        <ele>325.39999389648</ele>
        <time>2013-10-12T12:27:15Z</time>
      </trkpt>
      <trkpt lat="43.39171" lon="6.08581">
        <ele>325</ele>
        <time>2013-10-12T12:27:16Z</time>
      </trkpt>
      <trkpt lat="43.39169" lon="6.08593">
        <ele>324.20001220703</ele>
        <time>2013-10-12T12:27:18Z</time>
      </trkpt>
      <trkpt lat="43.39168" lon="6.08599">
        <ele>324.20001220703</ele>
        <time>2013-10-12T12:27:19Z</time>
      </trkpt>
      <trkpt lat="43.39161" lon="6.08622">
        <ele>324.20001220703</ele>
        <time>2013-10-12T12:27:23Z</time>
      </trkpt>
      <trkpt lat="43.39156" lon="6.08638">
        <ele>324.20001220703</ele>
        <time>2013-10-12T12:27:26Z</time>
      </trkpt>
      <trkpt lat="43.39155" lon="6.08644">
        <ele>324.20001220703</ele>
        <time>2013-10-12T12:27:27Z</time>
      </trkpt>
      <trkpt lat="43.39151" lon="6.08666">
        <ele>324.20001220703</ele>
        <time>2013-10-12T12:27:31Z</time>
      </trkpt>
      <trkpt lat="43.39147" lon="6.08694">
        <ele>324.20001220703</ele>
        <time>2013-10-12T12:27:36Z</time>
      </trkpt>
      <trkpt lat="43.39146" lon="6.0871">
        <ele>324.20001220703</ele>
        <time>2013-10-12T12:27:39Z</time>
      </trkpt>
      <trkpt lat="43.39141" lon="6.08735">
        <ele>324.20001220703</ele>
        <time>2013-10-12T12:27:44Z</time>
      </trkpt>
      <trkpt lat="43.39138" lon="6.08751">
        <ele>324.20001220703</ele>
        <time>2013-10-12T12:27:47Z</time>
      </trkpt>
      <trkpt lat="43.39136" lon="6.08761">
        <ele>324.20001220703</ele>
        <time>2013-10-12T12:27:49Z</time>
      </trkpt>
      <trkpt lat="43.39125" lon="6.088">
        <ele>326.60000610352</ele>
        <time>2013-10-12T12:27:57Z</time>
      </trkpt>
      <trkpt lat="43.39122" lon="6.08809">
        <ele>327.20001220703</ele>
        <time>2013-10-12T12:27:59Z</time>
      </trkpt>
      <trkpt lat="43.39118" lon="6.08834">
        <ele>327.20001220703</ele>
        <time>2013-10-12T12:28:04Z</time>
      </trkpt>
      <trkpt lat="43.39113" lon="6.08854">
        <ele>327.20001220703</ele>
        <time>2013-10-12T12:28:08Z</time>
      </trkpt>
      <trkpt lat="43.39106" lon="6.08875">
        <ele>327.20001220703</ele>
        <time>2013-10-12T12:28:13Z</time>
      </trkpt>
      <trkpt lat="43.39103" lon="6.08895">
        <ele>327.20001220703</ele>
        <time>2013-10-12T12:28:18Z</time>
      </trkpt>
      <trkpt lat="43.39098" lon="6.08919">
        <ele>327.20001220703</ele>
        <time>2013-10-12T12:28:24Z</time>
      </trkpt>
      <trkpt lat="43.39093" lon="6.0894">
        <ele>327.20001220703</ele>
        <time>2013-10-12T12:28:29Z</time>
      </trkpt>
      <trkpt lat="43.39088" lon="6.08961">
        <ele>327.20001220703</ele>
        <time>2013-10-12T12:28:35Z</time>
      </trkpt>
      <trkpt lat="43.39078" lon="6.08987">
        <ele>327.60000610352</ele>
        <time>2013-10-12T12:28:42Z</time>
      </trkpt>
      <trkpt lat="43.39076" lon="6.08994">
        <ele>328.39999389648</ele>
        <time>2013-10-12T12:28:44Z</time>
      </trkpt>
      <trkpt lat="43.39075" lon="6.08997">
        <ele>329</ele>
        <time>2013-10-12T12:28:45Z</time>
      </trkpt>
      <trkpt lat="43.39066" lon="6.09016">
        <ele>329.39999389648</ele>
        <time>2013-10-12T12:28:51Z</time>
      </trkpt>
      <trkpt lat="43.39057" lon="6.09037">
        <ele>329.39999389648</ele>
        <time>2013-10-12T12:28:57Z</time>
      </trkpt>
      <trkpt lat="43.39048" lon="6.09055">
        <ele>329.39999389648</ele>
        <time>2013-10-12T12:29:03Z</time>
      </trkpt>
      <trkpt lat="43.3904" lon="6.09076">
        <ele>329.39999389648</ele>
        <time>2013-10-12T12:29:09Z</time>
      </trkpt>
      <trkpt lat="43.3903" lon="6.09101">
        <ele>331.60000610352</ele>
        <time>2013-10-12T12:29:16Z</time>
      </trkpt>
      <trkpt lat="43.39025" lon="6.09115">
        <ele>331.60000610352</ele>
        <time>2013-10-12T12:29:21Z</time>
      </trkpt>
      <trkpt lat="43.39017" lon="6.09154">
        <ele>331.60000610352</ele>
        <time>2013-10-12T12:29:31Z</time>
      </trkpt>
      <trkpt lat="43.39011" lon="6.09177">
        <ele>333</ele>
        <time>2013-10-12T12:29:38Z</time>
      </trkpt>
      <trkpt lat="43.39008" lon="6.09196">
        <ele>333.79998779297</ele>
        <time>2013-10-12T12:29:43Z</time>
      </trkpt>
      <trkpt lat="43.39003" lon="6.0922">
        <ele>333.79998779297</ele>
        <time>2013-10-12T12:29:49Z</time>
      </trkpt>
      <trkpt lat="43.39" lon="6.09235">
        <ele>333.79998779297</ele>
        <time>2013-10-12T12:29:53Z</time>
      </trkpt>
      <trkpt lat="43.38999" lon="6.09242">
        <ele>333.79998779297</ele>
        <time>2013-10-12T12:29:55Z</time>
      </trkpt>
      <trkpt lat="43.38993" lon="6.09257">
        <ele>333.79998779297</ele>
        <time>2013-10-12T12:30:00Z</time>
      </trkpt>
      <trkpt lat="43.38986" lon="6.09279">
        <ele>333.79998779297</ele>
        <time>2013-10-12T12:30:07Z</time>
      </trkpt>
      <trkpt lat="43.3898" lon="6.09291">
        <ele>333.79998779297</ele>
        <time>2013-10-12T12:30:12Z</time>
      </trkpt>
      <trkpt lat="43.38973" lon="6.09306">
        <ele>333.79998779297</ele>
        <time>2013-10-12T12:30:18Z</time>
      </trkpt>
      <trkpt lat="43.38966" lon="6.09316">
        <ele>335.79998779297</ele>
        <time>2013-10-12T12:30:22Z</time>
      </trkpt>
      <trkpt lat="43.38963" lon="6.0932">
        <ele>335.79998779297</ele>
        <time>2013-10-12T12:30:24Z</time>
      </trkpt>
      <trkpt lat="43.38958" lon="6.09333">
        <ele>335.79998779297</ele>
        <time>2013-10-12T12:30:29Z</time>
      </trkpt>
      <trkpt lat="43.38951" lon="6.09341">
        <ele>335.79998779297</ele>
        <time>2013-10-12T12:30:34Z</time>
      </trkpt>
      <trkpt lat="43.38942" lon="6.09351">
        <ele>335.79998779297</ele>
        <time>2013-10-12T12:30:40Z</time>
      </trkpt>
      <trkpt lat="43.38929" lon="6.09365">
        <ele>335.79998779297</ele>
        <time>2013-10-12T12:30:46Z</time>
      </trkpt>
      <trkpt lat="43.38916" lon="6.09377">
        <ele>336.79998779297</ele>
        <time>2013-10-12T12:30:53Z</time>
      </trkpt>
      <trkpt lat="43.38913" lon="6.09383">
        <ele>338</ele>
        <time>2013-10-12T12:30:56Z</time>
      </trkpt>
      <trkpt lat="43.38911" lon="6.09387">
        <ele>338</ele>
        <time>2013-10-12T12:30:58Z</time>
      </trkpt>
      <trkpt lat="43.38906" lon="6.09393">
        <ele>338.39999389648</ele>
        <time>2013-10-12T12:31:01Z</time>
      </trkpt>
      <trkpt lat="43.38898" lon="6.09401">
        <ele>340</ele>
        <time>2013-10-12T12:31:05Z</time>
      </trkpt>
      <trkpt lat="43.38894" lon="6.09407">
        <ele>340</ele>
        <time>2013-10-12T12:31:08Z</time>
      </trkpt>
      <trkpt lat="43.38893" lon="6.09411">
        <ele>340.39999389648</ele>
        <time>2013-10-12T12:31:10Z</time>
      </trkpt>
      <trkpt lat="43.38892" lon="6.09415">
        <ele>341</ele>
        <time>2013-10-12T12:31:11Z</time>
      </trkpt>
      <trkpt lat="43.38891" lon="6.09418">
        <ele>341.39999389648</ele>
        <time>2013-10-12T12:31:12Z</time>
      </trkpt>
      <trkpt lat="43.38887" lon="6.0942">
        <ele>342.20001220703</ele>
        <time>2013-10-12T12:31:14Z</time>
      </trkpt>
      <trkpt lat="43.38885" lon="6.09419">
        <ele>342.20001220703</ele>
        <time>2013-10-12T12:31:16Z</time>
      </trkpt>
      <trkpt lat="43.38884" lon="6.09419">
        <ele>342.20001220703</ele>
        <time>2013-10-12T12:31:24Z</time>
      </trkpt>
      <trkpt lat="43.38884" lon="6.09423">
        <ele>342.20001220703</ele>
        <time>2013-10-12T12:31:30Z</time>
      </trkpt>
      <trkpt lat="43.38884" lon="6.09423">
        <ele>342.20001220703</ele>
        <time>2013-10-12T12:31:37Z</time>
      </trkpt>
      <trkpt lat="43.38883" lon="6.09424">
        <ele>342.20001220703</ele>
        <time>2013-10-12T12:31:40Z</time>
      </trkpt>
      <trkpt lat="43.38883" lon="6.09424">
        <ele>342.20001220703</ele>
        <time>2013-10-12T12:31:46Z</time>
      </trkpt>
      <trkpt lat="43.38883" lon="6.09425">
        <ele>342.20001220703</ele>
        <time>2013-10-12T12:31:53Z</time>
      </trkpt>
      <trkpt lat="43.38883" lon="6.09425">
        <ele>343.79998779297</ele>
        <time>2013-10-12T12:32:04Z</time>
      </trkpt>
      <trkpt lat="43.38883" lon="6.09425">
        <ele>344.20001220703</ele>
        <time>2013-10-12T12:32:10Z</time>
      </trkpt>
      <trkpt lat="43.38884" lon="6.09425">
        <ele>344.20001220703</ele>
        <time>2013-10-12T12:32:18Z</time>
      </trkpt>
      <trkpt lat="43.38882" lon="6.09429">
        <ele>344.20001220703</ele>
        <time>2013-10-12T12:32:24Z</time>
      </trkpt>
      <trkpt lat="43.38882" lon="6.09429">
        <ele>344.20001220703</ele>
        <time>2013-10-12T12:32:27Z</time>
      </trkpt>
      <trkpt lat="43.38882" lon="6.09429">
        <ele>344.20001220703</ele>
        <time>2013-10-12T12:32:32Z</time>
      </trkpt>
      <trkpt lat="43.38881" lon="6.09431">
        <ele>344.20001220703</ele>
        <time>2013-10-12T12:32:40Z</time>
      </trkpt>
      <trkpt lat="43.38881" lon="6.09431">
        <ele>344.20001220703</ele>
        <time>2013-10-12T12:32:51Z</time>
      </trkpt>
      <trkpt lat="43.38881" lon="6.09431">
        <ele>344.20001220703</ele>
        <time>2013-10-12T12:33:01Z</time>
      </trkpt>
      <trkpt lat="43.38881" lon="6.09432">
        <ele>344.20001220703</ele>
        <time>2013-10-12T12:33:06Z</time>
      </trkpt>
      <trkpt lat="43.38879" lon="6.09432">
        <ele>344.20001220703</ele>
        <time>2013-10-12T12:33:08Z</time>
      </trkpt>
      <trkpt lat="43.38874" lon="6.09434">
        <ele>344.20001220703</ele>
        <time>2013-10-12T12:33:11Z</time>
      </trkpt>
      <trkpt lat="43.38872" lon="6.09432">
        <ele>344.20001220703</ele>
        <time>2013-10-12T12:33:13Z</time>
      </trkpt>
      <trkpt lat="43.38872" lon="6.09432">
        <ele>344.20001220703</ele>
        <time>2013-10-12T12:33:17Z</time>
      </trkpt>
      <trkpt lat="43.38871" lon="6.09432">
        <ele>344.20001220703</ele>
        <time>2013-10-12T12:33:25Z</time>
      </trkpt>
      <trkpt lat="43.38871" lon="6.09432">
        <ele>344.20001220703</ele>
        <time>2013-10-12T12:33:46Z</time>
      </trkpt>
      <trkpt lat="43.38871" lon="6.09432">
        <ele>344.20001220703</ele>
        <time>2013-10-12T12:33:57Z</time>
      </trkpt>
      <trkpt lat="43.38871" lon="6.09432">
        <ele>344.20001220703</ele>
        <time>2013-10-12T12:34:08Z</time>
      </trkpt>
      <trkpt lat="43.38871" lon="6.09432">
        <ele>344.20001220703</ele>
        <time>2013-10-12T12:34:30Z</time>
      </trkpt>
      <trkpt lat="43.38871" lon="6.09432">
        <ele>344.20001220703</ele>
        <time>2013-10-12T12:34:44Z</time>
      </trkpt>
      <trkpt lat="43.3887" lon="6.09432">
        <ele>344.20001220703</ele>
        <time>2013-10-12T12:34:50Z</time>
      </trkpt>
      <trkpt lat="43.3887" lon="6.09432">
        <ele>344.20001220703</ele>
        <time>2013-10-12T12:35:08Z</time>
      </trkpt>
      <trkpt lat="43.3887" lon="6.09432">
        <ele>344.20001220703</ele>
        <time>2013-10-12T12:35:27Z</time>
      </trkpt>
      <trkpt lat="43.3887" lon="6.09432">
        <ele>344.20001220703</ele>
        <time>2013-10-12T12:35:31Z</time>
      </trkpt>
      <trkpt lat="43.38869" lon="6.09432">
        <ele>344.20001220703</ele>
        <time>2013-10-12T12:35:38Z</time>
      </trkpt>
      <trkpt lat="43.38867" lon="6.0943">
        <ele>344.20001220703</ele>
        <time>2013-10-12T12:35:39Z</time>
      </trkpt>
      <trkpt lat="43.38859" lon="6.09416">
        <ele>343.79998779297</ele>
        <time>2013-10-12T12:35:43Z</time>
      </trkpt>
      <trkpt lat="43.38857" lon="6.09413">
        <ele>343.39999389648</ele>
        <time>2013-10-12T12:35:44Z</time>
      </trkpt>
      <trkpt lat="43.38855" lon="6.0941">
        <ele>343</ele>
        <time>2013-10-12T12:35:45Z</time>
      </trkpt>
      <trkpt lat="43.3885" lon="6.09404">
        <ele>342.20001220703</ele>
        <time>2013-10-12T12:35:47Z</time>
      </trkpt>
      <trkpt lat="43.38844" lon="6.09393">
        <ele>341.79998779297</ele>
        <time>2013-10-12T12:35:51Z</time>
      </trkpt>
      <trkpt lat="43.38843" lon="6.0939">
        <ele>341.39999389648</ele>
        <time>2013-10-12T12:35:52Z</time>
      </trkpt>
      <trkpt lat="43.38839" lon="6.09394">
        <ele>340.39999389648</ele>
        <time>2013-10-12T12:35:54Z</time>
      </trkpt>
      <trkpt lat="43.38839" lon="6.09395">
        <ele>339.60000610352</ele>
        <time>2013-10-12T12:35:55Z</time>
      </trkpt>
      <trkpt lat="43.38835" lon="6.09408">
        <ele>336.60000610352</ele>
        <time>2013-10-12T12:35:59Z</time>
      </trkpt>
      <trkpt lat="43.38832" lon="6.0942">
        <ele>336.20001220703</ele>
        <time>2013-10-12T12:36:03Z</time>
      </trkpt>
      <trkpt lat="43.38831" lon="6.09422">
        <ele>335.39999389648</ele>
        <time>2013-10-12T12:36:04Z</time>
      </trkpt>
      <trkpt lat="43.38831" lon="6.09423">
        <ele>335</ele>
        <time>2013-10-12T12:36:05Z</time>
      </trkpt>
      <trkpt lat="43.38831" lon="6.09424">
        <ele>334.60000610352</ele>
        <time>2013-10-12T12:36:06Z</time>
      </trkpt>
      <trkpt lat="43.38831" lon="6.09424">
        <ele>334.60000610352</ele>
        <time>2013-10-12T12:36:08Z</time>
      </trkpt>
      <trkpt lat="43.38831" lon="6.09424">
        <ele>333.60000610352</ele>
        <time>2013-10-12T12:36:16Z</time>
      </trkpt>
      <trkpt lat="43.38829" lon="6.09426">
        <ele>332</ele>
        <time>2013-10-12T12:36:21Z</time>
      </trkpt>
      <trkpt lat="43.38828" lon="6.09425">
        <ele>332</ele>
        <time>2013-10-12T12:36:22Z</time>
      </trkpt>
      <trkpt lat="43.38827" lon="6.09425">
        <ele>332</ele>
        <time>2013-10-12T12:36:25Z</time>
      </trkpt>
      <trkpt lat="43.38827" lon="6.09425">
        <ele>332</ele>
        <time>2013-10-12T12:36:29Z</time>
      </trkpt>
      <trkpt lat="43.38824" lon="6.09421">
        <ele>332</ele>
        <time>2013-10-12T12:36:47Z</time>
      </trkpt>
      <trkpt lat="43.38815" lon="6.09407">
        <ele>331.60000610352</ele>
        <time>2013-10-12T12:36:50Z</time>
      </trkpt>
      <trkpt lat="43.38813" lon="6.09403">
        <ele>331.20001220703</ele>
        <time>2013-10-12T12:36:51Z</time>
      </trkpt>
      <trkpt lat="43.38812" lon="6.09398">
        <ele>330.60000610352</ele>
        <time>2013-10-12T12:36:52Z</time>
      </trkpt>
      <trkpt lat="43.38811" lon="6.09395">
        <ele>329.39999389648</ele>
        <time>2013-10-12T12:36:53Z</time>
      </trkpt>
      <trkpt lat="43.38809" lon="6.09391">
        <ele>328.79998779297</ele>
        <time>2013-10-12T12:36:54Z</time>
      </trkpt>
      <trkpt lat="43.38806" lon="6.09386">
        <ele>328.20001220703</ele>
        <time>2013-10-12T12:36:55Z</time>
      </trkpt>
      <trkpt lat="43.38801" lon="6.0938">
        <ele>327.60000610352</ele>
        <time>2013-10-12T12:36:56Z</time>
      </trkpt>
      <trkpt lat="43.38795" lon="6.09375">
        <ele>327.20001220703</ele>
        <time>2013-10-12T12:36:57Z</time>
      </trkpt>
      <trkpt lat="43.38784" lon="6.09363">
        <ele>326.20001220703</ele>
        <time>2013-10-12T12:36:59Z</time>
      </trkpt>
      <trkpt lat="43.38778" lon="6.09358">
        <ele>325.60000610352</ele>
        <time>2013-10-12T12:37:00Z</time>
      </trkpt>
      <trkpt lat="43.38773" lon="6.09354">
        <ele>324.79998779297</ele>
        <time>2013-10-12T12:37:01Z</time>
      </trkpt>
      <trkpt lat="43.38766" lon="6.09351">
        <ele>323.79998779297</ele>
        <time>2013-10-12T12:37:02Z</time>
      </trkpt>
      <trkpt lat="43.38759" lon="6.09347">
        <ele>322.79998779297</ele>
        <time>2013-10-12T12:37:03Z</time>
      </trkpt>
      <trkpt lat="43.38752" lon="6.09344">
        <ele>321.79998779297</ele>
        <time>2013-10-12T12:37:04Z</time>
      </trkpt>
      <trkpt lat="43.38746" lon="6.09341">
        <ele>320.60000610352</ele>
        <time>2013-10-12T12:37:05Z</time>
      </trkpt>
      <trkpt lat="43.38739" lon="6.0934">
        <ele>319.39999389648</ele>
        <time>2013-10-12T12:37:06Z</time>
      </trkpt>
      <trkpt lat="43.38731" lon="6.09338">
        <ele>318.20001220703</ele>
        <time>2013-10-12T12:37:07Z</time>
      </trkpt>
      <trkpt lat="43.38724" lon="6.09335">
        <ele>316.79998779297</ele>
        <time>2013-10-12T12:37:08Z</time>
      </trkpt>
      <trkpt lat="43.38717" lon="6.09331">
        <ele>315.60000610352</ele>
        <time>2013-10-12T12:37:09Z</time>
      </trkpt>
      <trkpt lat="43.38709" lon="6.09325">
        <ele>314.20001220703</ele>
        <time>2013-10-12T12:37:10Z</time>
      </trkpt>
      <trkpt lat="43.38701" lon="6.09319">
        <ele>312.79998779297</ele>
        <time>2013-10-12T12:37:11Z</time>
      </trkpt>
      <trkpt lat="43.38695" lon="6.09313">
        <ele>311.39999389648</ele>
        <time>2013-10-12T12:37:12Z</time>
      </trkpt>
      <trkpt lat="43.38689" lon="6.09308">
        <ele>309.79998779297</ele>
        <time>2013-10-12T12:37:13Z</time>
      </trkpt>
      <trkpt lat="43.38685" lon="6.09304">
        <ele>308.60000610352</ele>
        <time>2013-10-12T12:37:14Z</time>
      </trkpt>
      <trkpt lat="43.38681" lon="6.09301">
        <ele>307.20001220703</ele>
        <time>2013-10-12T12:37:15Z</time>
      </trkpt>
      <trkpt lat="43.38678" lon="6.09299">
        <ele>305.79998779297</ele>
        <time>2013-10-12T12:37:16Z</time>
      </trkpt>
      <trkpt lat="43.38676" lon="6.09301">
        <ele>304.60000610352</ele>
        <time>2013-10-12T12:37:17Z</time>
      </trkpt>
      <trkpt lat="43.38675" lon="6.09305">
        <ele>303.39999389648</ele>
        <time>2013-10-12T12:37:18Z</time>
      </trkpt>
      <trkpt lat="43.38673" lon="6.09308">
        <ele>301</ele>
        <time>2013-10-12T12:37:19Z</time>
      </trkpt>
      <trkpt lat="43.38671" lon="6.0931">
        <ele>299.79998779297</ele>
        <time>2013-10-12T12:37:20Z</time>
      </trkpt>
      <trkpt lat="43.3867" lon="6.09313">
        <ele>298.60000610352</ele>
        <time>2013-10-12T12:37:21Z</time>
      </trkpt>
      <trkpt lat="43.3867" lon="6.09317">
        <ele>298.20001220703</ele>
        <time>2013-10-12T12:37:22Z</time>
      </trkpt>
      <trkpt lat="43.38669" lon="6.0932">
        <ele>297.60000610352</ele>
        <time>2013-10-12T12:37:23Z</time>
      </trkpt>
      <trkpt lat="43.38669" lon="6.09323">
        <ele>297.20001220703</ele>
        <time>2013-10-12T12:37:24Z</time>
      </trkpt>
      <trkpt lat="43.38669" lon="6.09326">
        <ele>296.79998779297</ele>
        <time>2013-10-12T12:37:25Z</time>
      </trkpt>
      <trkpt lat="43.38669" lon="6.09329">
        <ele>296.39999389648</ele>
        <time>2013-10-12T12:37:26Z</time>
      </trkpt>
      <trkpt lat="43.3867" lon="6.09338">
        <ele>296.39999389648</ele>
        <time>2013-10-12T12:37:30Z</time>
      </trkpt>
      <trkpt lat="43.38672" lon="6.09355">
        <ele>296.39999389648</ele>
        <time>2013-10-12T12:37:36Z</time>
      </trkpt>
      <trkpt lat="43.38675" lon="6.09367">
        <ele>296.39999389648</ele>
        <time>2013-10-12T12:37:42Z</time>
      </trkpt>
      <trkpt lat="43.38675" lon="6.09369">
        <ele>296.39999389648</ele>
        <time>2013-10-12T12:37:43Z</time>
      </trkpt>
      <trkpt lat="43.38675" lon="6.09369">
        <ele>296.39999389648</ele>
        <time>2013-10-12T12:37:46Z</time>
      </trkpt>
      <trkpt lat="43.38675" lon="6.09369">
        <ele>296.39999389648</ele>
        <time>2013-10-12T12:37:55Z</time>
      </trkpt>
      <trkpt lat="43.38674" lon="6.09376">
        <ele>296.39999389648</ele>
        <time>2013-10-12T12:38:02Z</time>
      </trkpt>
      <trkpt lat="43.38673" lon="6.09395">
        <ele>296.39999389648</ele>
        <time>2013-10-12T12:38:07Z</time>
      </trkpt>
      <trkpt lat="43.38672" lon="6.09404">
        <ele>295.79998779297</ele>
        <time>2013-10-12T12:38:09Z</time>
      </trkpt>
      <trkpt lat="43.38671" lon="6.09408">
        <ele>295.39999389648</ele>
        <time>2013-10-12T12:38:10Z</time>
      </trkpt>
      <trkpt lat="43.38672" lon="6.09418">
        <ele>294.60000610352</ele>
        <time>2013-10-12T12:38:12Z</time>
      </trkpt>
      <trkpt lat="43.38672" lon="6.09422">
        <ele>294</ele>
        <time>2013-10-12T12:38:13Z</time>
      </trkpt>
      <trkpt lat="43.38675" lon="6.09439">
        <ele>294</ele>
        <time>2013-10-12T12:38:17Z</time>
      </trkpt>
      <trkpt lat="43.38675" lon="6.09447">
        <ele>294</ele>
        <time>2013-10-12T12:38:19Z</time>
      </trkpt>
      <trkpt lat="43.38675" lon="6.09476">
        <ele>294</ele>
        <time>2013-10-12T12:38:25Z</time>
      </trkpt>
      <trkpt lat="43.3867" lon="6.09507">
        <ele>294</ele>
        <time>2013-10-12T12:38:31Z</time>
      </trkpt>
      <trkpt lat="43.38668" lon="6.09533">
        <ele>294</ele>
        <time>2013-10-12T12:38:35Z</time>
      </trkpt>
      <trkpt lat="43.38669" lon="6.09554">
        <ele>294</ele>
        <time>2013-10-12T12:38:38Z</time>
      </trkpt>
      <trkpt lat="43.3867" lon="6.0957">
        <ele>294</ele>
        <time>2013-10-12T12:38:40Z</time>
      </trkpt>
      <trkpt lat="43.3867" lon="6.09601">
        <ele>294</ele>
        <time>2013-10-12T12:38:44Z</time>
      </trkpt>
      <trkpt lat="43.38666" lon="6.09622">
        <ele>294</ele>
        <time>2013-10-12T12:38:47Z</time>
      </trkpt>
      <trkpt lat="43.3866" lon="6.0965">
        <ele>294</ele>
        <time>2013-10-12T12:38:51Z</time>
      </trkpt>
      <trkpt lat="43.38654" lon="6.09664">
        <ele>293.60000610352</ele>
        <time>2013-10-12T12:38:53Z</time>
      </trkpt>
      <trkpt lat="43.38647" lon="6.09679">
        <ele>292.60000610352</ele>
        <time>2013-10-12T12:38:55Z</time>
      </trkpt>
      <trkpt lat="43.38638" lon="6.09694">
        <ele>291.79998779297</ele>
        <time>2013-10-12T12:38:57Z</time>
      </trkpt>
      <trkpt lat="43.38633" lon="6.09702">
        <ele>290.79998779297</ele>
        <time>2013-10-12T12:38:58Z</time>
      </trkpt>
      <trkpt lat="43.38628" lon="6.0971">
        <ele>290.20001220703</ele>
        <time>2013-10-12T12:38:59Z</time>
      </trkpt>
      <trkpt lat="43.38624" lon="6.09717">
        <ele>289.79998779297</ele>
        <time>2013-10-12T12:39:00Z</time>
      </trkpt>
      <trkpt lat="43.3862" lon="6.09725">
        <ele>289.39999389648</ele>
        <time>2013-10-12T12:39:01Z</time>
      </trkpt>
      <trkpt lat="43.3861" lon="6.09749">
        <ele>289.39999389648</ele>
        <time>2013-10-12T12:39:04Z</time>
      </trkpt>
      <trkpt lat="43.38603" lon="6.09764">
        <ele>288.79998779297</ele>
        <time>2013-10-12T12:39:06Z</time>
      </trkpt>
      <trkpt lat="43.38598" lon="6.09779">
        <ele>288</ele>
        <time>2013-10-12T12:39:08Z</time>
      </trkpt>
      <trkpt lat="43.38594" lon="6.09794">
        <ele>287.20001220703</ele>
        <time>2013-10-12T12:39:10Z</time>
      </trkpt>
      <trkpt lat="43.38592" lon="6.09818">
        <ele>287.20001220703</ele>
        <time>2013-10-12T12:39:14Z</time>
      </trkpt>
      <trkpt lat="43.38592" lon="6.09843">
        <ele>287.20001220703</ele>
        <time>2013-10-12T12:39:19Z</time>
      </trkpt>
      <trkpt lat="43.38593" lon="6.09857">
        <ele>287.60000610352</ele>
        <time>2013-10-12T12:39:22Z</time>
      </trkpt>
      <trkpt lat="43.38593" lon="6.09866">
        <ele>288.79998779297</ele>
        <time>2013-10-12T12:39:24Z</time>
      </trkpt>
      <trkpt lat="43.38593" lon="6.09872">
        <ele>289.20001220703</ele>
        <time>2013-10-12T12:39:25Z</time>
      </trkpt>
      <trkpt lat="43.38594" lon="6.09887">
        <ele>289.60000610352</ele>
        <time>2013-10-12T12:39:28Z</time>
      </trkpt>
      <trkpt lat="43.38596" lon="6.09906">
        <ele>291.39999389648</ele>
        <time>2013-10-12T12:39:32Z</time>
      </trkpt>
      <trkpt lat="43.38597" lon="6.09914">
        <ele>291.79998779297</ele>
        <time>2013-10-12T12:39:34Z</time>
      </trkpt>
      <trkpt lat="43.38601" lon="6.09926">
        <ele>293</ele>
        <time>2013-10-12T12:39:37Z</time>
      </trkpt>
      <trkpt lat="43.38603" lon="6.09929">
        <ele>293.39999389648</ele>
        <time>2013-10-12T12:39:38Z</time>
      </trkpt>
      <trkpt lat="43.38608" lon="6.09936">
        <ele>293.39999389648</ele>
        <time>2013-10-12T12:39:40Z</time>
      </trkpt>
      <trkpt lat="43.3862" lon="6.0995">
        <ele>293.79998779297</ele>
        <time>2013-10-12T12:39:46Z</time>
      </trkpt>
      <trkpt lat="43.38631" lon="6.09961">
        <ele>295.39999389648</ele>
        <time>2013-10-12T12:39:52Z</time>
      </trkpt>
      <trkpt lat="43.38643" lon="6.09973">
        <ele>295.39999389648</ele>
        <time>2013-10-12T12:39:59Z</time>
      </trkpt>
      <trkpt lat="43.38648" lon="6.09978">
        <ele>295.79998779297</ele>
        <time>2013-10-12T12:40:02Z</time>
      </trkpt>
      <trkpt lat="43.38651" lon="6.09981">
        <ele>296.60000610352</ele>
        <time>2013-10-12T12:40:04Z</time>
      </trkpt>
      <trkpt lat="43.38653" lon="6.09982">
        <ele>297</ele>
        <time>2013-10-12T12:40:05Z</time>
      </trkpt>
      <trkpt lat="43.38665" lon="6.0999">
        <ele>297.39999389648</ele>
        <time>2013-10-12T12:40:11Z</time>
      </trkpt>
      <trkpt lat="43.38683" lon="6.10004">
        <ele>297.39999389648</ele>
        <time>2013-10-12T12:40:18Z</time>
      </trkpt>
      <trkpt lat="43.38697" lon="6.10017">
        <ele>297.39999389648</ele>
        <time>2013-10-12T12:40:25Z</time>
      </trkpt>
      <trkpt lat="43.38702" lon="6.10027">
        <ele>298</ele>
        <time>2013-10-12T12:40:28Z</time>
      </trkpt>
      <trkpt lat="43.38705" lon="6.10034">
        <ele>298.79998779297</ele>
        <time>2013-10-12T12:40:30Z</time>
      </trkpt>
      <trkpt lat="43.38708" lon="6.1004">
        <ele>299.60000610352</ele>
        <time>2013-10-12T12:40:32Z</time>
      </trkpt>
      <trkpt lat="43.38717" lon="6.1006">
        <ele>299.60000610352</ele>
        <time>2013-10-12T12:40:38Z</time>
      </trkpt>
      <trkpt lat="43.38729" lon="6.10085">
        <ele>299.60000610352</ele>
        <time>2013-10-12T12:40:44Z</time>
      </trkpt>
      <trkpt lat="43.38739" lon="6.10103">
        <ele>299.60000610352</ele>
        <time>2013-10-12T12:40:49Z</time>
      </trkpt>
      <trkpt lat="43.38742" lon="6.10109">
        <ele>300</ele>
        <time>2013-10-12T12:40:51Z</time>
      </trkpt>
      <trkpt lat="43.3875" lon="6.1012">
        <ele>301.60000610352</ele>
        <time>2013-10-12T12:40:55Z</time>
      </trkpt>
      <trkpt lat="43.3877" lon="6.10141">
        <ele>303.39999389648</ele>
        <time>2013-10-12T12:41:05Z</time>
      </trkpt>
      <trkpt lat="43.38773" lon="6.10146">
        <ele>303.79998779297</ele>
        <time>2013-10-12T12:41:07Z</time>
      </trkpt>
      <trkpt lat="43.3878" lon="6.10154">
        <ele>304.20001220703</ele>
        <time>2013-10-12T12:41:11Z</time>
      </trkpt>
      <trkpt lat="43.38783" lon="6.10157">
        <ele>305</ele>
        <time>2013-10-12T12:41:13Z</time>
      </trkpt>
      <trkpt lat="43.38786" lon="6.10159">
        <ele>305.79998779297</ele>
        <time>2013-10-12T12:41:15Z</time>
      </trkpt>
      <trkpt lat="43.38791" lon="6.10164">
        <ele>305.79998779297</ele>
        <time>2013-10-12T12:41:20Z</time>
      </trkpt>
      <trkpt lat="43.38792" lon="6.10165">
        <ele>305.79998779297</ele>
        <time>2013-10-12T12:41:22Z</time>
      </trkpt>
      <trkpt lat="43.38792" lon="6.10165">
        <ele>305.79998779297</ele>
        <time>2013-10-12T12:41:25Z</time>
      </trkpt>
      <trkpt lat="43.38794" lon="6.10167">
        <ele>305.79998779297</ele>
        <time>2013-10-12T12:41:28Z</time>
      </trkpt>
      <trkpt lat="43.38796" lon="6.1017">
        <ele>305.79998779297</ele>
        <time>2013-10-12T12:41:32Z</time>
      </trkpt>
      <trkpt lat="43.38798" lon="6.10172">
        <ele>305.79998779297</ele>
        <time>2013-10-12T12:41:38Z</time>
      </trkpt>
      <trkpt lat="43.38804" lon="6.10173">
        <ele>305.79998779297</ele>
        <time>2013-10-12T12:41:43Z</time>
      </trkpt>
      <trkpt lat="43.38808" lon="6.10171">
        <ele>305.79998779297</ele>
        <time>2013-10-12T12:41:46Z</time>
      </trkpt>
      <trkpt lat="43.38809" lon="6.10171">
        <ele>306.20001220703</ele>
        <time>2013-10-12T12:41:47Z</time>
      </trkpt>
      <trkpt lat="43.3881" lon="6.1017">
        <ele>306.60000610352</ele>
        <time>2013-10-12T12:41:48Z</time>
      </trkpt>
      <trkpt lat="43.38812" lon="6.1017">
        <ele>307</ele>
        <time>2013-10-12T12:41:49Z</time>
      </trkpt>
      <trkpt lat="43.38815" lon="6.10169">
        <ele>307.39999389648</ele>
        <time>2013-10-12T12:41:50Z</time>
      </trkpt>
      <trkpt lat="43.38817" lon="6.10168">
        <ele>307.79998779297</ele>
        <time>2013-10-12T12:41:51Z</time>
      </trkpt>
      <trkpt lat="43.38823" lon="6.10169">
        <ele>307.79998779297</ele>
        <time>2013-10-12T12:41:53Z</time>
      </trkpt>
      <trkpt lat="43.38825" lon="6.10171">
        <ele>307.79998779297</ele>
        <time>2013-10-12T12:41:54Z</time>
      </trkpt>
      <trkpt lat="43.38827" lon="6.10184">
        <ele>307.79998779297</ele>
        <time>2013-10-12T12:41:58Z</time>
      </trkpt>
      <trkpt lat="43.38824" lon="6.10191">
        <ele>307.79998779297</ele>
        <time>2013-10-12T12:42:00Z</time>
      </trkpt>
      <trkpt lat="43.38819" lon="6.10199">
        <ele>307.79998779297</ele>
        <time>2013-10-12T12:42:04Z</time>
      </trkpt>
      <trkpt lat="43.38818" lon="6.10208">
        <ele>307.79998779297</ele>
        <time>2013-10-12T12:42:08Z</time>
      </trkpt>
      <trkpt lat="43.38817" lon="6.10217">
        <ele>308.20001220703</ele>
        <time>2013-10-12T12:42:12Z</time>
      </trkpt>
      <trkpt lat="43.38817" lon="6.1022">
        <ele>308.79998779297</ele>
        <time>2013-10-12T12:42:13Z</time>
      </trkpt>
      <trkpt lat="43.38817" lon="6.10222">
        <ele>309.20001220703</ele>
        <time>2013-10-12T12:42:14Z</time>
      </trkpt>
      <trkpt lat="43.38817" lon="6.10225">
        <ele>310.20001220703</ele>
        <time>2013-10-12T12:42:15Z</time>
      </trkpt>
      <trkpt lat="43.38818" lon="6.10229">
        <ele>310.20001220703</ele>
        <time>2013-10-12T12:42:17Z</time>
      </trkpt>
      <trkpt lat="43.38821" lon="6.10239">
        <ele>310.20001220703</ele>
        <time>2013-10-12T12:42:20Z</time>
      </trkpt>
      <trkpt lat="43.38824" lon="6.10254">
        <ele>310.20001220703</ele>
        <time>2013-10-12T12:42:23Z</time>
      </trkpt>
      <trkpt lat="43.38824" lon="6.10259">
        <ele>309.60000610352</ele>
        <time>2013-10-12T12:42:24Z</time>
      </trkpt>
      <trkpt lat="43.38826" lon="6.10265">
        <ele>309.20001220703</ele>
        <time>2013-10-12T12:42:25Z</time>
      </trkpt>
      <trkpt lat="43.38827" lon="6.10272">
        <ele>308.79998779297</ele>
        <time>2013-10-12T12:42:26Z</time>
      </trkpt>
      <trkpt lat="43.38828" lon="6.10279">
        <ele>308.39999389648</ele>
        <time>2013-10-12T12:42:27Z</time>
      </trkpt>
      <trkpt lat="43.38829" lon="6.10286">
        <ele>308</ele>
        <time>2013-10-12T12:42:28Z</time>
      </trkpt>
      <trkpt lat="43.3883" lon="6.10301">
        <ele>307.60000610352</ele>
        <time>2013-10-12T12:42:30Z</time>
      </trkpt>
      <trkpt lat="43.3883" lon="6.10308">
        <ele>307.20001220703</ele>
        <time>2013-10-12T12:42:31Z</time>
      </trkpt>
      <trkpt lat="43.3883" lon="6.10315">
        <ele>306.79998779297</ele>
        <time>2013-10-12T12:42:32Z</time>
      </trkpt>
      <trkpt lat="43.3883" lon="6.1033">
        <ele>306</ele>
        <time>2013-10-12T12:42:34Z</time>
      </trkpt>
      <trkpt lat="43.38831" lon="6.10405">
        <ele>304.60000610352</ele>
        <time>2013-10-12T12:42:44Z</time>
      </trkpt>
      <trkpt lat="43.38831" lon="6.10414">
        <ele>304.20001220703</ele>
        <time>2013-10-12T12:42:45Z</time>
      </trkpt>
      <trkpt lat="43.3883" lon="6.10422">
        <ele>303.79998779297</ele>
        <time>2013-10-12T12:42:46Z</time>
      </trkpt>
      <trkpt lat="43.38828" lon="6.10438">
        <ele>303.79998779297</ele>
        <time>2013-10-12T12:42:48Z</time>
      </trkpt>
      <trkpt lat="43.38825" lon="6.10463">
        <ele>303.79998779297</ele>
        <time>2013-10-12T12:42:51Z</time>
      </trkpt>
      <trkpt lat="43.38824" lon="6.10481">
        <ele>303.20001220703</ele>
        <time>2013-10-12T12:42:53Z</time>
      </trkpt>
      <trkpt lat="43.38822" lon="6.10488">
        <ele>302.60000610352</ele>
        <time>2013-10-12T12:42:54Z</time>
      </trkpt>
      <trkpt lat="43.3882" lon="6.10503">
        <ele>301.39999389648</ele>
        <time>2013-10-12T12:42:56Z</time>
      </trkpt>
      <trkpt lat="43.38818" lon="6.10511">
        <ele>300.79998779297</ele>
        <time>2013-10-12T12:42:57Z</time>
      </trkpt>
      <trkpt lat="43.38813" lon="6.10531">
        <ele>300.79998779297</ele>
        <time>2013-10-12T12:43:00Z</time>
      </trkpt>
      <trkpt lat="43.3881" lon="6.10556">
        <ele>300.79998779297</ele>
        <time>2013-10-12T12:43:04Z</time>
      </trkpt>
      <trkpt lat="43.38806" lon="6.10565">
        <ele>299.39999389648</ele>
        <time>2013-10-12T12:43:06Z</time>
      </trkpt>
      <trkpt lat="43.38805" lon="6.10575">
        <ele>298.60000610352</ele>
        <time>2013-10-12T12:43:08Z</time>
      </trkpt>
      <trkpt lat="43.38802" lon="6.10594">
        <ele>298.60000610352</ele>
        <time>2013-10-12T12:43:11Z</time>
      </trkpt>
      <trkpt lat="43.38794" lon="6.10636">
        <ele>296.20001220703</ele>
        <time>2013-10-12T12:43:17Z</time>
      </trkpt>
      <trkpt lat="43.3879" lon="6.10657">
        <ele>295.79998779297</ele>
        <time>2013-10-12T12:43:21Z</time>
      </trkpt>
      <trkpt lat="43.38786" lon="6.10671">
        <ele>294.39999389648</ele>
        <time>2013-10-12T12:43:24Z</time>
      </trkpt>
      <trkpt lat="43.38785" lon="6.10676">
        <ele>294</ele>
        <time>2013-10-12T12:43:25Z</time>
      </trkpt>
      <trkpt lat="43.38784" lon="6.10682">
        <ele>294</ele>
        <time>2013-10-12T12:43:26Z</time>
      </trkpt>
      <trkpt lat="43.38782" lon="6.10688">
        <ele>294</ele>
        <time>2013-10-12T12:43:27Z</time>
      </trkpt>
      <trkpt lat="43.3878" lon="6.10695">
        <ele>294</ele>
        <time>2013-10-12T12:43:28Z</time>
      </trkpt>
      <trkpt lat="43.38777" lon="6.10708">
        <ele>294</ele>
        <time>2013-10-12T12:43:30Z</time>
      </trkpt>
      <trkpt lat="43.38772" lon="6.1073">
        <ele>293.60000610352</ele>
        <time>2013-10-12T12:43:33Z</time>
      </trkpt>
      <trkpt lat="43.38771" lon="6.10736">
        <ele>293.20001220703</ele>
        <time>2013-10-12T12:43:34Z</time>
      </trkpt>
      <trkpt lat="43.38771" lon="6.10741">
        <ele>292.60000610352</ele>
        <time>2013-10-12T12:43:35Z</time>
      </trkpt>
      <trkpt lat="43.3877" lon="6.10744">
        <ele>292.20001220703</ele>
        <time>2013-10-12T12:43:36Z</time>
      </trkpt>
      <trkpt lat="43.3877" lon="6.10746">
        <ele>291.79998779297</ele>
        <time>2013-10-12T12:43:37Z</time>
      </trkpt>
      <trkpt lat="43.38771" lon="6.10747">
        <ele>291.79998779297</ele>
        <time>2013-10-12T12:43:40Z</time>
      </trkpt>
      <trkpt lat="43.38771" lon="6.10747">
        <ele>291.79998779297</ele>
        <time>2013-10-12T12:44:08Z</time>
      </trkpt>
      <trkpt lat="43.38771" lon="6.10748">
        <ele>291.79998779297</ele>
        <time>2013-10-12T12:44:21Z</time>
      </trkpt>
      <trkpt lat="43.38771" lon="6.10748">
        <ele>291.79998779297</ele>
        <time>2013-10-12T12:44:36Z</time>
      </trkpt>
      <trkpt lat="43.38771" lon="6.10748">
        <ele>291.79998779297</ele>
        <time>2013-10-12T12:44:42Z</time>
      </trkpt>
      <trkpt lat="43.38772" lon="6.10752">
        <ele>291.79998779297</ele>
        <time>2013-10-12T12:44:44Z</time>
      </trkpt>
      <trkpt lat="43.38773" lon="6.10753">
        <ele>291.79998779297</ele>
        <time>2013-10-12T12:44:45Z</time>
      </trkpt>
      <trkpt lat="43.38778" lon="6.10755">
        <ele>291.79998779297</ele>
        <time>2013-10-12T12:44:47Z</time>
      </trkpt>
      <trkpt lat="43.38781" lon="6.10756">
        <ele>291.79998779297</ele>
        <time>2013-10-12T12:44:48Z</time>
      </trkpt>
      <trkpt lat="43.38788" lon="6.10758">
        <ele>291.79998779297</ele>
        <time>2013-10-12T12:44:50Z</time>
      </trkpt>
      <trkpt lat="43.38792" lon="6.10757">
        <ele>291.39999389648</ele>
        <time>2013-10-12T12:44:51Z</time>
      </trkpt>
      <trkpt lat="43.38797" lon="6.10757">
        <ele>291</ele>
        <time>2013-10-12T12:44:52Z</time>
      </trkpt>
      <trkpt lat="43.38802" lon="6.10756">
        <ele>290.60000610352</ele>
        <time>2013-10-12T12:44:53Z</time>
      </trkpt>
      <trkpt lat="43.38807" lon="6.10756">
        <ele>290.20001220703</ele>
        <time>2013-10-12T12:44:54Z</time>
      </trkpt>
      <trkpt lat="43.38811" lon="6.10756">
        <ele>289.79998779297</ele>
        <time>2013-10-12T12:44:55Z</time>
      </trkpt>
      <trkpt lat="43.38825" lon="6.10754">
        <ele>289.79998779297</ele>
        <time>2013-10-12T12:44:58Z</time>
      </trkpt>
      <trkpt lat="43.38833" lon="6.10755">
        <ele>289.79998779297</ele>
        <time>2013-10-12T12:45:00Z</time>
      </trkpt>
      <trkpt lat="43.38848" lon="6.10755">
        <ele>289.79998779297</ele>
        <time>2013-10-12T12:45:04Z</time>
      </trkpt>
      <trkpt lat="43.38854" lon="6.10754">
        <ele>289.39999389648</ele>
        <time>2013-10-12T12:45:06Z</time>
      </trkpt>
      <trkpt lat="43.38858" lon="6.10753">
        <ele>289</ele>
        <time>2013-10-12T12:45:07Z</time>
      </trkpt>
      <trkpt lat="43.38861" lon="6.10753">
        <ele>288.39999389648</ele>
        <time>2013-10-12T12:45:08Z</time>
      </trkpt>
      <trkpt lat="43.38865" lon="6.10753">
        <ele>287.60000610352</ele>
        <time>2013-10-12T12:45:09Z</time>
      </trkpt>
      <trkpt lat="43.38889" lon="6.10759">
        <ele>287.60000610352</ele>
        <time>2013-10-12T12:45:15Z</time>
      </trkpt>
      <trkpt lat="43.38906" lon="6.10766">
        <ele>287.60000610352</ele>
        <time>2013-10-12T12:45:19Z</time>
      </trkpt>
      <trkpt lat="43.3891" lon="6.10769">
        <ele>287.60000610352</ele>
        <time>2013-10-12T12:45:20Z</time>
      </trkpt>
      <trkpt lat="43.38916" lon="6.10786">
        <ele>287.60000610352</ele>
        <time>2013-10-12T12:45:23Z</time>
      </trkpt>
      <trkpt lat="43.38924" lon="6.10809">
        <ele>286.39999389648</ele>
        <time>2013-10-12T12:45:27Z</time>
      </trkpt>
      <trkpt lat="43.38929" lon="6.10818">
        <ele>285.60000610352</ele>
        <time>2013-10-12T12:45:29Z</time>
      </trkpt>
      <trkpt lat="43.38948" lon="6.1083">
        <ele>285.60000610352</ele>
        <time>2013-10-12T12:45:34Z</time>
      </trkpt>
      <trkpt lat="43.38988" lon="6.10844">
        <ele>285.60000610352</ele>
        <time>2013-10-12T12:45:43Z</time>
      </trkpt>
      <trkpt lat="43.39005" lon="6.10842">
        <ele>285.60000610352</ele>
        <time>2013-10-12T12:45:47Z</time>
      </trkpt>
      <trkpt lat="43.39008" lon="6.10839">
        <ele>285.60000610352</ele>
        <time>2013-10-12T12:45:48Z</time>
      </trkpt>
      <trkpt lat="43.39025" lon="6.10832">
        <ele>285.60000610352</ele>
        <time>2013-10-12T12:45:52Z</time>
      </trkpt>
      <trkpt lat="43.39034" lon="6.10828">
        <ele>284.60000610352</ele>
        <time>2013-10-12T12:45:54Z</time>
      </trkpt>
      <trkpt lat="43.39053" lon="6.10823">
        <ele>283.39999389648</ele>
        <time>2013-10-12T12:45:58Z</time>
      </trkpt>
      <trkpt lat="43.39068" lon="6.10815">
        <ele>283.39999389648</ele>
        <time>2013-10-12T12:46:02Z</time>
      </trkpt>
      <trkpt lat="43.39075" lon="6.10809">
        <ele>283.39999389648</ele>
        <time>2013-10-12T12:46:04Z</time>
      </trkpt>
      <trkpt lat="43.39088" lon="6.10793">
        <ele>283.39999389648</ele>
        <time>2013-10-12T12:46:08Z</time>
      </trkpt>
      <trkpt lat="43.39092" lon="6.10789">
        <ele>283.39999389648</ele>
        <time>2013-10-12T12:46:09Z</time>
      </trkpt>
      <trkpt lat="43.39099" lon="6.10785">
        <ele>283.39999389648</ele>
        <time>2013-10-12T12:46:11Z</time>
      </trkpt>
      <trkpt lat="43.39122" lon="6.10769">
        <ele>283.39999389648</ele>
        <time>2013-10-12T12:46:16Z</time>
      </trkpt>
      <trkpt lat="43.3914" lon="6.10759">
        <ele>283.39999389648</ele>
        <time>2013-10-12T12:46:19Z</time>
      </trkpt>
      <trkpt lat="43.39151" lon="6.1075">
        <ele>283.39999389648</ele>
        <time>2013-10-12T12:46:21Z</time>
      </trkpt>
      <trkpt lat="43.39156" lon="6.10745">
        <ele>283</ele>
        <time>2013-10-12T12:46:22Z</time>
      </trkpt>
      <trkpt lat="43.39161" lon="6.1074">
        <ele>282</ele>
        <time>2013-10-12T12:46:23Z</time>
      </trkpt>
      <trkpt lat="43.39166" lon="6.10733">
        <ele>281.60000610352</ele>
        <time>2013-10-12T12:46:24Z</time>
      </trkpt>
      <trkpt lat="43.39169" lon="6.10726">
        <ele>281.20001220703</ele>
        <time>2013-10-12T12:46:25Z</time>
      </trkpt>
      <trkpt lat="43.39174" lon="6.10707">
        <ele>281.20001220703</ele>
        <time>2013-10-12T12:46:28Z</time>
      </trkpt>
      <trkpt lat="43.39175" lon="6.10703">
        <ele>281.20001220703</ele>
        <time>2013-10-12T12:46:29Z</time>
      </trkpt>
      <trkpt lat="43.39177" lon="6.10697">
        <ele>281.20001220703</ele>
        <time>2013-10-12T12:46:32Z</time>
      </trkpt>
      <trkpt lat="43.39178" lon="6.10685">
        <ele>280.79998779297</ele>
        <time>2013-10-12T12:46:37Z</time>
      </trkpt>
      <trkpt lat="43.39178" lon="6.10684">
        <ele>280.20001220703</ele>
        <time>2013-10-12T12:46:38Z</time>
      </trkpt>
      <trkpt lat="43.39178" lon="6.10682">
        <ele>279.79998779297</ele>
        <time>2013-10-12T12:46:39Z</time>
      </trkpt>
      <trkpt lat="43.39177" lon="6.10682">
        <ele>279.39999389648</ele>
        <time>2013-10-12T12:46:40Z</time>
      </trkpt>
      <trkpt lat="43.39175" lon="6.10682">
        <ele>278.79998779297</ele>
        <time>2013-10-12T12:46:41Z</time>
      </trkpt>
      <trkpt lat="43.39175" lon="6.10684">
        <ele>278.79998779297</ele>
        <time>2013-10-12T12:46:42Z</time>
      </trkpt>
      <trkpt lat="43.39177" lon="6.10686">
        <ele>278.79998779297</ele>
        <time>2013-10-12T12:46:46Z</time>
      </trkpt>
      <trkpt lat="43.39177" lon="6.10687">
        <ele>278.79998779297</ele>
        <time>2013-10-12T12:46:47Z</time>
      </trkpt>
      <trkpt lat="43.3918" lon="6.10689">
        <ele>278.79998779297</ele>
        <time>2013-10-12T12:46:50Z</time>
      </trkpt>
      <trkpt lat="43.39181" lon="6.1069">
        <ele>278.79998779297</ele>
        <time>2013-10-12T12:46:52Z</time>
      </trkpt>
      <trkpt lat="43.39183" lon="6.10691">
        <ele>278.79998779297</ele>
        <time>2013-10-12T12:46:56Z</time>
      </trkpt>
      <trkpt lat="43.39185" lon="6.10693">
        <ele>278.79998779297</ele>
        <time>2013-10-12T12:46:58Z</time>
      </trkpt>
      <trkpt lat="43.3919" lon="6.10698">
        <ele>278.79998779297</ele>
        <time>2013-10-12T12:47:03Z</time>
      </trkpt>
      <trkpt lat="43.39191" lon="6.10699">
        <ele>278.79998779297</ele>
        <time>2013-10-12T12:47:04Z</time>
      </trkpt>
      <trkpt lat="43.39195" lon="6.10699">
        <ele>278.79998779297</ele>
        <time>2013-10-12T12:47:09Z</time>
      </trkpt>
      <trkpt lat="43.39195" lon="6.10699">
        <ele>280.39999389648</ele>
        <time>2013-10-12T12:47:29Z</time>
      </trkpt>
      <trkpt lat="43.39195" lon="6.10699">
        <ele>278.79998779297</ele>
        <time>2013-10-12T12:47:42Z</time>
      </trkpt>
      <trkpt lat="43.39197" lon="6.10697">
        <ele>278.79998779297</ele>
        <time>2013-10-12T12:47:46Z</time>
      </trkpt>
      <trkpt lat="43.39199" lon="6.10692">
        <ele>278.79998779297</ele>
        <time>2013-10-12T12:47:48Z</time>
      </trkpt>
      <trkpt lat="43.39206" lon="6.1068">
        <ele>278.79998779297</ele>
        <time>2013-10-12T12:47:51Z</time>
      </trkpt>
      <trkpt lat="43.39217" lon="6.10679">
        <ele>278.79998779297</ele>
        <time>2013-10-12T12:47:54Z</time>
      </trkpt>
      <trkpt lat="43.39224" lon="6.10685">
        <ele>278.39999389648</ele>
        <time>2013-10-12T12:47:56Z</time>
      </trkpt>
      <trkpt lat="43.39228" lon="6.10687">
        <ele>278</ele>
        <time>2013-10-12T12:47:57Z</time>
      </trkpt>
      <trkpt lat="43.39232" lon="6.10689">
        <ele>277.39999389648</ele>
        <time>2013-10-12T12:47:58Z</time>
      </trkpt>
      <trkpt lat="43.39236" lon="6.10691">
        <ele>277</ele>
        <time>2013-10-12T12:47:59Z</time>
      </trkpt>
      <trkpt lat="43.39241" lon="6.10694">
        <ele>276.60000610352</ele>
        <time>2013-10-12T12:48:00Z</time>
      </trkpt>
      <trkpt lat="43.39259" lon="6.10704">
        <ele>276.60000610352</ele>
        <time>2013-10-12T12:48:04Z</time>
      </trkpt>
      <trkpt lat="43.3927" lon="6.1071">
        <ele>276.60000610352</ele>
        <time>2013-10-12T12:48:06Z</time>
      </trkpt>
      <trkpt lat="43.39289" lon="6.10721">
        <ele>276.60000610352</ele>
        <time>2013-10-12T12:48:10Z</time>
      </trkpt>
      <trkpt lat="43.39311" lon="6.10723">
        <ele>276.60000610352</ele>
        <time>2013-10-12T12:48:14Z</time>
      </trkpt>
      <trkpt lat="43.3933" lon="6.10725">
        <ele>276.60000610352</ele>
        <time>2013-10-12T12:48:18Z</time>
      </trkpt>
      <trkpt lat="43.39338" lon="6.10722">
        <ele>276.60000610352</ele>
        <time>2013-10-12T12:48:20Z</time>
      </trkpt>
      <trkpt lat="43.39347" lon="6.10712">
        <ele>276.60000610352</ele>
        <time>2013-10-12T12:48:23Z</time>
      </trkpt>
      <trkpt lat="43.3936" lon="6.10685">
        <ele>276.60000610352</ele>
        <time>2013-10-12T12:48:29Z</time>
      </trkpt>
      <trkpt lat="43.3937" lon="6.10655">
        <ele>276.60000610352</ele>
        <time>2013-10-12T12:48:35Z</time>
      </trkpt>
      <trkpt lat="43.39375" lon="6.10627">
        <ele>276.60000610352</ele>
        <time>2013-10-12T12:48:41Z</time>
      </trkpt>
      <trkpt lat="43.39377" lon="6.10616">
        <ele>276.60000610352</ele>
        <time>2013-10-12T12:48:43Z</time>
      </trkpt>
      <trkpt lat="43.3938" lon="6.10593">
        <ele>276.60000610352</ele>
        <time>2013-10-12T12:48:47Z</time>
      </trkpt>
      <trkpt lat="43.39382" lon="6.10568">
        <ele>276.60000610352</ele>
        <time>2013-10-12T12:48:51Z</time>
      </trkpt>
      <trkpt lat="43.39385" lon="6.10549">
        <ele>276.60000610352</ele>
        <time>2013-10-12T12:48:54Z</time>
      </trkpt>
      <trkpt lat="43.39386" lon="6.10543">
        <ele>276.20001220703</ele>
        <time>2013-10-12T12:48:55Z</time>
      </trkpt>
      <trkpt lat="43.39389" lon="6.10526">
        <ele>274.79998779297</ele>
        <time>2013-10-12T12:48:58Z</time>
      </trkpt>
      <trkpt lat="43.39401" lon="6.1048">
        <ele>274.39999389648</ele>
        <time>2013-10-12T12:49:07Z</time>
      </trkpt>
      <trkpt lat="43.3941" lon="6.10449">
        <ele>274.39999389648</ele>
        <time>2013-10-12T12:49:13Z</time>
      </trkpt>
      <trkpt lat="43.39416" lon="6.10435">
        <ele>274.39999389648</ele>
        <time>2013-10-12T12:49:16Z</time>
      </trkpt>
      <trkpt lat="43.39418" lon="6.10418">
        <ele>274</ele>
        <time>2013-10-12T12:49:19Z</time>
      </trkpt>
      <trkpt lat="43.39425" lon="6.10401">
        <ele>272.39999389648</ele>
        <time>2013-10-12T12:49:23Z</time>
      </trkpt>
      <trkpt lat="43.39431" lon="6.10393">
        <ele>272.39999389648</ele>
        <time>2013-10-12T12:49:25Z</time>
      </trkpt>
      <trkpt lat="43.39444" lon="6.10378">
        <ele>272.39999389648</ele>
        <time>2013-10-12T12:49:29Z</time>
      </trkpt>
      <trkpt lat="43.39451" lon="6.10373">
        <ele>272.39999389648</ele>
        <time>2013-10-12T12:49:31Z</time>
      </trkpt>
      <trkpt lat="43.39459" lon="6.10372">
        <ele>272.39999389648</ele>
        <time>2013-10-12T12:49:33Z</time>
      </trkpt>
      <trkpt lat="43.39468" lon="6.10373">
        <ele>272.39999389648</ele>
        <time>2013-10-12T12:49:35Z</time>
      </trkpt>
      <trkpt lat="43.39477" lon="6.10379">
        <ele>272.39999389648</ele>
        <time>2013-10-12T12:49:38Z</time>
      </trkpt>
      <trkpt lat="43.39481" lon="6.1038">
        <ele>272.39999389648</ele>
        <time>2013-10-12T12:49:40Z</time>
      </trkpt>
      <trkpt lat="43.39489" lon="6.10381">
        <ele>272.39999389648</ele>
        <time>2013-10-12T12:49:43Z</time>
      </trkpt>
      <trkpt lat="43.39494" lon="6.10382">
        <ele>272.39999389648</ele>
        <time>2013-10-12T12:49:45Z</time>
      </trkpt>
      <trkpt lat="43.39496" lon="6.10383">
        <ele>272.79998779297</ele>
        <time>2013-10-12T12:49:46Z</time>
      </trkpt>
      <trkpt lat="43.39499" lon="6.10383">
        <ele>273.39999389648</ele>
        <time>2013-10-12T12:49:47Z</time>
      </trkpt>
      <trkpt lat="43.39506" lon="6.10383">
        <ele>274.79998779297</ele>
        <time>2013-10-12T12:49:50Z</time>
      </trkpt>
      <trkpt lat="43.39524" lon="6.10388">
        <ele>274.79998779297</ele>
        <time>2013-10-12T12:49:57Z</time>
      </trkpt>
      <trkpt lat="43.3953" lon="6.10392">
        <ele>274.79998779297</ele>
        <time>2013-10-12T12:50:02Z</time>
      </trkpt>
      <trkpt lat="43.3953" lon="6.10392">
        <ele>274.79998779297</ele>
        <time>2013-10-12T12:50:12Z</time>
      </trkpt>
      <trkpt lat="43.39535" lon="6.10402">
        <ele>274.79998779297</ele>
        <time>2013-10-12T12:50:19Z</time>
      </trkpt>
      <trkpt lat="43.39536" lon="6.10403">
        <ele>274.79998779297</ele>
        <time>2013-10-12T12:50:21Z</time>
      </trkpt>
      <trkpt lat="43.39536" lon="6.10403">
        <ele>274.79998779297</ele>
        <time>2013-10-12T12:50:26Z</time>
      </trkpt>
      <trkpt lat="43.39536" lon="6.10403">
        <ele>274.79998779297</ele>
        <time>2013-10-12T12:50:41Z</time>
      </trkpt>
      <trkpt lat="43.39536" lon="6.10403">
        <ele>276</ele>
        <time>2013-10-12T12:50:51Z</time>
      </trkpt>
      <trkpt lat="43.39536" lon="6.10403">
        <ele>276.39999389648</ele>
        <time>2013-10-12T12:50:52Z</time>
      </trkpt>
      <trkpt lat="43.39536" lon="6.10403">
        <ele>276.79998779297</ele>
        <time>2013-10-12T12:50:53Z</time>
      </trkpt>
      <trkpt lat="43.39536" lon="6.10408">
        <ele>276.79998779297</ele>
        <time>2013-10-12T12:50:55Z</time>
      </trkpt>
      <trkpt lat="43.39535" lon="6.10415">
        <ele>276.79998779297</ele>
        <time>2013-10-12T12:50:58Z</time>
      </trkpt>
      <trkpt lat="43.39536" lon="6.1042">
        <ele>276.79998779297</ele>
        <time>2013-10-12T12:51:00Z</time>
      </trkpt>
      <trkpt lat="43.39538" lon="6.10426">
        <ele>276.79998779297</ele>
        <time>2013-10-12T12:51:02Z</time>
      </trkpt>
      <trkpt lat="43.39542" lon="6.10438">
        <ele>276.79998779297</ele>
        <time>2013-10-12T12:51:06Z</time>
      </trkpt>
      <trkpt lat="43.39543" lon="6.10448">
        <ele>276.79998779297</ele>
        <time>2013-10-12T12:51:09Z</time>
      </trkpt>
      <trkpt lat="43.39547" lon="6.10464">
        <ele>277.60000610352</ele>
        <time>2013-10-12T12:51:15Z</time>
      </trkpt>
      <trkpt lat="43.39548" lon="6.10473">
        <ele>278.79998779297</ele>
        <time>2013-10-12T12:51:18Z</time>
      </trkpt>
      <trkpt lat="43.3955" lon="6.10485">
        <ele>278.79998779297</ele>
        <time>2013-10-12T12:51:22Z</time>
      </trkpt>
      <trkpt lat="43.39553" lon="6.10505">
        <ele>279.20001220703</ele>
        <time>2013-10-12T12:51:28Z</time>
      </trkpt>
      <trkpt lat="43.39553" lon="6.10508">
        <ele>279.79998779297</ele>
        <time>2013-10-12T12:51:29Z</time>
      </trkpt>
      <trkpt lat="43.39553" lon="6.10522">
        <ele>281</ele>
        <time>2013-10-12T12:51:34Z</time>
      </trkpt>
      <trkpt lat="43.39552" lon="6.10533">
        <ele>281.39999389648</ele>
        <time>2013-10-12T12:51:38Z</time>
      </trkpt>
      <trkpt lat="43.39556" lon="6.10545">
        <ele>283.20001220703</ele>
        <time>2013-10-12T12:51:42Z</time>
      </trkpt>
      <trkpt lat="43.3956" lon="6.10559">
        <ele>283.20001220703</ele>
        <time>2013-10-12T12:51:47Z</time>
      </trkpt>
      <trkpt lat="43.39562" lon="6.10565">
        <ele>284</ele>
        <time>2013-10-12T12:51:49Z</time>
      </trkpt>
      <trkpt lat="43.39564" lon="6.10577">
        <ele>285.20001220703</ele>
        <time>2013-10-12T12:51:54Z</time>
      </trkpt>
      <trkpt lat="43.39566" lon="6.10589">
        <ele>285.20001220703</ele>
        <time>2013-10-12T12:51:59Z</time>
      </trkpt>
      <trkpt lat="43.3957" lon="6.106">
        <ele>285.60000610352</ele>
        <time>2013-10-12T12:52:04Z</time>
      </trkpt>
      <trkpt lat="43.39571" lon="6.10602">
        <ele>286</ele>
        <time>2013-10-12T12:52:05Z</time>
      </trkpt>
      <trkpt lat="43.39577" lon="6.10622">
        <ele>287.39999389648</ele>
        <time>2013-10-12T12:52:14Z</time>
      </trkpt>
      <trkpt lat="43.39578" lon="6.10625">
        <ele>287.39999389648</ele>
        <time>2013-10-12T12:52:15Z</time>
      </trkpt>
      <trkpt lat="43.3958" lon="6.10638">
        <ele>287.39999389648</ele>
        <time>2013-10-12T12:52:20Z</time>
      </trkpt>
      <trkpt lat="43.39582" lon="6.10653">
        <ele>287.39999389648</ele>
        <time>2013-10-12T12:52:26Z</time>
      </trkpt>
      <trkpt lat="43.39583" lon="6.10663">
        <ele>287.79998779297</ele>
        <time>2013-10-12T12:52:30Z</time>
      </trkpt>
      <trkpt lat="43.39584" lon="6.1067">
        <ele>289.60000610352</ele>
        <time>2013-10-12T12:52:33Z</time>
      </trkpt>
      <trkpt lat="43.39584" lon="6.10681">
        <ele>289.60000610352</ele>
        <time>2013-10-12T12:52:38Z</time>
      </trkpt>
      <trkpt lat="43.39586" lon="6.10691">
        <ele>289.60000610352</ele>
        <time>2013-10-12T12:52:43Z</time>
      </trkpt>
      <trkpt lat="43.39587" lon="6.10704">
        <ele>289.60000610352</ele>
        <time>2013-10-12T12:52:48Z</time>
      </trkpt>
      <trkpt lat="43.39588" lon="6.10707">
        <ele>290</ele>
        <time>2013-10-12T12:52:49Z</time>
      </trkpt>
      <trkpt lat="43.39588" lon="6.10713">
        <ele>291.39999389648</ele>
        <time>2013-10-12T12:52:52Z</time>
      </trkpt>
      <trkpt lat="43.39588" lon="6.10716">
        <ele>291.79998779297</ele>
        <time>2013-10-12T12:52:53Z</time>
      </trkpt>
      <trkpt lat="43.39589" lon="6.10719">
        <ele>291.79998779297</ele>
        <time>2013-10-12T12:52:55Z</time>
      </trkpt>
      <trkpt lat="43.3959" lon="6.10721">
        <ele>291.79998779297</ele>
        <time>2013-10-12T12:53:00Z</time>
      </trkpt>
      <trkpt lat="43.3959" lon="6.10723">
        <ele>291.79998779297</ele>
        <time>2013-10-12T12:53:04Z</time>
      </trkpt>
      <trkpt lat="43.3959" lon="6.10723">
        <ele>294.20001220703</ele>
        <time>2013-10-12T12:53:22Z</time>
      </trkpt>
      <trkpt lat="43.3959" lon="6.10723">
        <ele>292.20001220703</ele>
        <time>2013-10-12T12:53:40Z</time>
      </trkpt>
      <trkpt lat="43.3959" lon="6.10724">
        <ele>292.20001220703</ele>
        <time>2013-10-12T12:53:53Z</time>
      </trkpt>
      <trkpt lat="43.3959" lon="6.10724">
        <ele>292.20001220703</ele>
        <time>2013-10-12T12:54:04Z</time>
      </trkpt>
      <trkpt lat="43.3959" lon="6.10726">
        <ele>292.20001220703</ele>
        <time>2013-10-12T12:54:10Z</time>
      </trkpt>
      <trkpt lat="43.3959" lon="6.10727">
        <ele>292.20001220703</ele>
        <time>2013-10-12T12:54:11Z</time>
      </trkpt>
      <trkpt lat="43.39591" lon="6.10728">
        <ele>292.20001220703</ele>
        <time>2013-10-12T12:54:12Z</time>
      </trkpt>
      <trkpt lat="43.39592" lon="6.10729">
        <ele>292.20001220703</ele>
        <time>2013-10-12T12:54:17Z</time>
      </trkpt>
      <trkpt lat="43.39593" lon="6.10734">
        <ele>292.20001220703</ele>
        <time>2013-10-12T12:54:19Z</time>
      </trkpt>
      <trkpt lat="43.39594" lon="6.10743">
        <ele>292.60000610352</ele>
        <time>2013-10-12T12:54:22Z</time>
      </trkpt>
      <trkpt lat="43.39595" lon="6.10747">
        <ele>293.20001220703</ele>
        <time>2013-10-12T12:54:23Z</time>
      </trkpt>
      <trkpt lat="43.39595" lon="6.10751">
        <ele>293.60000610352</ele>
        <time>2013-10-12T12:54:24Z</time>
      </trkpt>
      <trkpt lat="43.39596" lon="6.10754">
        <ele>294.20001220703</ele>
        <time>2013-10-12T12:54:25Z</time>
      </trkpt>
      <trkpt lat="43.39598" lon="6.10762">
        <ele>294.60000610352</ele>
        <time>2013-10-12T12:54:27Z</time>
      </trkpt>
      <trkpt lat="43.39601" lon="6.10772">
        <ele>294.60000610352</ele>
        <time>2013-10-12T12:54:30Z</time>
      </trkpt>
      <trkpt lat="43.39604" lon="6.10781">
        <ele>294.60000610352</ele>
        <time>2013-10-12T12:54:33Z</time>
      </trkpt>
      <trkpt lat="43.39606" lon="6.10797">
        <ele>296</ele>
        <time>2013-10-12T12:54:38Z</time>
      </trkpt>
      <trkpt lat="43.39611" lon="6.1081">
        <ele>297</ele>
        <time>2013-10-12T12:54:42Z</time>
      </trkpt>
      <trkpt lat="43.39612" lon="6.10813">
        <ele>297</ele>
        <time>2013-10-12T12:54:43Z</time>
      </trkpt>
      <trkpt lat="43.39619" lon="6.1083">
        <ele>297</ele>
        <time>2013-10-12T12:54:49Z</time>
      </trkpt>
      <trkpt lat="43.39629" lon="6.10858">
        <ele>297</ele>
        <time>2013-10-12T12:54:59Z</time>
      </trkpt>
      <trkpt lat="43.39632" lon="6.10864">
        <ele>297.39999389648</ele>
        <time>2013-10-12T12:55:01Z</time>
      </trkpt>
      <trkpt lat="43.39633" lon="6.10867">
        <ele>297.79998779297</ele>
        <time>2013-10-12T12:55:03Z</time>
      </trkpt>
      <trkpt lat="43.39636" lon="6.10872">
        <ele>298.79998779297</ele>
        <time>2013-10-12T12:55:05Z</time>
      </trkpt>
      <trkpt lat="43.39645" lon="6.10889">
        <ele>301.20001220703</ele>
        <time>2013-10-12T12:55:12Z</time>
      </trkpt>
      <trkpt lat="43.39647" lon="6.109">
        <ele>301.20001220703</ele>
        <time>2013-10-12T12:55:16Z</time>
      </trkpt>
      <trkpt lat="43.39652" lon="6.10917">
        <ele>301.20001220703</ele>
        <time>2013-10-12T12:55:23Z</time>
      </trkpt>
      <trkpt lat="43.39654" lon="6.10932">
        <ele>301.60000610352</ele>
        <time>2013-10-12T12:55:29Z</time>
      </trkpt>
      <trkpt lat="43.39654" lon="6.10936">
        <ele>302.60000610352</ele>
        <time>2013-10-12T12:55:31Z</time>
      </trkpt>
      <trkpt lat="43.39655" lon="6.10941">
        <ele>303.39999389648</ele>
        <time>2013-10-12T12:55:33Z</time>
      </trkpt>
      <trkpt lat="43.39656" lon="6.10949">
        <ele>303.39999389648</ele>
        <time>2013-10-12T12:55:37Z</time>
      </trkpt>
      <trkpt lat="43.39666" lon="6.10965">
        <ele>303.39999389648</ele>
        <time>2013-10-12T12:55:45Z</time>
      </trkpt>
      <trkpt lat="43.39668" lon="6.10983">
        <ele>303.39999389648</ele>
        <time>2013-10-12T12:55:51Z</time>
      </trkpt>
      <trkpt lat="43.3967" lon="6.10996">
        <ele>303.39999389648</ele>
        <time>2013-10-12T12:55:56Z</time>
      </trkpt>
      <trkpt lat="43.39675" lon="6.11012">
        <ele>303.39999389648</ele>
        <time>2013-10-12T12:56:03Z</time>
      </trkpt>
      <trkpt lat="43.39678" lon="6.11029">
        <ele>305.79998779297</ele>
        <time>2013-10-12T12:56:10Z</time>
      </trkpt>
      <trkpt lat="43.3968" lon="6.11046">
        <ele>305.79998779297</ele>
        <time>2013-10-12T12:56:17Z</time>
      </trkpt>
      <trkpt lat="43.39681" lon="6.11059">
        <ele>305.79998779297</ele>
        <time>2013-10-12T12:56:23Z</time>
      </trkpt>
      <trkpt lat="43.39684" lon="6.11088">
        <ele>307.79998779297</ele>
        <time>2013-10-12T12:56:35Z</time>
      </trkpt>
      <trkpt lat="43.39683" lon="6.111">
        <ele>307.79998779297</ele>
        <time>2013-10-12T12:56:40Z</time>
      </trkpt>
      <trkpt lat="43.39681" lon="6.11114">
        <ele>307.79998779297</ele>
        <time>2013-10-12T12:56:46Z</time>
      </trkpt>
      <trkpt lat="43.39673" lon="6.1113">
        <ele>308.60000610352</ele>
        <time>2013-10-12T12:56:55Z</time>
      </trkpt>
      <trkpt lat="43.39671" lon="6.11135">
        <ele>309.39999389648</ele>
        <time>2013-10-12T12:56:57Z</time>
      </trkpt>
      <trkpt lat="43.3967" lon="6.11138">
        <ele>309.79998779297</ele>
        <time>2013-10-12T12:56:59Z</time>
      </trkpt>
      <trkpt lat="43.39669" lon="6.11152">
        <ele>309.79998779297</ele>
        <time>2013-10-12T12:57:05Z</time>
      </trkpt>
      <trkpt lat="43.39666" lon="6.11169">
        <ele>309.79998779297</ele>
        <time>2013-10-12T12:57:13Z</time>
      </trkpt>
      <trkpt lat="43.39667" lon="6.11183">
        <ele>311.39999389648</ele>
        <time>2013-10-12T12:57:19Z</time>
      </trkpt>
      <trkpt lat="43.39663" lon="6.11194">
        <ele>311.79998779297</ele>
        <time>2013-10-12T12:57:24Z</time>
      </trkpt>
      <trkpt lat="43.39661" lon="6.112">
        <ele>312.39999389648</ele>
        <time>2013-10-12T12:57:27Z</time>
      </trkpt>
      <trkpt lat="43.39659" lon="6.11206">
        <ele>314.20001220703</ele>
        <time>2013-10-12T12:57:30Z</time>
      </trkpt>
      <trkpt lat="43.39655" lon="6.1122">
        <ele>314.20001220703</ele>
        <time>2013-10-12T12:57:37Z</time>
      </trkpt>
      <trkpt lat="43.39654" lon="6.11229">
        <ele>315</ele>
        <time>2013-10-12T12:57:42Z</time>
      </trkpt>
      <trkpt lat="43.39654" lon="6.1123">
        <ele>315.39999389648</ele>
        <time>2013-10-12T12:57:43Z</time>
      </trkpt>
      <trkpt lat="43.39654" lon="6.11234">
        <ele>316.20001220703</ele>
        <time>2013-10-12T12:57:45Z</time>
      </trkpt>
      <trkpt lat="43.39654" lon="6.11238">
        <ele>316.20001220703</ele>
        <time>2013-10-12T12:57:47Z</time>
      </trkpt>
      <trkpt lat="43.39655" lon="6.11239">
        <ele>316.20001220703</ele>
        <time>2013-10-12T12:57:48Z</time>
      </trkpt>
      <trkpt lat="43.39655" lon="6.11243">
        <ele>316.20001220703</ele>
        <time>2013-10-12T12:57:53Z</time>
      </trkpt>
      <trkpt lat="43.39655" lon="6.11243">
        <ele>316.20001220703</ele>
        <time>2013-10-12T12:58:11Z</time>
      </trkpt>
      <trkpt lat="43.39655" lon="6.11244">
        <ele>316.20001220703</ele>
        <time>2013-10-12T13:00:15Z</time>
      </trkpt>
      <trkpt lat="43.39655" lon="6.11244">
        <ele>316.20001220703</ele>
        <time>2013-10-12T13:00:33Z</time>
      </trkpt>
      <trkpt lat="43.39655" lon="6.11244">
        <ele>316.20001220703</ele>
        <time>2013-10-12T13:00:43Z</time>
      </trkpt>
      <trkpt lat="43.39655" lon="6.11246">
        <ele>316.20001220703</ele>
        <time>2013-10-12T13:00:52Z</time>
      </trkpt>
      <trkpt lat="43.39655" lon="6.11248">
        <ele>316.20001220703</ele>
        <time>2013-10-12T13:00:53Z</time>
      </trkpt>
      <trkpt lat="43.39653" lon="6.11253">
        <ele>316.20001220703</ele>
        <time>2013-10-12T13:00:55Z</time>
      </trkpt>
      <trkpt lat="43.39653" lon="6.11259">
        <ele>316.20001220703</ele>
        <time>2013-10-12T13:00:57Z</time>
      </trkpt>
      <trkpt lat="43.39651" lon="6.1127">
        <ele>316.20001220703</ele>
        <time>2013-10-12T13:01:00Z</time>
      </trkpt>
      <trkpt lat="43.39648" lon="6.11284">
        <ele>316.20001220703</ele>
        <time>2013-10-12T13:01:05Z</time>
      </trkpt>
      <trkpt lat="43.39646" lon="6.11296">
        <ele>316.20001220703</ele>
        <time>2013-10-12T13:01:09Z</time>
      </trkpt>
      <trkpt lat="43.39646" lon="6.11306">
        <ele>316.20001220703</ele>
        <time>2013-10-12T13:01:12Z</time>
      </trkpt>
      <trkpt lat="43.39644" lon="6.11325">
        <ele>316.20001220703</ele>
        <time>2013-10-12T13:01:18Z</time>
      </trkpt>
      <trkpt lat="43.3964" lon="6.11344">
        <ele>316.20001220703</ele>
        <time>2013-10-12T13:01:24Z</time>
      </trkpt>
      <trkpt lat="43.39637" lon="6.11371">
        <ele>316.20001220703</ele>
        <time>2013-10-12T13:01:31Z</time>
      </trkpt>
      <trkpt lat="43.39633" lon="6.11392">
        <ele>316.20001220703</ele>
        <time>2013-10-12T13:01:35Z</time>
      </trkpt>
      <trkpt lat="43.3963" lon="6.11403">
        <ele>316.20001220703</ele>
        <time>2013-10-12T13:01:37Z</time>
      </trkpt>
      <trkpt lat="43.39624" lon="6.1142">
        <ele>316.20001220703</ele>
        <time>2013-10-12T13:01:40Z</time>
      </trkpt>
      <trkpt lat="43.39618" lon="6.11436">
        <ele>316.20001220703</ele>
        <time>2013-10-12T13:01:43Z</time>
      </trkpt>
      <trkpt lat="43.39613" lon="6.11447">
        <ele>315.79998779297</ele>
        <time>2013-10-12T13:01:45Z</time>
      </trkpt>
      <trkpt lat="43.3961" lon="6.11458">
        <ele>315</ele>
        <time>2013-10-12T13:01:47Z</time>
      </trkpt>
      <trkpt lat="43.39602" lon="6.11479">
        <ele>314.20001220703</ele>
        <time>2013-10-12T13:01:51Z</time>
      </trkpt>
      <trkpt lat="43.39594" lon="6.11499">
        <ele>314.20001220703</ele>
        <time>2013-10-12T13:01:55Z</time>
      </trkpt>
      <trkpt lat="43.39591" lon="6.11504">
        <ele>313.60000610352</ele>
        <time>2013-10-12T13:01:56Z</time>
      </trkpt>
      <trkpt lat="43.39589" lon="6.11508">
        <ele>313.20001220703</ele>
        <time>2013-10-12T13:01:57Z</time>
      </trkpt>
      <trkpt lat="43.39586" lon="6.11512">
        <ele>312.60000610352</ele>
        <time>2013-10-12T13:01:58Z</time>
      </trkpt>
      <trkpt lat="43.39579" lon="6.11519">
        <ele>311.79998779297</ele>
        <time>2013-10-12T13:02:00Z</time>
      </trkpt>
      <trkpt lat="43.39568" lon="6.11524">
        <ele>311.79998779297</ele>
        <time>2013-10-12T13:02:03Z</time>
      </trkpt>
      <trkpt lat="43.39566" lon="6.11525">
        <ele>311.79998779297</ele>
        <time>2013-10-12T13:02:04Z</time>
      </trkpt>
      <trkpt lat="43.39563" lon="6.11529">
        <ele>311.79998779297</ele>
        <time>2013-10-12T13:02:06Z</time>
      </trkpt>
      <trkpt lat="43.39563" lon="6.11531">
        <ele>311.79998779297</ele>
        <time>2013-10-12T13:02:07Z</time>
      </trkpt>
      <trkpt lat="43.39571" lon="6.11536">
        <ele>311.79998779297</ele>
        <time>2013-10-12T13:02:11Z</time>
      </trkpt>
      <trkpt lat="43.39573" lon="6.11537">
        <ele>311.79998779297</ele>
        <time>2013-10-12T13:02:12Z</time>
      </trkpt>
      <trkpt lat="43.39595" lon="6.11554">
        <ele>311.79998779297</ele>
        <time>2013-10-12T13:02:23Z</time>
      </trkpt>
      <trkpt lat="43.39605" lon="6.11561">
        <ele>311.79998779297</ele>
        <time>2013-10-12T13:02:28Z</time>
      </trkpt>
      <trkpt lat="43.3962" lon="6.11574">
        <ele>311.79998779297</ele>
        <time>2013-10-12T13:02:35Z</time>
      </trkpt>
      <trkpt lat="43.39623" lon="6.11578">
        <ele>311.79998779297</ele>
        <time>2013-10-12T13:02:37Z</time>
      </trkpt>
      <trkpt lat="43.39629" lon="6.11585">
        <ele>311.79998779297</ele>
        <time>2013-10-12T13:02:40Z</time>
      </trkpt>
      <trkpt lat="43.39637" lon="6.11589">
        <ele>311.79998779297</ele>
        <time>2013-10-12T13:02:44Z</time>
      </trkpt>
      <trkpt lat="43.39651" lon="6.11597">
        <ele>313.39999389648</ele>
        <time>2013-10-12T13:02:50Z</time>
      </trkpt>
      <trkpt lat="43.39658" lon="6.116">
        <ele>313.79998779297</ele>
        <time>2013-10-12T13:02:53Z</time>
      </trkpt>
      <trkpt lat="43.39663" lon="6.11605">
        <ele>313.79998779297</ele>
        <time>2013-10-12T13:02:55Z</time>
      </trkpt>
      <trkpt lat="43.39674" lon="6.11616">
        <ele>316</ele>
        <time>2013-10-12T13:03:01Z</time>
      </trkpt>
      <trkpt lat="43.39682" lon="6.11628">
        <ele>316</ele>
        <time>2013-10-12T13:03:06Z</time>
      </trkpt>
      <trkpt lat="43.39684" lon="6.11642">
        <ele>316</ele>
        <time>2013-10-12T13:03:11Z</time>
      </trkpt>
      <trkpt lat="43.39687" lon="6.11653">
        <ele>316.39999389648</ele>
        <time>2013-10-12T13:03:15Z</time>
      </trkpt>
      <trkpt lat="43.39688" lon="6.11655">
        <ele>317.20001220703</ele>
        <time>2013-10-12T13:03:16Z</time>
      </trkpt>
      <trkpt lat="43.3969" lon="6.11655">
        <ele>317.60000610352</ele>
        <time>2013-10-12T13:03:17Z</time>
      </trkpt>
      <trkpt lat="43.3969" lon="6.11655">
        <ele>318</ele>
        <time>2013-10-12T13:03:18Z</time>
      </trkpt>
      <trkpt lat="43.39693" lon="6.11656">
        <ele>318</ele>
        <time>2013-10-12T13:03:20Z</time>
      </trkpt>
      <trkpt lat="43.39702" lon="6.11665">
        <ele>318</ele>
        <time>2013-10-12T13:03:25Z</time>
      </trkpt>
      <trkpt lat="43.39714" lon="6.11672">
        <ele>318</ele>
        <time>2013-10-12T13:03:29Z</time>
      </trkpt>
      <trkpt lat="43.39721" lon="6.11676">
        <ele>318</ele>
        <time>2013-10-12T13:03:31Z</time>
      </trkpt>
      <trkpt lat="43.39733" lon="6.11685">
        <ele>317.60000610352</ele>
        <time>2013-10-12T13:03:34Z</time>
      </trkpt>
      <trkpt lat="43.39739" lon="6.11688">
        <ele>316.79998779297</ele>
        <time>2013-10-12T13:03:36Z</time>
      </trkpt>
      <trkpt lat="43.39742" lon="6.11687">
        <ele>316.39999389648</ele>
        <time>2013-10-12T13:03:37Z</time>
      </trkpt>
      <trkpt lat="43.39744" lon="6.11685">
        <ele>316</ele>
        <time>2013-10-12T13:03:38Z</time>
      </trkpt>
      <trkpt lat="43.3975" lon="6.11681">
        <ele>316</ele>
        <time>2013-10-12T13:03:40Z</time>
      </trkpt>
      <trkpt lat="43.39761" lon="6.11674">
        <ele>315.60000610352</ele>
        <time>2013-10-12T13:03:44Z</time>
      </trkpt>
      <trkpt lat="43.39766" lon="6.11669">
        <ele>314.60000610352</ele>
        <time>2013-10-12T13:03:46Z</time>
      </trkpt>
      <trkpt lat="43.39767" lon="6.11665">
        <ele>314.20001220703</ele>
        <time>2013-10-12T13:03:47Z</time>
      </trkpt>
      <trkpt lat="43.39768" lon="6.11658">
        <ele>313.79998779297</ele>
        <time>2013-10-12T13:03:49Z</time>
      </trkpt>
      <trkpt lat="43.39768" lon="6.11639">
        <ele>313.79998779297</ele>
        <time>2013-10-12T13:03:55Z</time>
      </trkpt>
      <trkpt lat="43.39767" lon="6.11629">
        <ele>313.79998779297</ele>
        <time>2013-10-12T13:03:58Z</time>
      </trkpt>
      <trkpt lat="43.39766" lon="6.11623">
        <ele>314.60000610352</ele>
        <time>2013-10-12T13:04:00Z</time>
      </trkpt>
      <trkpt lat="43.39765" lon="6.11617">
        <ele>315.60000610352</ele>
        <time>2013-10-12T13:04:02Z</time>
      </trkpt>
      <trkpt lat="43.39764" lon="6.11603">
        <ele>316</ele>
        <time>2013-10-12T13:04:07Z</time>
      </trkpt>
      <trkpt lat="43.39766" lon="6.11592">
        <ele>316.39999389648</ele>
        <time>2013-10-12T13:04:10Z</time>
      </trkpt>
      <trkpt lat="43.39768" lon="6.11568">
        <ele>318</ele>
        <time>2013-10-12T13:04:17Z</time>
      </trkpt>
      <trkpt lat="43.39771" lon="6.1154">
        <ele>318</ele>
        <time>2013-10-12T13:04:24Z</time>
      </trkpt>
      <trkpt lat="43.39772" lon="6.11516">
        <ele>318</ele>
        <time>2013-10-12T13:04:30Z</time>
      </trkpt>
      <trkpt lat="43.39775" lon="6.11486">
        <ele>318</ele>
        <time>2013-10-12T13:04:38Z</time>
      </trkpt>
      <trkpt lat="43.39776" lon="6.11463">
        <ele>318</ele>
        <time>2013-10-12T13:04:45Z</time>
      </trkpt>
      <trkpt lat="43.39777" lon="6.11443">
        <ele>318</ele>
        <time>2013-10-12T13:04:51Z</time>
      </trkpt>
      <trkpt lat="43.3978" lon="6.11424">
        <ele>318</ele>
        <time>2013-10-12T13:04:57Z</time>
      </trkpt>
      <trkpt lat="43.39787" lon="6.11396">
        <ele>318</ele>
        <time>2013-10-12T13:05:04Z</time>
      </trkpt>
      <trkpt lat="43.39791" lon="6.11385">
        <ele>318</ele>
        <time>2013-10-12T13:05:07Z</time>
      </trkpt>
      <trkpt lat="43.39795" lon="6.11374">
        <ele>318</ele>
        <time>2013-10-12T13:05:10Z</time>
      </trkpt>
      <trkpt lat="43.39796" lon="6.1137">
        <ele>318</ele>
        <time>2013-10-12T13:05:11Z</time>
      </trkpt>
      <trkpt lat="43.39796" lon="6.11352">
        <ele>318</ele>
        <time>2013-10-12T13:05:15Z</time>
      </trkpt>
      <trkpt lat="43.39796" lon="6.11348">
        <ele>318</ele>
        <time>2013-10-12T13:05:16Z</time>
      </trkpt>
      <trkpt lat="43.39801" lon="6.11313">
        <ele>318</ele>
        <time>2013-10-12T13:05:24Z</time>
      </trkpt>
      <trkpt lat="43.39798" lon="6.1128">
        <ele>318</ele>
        <time>2013-10-12T13:05:32Z</time>
      </trkpt>
      <trkpt lat="43.39796" lon="6.11257">
        <ele>318</ele>
        <time>2013-10-12T13:05:38Z</time>
      </trkpt>
      <trkpt lat="43.39793" lon="6.11244">
        <ele>318</ele>
        <time>2013-10-12T13:05:42Z</time>
      </trkpt>
      <trkpt lat="43.39791" lon="6.11235">
        <ele>318</ele>
        <time>2013-10-12T13:05:45Z</time>
      </trkpt>
      <trkpt lat="43.39789" lon="6.11226">
        <ele>318</ele>
        <time>2013-10-12T13:05:48Z</time>
      </trkpt>
      <trkpt lat="43.39788" lon="6.11219">
        <ele>318</ele>
        <time>2013-10-12T13:05:50Z</time>
      </trkpt>
      <trkpt lat="43.39787" lon="6.11205">
        <ele>318</ele>
        <time>2013-10-12T13:05:54Z</time>
      </trkpt>
      <trkpt lat="43.39787" lon="6.11201">
        <ele>318</ele>
        <time>2013-10-12T13:05:55Z</time>
      </trkpt>
      <trkpt lat="43.39788" lon="6.11179">
        <ele>318</ele>
        <time>2013-10-12T13:06:01Z</time>
      </trkpt>
      <trkpt lat="43.39788" lon="6.1115">
        <ele>320.39999389648</ele>
        <time>2013-10-12T13:06:08Z</time>
      </trkpt>
      <trkpt lat="43.39788" lon="6.11141">
        <ele>320</ele>
        <time>2013-10-12T13:06:10Z</time>
      </trkpt>
      <trkpt lat="43.39787" lon="6.11128">
        <ele>318.60000610352</ele>
        <time>2013-10-12T13:06:13Z</time>
      </trkpt>
      <trkpt lat="43.39788" lon="6.1111">
        <ele>319.39999389648</ele>
        <time>2013-10-12T13:06:17Z</time>
      </trkpt>
      <trkpt lat="43.39788" lon="6.11106">
        <ele>319.79998779297</ele>
        <time>2013-10-12T13:06:18Z</time>
      </trkpt>
      <trkpt lat="43.3979" lon="6.11094">
        <ele>320.20001220703</ele>
        <time>2013-10-12T13:06:21Z</time>
      </trkpt>
      <trkpt lat="43.39788" lon="6.11073">
        <ele>320.20001220703</ele>
        <time>2013-10-12T13:06:26Z</time>
      </trkpt>
      <trkpt lat="43.39785" lon="6.11057">
        <ele>320.20001220703</ele>
        <time>2013-10-12T13:06:31Z</time>
      </trkpt>
      <trkpt lat="43.39782" lon="6.11039">
        <ele>320.20001220703</ele>
        <time>2013-10-12T13:06:37Z</time>
      </trkpt>
      <trkpt lat="43.39778" lon="6.11024">
        <ele>320.20001220703</ele>
        <time>2013-10-12T13:06:43Z</time>
      </trkpt>
      <trkpt lat="43.39776" lon="6.11019">
        <ele>320.60000610352</ele>
        <time>2013-10-12T13:06:45Z</time>
      </trkpt>
      <trkpt lat="43.3977" lon="6.10992">
        <ele>322.39999389648</ele>
        <time>2013-10-12T13:06:54Z</time>
      </trkpt>
      <trkpt lat="43.39766" lon="6.10976">
        <ele>322.39999389648</ele>
        <time>2013-10-12T13:07:00Z</time>
      </trkpt>
      <trkpt lat="43.39764" lon="6.10954">
        <ele>322.39999389648</ele>
        <time>2013-10-12T13:07:06Z</time>
      </trkpt>
      <trkpt lat="43.39764" lon="6.10933">
        <ele>322.39999389648</ele>
        <time>2013-10-12T13:07:12Z</time>
      </trkpt>
      <trkpt lat="43.39761" lon="6.10912">
        <ele>322.39999389648</ele>
        <time>2013-10-12T13:07:17Z</time>
      </trkpt>
      <trkpt lat="43.39756" lon="6.10891">
        <ele>322.39999389648</ele>
        <time>2013-10-12T13:07:23Z</time>
      </trkpt>
      <trkpt lat="43.39753" lon="6.1088">
        <ele>322.39999389648</ele>
        <time>2013-10-12T13:07:27Z</time>
      </trkpt>
      <trkpt lat="43.39752" lon="6.10879">
        <ele>322.39999389648</ele>
        <time>2013-10-12T13:07:28Z</time>
      </trkpt>
      <trkpt lat="43.39751" lon="6.10876">
        <ele>322.39999389648</ele>
        <time>2013-10-12T13:07:29Z</time>
      </trkpt>
      <trkpt lat="43.39751" lon="6.1087">
        <ele>323.20001220703</ele>
        <time>2013-10-12T13:07:31Z</time>
      </trkpt>
      <trkpt lat="43.3975" lon="6.10864">
        <ele>324</ele>
        <time>2013-10-12T13:07:33Z</time>
      </trkpt>
      <trkpt lat="43.39749" lon="6.10853">
        <ele>324.39999389648</ele>
        <time>2013-10-12T13:07:37Z</time>
      </trkpt>
      <trkpt lat="43.39747" lon="6.10848">
        <ele>324.39999389648</ele>
        <time>2013-10-12T13:07:39Z</time>
      </trkpt>
      <trkpt lat="43.39745" lon="6.10842">
        <ele>324.79998779297</ele>
        <time>2013-10-12T13:07:42Z</time>
      </trkpt>
      <trkpt lat="43.39745" lon="6.10841">
        <ele>325.39999389648</ele>
        <time>2013-10-12T13:07:43Z</time>
      </trkpt>
      <trkpt lat="43.39745" lon="6.10838">
        <ele>326.20001220703</ele>
        <time>2013-10-12T13:07:45Z</time>
      </trkpt>
      <trkpt lat="43.39745" lon="6.10838">
        <ele>326.60000610352</ele>
        <time>2013-10-12T13:07:46Z</time>
      </trkpt>
      <trkpt lat="43.39745" lon="6.10838">
        <ele>326.60000610352</ele>
        <time>2013-10-12T13:08:11Z</time>
      </trkpt>
      <trkpt lat="43.39745" lon="6.10837">
        <ele>326.60000610352</ele>
        <time>2013-10-12T13:08:57Z</time>
      </trkpt>
      <trkpt lat="43.39745" lon="6.10837">
        <ele>326.60000610352</ele>
        <time>2013-10-12T13:09:11Z</time>
      </trkpt>
      <trkpt lat="43.39744" lon="6.10837">
        <ele>326.60000610352</ele>
        <time>2013-10-12T13:09:39Z</time>
      </trkpt>
      <trkpt lat="43.39743" lon="6.10833">
        <ele>326.60000610352</ele>
        <time>2013-10-12T13:09:49Z</time>
      </trkpt>
      <trkpt lat="43.39743" lon="6.10828">
        <ele>326.60000610352</ele>
        <time>2013-10-12T13:09:50Z</time>
      </trkpt>
      <trkpt lat="43.3974" lon="6.10802">
        <ele>326.60000610352</ele>
        <time>2013-10-12T13:09:55Z</time>
      </trkpt>
      <trkpt lat="43.39738" lon="6.1077">
        <ele>326.60000610352</ele>
        <time>2013-10-12T13:10:01Z</time>
      </trkpt>
      <trkpt lat="43.39738" lon="6.10765">
        <ele>326.60000610352</ele>
        <time>2013-10-12T13:10:02Z</time>
      </trkpt>
      <trkpt lat="43.39739" lon="6.10756">
        <ele>326.60000610352</ele>
        <time>2013-10-12T13:10:04Z</time>
      </trkpt>
      <trkpt lat="43.39727" lon="6.10713">
        <ele>326.60000610352</ele>
        <time>2013-10-12T13:10:13Z</time>
      </trkpt>
      <trkpt lat="43.39722" lon="6.1069">
        <ele>326.60000610352</ele>
        <time>2013-10-12T13:10:18Z</time>
      </trkpt>
      <trkpt lat="43.39723" lon="6.10673">
        <ele>326.60000610352</ele>
        <time>2013-10-12T13:10:22Z</time>
      </trkpt>
      <trkpt lat="43.39724" lon="6.10656">
        <ele>326.20001220703</ele>
        <time>2013-10-12T13:10:25Z</time>
      </trkpt>
      <trkpt lat="43.39717" lon="6.10626">
        <ele>324</ele>
        <time>2013-10-12T13:10:30Z</time>
      </trkpt>
      <trkpt lat="43.39715" lon="6.1062">
        <ele>323.39999389648</ele>
        <time>2013-10-12T13:10:31Z</time>
      </trkpt>
      <trkpt lat="43.39714" lon="6.10615">
        <ele>323</ele>
        <time>2013-10-12T13:10:32Z</time>
      </trkpt>
      <trkpt lat="43.39713" lon="6.1061">
        <ele>322.39999389648</ele>
        <time>2013-10-12T13:10:33Z</time>
      </trkpt>
      <trkpt lat="43.39712" lon="6.10583">
        <ele>322.39999389648</ele>
        <time>2013-10-12T13:10:38Z</time>
      </trkpt>
      <trkpt lat="43.3971" lon="6.10569">
        <ele>322.39999389648</ele>
        <time>2013-10-12T13:10:41Z</time>
      </trkpt>
      <trkpt lat="43.39708" lon="6.10565">
        <ele>322.39999389648</ele>
        <time>2013-10-12T13:10:42Z</time>
      </trkpt>
      <trkpt lat="43.39704" lon="6.10557">
        <ele>322.39999389648</ele>
        <time>2013-10-12T13:10:45Z</time>
      </trkpt>
      <trkpt lat="43.39701" lon="6.10555">
        <ele>322.39999389648</ele>
        <time>2013-10-12T13:10:46Z</time>
      </trkpt>
      <trkpt lat="43.397" lon="6.10543">
        <ele>322.39999389648</ele>
        <time>2013-10-12T13:10:49Z</time>
      </trkpt>
      <trkpt lat="43.397" lon="6.10536">
        <ele>323.20001220703</ele>
        <time>2013-10-12T13:10:52Z</time>
      </trkpt>
      <trkpt lat="43.39698" lon="6.1053">
        <ele>324</ele>
        <time>2013-10-12T13:10:54Z</time>
      </trkpt>
      <trkpt lat="43.39699" lon="6.10522">
        <ele>324.39999389648</ele>
        <time>2013-10-12T13:10:57Z</time>
      </trkpt>
      <trkpt lat="43.397" lon="6.10518">
        <ele>324.39999389648</ele>
        <time>2013-10-12T13:10:59Z</time>
      </trkpt>
      <trkpt lat="43.397" lon="6.10511">
        <ele>325</ele>
        <time>2013-10-12T13:11:02Z</time>
      </trkpt>
      <trkpt lat="43.397" lon="6.10503">
        <ele>326.60000610352</ele>
        <time>2013-10-12T13:11:05Z</time>
      </trkpt>
      <trkpt lat="43.397" lon="6.10495">
        <ele>326.60000610352</ele>
        <time>2013-10-12T13:11:08Z</time>
      </trkpt>
      <trkpt lat="43.39698" lon="6.10476">
        <ele>326.60000610352</ele>
        <time>2013-10-12T13:11:14Z</time>
      </trkpt>
      <trkpt lat="43.39705" lon="6.10457">
        <ele>326.60000610352</ele>
        <time>2013-10-12T13:11:19Z</time>
      </trkpt>
      <trkpt lat="43.39709" lon="6.10437">
        <ele>326.60000610352</ele>
        <time>2013-10-12T13:11:23Z</time>
      </trkpt>
      <trkpt lat="43.3971" lon="6.1043">
        <ele>326.20001220703</ele>
        <time>2013-10-12T13:11:24Z</time>
      </trkpt>
      <trkpt lat="43.3971" lon="6.10424">
        <ele>325.79998779297</ele>
        <time>2013-10-12T13:11:25Z</time>
      </trkpt>
      <trkpt lat="43.39712" lon="6.10412">
        <ele>324.60000610352</ele>
        <time>2013-10-12T13:11:27Z</time>
      </trkpt>
      <trkpt lat="43.39711" lon="6.10406">
        <ele>324</ele>
        <time>2013-10-12T13:11:28Z</time>
      </trkpt>
      <trkpt lat="43.39709" lon="6.10404">
        <ele>322.60000610352</ele>
        <time>2013-10-12T13:11:29Z</time>
      </trkpt>
      <trkpt lat="43.39709" lon="6.10401">
        <ele>322</ele>
        <time>2013-10-12T13:11:30Z</time>
      </trkpt>
      <trkpt lat="43.39709" lon="6.10401">
        <ele>321.39999389648</ele>
        <time>2013-10-12T13:11:31Z</time>
      </trkpt>
      <trkpt lat="43.39708" lon="6.104">
        <ele>320.60000610352</ele>
        <time>2013-10-12T13:11:32Z</time>
      </trkpt>
      <trkpt lat="43.39708" lon="6.10401">
        <ele>320</ele>
        <time>2013-10-12T13:11:33Z</time>
      </trkpt>
      <trkpt lat="43.39708" lon="6.10401">
        <ele>320</ele>
        <time>2013-10-12T13:11:36Z</time>
      </trkpt>
      <trkpt lat="43.39708" lon="6.10401">
        <ele>320</ele>
        <time>2013-10-12T13:11:48Z</time>
      </trkpt>
      <trkpt lat="43.39708" lon="6.10401">
        <ele>318</ele>
        <time>2013-10-12T13:12:01Z</time>
      </trkpt>
      <trkpt lat="43.39708" lon="6.10401">
        <ele>317.39999389648</ele>
        <time>2013-10-12T13:12:06Z</time>
      </trkpt>
      <trkpt lat="43.39708" lon="6.10401">
        <ele>317.39999389648</ele>
        <time>2013-10-12T13:12:16Z</time>
      </trkpt>
      <trkpt lat="43.39708" lon="6.10401">
        <ele>319.39999389648</ele>
        <time>2013-10-12T13:12:29Z</time>
      </trkpt>
      <trkpt lat="43.39708" lon="6.104">
        <ele>320</ele>
        <time>2013-10-12T13:13:14Z</time>
      </trkpt>
      <trkpt lat="43.39708" lon="6.104">
        <ele>320</ele>
        <time>2013-10-12T13:13:23Z</time>
      </trkpt>
      <trkpt lat="43.39708" lon="6.104">
        <ele>320</ele>
        <time>2013-10-12T13:13:26Z</time>
      </trkpt>
      <trkpt lat="43.39708" lon="6.10399">
        <ele>320</ele>
        <time>2013-10-12T13:13:34Z</time>
      </trkpt>
      <trkpt lat="43.39708" lon="6.10397">
        <ele>320</ele>
        <time>2013-10-12T13:13:37Z</time>
      </trkpt>
      <trkpt lat="43.39707" lon="6.10391">
        <ele>319</ele>
        <time>2013-10-12T13:13:39Z</time>
      </trkpt>
      <trkpt lat="43.39705" lon="6.1039">
        <ele>318.60000610352</ele>
        <time>2013-10-12T13:13:40Z</time>
      </trkpt>
      <trkpt lat="43.397" lon="6.10385">
        <ele>317.60000610352</ele>
        <time>2013-10-12T13:13:42Z</time>
      </trkpt>
      <trkpt lat="43.39698" lon="6.10382">
        <ele>317.60000610352</ele>
        <time>2013-10-12T13:13:43Z</time>
      </trkpt>
      <trkpt lat="43.39695" lon="6.10381">
        <ele>317.60000610352</ele>
        <time>2013-10-12T13:13:44Z</time>
      </trkpt>
      <trkpt lat="43.39691" lon="6.10381">
        <ele>317.20001220703</ele>
        <time>2013-10-12T13:13:46Z</time>
      </trkpt>
      <trkpt lat="43.3969" lon="6.10379">
        <ele>316.79998779297</ele>
        <time>2013-10-12T13:13:47Z</time>
      </trkpt>
      <trkpt lat="43.39688" lon="6.10377">
        <ele>316.39999389648</ele>
        <time>2013-10-12T13:13:48Z</time>
      </trkpt>
      <trkpt lat="43.39688" lon="6.10373">
        <ele>315.79998779297</ele>
        <time>2013-10-12T13:13:49Z</time>
      </trkpt>
      <trkpt lat="43.39688" lon="6.10371">
        <ele>315.39999389648</ele>
        <time>2013-10-12T13:13:50Z</time>
      </trkpt>
      <trkpt lat="43.39689" lon="6.10368">
        <ele>315</ele>
        <time>2013-10-12T13:13:51Z</time>
      </trkpt>
      <trkpt lat="43.3969" lon="6.10365">
        <ele>314.60000610352</ele>
        <time>2013-10-12T13:13:52Z</time>
      </trkpt>
      <trkpt lat="43.39693" lon="6.10363">
        <ele>314.20001220703</ele>
        <time>2013-10-12T13:13:53Z</time>
      </trkpt>
      <trkpt lat="43.39694" lon="6.1036">
        <ele>313.60000610352</ele>
        <time>2013-10-12T13:13:54Z</time>
      </trkpt>
      <trkpt lat="43.39696" lon="6.10355">
        <ele>312.60000610352</ele>
        <time>2013-10-12T13:13:56Z</time>
      </trkpt>
      <trkpt lat="43.39696" lon="6.10354">
        <ele>311.60000610352</ele>
        <time>2013-10-12T13:13:57Z</time>
      </trkpt>
      <trkpt lat="43.39695" lon="6.10353">
        <ele>311.20001220703</ele>
        <time>2013-10-12T13:13:58Z</time>
      </trkpt>
      <trkpt lat="43.39695" lon="6.1035">
        <ele>310.60000610352</ele>
        <time>2013-10-12T13:13:59Z</time>
      </trkpt>
      <trkpt lat="43.39692" lon="6.10349">
        <ele>310</ele>
        <time>2013-10-12T13:14:00Z</time>
      </trkpt>
      <trkpt lat="43.39675" lon="6.10345">
        <ele>307</ele>
        <time>2013-10-12T13:14:05Z</time>
      </trkpt>
      <trkpt lat="43.39672" lon="6.10342">
        <ele>306.39999389648</ele>
        <time>2013-10-12T13:14:06Z</time>
      </trkpt>
      <trkpt lat="43.3967" lon="6.1034">
        <ele>305.79998779297</ele>
        <time>2013-10-12T13:14:07Z</time>
      </trkpt>
      <trkpt lat="43.39669" lon="6.10335">
        <ele>305.39999389648</ele>
        <time>2013-10-12T13:14:08Z</time>
      </trkpt>
      <trkpt lat="43.39666" lon="6.10333">
        <ele>305</ele>
        <time>2013-10-12T13:14:09Z</time>
      </trkpt>
      <trkpt lat="43.39665" lon="6.10331">
        <ele>304.60000610352</ele>
        <time>2013-10-12T13:14:10Z</time>
      </trkpt>
      <trkpt lat="43.39663" lon="6.10329">
        <ele>304.20001220703</ele>
        <time>2013-10-12T13:14:11Z</time>
      </trkpt>
      <trkpt lat="43.39657" lon="6.10329">
        <ele>303.60000610352</ele>
        <time>2013-10-12T13:14:14Z</time>
      </trkpt>
      <trkpt lat="43.39655" lon="6.10328">
        <ele>303</ele>
        <time>2013-10-12T13:14:15Z</time>
      </trkpt>
      <trkpt lat="43.39653" lon="6.10328">
        <ele>302.20001220703</ele>
        <time>2013-10-12T13:14:16Z</time>
      </trkpt>
      <trkpt lat="43.39651" lon="6.1033">
        <ele>301.39999389648</ele>
        <time>2013-10-12T13:14:17Z</time>
      </trkpt>
      <trkpt lat="43.3965" lon="6.1033">
        <ele>300.60000610352</ele>
        <time>2013-10-12T13:14:18Z</time>
      </trkpt>
      <trkpt lat="43.39648" lon="6.1033">
        <ele>299.79998779297</ele>
        <time>2013-10-12T13:14:19Z</time>
      </trkpt>
      <trkpt lat="43.39647" lon="6.10331">
        <ele>299</ele>
        <time>2013-10-12T13:14:20Z</time>
      </trkpt>
      <trkpt lat="43.39645" lon="6.10332">
        <ele>297.79998779297</ele>
        <time>2013-10-12T13:14:22Z</time>
      </trkpt>
      <trkpt lat="43.39643" lon="6.10335">
        <ele>297.39999389648</ele>
        <time>2013-10-12T13:14:23Z</time>
      </trkpt>
      <trkpt lat="43.39642" lon="6.10336">
        <ele>297</ele>
        <time>2013-10-12T13:14:24Z</time>
      </trkpt>
      <trkpt lat="43.39639" lon="6.10339">
        <ele>297</ele>
        <time>2013-10-12T13:14:25Z</time>
      </trkpt>
      <trkpt lat="43.39631" lon="6.10344">
        <ele>296</ele>
        <time>2013-10-12T13:14:28Z</time>
      </trkpt>
      <trkpt lat="43.39624" lon="6.10347">
        <ele>294.39999389648</ele>
        <time>2013-10-12T13:14:31Z</time>
      </trkpt>
      <trkpt lat="43.39621" lon="6.1035">
        <ele>293.79998779297</ele>
        <time>2013-10-12T13:14:32Z</time>
      </trkpt>
      <trkpt lat="43.39619" lon="6.10352">
        <ele>293.39999389648</ele>
        <time>2013-10-12T13:14:33Z</time>
      </trkpt>
      <trkpt lat="43.39616" lon="6.10353">
        <ele>292.79998779297</ele>
        <time>2013-10-12T13:14:34Z</time>
      </trkpt>
      <trkpt lat="43.39609" lon="6.10355">
        <ele>292.20001220703</ele>
        <time>2013-10-12T13:14:36Z</time>
      </trkpt>
      <trkpt lat="43.39601" lon="6.10357">
        <ele>291.60000610352</ele>
        <time>2013-10-12T13:14:39Z</time>
      </trkpt>
      <trkpt lat="43.39599" lon="6.10358">
        <ele>291.20001220703</ele>
        <time>2013-10-12T13:14:40Z</time>
      </trkpt>
      <trkpt lat="43.39596" lon="6.10358">
        <ele>290.79998779297</ele>
        <time>2013-10-12T13:14:41Z</time>
      </trkpt>
      <trkpt lat="43.39594" lon="6.10359">
        <ele>290.20001220703</ele>
        <time>2013-10-12T13:14:42Z</time>
      </trkpt>
      <trkpt lat="43.39592" lon="6.10362">
        <ele>289.60000610352</ele>
        <time>2013-10-12T13:14:43Z</time>
      </trkpt>
      <trkpt lat="43.39587" lon="6.10366">
        <ele>288.20001220703</ele>
        <time>2013-10-12T13:14:45Z</time>
      </trkpt>
      <trkpt lat="43.39586" lon="6.1037">
        <ele>287.60000610352</ele>
        <time>2013-10-12T13:14:46Z</time>
      </trkpt>
      <trkpt lat="43.39584" lon="6.10377">
        <ele>287.20001220703</ele>
        <time>2013-10-12T13:14:49Z</time>
      </trkpt>
      <trkpt lat="43.39582" lon="6.10383">
        <ele>286.39999389648</ele>
        <time>2013-10-12T13:14:51Z</time>
      </trkpt>
      <trkpt lat="43.39581" lon="6.10385">
        <ele>285.79998779297</ele>
        <time>2013-10-12T13:14:52Z</time>
      </trkpt>
      <trkpt lat="43.3958" lon="6.10387">
        <ele>285.39999389648</ele>
        <time>2013-10-12T13:14:53Z</time>
      </trkpt>
      <trkpt lat="43.39579" lon="6.10388">
        <ele>285.39999389648</ele>
        <time>2013-10-12T13:14:54Z</time>
      </trkpt>
      <trkpt lat="43.39577" lon="6.10384">
        <ele>284.60000610352</ele>
        <time>2013-10-12T13:14:56Z</time>
      </trkpt>
      <trkpt lat="43.39577" lon="6.10385">
        <ele>284.20001220703</ele>
        <time>2013-10-12T13:14:57Z</time>
      </trkpt>
      <trkpt lat="43.39577" lon="6.10385">
        <ele>283.60000610352</ele>
        <time>2013-10-12T13:14:58Z</time>
      </trkpt>
      <trkpt lat="43.39577" lon="6.10385">
        <ele>283</ele>
        <time>2013-10-12T13:14:59Z</time>
      </trkpt>
      <trkpt lat="43.39577" lon="6.10385">
        <ele>282.39999389648</ele>
        <time>2013-10-12T13:15:00Z</time>
      </trkpt>
      <trkpt lat="43.39577" lon="6.10386">
        <ele>281.79998779297</ele>
        <time>2013-10-12T13:15:01Z</time>
      </trkpt>
      <trkpt lat="43.39577" lon="6.10386">
        <ele>281.39999389648</ele>
        <time>2013-10-12T13:15:02Z</time>
      </trkpt>
      <trkpt lat="43.39577" lon="6.10386">
        <ele>281.39999389648</ele>
        <time>2013-10-12T13:15:03Z</time>
      </trkpt>
      <trkpt lat="43.39576" lon="6.10385">
        <ele>281.39999389648</ele>
        <time>2013-10-12T13:15:05Z</time>
      </trkpt>
      <trkpt lat="43.39573" lon="6.10386">
        <ele>281.39999389648</ele>
        <time>2013-10-12T13:15:08Z</time>
      </trkpt>
      <trkpt lat="43.39569" lon="6.10387">
        <ele>281.39999389648</ele>
        <time>2013-10-12T13:15:14Z</time>
      </trkpt>
      <trkpt lat="43.39569" lon="6.10387">
        <ele>279.20001220703</ele>
        <time>2013-10-12T13:15:20Z</time>
      </trkpt>
      <trkpt lat="43.39569" lon="6.10388">
        <ele>279.20001220703</ele>
        <time>2013-10-12T13:15:23Z</time>
      </trkpt>
      <trkpt lat="43.39569" lon="6.10388">
        <ele>279.20001220703</ele>
        <time>2013-10-12T13:15:30Z</time>
      </trkpt>
      <trkpt lat="43.39569" lon="6.10388">
        <ele>278</ele>
        <time>2013-10-12T13:15:33Z</time>
      </trkpt>
      <trkpt lat="43.39569" lon="6.10389">
        <ele>277</ele>
        <time>2013-10-12T13:15:35Z</time>
      </trkpt>
      <trkpt lat="43.39569" lon="6.10389">
        <ele>277.39999389648</ele>
        <time>2013-10-12T13:15:41Z</time>
      </trkpt>
      <trkpt lat="43.39569" lon="6.10389">
        <ele>279</ele>
        <time>2013-10-12T13:15:45Z</time>
      </trkpt>
      <trkpt lat="43.39569" lon="6.10389">
        <ele>279</ele>
        <time>2013-10-12T13:15:51Z</time>
      </trkpt>
      <trkpt lat="43.3957" lon="6.10389">
        <ele>279</ele>
        <time>2013-10-12T13:15:56Z</time>
      </trkpt>
      <trkpt lat="43.3957" lon="6.10389">
        <ele>279</ele>
        <time>2013-10-12T13:16:25Z</time>
      </trkpt>
      <trkpt lat="43.3957" lon="6.10389">
        <ele>279</ele>
        <time>2013-10-12T13:16:56Z</time>
      </trkpt>
      <trkpt lat="43.3957" lon="6.10389">
        <ele>279</ele>
        <time>2013-10-12T13:17:12Z</time>
      </trkpt>
      <trkpt lat="43.3957" lon="6.10389">
        <ele>279</ele>
        <time>2013-10-12T13:17:21Z</time>
      </trkpt>
      <trkpt lat="43.3957" lon="6.10389">
        <ele>279</ele>
        <time>2013-10-12T13:17:42Z</time>
      </trkpt>
      <trkpt lat="43.3957" lon="6.10389">
        <ele>279</ele>
        <time>2013-10-12T13:17:55Z</time>
      </trkpt>
      <trkpt lat="43.3957" lon="6.1039">
        <ele>279</ele>
        <time>2013-10-12T13:18:02Z</time>
      </trkpt>
      <trkpt lat="43.3957" lon="6.1039">
        <ele>279</ele>
        <time>2013-10-12T13:18:13Z</time>
      </trkpt>
      <trkpt lat="43.3957" lon="6.10389">
        <ele>279</ele>
        <time>2013-10-12T13:18:40Z</time>
      </trkpt>
      <trkpt lat="43.3957" lon="6.1039">
        <ele>278.60000610352</ele>
        <time>2013-10-12T13:18:43Z</time>
      </trkpt>
      <trkpt lat="43.3957" lon="6.1039">
        <ele>276.39999389648</ele>
        <time>2013-10-12T13:18:47Z</time>
      </trkpt>
      <trkpt lat="43.39569" lon="6.10389">
        <ele>276.39999389648</ele>
        <time>2013-10-12T13:18:51Z</time>
      </trkpt>
      <trkpt lat="43.39567" lon="6.10389">
        <ele>276.39999389648</ele>
        <time>2013-10-12T13:18:52Z</time>
      </trkpt>
      <trkpt lat="43.3956" lon="6.10392">
        <ele>276.39999389648</ele>
        <time>2013-10-12T13:18:55Z</time>
      </trkpt>
      <trkpt lat="43.39556" lon="6.10396">
        <ele>276</ele>
        <time>2013-10-12T13:18:57Z</time>
      </trkpt>
      <trkpt lat="43.39554" lon="6.10399">
        <ele>275.60000610352</ele>
        <time>2013-10-12T13:18:58Z</time>
      </trkpt>
      <trkpt lat="43.39552" lon="6.104">
        <ele>275.20001220703</ele>
        <time>2013-10-12T13:18:59Z</time>
      </trkpt>
      <trkpt lat="43.3955" lon="6.10401">
        <ele>274.79998779297</ele>
        <time>2013-10-12T13:19:00Z</time>
      </trkpt>
      <trkpt lat="43.39547" lon="6.10402">
        <ele>274.39999389648</ele>
        <time>2013-10-12T13:19:01Z</time>
      </trkpt>
      <trkpt lat="43.39542" lon="6.10401">
        <ele>274.39999389648</ele>
        <time>2013-10-12T13:19:04Z</time>
      </trkpt>
      <trkpt lat="43.39542" lon="6.10401">
        <ele>274.39999389648</ele>
        <time>2013-10-12T13:19:10Z</time>
      </trkpt>
      <trkpt lat="43.39542" lon="6.10401">
        <ele>274.39999389648</ele>
        <time>2013-10-12T13:19:14Z</time>
      </trkpt>
      <trkpt lat="43.39541" lon="6.104">
        <ele>274.39999389648</ele>
        <time>2013-10-12T13:19:19Z</time>
      </trkpt>
      <trkpt lat="43.3954" lon="6.104">
        <ele>274.39999389648</ele>
        <time>2013-10-12T13:19:26Z</time>
      </trkpt>
      <trkpt lat="43.3954" lon="6.104">
        <ele>272.20001220703</ele>
        <time>2013-10-12T13:19:36Z</time>
      </trkpt>
      <trkpt lat="43.3954" lon="6.10401">
        <ele>272.20001220703</ele>
        <time>2013-10-12T13:19:55Z</time>
      </trkpt>
      <trkpt lat="43.3954" lon="6.10401">
        <ele>272.20001220703</ele>
        <time>2013-10-12T13:20:04Z</time>
      </trkpt>
      <trkpt lat="43.39539" lon="6.104">
        <ele>272.20001220703</ele>
        <time>2013-10-12T13:20:06Z</time>
      </trkpt>
      <trkpt lat="43.39532" lon="6.10392">
        <ele>272.20001220703</ele>
        <time>2013-10-12T13:20:11Z</time>
      </trkpt>
      <trkpt lat="43.39522" lon="6.10385">
        <ele>272.20001220703</ele>
        <time>2013-10-12T13:20:16Z</time>
      </trkpt>
      <trkpt lat="43.3951" lon="6.10384">
        <ele>272.20001220703</ele>
        <time>2013-10-12T13:20:20Z</time>
      </trkpt>
      <trkpt lat="43.39496" lon="6.10382">
        <ele>272.20001220703</ele>
        <time>2013-10-12T13:20:24Z</time>
      </trkpt>
      <trkpt lat="43.39471" lon="6.10375">
        <ele>271.39999389648</ele>
        <time>2013-10-12T13:20:31Z</time>
      </trkpt>
      <trkpt lat="43.39467" lon="6.10373">
        <ele>270.79998779297</ele>
        <time>2013-10-12T13:20:32Z</time>
      </trkpt>
      <trkpt lat="43.39463" lon="6.10373">
        <ele>270.39999389648</ele>
        <time>2013-10-12T13:20:33Z</time>
      </trkpt>
      <trkpt lat="43.39459" lon="6.10373">
        <ele>270</ele>
        <time>2013-10-12T13:20:34Z</time>
      </trkpt>
      <trkpt lat="43.39455" lon="6.10374">
        <ele>270</ele>
        <time>2013-10-12T13:20:35Z</time>
      </trkpt>
      <trkpt lat="43.3944" lon="6.10385">
        <ele>270</ele>
        <time>2013-10-12T13:20:39Z</time>
      </trkpt>
      <trkpt lat="43.39437" lon="6.10389">
        <ele>270</ele>
        <time>2013-10-12T13:20:40Z</time>
      </trkpt>
      <trkpt lat="43.39418" lon="6.10416">
        <ele>270</ele>
        <time>2013-10-12T13:20:49Z</time>
      </trkpt>
      <trkpt lat="43.39415" lon="6.10417">
        <ele>270</ele>
        <time>2013-10-12T13:20:50Z</time>
      </trkpt>
      <trkpt lat="43.39413" lon="6.10416">
        <ele>270</ele>
        <time>2013-10-12T13:20:51Z</time>
      </trkpt>
      <trkpt lat="43.394" lon="6.10406">
        <ele>267.79998779297</ele>
        <time>2013-10-12T13:20:56Z</time>
      </trkpt>
      <trkpt lat="43.39391" lon="6.10399">
        <ele>267.79998779297</ele>
        <time>2013-10-12T13:20:59Z</time>
      </trkpt>
      <trkpt lat="43.39384" lon="6.10395">
        <ele>267.79998779297</ele>
        <time>2013-10-12T13:21:01Z</time>
      </trkpt>
      <trkpt lat="43.39375" lon="6.1039">
        <ele>267.79998779297</ele>
        <time>2013-10-12T13:21:05Z</time>
      </trkpt>
      <trkpt lat="43.39373" lon="6.10391">
        <ele>267.79998779297</ele>
        <time>2013-10-12T13:21:06Z</time>
      </trkpt>
      <trkpt lat="43.39369" lon="6.10402">
        <ele>267.79998779297</ele>
        <time>2013-10-12T13:21:10Z</time>
      </trkpt>
      <trkpt lat="43.39369" lon="6.10405">
        <ele>267.79998779297</ele>
        <time>2013-10-12T13:21:11Z</time>
      </trkpt>
      <trkpt lat="43.39367" lon="6.10412">
        <ele>268.60000610352</ele>
        <time>2013-10-12T13:21:13Z</time>
      </trkpt>
      <trkpt lat="43.39361" lon="6.1042">
        <ele>270</ele>
        <time>2013-10-12T13:21:16Z</time>
      </trkpt>
      <trkpt lat="43.3934" lon="6.10421">
        <ele>270</ele>
        <time>2013-10-12T13:21:24Z</time>
      </trkpt>
      <trkpt lat="43.39328" lon="6.10434">
        <ele>270.39999389648</ele>
        <time>2013-10-12T13:21:29Z</time>
      </trkpt>
      <trkpt lat="43.3932" lon="6.10446">
        <ele>272</ele>
        <time>2013-10-12T13:21:33Z</time>
      </trkpt>
      <trkpt lat="43.39309" lon="6.10464">
        <ele>272</ele>
        <time>2013-10-12T13:21:39Z</time>
      </trkpt>
      <trkpt lat="43.39297" lon="6.10485">
        <ele>272</ele>
        <time>2013-10-12T13:21:46Z</time>
      </trkpt>
      <trkpt lat="43.39296" lon="6.10488">
        <ele>272.39999389648</ele>
        <time>2013-10-12T13:21:47Z</time>
      </trkpt>
      <trkpt lat="43.39294" lon="6.1049">
        <ele>272.79998779297</ele>
        <time>2013-10-12T13:21:48Z</time>
      </trkpt>
      <trkpt lat="43.39293" lon="6.10493">
        <ele>273.20001220703</ele>
        <time>2013-10-12T13:21:49Z</time>
      </trkpt>
      <trkpt lat="43.39291" lon="6.10499">
        <ele>274</ele>
        <time>2013-10-12T13:21:51Z</time>
      </trkpt>
      <trkpt lat="43.39289" lon="6.10505">
        <ele>274</ele>
        <time>2013-10-12T13:21:53Z</time>
      </trkpt>
      <trkpt lat="43.39286" lon="6.10512">
        <ele>274</ele>
        <time>2013-10-12T13:21:58Z</time>
      </trkpt>
      <trkpt lat="43.39285" lon="6.10512">
        <ele>274</ele>
        <time>2013-10-12T13:22:03Z</time>
      </trkpt>
      <trkpt lat="43.39286" lon="6.10512">
        <ele>274</ele>
        <time>2013-10-12T13:22:04Z</time>
      </trkpt>
      <trkpt lat="43.39287" lon="6.10511">
        <ele>274</ele>
        <time>2013-10-12T13:22:07Z</time>
      </trkpt>
      <trkpt lat="43.39287" lon="6.10507">
        <ele>274</ele>
        <time>2013-10-12T13:22:11Z</time>
      </trkpt>
      <trkpt lat="43.39287" lon="6.10505">
        <ele>274</ele>
        <time>2013-10-12T13:22:12Z</time>
      </trkpt>
      <trkpt lat="43.39292" lon="6.10493">
        <ele>274</ele>
        <time>2013-10-12T13:22:16Z</time>
      </trkpt>
      <trkpt lat="43.39297" lon="6.10486">
        <ele>274</ele>
        <time>2013-10-12T13:22:18Z</time>
      </trkpt>
      <trkpt lat="43.39302" lon="6.10474">
        <ele>274</ele>
        <time>2013-10-12T13:22:21Z</time>
      </trkpt>
      <trkpt lat="43.39303" lon="6.10472">
        <ele>274</ele>
        <time>2013-10-12T13:22:22Z</time>
      </trkpt>
      <trkpt lat="43.39304" lon="6.1047">
        <ele>274</ele>
        <time>2013-10-12T13:22:24Z</time>
      </trkpt>
      <trkpt lat="43.39304" lon="6.1047">
        <ele>274</ele>
        <time>2013-10-12T13:22:28Z</time>
      </trkpt>
      <trkpt lat="43.39305" lon="6.10469">
        <ele>274</ele>
        <time>2013-10-12T13:22:30Z</time>
      </trkpt>
      <trkpt lat="43.39306" lon="6.10469">
        <ele>274</ele>
        <time>2013-10-12T13:22:36Z</time>
      </trkpt>
      <trkpt lat="43.39306" lon="6.10469">
        <ele>274</ele>
        <time>2013-10-12T13:22:52Z</time>
      </trkpt>
      <trkpt lat="43.39306" lon="6.10468">
        <ele>274</ele>
        <time>2013-10-12T13:24:16Z</time>
      </trkpt>
      <trkpt lat="43.39306" lon="6.10468">
        <ele>274</ele>
        <time>2013-10-12T13:26:19Z</time>
      </trkpt>
      <trkpt lat="43.39306" lon="6.10468">
        <ele>274</ele>
        <time>2013-10-12T13:26:32Z</time>
      </trkpt>
      <trkpt lat="43.39306" lon="6.10468">
        <ele>274</ele>
        <time>2013-10-12T13:26:35Z</time>
      </trkpt>
      <trkpt lat="43.39306" lon="6.10468">
        <ele>274</ele>
        <time>2013-10-12T13:27:06Z</time>
      </trkpt>
      <trkpt lat="43.39307" lon="6.10468">
        <ele>274</ele>
        <time>2013-10-12T13:28:38Z</time>
      </trkpt>
      <trkpt lat="43.39307" lon="6.10468">
        <ele>274</ele>
        <time>2013-10-12T13:28:58Z</time>
      </trkpt>
      <trkpt lat="43.39307" lon="6.10468">
        <ele>274</ele>
        <time>2013-10-12T13:30:01Z</time>
      </trkpt>
      <trkpt lat="43.39307" lon="6.10468">
        <ele>274</ele>
        <time>2013-10-12T13:30:19Z</time>
      </trkpt>
      <trkpt lat="43.39307" lon="6.10468">
        <ele>274</ele>
        <time>2013-10-12T13:30:32Z</time>
      </trkpt>
      <trkpt lat="43.39307" lon="6.10468">
        <ele>274</ele>
        <time>2013-10-12T13:30:40Z</time>
      </trkpt>
      <trkpt lat="43.39307" lon="6.10468">
        <ele>274</ele>
        <time>2013-10-12T13:30:44Z</time>
      </trkpt>
      <trkpt lat="43.39308" lon="6.10468">
        <ele>274</ele>
        <time>2013-10-12T13:30:49Z</time>
      </trkpt>
      <trkpt lat="43.39308" lon="6.10468">
        <ele>274</ele>
        <time>2013-10-12T13:31:16Z</time>
      </trkpt>
      <trkpt lat="43.39308" lon="6.10468">
        <ele>274</ele>
        <time>2013-10-12T13:31:34Z</time>
      </trkpt>
      <trkpt lat="43.39308" lon="6.10468">
        <ele>274</ele>
        <time>2013-10-12T13:31:46Z</time>
      </trkpt>
      <trkpt lat="43.39308" lon="6.10468">
        <ele>274</ele>
        <time>2013-10-12T13:32:04Z</time>
      </trkpt>
      <trkpt lat="43.39308" lon="6.10468">
        <ele>274</ele>
        <time>2013-10-12T13:32:05Z</time>
      </trkpt>
      <trkpt lat="43.39307" lon="6.10468">
        <ele>274</ele>
        <time>2013-10-12T13:32:07Z</time>
      </trkpt>
      <trkpt lat="43.39307" lon="6.10469">
        <ele>274</ele>
        <time>2013-10-12T13:32:11Z</time>
      </trkpt>
      <trkpt lat="43.39306" lon="6.1047">
        <ele>274</ele>
        <time>2013-10-12T13:32:12Z</time>
      </trkpt>
      <trkpt lat="43.39301" lon="6.10479">
        <ele>274</ele>
        <time>2013-10-12T13:32:17Z</time>
      </trkpt>
      <trkpt lat="43.39293" lon="6.10493">
        <ele>274</ele>
        <time>2013-10-12T13:32:22Z</time>
      </trkpt>
      <trkpt lat="43.39293" lon="6.10496">
        <ele>274</ele>
        <time>2013-10-12T13:32:23Z</time>
      </trkpt>
      <trkpt lat="43.39289" lon="6.10506">
        <ele>274</ele>
        <time>2013-10-12T13:32:26Z</time>
      </trkpt>
      <trkpt lat="43.39285" lon="6.10519">
        <ele>274</ele>
        <time>2013-10-12T13:32:30Z</time>
      </trkpt>
      <trkpt lat="43.39278" lon="6.10533">
        <ele>274</ele>
        <time>2013-10-12T13:32:34Z</time>
      </trkpt>
      <trkpt lat="43.39275" lon="6.10539">
        <ele>275</ele>
        <time>2013-10-12T13:32:36Z</time>
      </trkpt>
      <trkpt lat="43.39273" lon="6.10551">
        <ele>276.20001220703</ele>
        <time>2013-10-12T13:32:39Z</time>
      </trkpt>
      <trkpt lat="43.39264" lon="6.1057">
        <ele>276.20001220703</ele>
        <time>2013-10-12T13:32:44Z</time>
      </trkpt>
      <trkpt lat="43.39251" lon="6.10592">
        <ele>276.20001220703</ele>
        <time>2013-10-12T13:32:50Z</time>
      </trkpt>
      <trkpt lat="43.39236" lon="6.10605">
        <ele>276.20001220703</ele>
        <time>2013-10-12T13:32:55Z</time>
      </trkpt>
      <trkpt lat="43.39225" lon="6.10622">
        <ele>276.20001220703</ele>
        <time>2013-10-12T13:32:59Z</time>
      </trkpt>
      <trkpt lat="43.39212" lon="6.10632">
        <ele>276.20001220703</ele>
        <time>2013-10-12T13:33:03Z</time>
      </trkpt>
      <trkpt lat="43.39199" lon="6.10649">
        <ele>276.20001220703</ele>
        <time>2013-10-12T13:33:08Z</time>
      </trkpt>
      <trkpt lat="43.39185" lon="6.10672">
        <ele>276.20001220703</ele>
        <time>2013-10-12T13:33:14Z</time>
      </trkpt>
      <trkpt lat="43.39185" lon="6.10687">
        <ele>276.20001220703</ele>
        <time>2013-10-12T13:33:18Z</time>
      </trkpt>
      <trkpt lat="43.39195" lon="6.10701">
        <ele>276.20001220703</ele>
        <time>2013-10-12T13:33:23Z</time>
      </trkpt>
      <trkpt lat="43.39207" lon="6.1072">
        <ele>276.20001220703</ele>
        <time>2013-10-12T13:33:29Z</time>
      </trkpt>
      <trkpt lat="43.39213" lon="6.10732">
        <ele>277</ele>
        <time>2013-10-12T13:33:33Z</time>
      </trkpt>
      <trkpt lat="43.39216" lon="6.1074">
        <ele>278.39999389648</ele>
        <time>2013-10-12T13:33:36Z</time>
      </trkpt>
      <trkpt lat="43.39215" lon="6.10749">
        <ele>278.39999389648</ele>
        <time>2013-10-12T13:33:39Z</time>
      </trkpt>
      <trkpt lat="43.39218" lon="6.10771">
        <ele>278.39999389648</ele>
        <time>2013-10-12T13:33:44Z</time>
      </trkpt>
      <trkpt lat="43.39218" lon="6.10779">
        <ele>278.39999389648</ele>
        <time>2013-10-12T13:33:46Z</time>
      </trkpt>
      <trkpt lat="43.39217" lon="6.10789">
        <ele>278.39999389648</ele>
        <time>2013-10-12T13:33:48Z</time>
      </trkpt>
      <trkpt lat="43.39221" lon="6.10807">
        <ele>278.39999389648</ele>
        <time>2013-10-12T13:33:52Z</time>
      </trkpt>
      <trkpt lat="43.39221" lon="6.10811">
        <ele>278.39999389648</ele>
        <time>2013-10-12T13:33:53Z</time>
      </trkpt>
      <trkpt lat="43.39223" lon="6.10819">
        <ele>278.39999389648</ele>
        <time>2013-10-12T13:33:57Z</time>
      </trkpt>
      <trkpt lat="43.39224" lon="6.10821">
        <ele>278.39999389648</ele>
        <time>2013-10-12T13:33:59Z</time>
      </trkpt>
      <trkpt lat="43.39225" lon="6.10826">
        <ele>278.39999389648</ele>
        <time>2013-10-12T13:34:02Z</time>
      </trkpt>
      <trkpt lat="43.39226" lon="6.10836">
        <ele>278.39999389648</ele>
        <time>2013-10-12T13:34:08Z</time>
      </trkpt>
      <trkpt lat="43.39228" lon="6.10842">
        <ele>279.60000610352</ele>
        <time>2013-10-12T13:34:11Z</time>
      </trkpt>
      <trkpt lat="43.39228" lon="6.10845">
        <ele>280</ele>
        <time>2013-10-12T13:34:12Z</time>
      </trkpt>
      <trkpt lat="43.39228" lon="6.10848">
        <ele>280.39999389648</ele>
        <time>2013-10-12T13:34:13Z</time>
      </trkpt>
      <trkpt lat="43.39228" lon="6.10852">
        <ele>280.39999389648</ele>
        <time>2013-10-12T13:34:14Z</time>
      </trkpt>
      <trkpt lat="43.39228" lon="6.10877">
        <ele>280.39999389648</ele>
        <time>2013-10-12T13:34:20Z</time>
      </trkpt>
      <trkpt lat="43.39222" lon="6.10894">
        <ele>280.39999389648</ele>
        <time>2013-10-12T13:34:25Z</time>
      </trkpt>
      <trkpt lat="43.39218" lon="6.10901">
        <ele>280.39999389648</ele>
        <time>2013-10-12T13:34:27Z</time>
      </trkpt>
      <trkpt lat="43.39211" lon="6.10909">
        <ele>280.39999389648</ele>
        <time>2013-10-12T13:34:30Z</time>
      </trkpt>
      <trkpt lat="43.39202" lon="6.10921">
        <ele>280.39999389648</ele>
        <time>2013-10-12T13:34:35Z</time>
      </trkpt>
      <trkpt lat="43.39201" lon="6.10922">
        <ele>280.39999389648</ele>
        <time>2013-10-12T13:34:36Z</time>
      </trkpt>
      <trkpt lat="43.39194" lon="6.10923">
        <ele>280.39999389648</ele>
        <time>2013-10-12T13:34:39Z</time>
      </trkpt>
      <trkpt lat="43.3919" lon="6.10925">
        <ele>280.39999389648</ele>
        <time>2013-10-12T13:34:41Z</time>
      </trkpt>
      <trkpt lat="43.39185" lon="6.10931">
        <ele>280.39999389648</ele>
        <time>2013-10-12T13:34:44Z</time>
      </trkpt>
      <trkpt lat="43.39177" lon="6.10945">
        <ele>280.39999389648</ele>
        <time>2013-10-12T13:34:49Z</time>
      </trkpt>
      <trkpt lat="43.39172" lon="6.10959">
        <ele>280.39999389648</ele>
        <time>2013-10-12T13:34:53Z</time>
      </trkpt>
      <trkpt lat="43.39164" lon="6.10966">
        <ele>280.79998779297</ele>
        <time>2013-10-12T13:34:57Z</time>
      </trkpt>
      <trkpt lat="43.39162" lon="6.1097">
        <ele>281.60000610352</ele>
        <time>2013-10-12T13:34:59Z</time>
      </trkpt>
      <trkpt lat="43.39158" lon="6.10972">
        <ele>282.39999389648</ele>
        <time>2013-10-12T13:35:01Z</time>
      </trkpt>
      <trkpt lat="43.39154" lon="6.10975">
        <ele>282.39999389648</ele>
        <time>2013-10-12T13:35:03Z</time>
      </trkpt>
      <trkpt lat="43.39152" lon="6.10977">
        <ele>282.39999389648</ele>
        <time>2013-10-12T13:35:04Z</time>
      </trkpt>
      <trkpt lat="43.39151" lon="6.10979">
        <ele>282.39999389648</ele>
        <time>2013-10-12T13:35:05Z</time>
      </trkpt>
      <trkpt lat="43.39149" lon="6.10985">
        <ele>282.79998779297</ele>
        <time>2013-10-12T13:35:07Z</time>
      </trkpt>
      <trkpt lat="43.39148" lon="6.10988">
        <ele>283.20001220703</ele>
        <time>2013-10-12T13:35:08Z</time>
      </trkpt>
      <trkpt lat="43.39147" lon="6.10991">
        <ele>283.60000610352</ele>
        <time>2013-10-12T13:35:09Z</time>
      </trkpt>
      <trkpt lat="43.39147" lon="6.10994">
        <ele>284</ele>
        <time>2013-10-12T13:35:10Z</time>
      </trkpt>
      <trkpt lat="43.39148" lon="6.10998">
        <ele>284.39999389648</ele>
        <time>2013-10-12T13:35:11Z</time>
      </trkpt>
      <trkpt lat="43.39149" lon="6.11007">
        <ele>284.39999389648</ele>
        <time>2013-10-12T13:35:13Z</time>
      </trkpt>
      <trkpt lat="43.39151" lon="6.11021">
        <ele>284.39999389648</ele>
        <time>2013-10-12T13:35:16Z</time>
      </trkpt>
      <trkpt lat="43.39151" lon="6.11029">
        <ele>284.39999389648</ele>
        <time>2013-10-12T13:35:18Z</time>
      </trkpt>
      <trkpt lat="43.39147" lon="6.11047">
        <ele>284.39999389648</ele>
        <time>2013-10-12T13:35:24Z</time>
      </trkpt>
      <trkpt lat="43.39145" lon="6.11066">
        <ele>284.39999389648</ele>
        <time>2013-10-12T13:35:30Z</time>
      </trkpt>
      <trkpt lat="43.39145" lon="6.11069">
        <ele>284.39999389648</ele>
        <time>2013-10-12T13:35:31Z</time>
      </trkpt>
      <trkpt lat="43.39146" lon="6.11082">
        <ele>284.39999389648</ele>
        <time>2013-10-12T13:35:35Z</time>
      </trkpt>
      <trkpt lat="43.39145" lon="6.11086">
        <ele>284.39999389648</ele>
        <time>2013-10-12T13:35:36Z</time>
      </trkpt>
      <trkpt lat="43.39142" lon="6.11107">
        <ele>284.39999389648</ele>
        <time>2013-10-12T13:35:42Z</time>
      </trkpt>
      <trkpt lat="43.39141" lon="6.11127">
        <ele>284.39999389648</ele>
        <time>2013-10-12T13:35:48Z</time>
      </trkpt>
      <trkpt lat="43.39141" lon="6.11136">
        <ele>284.79998779297</ele>
        <time>2013-10-12T13:35:51Z</time>
      </trkpt>
      <trkpt lat="43.3914" lon="6.11148">
        <ele>286.60000610352</ele>
        <time>2013-10-12T13:35:55Z</time>
      </trkpt>
      <trkpt lat="43.3914" lon="6.1115">
        <ele>286.60000610352</ele>
        <time>2013-10-12T13:35:56Z</time>
      </trkpt>
      <trkpt lat="43.39136" lon="6.1116">
        <ele>286.60000610352</ele>
        <time>2013-10-12T13:36:01Z</time>
      </trkpt>
      <trkpt lat="43.39128" lon="6.11166">
        <ele>286.60000610352</ele>
        <time>2013-10-12T13:36:07Z</time>
      </trkpt>
      <trkpt lat="43.39125" lon="6.11168">
        <ele>287</ele>
        <time>2013-10-12T13:36:10Z</time>
      </trkpt>
      <trkpt lat="43.39124" lon="6.11168">
        <ele>287.39999389648</ele>
        <time>2013-10-12T13:36:11Z</time>
      </trkpt>
      <trkpt lat="43.39121" lon="6.1117">
        <ele>288.39999389648</ele>
        <time>2013-10-12T13:36:13Z</time>
      </trkpt>
      <trkpt lat="43.3912" lon="6.1117">
        <ele>288.79998779297</ele>
        <time>2013-10-12T13:36:14Z</time>
      </trkpt>
      <trkpt lat="43.39119" lon="6.1117">
        <ele>288.79998779297</ele>
        <time>2013-10-12T13:36:18Z</time>
      </trkpt>
      <trkpt lat="43.39119" lon="6.11171">
        <ele>289.60000610352</ele>
        <time>2013-10-12T13:36:26Z</time>
      </trkpt>
      <trkpt lat="43.39118" lon="6.11171">
        <ele>290</ele>
        <time>2013-10-12T13:36:27Z</time>
      </trkpt>
      <trkpt lat="43.39118" lon="6.11171">
        <ele>290.39999389648</ele>
        <time>2013-10-12T13:36:28Z</time>
      </trkpt>
      <trkpt lat="43.39118" lon="6.11171">
        <ele>290.79998779297</ele>
        <time>2013-10-12T13:36:29Z</time>
      </trkpt>
      <trkpt lat="43.39117" lon="6.1117">
        <ele>290.79998779297</ele>
        <time>2013-10-12T13:36:31Z</time>
      </trkpt>
      <trkpt lat="43.39114" lon="6.11172">
        <ele>290.79998779297</ele>
        <time>2013-10-12T13:36:38Z</time>
      </trkpt>
      <trkpt lat="43.39114" lon="6.11172">
        <ele>290.79998779297</ele>
        <time>2013-10-12T13:36:40Z</time>
      </trkpt>
      <trkpt lat="43.39113" lon="6.11173">
        <ele>290.79998779297</ele>
        <time>2013-10-12T13:36:45Z</time>
      </trkpt>
      <trkpt lat="43.39112" lon="6.11174">
        <ele>290.79998779297</ele>
        <time>2013-10-12T13:36:48Z</time>
      </trkpt>
      <trkpt lat="43.39111" lon="6.11178">
        <ele>290.79998779297</ele>
        <time>2013-10-12T13:36:50Z</time>
      </trkpt>
      <trkpt lat="43.39111" lon="6.11185">
        <ele>290.79998779297</ele>
        <time>2013-10-12T13:36:54Z</time>
      </trkpt>
      <trkpt lat="43.3911" lon="6.11188">
        <ele>290.79998779297</ele>
        <time>2013-10-12T13:36:56Z</time>
      </trkpt>
      <trkpt lat="43.39109" lon="6.11193">
        <ele>292</ele>
        <time>2013-10-12T13:36:59Z</time>
      </trkpt>
      <trkpt lat="43.39107" lon="6.11206">
        <ele>292.79998779297</ele>
        <time>2013-10-12T13:37:05Z</time>
      </trkpt>
      <trkpt lat="43.39106" lon="6.11215">
        <ele>292.79998779297</ele>
        <time>2013-10-12T13:37:09Z</time>
      </trkpt>
      <trkpt lat="43.39104" lon="6.11234">
        <ele>292.79998779297</ele>
        <time>2013-10-12T13:37:15Z</time>
      </trkpt>
      <trkpt lat="43.39102" lon="6.11247">
        <ele>292.79998779297</ele>
        <time>2013-10-12T13:37:19Z</time>
      </trkpt>
      <trkpt lat="43.39102" lon="6.1125">
        <ele>292.79998779297</ele>
        <time>2013-10-12T13:37:20Z</time>
      </trkpt>
      <trkpt lat="43.39099" lon="6.11272">
        <ele>292.79998779297</ele>
        <time>2013-10-12T13:37:25Z</time>
      </trkpt>
      <trkpt lat="43.39097" lon="6.11276">
        <ele>292.79998779297</ele>
        <time>2013-10-12T13:37:26Z</time>
      </trkpt>
      <trkpt lat="43.39091" lon="6.11288">
        <ele>292.79998779297</ele>
        <time>2013-10-12T13:37:30Z</time>
      </trkpt>
      <trkpt lat="43.39087" lon="6.11296">
        <ele>292.79998779297</ele>
        <time>2013-10-12T13:37:33Z</time>
      </trkpt>
      <trkpt lat="43.39087" lon="6.11297">
        <ele>292.79998779297</ele>
        <time>2013-10-12T13:37:34Z</time>
      </trkpt>
      <trkpt lat="43.39085" lon="6.11297">
        <ele>293.20001220703</ele>
        <time>2013-10-12T13:37:35Z</time>
      </trkpt>
      <trkpt lat="43.39084" lon="6.11298">
        <ele>293.60000610352</ele>
        <time>2013-10-12T13:37:36Z</time>
      </trkpt>
      <trkpt lat="43.39082" lon="6.11298">
        <ele>294.20001220703</ele>
        <time>2013-10-12T13:37:37Z</time>
      </trkpt>
      <trkpt lat="43.39081" lon="6.11297">
        <ele>294.60000610352</ele>
        <time>2013-10-12T13:37:38Z</time>
      </trkpt>
      <trkpt lat="43.39081" lon="6.11296">
        <ele>295</ele>
        <time>2013-10-12T13:37:39Z</time>
      </trkpt>
      <trkpt lat="43.39081" lon="6.11295">
        <ele>295</ele>
        <time>2013-10-12T13:37:40Z</time>
      </trkpt>
      <trkpt lat="43.39077" lon="6.11293">
        <ele>295</ele>
        <time>2013-10-12T13:37:45Z</time>
      </trkpt>
      <trkpt lat="43.39076" lon="6.11292">
        <ele>295</ele>
        <time>2013-10-12T13:37:50Z</time>
      </trkpt>
      <trkpt lat="43.39075" lon="6.11289">
        <ele>295</ele>
        <time>2013-10-12T13:37:52Z</time>
      </trkpt>
      <trkpt lat="43.39064" lon="6.11271">
        <ele>295</ele>
        <time>2013-10-12T13:38:04Z</time>
      </trkpt>
      <trkpt lat="43.39063" lon="6.11266">
        <ele>295</ele>
        <time>2013-10-12T13:38:06Z</time>
      </trkpt>
      <trkpt lat="43.39062" lon="6.11264">
        <ele>295</ele>
        <time>2013-10-12T13:38:07Z</time>
      </trkpt>
      <trkpt lat="43.39056" lon="6.11255">
        <ele>295.39999389648</ele>
        <time>2013-10-12T13:38:11Z</time>
      </trkpt>
      <trkpt lat="43.39055" lon="6.11253">
        <ele>295.79998779297</ele>
        <time>2013-10-12T13:38:12Z</time>
      </trkpt>
      <trkpt lat="43.39051" lon="6.11248">
        <ele>297</ele>
        <time>2013-10-12T13:38:14Z</time>
      </trkpt>
      <trkpt lat="43.39048" lon="6.11242">
        <ele>297</ele>
        <time>2013-10-12T13:38:16Z</time>
      </trkpt>
      <trkpt lat="43.39039" lon="6.11228">
        <ele>297</ele>
        <time>2013-10-12T13:38:20Z</time>
      </trkpt>
      <trkpt lat="43.39032" lon="6.11208">
        <ele>297</ele>
        <time>2013-10-12T13:38:24Z</time>
      </trkpt>
      <trkpt lat="43.39026" lon="6.11202">
        <ele>296.60000610352</ele>
        <time>2013-10-12T13:38:26Z</time>
      </trkpt>
      <trkpt lat="43.39022" lon="6.11198">
        <ele>296.20001220703</ele>
        <time>2013-10-12T13:38:27Z</time>
      </trkpt>
      <trkpt lat="43.39019" lon="6.11196">
        <ele>295.79998779297</ele>
        <time>2013-10-12T13:38:28Z</time>
      </trkpt>
      <trkpt lat="43.39015" lon="6.11193">
        <ele>295.39999389648</ele>
        <time>2013-10-12T13:38:29Z</time>
      </trkpt>
      <trkpt lat="43.39011" lon="6.1119">
        <ele>295</ele>
        <time>2013-10-12T13:38:30Z</time>
      </trkpt>
      <trkpt lat="43.39006" lon="6.11188">
        <ele>295</ele>
        <time>2013-10-12T13:38:31Z</time>
      </trkpt>
      <trkpt lat="43.38994" lon="6.11188">
        <ele>294</ele>
        <time>2013-10-12T13:38:34Z</time>
      </trkpt>
      <trkpt lat="43.38976" lon="6.11191">
        <ele>290.60000610352</ele>
        <time>2013-10-12T13:38:40Z</time>
      </trkpt>
      <trkpt lat="43.3897" lon="6.11191">
        <ele>289.60000610352</ele>
        <time>2013-10-12T13:38:42Z</time>
      </trkpt>
      <trkpt lat="43.38963" lon="6.11192">
        <ele>288.60000610352</ele>
        <time>2013-10-12T13:38:44Z</time>
      </trkpt>
      <trkpt lat="43.38948" lon="6.11195">
        <ele>286.79998779297</ele>
        <time>2013-10-12T13:38:48Z</time>
      </trkpt>
      <trkpt lat="43.38945" lon="6.11194">
        <ele>286.39999389648</ele>
        <time>2013-10-12T13:38:49Z</time>
      </trkpt>
      <trkpt lat="43.38938" lon="6.11192">
        <ele>285.60000610352</ele>
        <time>2013-10-12T13:38:51Z</time>
      </trkpt>
      <trkpt lat="43.38922" lon="6.11186">
        <ele>285.60000610352</ele>
        <time>2013-10-12T13:38:56Z</time>
      </trkpt>
      <trkpt lat="43.389" lon="6.11181">
        <ele>285.60000610352</ele>
        <time>2013-10-12T13:39:03Z</time>
      </trkpt>
      <trkpt lat="43.38884" lon="6.11179">
        <ele>285.60000610352</ele>
        <time>2013-10-12T13:39:08Z</time>
      </trkpt>
      <trkpt lat="43.38874" lon="6.11178">
        <ele>285.60000610352</ele>
        <time>2013-10-12T13:39:11Z</time>
      </trkpt>
      <trkpt lat="43.38858" lon="6.11175">
        <ele>285.60000610352</ele>
        <time>2013-10-12T13:39:17Z</time>
      </trkpt>
      <trkpt lat="43.38826" lon="6.11161">
        <ele>286</ele>
        <time>2013-10-12T13:39:29Z</time>
      </trkpt>
      <trkpt lat="43.38819" lon="6.11157">
        <ele>287.20001220703</ele>
        <time>2013-10-12T13:39:32Z</time>
      </trkpt>
      <trkpt lat="43.38817" lon="6.11155">
        <ele>287.60000610352</ele>
        <time>2013-10-12T13:39:33Z</time>
      </trkpt>
      <trkpt lat="43.38811" lon="6.11151">
        <ele>287.60000610352</ele>
        <time>2013-10-12T13:39:36Z</time>
      </trkpt>
      <trkpt lat="43.38781" lon="6.11129">
        <ele>287.60000610352</ele>
        <time>2013-10-12T13:39:48Z</time>
      </trkpt>
      <trkpt lat="43.38763" lon="6.11122">
        <ele>287.60000610352</ele>
        <time>2013-10-12T13:39:55Z</time>
      </trkpt>
      <trkpt lat="43.3874" lon="6.11116">
        <ele>287.60000610352</ele>
        <time>2013-10-12T13:40:03Z</time>
      </trkpt>
      <trkpt lat="43.38717" lon="6.11109">
        <ele>287.60000610352</ele>
        <time>2013-10-12T13:40:11Z</time>
      </trkpt>
      <trkpt lat="43.3871" lon="6.11102">
        <ele>287.60000610352</ele>
        <time>2013-10-12T13:40:15Z</time>
      </trkpt>
      <trkpt lat="43.38709" lon="6.11099">
        <ele>287.60000610352</ele>
        <time>2013-10-12T13:40:16Z</time>
      </trkpt>
      <trkpt lat="43.38709" lon="6.11085">
        <ele>287.60000610352</ele>
        <time>2013-10-12T13:40:20Z</time>
      </trkpt>
      <trkpt lat="43.3871" lon="6.11074">
        <ele>288</ele>
        <time>2013-10-12T13:40:23Z</time>
      </trkpt>
      <trkpt lat="43.38708" lon="6.11069">
        <ele>289</ele>
        <time>2013-10-12T13:40:25Z</time>
      </trkpt>
      <trkpt lat="43.38699" lon="6.11064">
        <ele>289.79998779297</ele>
        <time>2013-10-12T13:40:29Z</time>
      </trkpt>
      <trkpt lat="43.38696" lon="6.11061">
        <ele>289.79998779297</ele>
        <time>2013-10-12T13:40:31Z</time>
      </trkpt>
      <trkpt lat="43.38682" lon="6.11048">
        <ele>289.79998779297</ele>
        <time>2013-10-12T13:40:37Z</time>
      </trkpt>
      <trkpt lat="43.38672" lon="6.11039">
        <ele>289.79998779297</ele>
        <time>2013-10-12T13:40:42Z</time>
      </trkpt>
      <trkpt lat="43.38665" lon="6.11034">
        <ele>290.20001220703</ele>
        <time>2013-10-12T13:40:45Z</time>
      </trkpt>
      <trkpt lat="43.38657" lon="6.11027">
        <ele>291.79998779297</ele>
        <time>2013-10-12T13:40:49Z</time>
      </trkpt>
      <trkpt lat="43.38647" lon="6.11018">
        <ele>291.79998779297</ele>
        <time>2013-10-12T13:40:54Z</time>
      </trkpt>
      <trkpt lat="43.38639" lon="6.11013">
        <ele>292.60000610352</ele>
        <time>2013-10-12T13:40:58Z</time>
      </trkpt>
      <trkpt lat="43.38637" lon="6.11011">
        <ele>293</ele>
        <time>2013-10-12T13:40:59Z</time>
      </trkpt>
      <trkpt lat="43.38632" lon="6.11008">
        <ele>293.79998779297</ele>
        <time>2013-10-12T13:41:02Z</time>
      </trkpt>
      <trkpt lat="43.38623" lon="6.10997">
        <ele>294.60000610352</ele>
        <time>2013-10-12T13:41:10Z</time>
      </trkpt>
      <trkpt lat="43.3862" lon="6.10996">
        <ele>295.39999389648</ele>
        <time>2013-10-12T13:41:12Z</time>
      </trkpt>
      <trkpt lat="43.38618" lon="6.10994">
        <ele>295.79998779297</ele>
        <time>2013-10-12T13:41:14Z</time>
      </trkpt>
      <trkpt lat="43.38609" lon="6.10989">
        <ele>295.79998779297</ele>
        <time>2013-10-12T13:41:20Z</time>
      </trkpt>
      <trkpt lat="43.386" lon="6.10987">
        <ele>295.79998779297</ele>
        <time>2013-10-12T13:41:24Z</time>
      </trkpt>
      <trkpt lat="43.38595" lon="6.10988">
        <ele>295.79998779297</ele>
        <time>2013-10-12T13:41:26Z</time>
      </trkpt>
      <trkpt lat="43.38583" lon="6.10987">
        <ele>295.79998779297</ele>
        <time>2013-10-12T13:41:30Z</time>
      </trkpt>
      <trkpt lat="43.3857" lon="6.10988">
        <ele>295.39999389648</ele>
        <time>2013-10-12T13:41:35Z</time>
      </trkpt>
      <trkpt lat="43.38566" lon="6.10989">
        <ele>294.60000610352</ele>
        <time>2013-10-12T13:41:37Z</time>
      </trkpt>
      <trkpt lat="43.38565" lon="6.10989">
        <ele>294.20001220703</ele>
        <time>2013-10-12T13:41:38Z</time>
      </trkpt>
      <trkpt lat="43.38564" lon="6.10989">
        <ele>293.79998779297</ele>
        <time>2013-10-12T13:41:39Z</time>
      </trkpt>
      <trkpt lat="43.38553" lon="6.10986">
        <ele>293.79998779297</ele>
        <time>2013-10-12T13:41:43Z</time>
      </trkpt>
      <trkpt lat="43.38545" lon="6.10981">
        <ele>293.79998779297</ele>
        <time>2013-10-12T13:41:46Z</time>
      </trkpt>
      <trkpt lat="43.38536" lon="6.10976">
        <ele>293.79998779297</ele>
        <time>2013-10-12T13:41:49Z</time>
      </trkpt>
      <trkpt lat="43.38532" lon="6.10975">
        <ele>293.79998779297</ele>
        <time>2013-10-12T13:41:50Z</time>
      </trkpt>
      <trkpt lat="43.38528" lon="6.10973">
        <ele>293.39999389648</ele>
        <time>2013-10-12T13:41:51Z</time>
      </trkpt>
      <trkpt lat="43.3852" lon="6.1097">
        <ele>292.60000610352</ele>
        <time>2013-10-12T13:41:53Z</time>
      </trkpt>
      <trkpt lat="43.38517" lon="6.10968">
        <ele>292.20001220703</ele>
        <time>2013-10-12T13:41:54Z</time>
      </trkpt>
      <trkpt lat="43.38514" lon="6.10968">
        <ele>291.79998779297</ele>
        <time>2013-10-12T13:41:55Z</time>
      </trkpt>
      <trkpt lat="43.38508" lon="6.10967">
        <ele>290.39999389648</ele>
        <time>2013-10-12T13:41:58Z</time>
      </trkpt>
      <trkpt lat="43.38505" lon="6.10966">
        <ele>289.60000610352</ele>
        <time>2013-10-12T13:42:00Z</time>
      </trkpt>
      <trkpt lat="43.38493" lon="6.10962">
        <ele>289.60000610352</ele>
        <time>2013-10-12T13:42:04Z</time>
      </trkpt>
      <trkpt lat="43.38483" lon="6.1096">
        <ele>289</ele>
        <time>2013-10-12T13:42:06Z</time>
      </trkpt>
      <trkpt lat="43.3848" lon="6.10959">
        <ele>288.60000610352</ele>
        <time>2013-10-12T13:42:07Z</time>
      </trkpt>
      <trkpt lat="43.38477" lon="6.10959">
        <ele>288.20001220703</ele>
        <time>2013-10-12T13:42:08Z</time>
      </trkpt>
      <trkpt lat="43.38475" lon="6.10959">
        <ele>287.60000610352</ele>
        <time>2013-10-12T13:42:09Z</time>
      </trkpt>
      <trkpt lat="43.38474" lon="6.10958">
        <ele>287.20001220703</ele>
        <time>2013-10-12T13:42:10Z</time>
      </trkpt>
      <trkpt lat="43.38473" lon="6.10957">
        <ele>287.20001220703</ele>
        <time>2013-10-12T13:42:14Z</time>
      </trkpt>
      <trkpt lat="43.38473" lon="6.10957">
        <ele>287.20001220703</ele>
        <time>2013-10-12T13:42:21Z</time>
      </trkpt>
      <trkpt lat="43.38474" lon="6.10957">
        <ele>287.20001220703</ele>
        <time>2013-10-12T13:42:26Z</time>
      </trkpt>
      <trkpt lat="43.38474" lon="6.10957">
        <ele>287.20001220703</ele>
        <time>2013-10-12T13:42:29Z</time>
      </trkpt>
      <trkpt lat="43.38474" lon="6.10957">
        <ele>287.20001220703</ele>
        <time>2013-10-12T13:42:57Z</time>
      </trkpt>
      <trkpt lat="43.38474" lon="6.10957">
        <ele>287.20001220703</ele>
        <time>2013-10-12T13:43:48Z</time>
      </trkpt>
      <trkpt lat="43.38474" lon="6.10957">
        <ele>287.20001220703</ele>
        <time>2013-10-12T13:44:00Z</time>
      </trkpt>
      <trkpt lat="43.38472" lon="6.10956">
        <ele>287.20001220703</ele>
        <time>2013-10-12T13:44:10Z</time>
      </trkpt>
      <trkpt lat="43.38471" lon="6.10961">
        <ele>287.20001220703</ele>
        <time>2013-10-12T13:44:13Z</time>
      </trkpt>
      <trkpt lat="43.38473" lon="6.10961">
        <ele>287.20001220703</ele>
        <time>2013-10-12T13:44:14Z</time>
      </trkpt>
      <trkpt lat="43.38484" lon="6.10961">
        <ele>287.20001220703</ele>
        <time>2013-10-12T13:44:18Z</time>
      </trkpt>
      <trkpt lat="43.38496" lon="6.10964">
        <ele>287.20001220703</ele>
        <time>2013-10-12T13:44:22Z</time>
      </trkpt>
      <trkpt lat="43.38505" lon="6.10967">
        <ele>287.20001220703</ele>
        <time>2013-10-12T13:44:25Z</time>
      </trkpt>
      <trkpt lat="43.38519" lon="6.1097">
        <ele>287.20001220703</ele>
        <time>2013-10-12T13:44:29Z</time>
      </trkpt>
      <trkpt lat="43.38524" lon="6.10972">
        <ele>288</ele>
        <time>2013-10-12T13:44:31Z</time>
      </trkpt>
      <trkpt lat="43.38538" lon="6.10978">
        <ele>289.79998779297</ele>
        <time>2013-10-12T13:44:36Z</time>
      </trkpt>
      <trkpt lat="43.38544" lon="6.1098">
        <ele>290.60000610352</ele>
        <time>2013-10-12T13:44:38Z</time>
      </trkpt>
      <trkpt lat="43.38557" lon="6.10988">
        <ele>291.39999389648</ele>
        <time>2013-10-12T13:44:43Z</time>
      </trkpt>
      <trkpt lat="43.38573" lon="6.10989">
        <ele>291.79998779297</ele>
        <time>2013-10-12T13:44:48Z</time>
      </trkpt>
      <trkpt lat="43.38581" lon="6.10987">
        <ele>293.20001220703</ele>
        <time>2013-10-12T13:44:51Z</time>
      </trkpt>
      <trkpt lat="43.38586" lon="6.10987">
        <ele>293.60000610352</ele>
        <time>2013-10-12T13:44:53Z</time>
      </trkpt>
      <trkpt lat="43.38604" lon="6.10987">
        <ele>293.60000610352</ele>
        <time>2013-10-12T13:45:00Z</time>
      </trkpt>
      <trkpt lat="43.38612" lon="6.10991">
        <ele>294</ele>
        <time>2013-10-12T13:45:04Z</time>
      </trkpt>
      <trkpt lat="43.38614" lon="6.10992">
        <ele>294.39999389648</ele>
        <time>2013-10-12T13:45:05Z</time>
      </trkpt>
      <trkpt lat="43.38615" lon="6.10994">
        <ele>294.79998779297</ele>
        <time>2013-10-12T13:45:06Z</time>
      </trkpt>
      <trkpt lat="43.38618" lon="6.10996">
        <ele>295.20001220703</ele>
        <time>2013-10-12T13:45:07Z</time>
      </trkpt>
      <trkpt lat="43.3862" lon="6.10997">
        <ele>295.60000610352</ele>
        <time>2013-10-12T13:45:08Z</time>
      </trkpt>
      <trkpt lat="43.38623" lon="6.11">
        <ele>295.60000610352</ele>
        <time>2013-10-12T13:45:10Z</time>
      </trkpt>
      <trkpt lat="43.38634" lon="6.11009">
        <ele>295.60000610352</ele>
        <time>2013-10-12T13:45:14Z</time>
      </trkpt>
      <trkpt lat="43.38643" lon="6.11017">
        <ele>295.60000610352</ele>
        <time>2013-10-12T13:45:16Z</time>
      </trkpt>
      <trkpt lat="43.38664" lon="6.11036">
        <ele>293.79998779297</ele>
        <time>2013-10-12T13:45:21Z</time>
      </trkpt>
      <trkpt lat="43.38666" lon="6.11037">
        <ele>293.39999389648</ele>
        <time>2013-10-12T13:45:22Z</time>
      </trkpt>
      <trkpt lat="43.38672" lon="6.11043">
        <ele>293.39999389648</ele>
        <time>2013-10-12T13:45:25Z</time>
      </trkpt>
      <trkpt lat="43.38677" lon="6.11046">
        <ele>293</ele>
        <time>2013-10-12T13:45:27Z</time>
      </trkpt>
      <trkpt lat="43.3868" lon="6.11049">
        <ele>292.60000610352</ele>
        <time>2013-10-12T13:45:28Z</time>
      </trkpt>
      <trkpt lat="43.38682" lon="6.11052">
        <ele>292.20001220703</ele>
        <time>2013-10-12T13:45:29Z</time>
      </trkpt>
      <trkpt lat="43.38684" lon="6.11055">
        <ele>291.79998779297</ele>
        <time>2013-10-12T13:45:30Z</time>
      </trkpt>
      <trkpt lat="43.38687" lon="6.11058">
        <ele>291.39999389648</ele>
        <time>2013-10-12T13:45:31Z</time>
      </trkpt>
      <trkpt lat="43.38698" lon="6.11065">
        <ele>291.39999389648</ele>
        <time>2013-10-12T13:45:35Z</time>
      </trkpt>
      <trkpt lat="43.38704" lon="6.11066">
        <ele>291.39999389648</ele>
        <time>2013-10-12T13:45:37Z</time>
      </trkpt>
      <trkpt lat="43.38705" lon="6.11068">
        <ele>291.39999389648</ele>
        <time>2013-10-12T13:45:38Z</time>
      </trkpt>
      <trkpt lat="43.38706" lon="6.1107">
        <ele>291.39999389648</ele>
        <time>2013-10-12T13:45:39Z</time>
      </trkpt>
      <trkpt lat="43.38706" lon="6.11083">
        <ele>291.39999389648</ele>
        <time>2013-10-12T13:45:43Z</time>
      </trkpt>
      <trkpt lat="43.38707" lon="6.11094">
        <ele>291.39999389648</ele>
        <time>2013-10-12T13:45:46Z</time>
      </trkpt>
      <trkpt lat="43.38712" lon="6.11106">
        <ele>291.39999389648</ele>
        <time>2013-10-12T13:45:50Z</time>
      </trkpt>
      <trkpt lat="43.38717" lon="6.11107">
        <ele>291.39999389648</ele>
        <time>2013-10-12T13:45:52Z</time>
      </trkpt>
      <trkpt lat="43.38721" lon="6.11107">
        <ele>291.39999389648</ele>
        <time>2013-10-12T13:45:53Z</time>
      </trkpt>
      <trkpt lat="43.38735" lon="6.11112">
        <ele>291.39999389648</ele>
        <time>2013-10-12T13:45:57Z</time>
      </trkpt>
      <trkpt lat="43.38747" lon="6.11115">
        <ele>291</ele>
        <time>2013-10-12T13:46:01Z</time>
      </trkpt>
      <trkpt lat="43.38752" lon="6.11116">
        <ele>289.60000610352</ele>
        <time>2013-10-12T13:46:03Z</time>
      </trkpt>
      <trkpt lat="43.38755" lon="6.11116">
        <ele>289.20001220703</ele>
        <time>2013-10-12T13:46:04Z</time>
      </trkpt>
      <trkpt lat="43.38758" lon="6.11117">
        <ele>289.20001220703</ele>
        <time>2013-10-12T13:46:05Z</time>
      </trkpt>
      <trkpt lat="43.38783" lon="6.11128">
        <ele>289.20001220703</ele>
        <time>2013-10-12T13:46:12Z</time>
      </trkpt>
      <trkpt lat="43.38787" lon="6.11131">
        <ele>289.20001220703</ele>
        <time>2013-10-12T13:46:13Z</time>
      </trkpt>
      <trkpt lat="43.38795" lon="6.11138">
        <ele>289.20001220703</ele>
        <time>2013-10-12T13:46:15Z</time>
      </trkpt>
      <trkpt lat="43.38803" lon="6.11144">
        <ele>289.20001220703</ele>
        <time>2013-10-12T13:46:17Z</time>
      </trkpt>
      <trkpt lat="43.3881" lon="6.1115">
        <ele>289.20001220703</ele>
        <time>2013-10-12T13:46:19Z</time>
      </trkpt>
      <trkpt lat="43.3882" lon="6.11156">
        <ele>289.20001220703</ele>
        <time>2013-10-12T13:46:22Z</time>
      </trkpt>
      <trkpt lat="43.38823" lon="6.11155">
        <ele>289.20001220703</ele>
        <time>2013-10-12T13:46:25Z</time>
      </trkpt>
      <trkpt lat="43.38823" lon="6.11155">
        <ele>289.20001220703</ele>
        <time>2013-10-12T13:46:32Z</time>
      </trkpt>
      <trkpt lat="43.38823" lon="6.11155">
        <ele>289.20001220703</ele>
        <time>2013-10-12T13:46:33Z</time>
      </trkpt>
      <trkpt lat="43.38823" lon="6.11155">
        <ele>289.20001220703</ele>
        <time>2013-10-12T13:46:35Z</time>
      </trkpt>
      <trkpt lat="43.38823" lon="6.11155">
        <ele>289.20001220703</ele>
        <time>2013-10-12T13:47:02Z</time>
      </trkpt>
      <trkpt lat="43.38823" lon="6.11154">
        <ele>287.20001220703</ele>
        <time>2013-10-12T13:48:17Z</time>
      </trkpt>
      <trkpt lat="43.38823" lon="6.11154">
        <ele>287.20001220703</ele>
        <time>2013-10-12T13:48:28Z</time>
      </trkpt>
      <trkpt lat="43.38822" lon="6.11155">
        <ele>287.20001220703</ele>
        <time>2013-10-12T13:48:35Z</time>
      </trkpt>
      <trkpt lat="43.38822" lon="6.11155">
        <ele>287.20001220703</ele>
        <time>2013-10-12T13:48:51Z</time>
      </trkpt>
      <trkpt lat="43.38822" lon="6.11155">
        <ele>287.20001220703</ele>
        <time>2013-10-12T13:49:08Z</time>
      </trkpt>
      <trkpt lat="43.38823" lon="6.11154">
        <ele>287.20001220703</ele>
        <time>2013-10-12T13:49:16Z</time>
      </trkpt>
      <trkpt lat="43.38823" lon="6.11154">
        <ele>287.20001220703</ele>
        <time>2013-10-12T13:49:38Z</time>
      </trkpt>
      <trkpt lat="43.38823" lon="6.11155">
        <ele>287.20001220703</ele>
        <time>2013-10-12T13:50:34Z</time>
      </trkpt>
      <trkpt lat="43.38823" lon="6.11155">
        <ele>287.20001220703</ele>
        <time>2013-10-12T13:50:49Z</time>
      </trkpt>
      <trkpt lat="43.38823" lon="6.11155">
        <ele>287.20001220703</ele>
        <time>2013-10-12T13:51:11Z</time>
      </trkpt>
      <trkpt lat="43.38822" lon="6.11155">
        <ele>287.20001220703</ele>
        <time>2013-10-12T13:51:17Z</time>
      </trkpt>
      <trkpt lat="43.38822" lon="6.11155">
        <ele>287.20001220703</ele>
        <time>2013-10-12T13:51:29Z</time>
      </trkpt>
      <trkpt lat="43.38822" lon="6.11155">
        <ele>287.20001220703</ele>
        <time>2013-10-12T13:51:52Z</time>
      </trkpt>
      <trkpt lat="43.3882" lon="6.11157">
        <ele>287.20001220703</ele>
        <time>2013-10-12T13:52:03Z</time>
      </trkpt>
      <trkpt lat="43.3882" lon="6.11157">
        <ele>287.20001220703</ele>
        <time>2013-10-12T13:52:16Z</time>
      </trkpt>
      <trkpt lat="43.38817" lon="6.11153">
        <ele>287.20001220703</ele>
        <time>2013-10-12T13:52:19Z</time>
      </trkpt>
      <trkpt lat="43.38811" lon="6.11149">
        <ele>287.20001220703</ele>
        <time>2013-10-12T13:52:22Z</time>
      </trkpt>
      <trkpt lat="43.38806" lon="6.11145">
        <ele>287.20001220703</ele>
        <time>2013-10-12T13:52:24Z</time>
      </trkpt>
      <trkpt lat="43.38796" lon="6.11138">
        <ele>287.20001220703</ele>
        <time>2013-10-12T13:52:28Z</time>
      </trkpt>
      <trkpt lat="43.38791" lon="6.11134">
        <ele>287.20001220703</ele>
        <time>2013-10-12T13:52:30Z</time>
      </trkpt>
      <trkpt lat="43.38769" lon="6.11122">
        <ele>287.60000610352</ele>
        <time>2013-10-12T13:52:38Z</time>
      </trkpt>
      <trkpt lat="43.38758" lon="6.11118">
        <ele>289.20001220703</ele>
        <time>2013-10-12T13:52:42Z</time>
      </trkpt>
      <trkpt lat="43.38754" lon="6.11117">
        <ele>289.20001220703</ele>
        <time>2013-10-12T13:52:43Z</time>
      </trkpt>
      <trkpt lat="43.38731" lon="6.11111">
        <ele>289.20001220703</ele>
        <time>2013-10-12T13:52:50Z</time>
      </trkpt>
      <trkpt lat="43.38718" lon="6.11107">
        <ele>289.20001220703</ele>
        <time>2013-10-12T13:52:54Z</time>
      </trkpt>
      <trkpt lat="43.38711" lon="6.11099">
        <ele>289.20001220703</ele>
        <time>2013-10-12T13:52:58Z</time>
      </trkpt>
      <trkpt lat="43.38708" lon="6.11089">
        <ele>289.20001220703</ele>
        <time>2013-10-12T13:53:01Z</time>
      </trkpt>
      <trkpt lat="43.38709" lon="6.11079">
        <ele>289.20001220703</ele>
        <time>2013-10-12T13:53:03Z</time>
      </trkpt>
      <trkpt lat="43.38705" lon="6.11069">
        <ele>289.20001220703</ele>
        <time>2013-10-12T13:53:06Z</time>
      </trkpt>
      <trkpt lat="43.38703" lon="6.11066">
        <ele>289.20001220703</ele>
        <time>2013-10-12T13:53:07Z</time>
      </trkpt>
      <trkpt lat="43.38689" lon="6.11058">
        <ele>289.20001220703</ele>
        <time>2013-10-12T13:53:12Z</time>
      </trkpt>
      <trkpt lat="43.38676" lon="6.11045">
        <ele>289.60000610352</ele>
        <time>2013-10-12T13:53:17Z</time>
      </trkpt>
      <trkpt lat="43.3867" lon="6.11039">
        <ele>290.39999389648</ele>
        <time>2013-10-12T13:53:19Z</time>
      </trkpt>
      <trkpt lat="43.38664" lon="6.11034">
        <ele>291.39999389648</ele>
        <time>2013-10-12T13:53:21Z</time>
      </trkpt>
      <trkpt lat="43.38656" lon="6.11026">
        <ele>291.39999389648</ele>
        <time>2013-10-12T13:53:24Z</time>
      </trkpt>
      <trkpt lat="43.38653" lon="6.11024">
        <ele>291.39999389648</ele>
        <time>2013-10-12T13:53:25Z</time>
      </trkpt>
      <trkpt lat="43.38648" lon="6.1102">
        <ele>291.79998779297</ele>
        <time>2013-10-12T13:53:27Z</time>
      </trkpt>
      <trkpt lat="43.38638" lon="6.11012">
        <ele>293.39999389648</ele>
        <time>2013-10-12T13:53:31Z</time>
      </trkpt>
      <trkpt lat="43.38628" lon="6.11005">
        <ele>294.20001220703</ele>
        <time>2013-10-12T13:53:36Z</time>
      </trkpt>
      <trkpt lat="43.38625" lon="6.11001">
        <ele>295</ele>
        <time>2013-10-12T13:53:38Z</time>
      </trkpt>
      <trkpt lat="43.38623" lon="6.11">
        <ele>295.39999389648</ele>
        <time>2013-10-12T13:53:39Z</time>
      </trkpt>
      <trkpt lat="43.38615" lon="6.10994">
        <ele>295.39999389648</ele>
        <time>2013-10-12T13:53:43Z</time>
      </trkpt>
      <trkpt lat="43.38602" lon="6.10988">
        <ele>295.39999389648</ele>
        <time>2013-10-12T13:53:48Z</time>
      </trkpt>
      <trkpt lat="43.38584" lon="6.10989">
        <ele>295.39999389648</ele>
        <time>2013-10-12T13:53:53Z</time>
      </trkpt>
      <trkpt lat="43.3857" lon="6.10988">
        <ele>295.39999389648</ele>
        <time>2013-10-12T13:53:56Z</time>
      </trkpt>
      <trkpt lat="43.38556" lon="6.10986">
        <ele>295</ele>
        <time>2013-10-12T13:53:59Z</time>
      </trkpt>
      <trkpt lat="43.38546" lon="6.10981">
        <ele>294.20001220703</ele>
        <time>2013-10-12T13:54:01Z</time>
      </trkpt>
      <trkpt lat="43.38541" lon="6.10978">
        <ele>293.60000610352</ele>
        <time>2013-10-12T13:54:02Z</time>
      </trkpt>
      <trkpt lat="43.38536" lon="6.10975">
        <ele>293.20001220703</ele>
        <time>2013-10-12T13:54:03Z</time>
      </trkpt>
      <trkpt lat="43.3853" lon="6.10973">
        <ele>293.20001220703</ele>
        <time>2013-10-12T13:54:04Z</time>
      </trkpt>
      <trkpt lat="43.38512" lon="6.10967">
        <ele>293.20001220703</ele>
        <time>2013-10-12T13:54:07Z</time>
      </trkpt>
      <trkpt lat="43.38504" lon="6.10965">
        <ele>292.79998779297</ele>
        <time>2013-10-12T13:54:08Z</time>
      </trkpt>
      <trkpt lat="43.38497" lon="6.10963">
        <ele>292.20001220703</ele>
        <time>2013-10-12T13:54:09Z</time>
      </trkpt>
      <trkpt lat="43.3849" lon="6.10961">
        <ele>291.79998779297</ele>
        <time>2013-10-12T13:54:10Z</time>
      </trkpt>
      <trkpt lat="43.38483" lon="6.1096">
        <ele>291</ele>
        <time>2013-10-12T13:54:11Z</time>
      </trkpt>
      <trkpt lat="43.38478" lon="6.10959">
        <ele>290.39999389648</ele>
        <time>2013-10-12T13:54:12Z</time>
      </trkpt>
      <trkpt lat="43.38476" lon="6.10958">
        <ele>289.79998779297</ele>
        <time>2013-10-12T13:54:13Z</time>
      </trkpt>
      <trkpt lat="43.38475" lon="6.10958">
        <ele>289</ele>
        <time>2013-10-12T13:54:14Z</time>
      </trkpt>
      <trkpt lat="43.38475" lon="6.10958">
        <ele>288.39999389648</ele>
        <time>2013-10-12T13:54:15Z</time>
      </trkpt>
      <trkpt lat="43.38475" lon="6.10958">
        <ele>288.39999389648</ele>
        <time>2013-10-12T13:54:16Z</time>
      </trkpt>
      <trkpt lat="43.38475" lon="6.10958">
        <ele>288.39999389648</ele>
        <time>2013-10-12T13:54:27Z</time>
      </trkpt>
      <trkpt lat="43.38475" lon="6.10958">
        <ele>288.39999389648</ele>
        <time>2013-10-12T13:54:31Z</time>
      </trkpt>
      <trkpt lat="43.38469" lon="6.10958">
        <ele>288.39999389648</ele>
        <time>2013-10-12T13:54:35Z</time>
      </trkpt>
      <trkpt lat="43.38464" lon="6.10959">
        <ele>288</ele>
        <time>2013-10-12T13:54:37Z</time>
      </trkpt>
      <trkpt lat="43.38461" lon="6.10959">
        <ele>287.60000610352</ele>
        <time>2013-10-12T13:54:38Z</time>
      </trkpt>
      <trkpt lat="43.38453" lon="6.10958">
        <ele>286.39999389648</ele>
        <time>2013-10-12T13:54:41Z</time>
      </trkpt>
      <trkpt lat="43.3843" lon="6.10954">
        <ele>286.39999389648</ele>
        <time>2013-10-12T13:54:47Z</time>
      </trkpt>
      <trkpt lat="43.38391" lon="6.10945">
        <ele>286.39999389648</ele>
        <time>2013-10-12T13:54:56Z</time>
      </trkpt>
      <trkpt lat="43.38378" lon="6.10943">
        <ele>286</ele>
        <time>2013-10-12T13:54:59Z</time>
      </trkpt>
      <trkpt lat="43.38365" lon="6.10939">
        <ele>284.79998779297</ele>
        <time>2013-10-12T13:55:02Z</time>
      </trkpt>
      <trkpt lat="43.38324" lon="6.10926">
        <ele>284.39999389648</ele>
        <time>2013-10-12T13:55:12Z</time>
      </trkpt>
      <trkpt lat="43.38302" lon="6.10919">
        <ele>283.79998779297</ele>
        <time>2013-10-12T13:55:17Z</time>
      </trkpt>
      <trkpt lat="43.38293" lon="6.10916">
        <ele>283</ele>
        <time>2013-10-12T13:55:19Z</time>
      </trkpt>
      <trkpt lat="43.38284" lon="6.10914">
        <ele>282.20001220703</ele>
        <time>2013-10-12T13:55:21Z</time>
      </trkpt>
      <trkpt lat="43.38256" lon="6.10906">
        <ele>282.20001220703</ele>
        <time>2013-10-12T13:55:28Z</time>
      </trkpt>
      <trkpt lat="43.38251" lon="6.10906">
        <ele>282.20001220703</ele>
        <time>2013-10-12T13:55:29Z</time>
      </trkpt>
      <trkpt lat="43.38237" lon="6.10901">
        <ele>282.20001220703</ele>
        <time>2013-10-12T13:55:33Z</time>
      </trkpt>
      <trkpt lat="43.38223" lon="6.10896">
        <ele>282.20001220703</ele>
        <time>2013-10-12T13:55:38Z</time>
      </trkpt>
      <trkpt lat="43.38203" lon="6.1089">
        <ele>282.20001220703</ele>
        <time>2013-10-12T13:55:46Z</time>
      </trkpt>
      <trkpt lat="43.382" lon="6.10889">
        <ele>282.20001220703</ele>
        <time>2013-10-12T13:55:49Z</time>
      </trkpt>
      <trkpt lat="43.382" lon="6.10889">
        <ele>282.20001220703</ele>
        <time>2013-10-12T13:55:51Z</time>
      </trkpt>
      <trkpt lat="43.382" lon="6.10889">
        <ele>282.20001220703</ele>
        <time>2013-10-12T13:56:11Z</time>
      </trkpt>
      <trkpt lat="43.382" lon="6.10889">
        <ele>282.20001220703</ele>
        <time>2013-10-12T13:56:29Z</time>
      </trkpt>
      <trkpt lat="43.38198" lon="6.10889">
        <ele>282.20001220703</ele>
        <time>2013-10-12T13:56:35Z</time>
      </trkpt>
      <trkpt lat="43.38196" lon="6.1089">
        <ele>282.20001220703</ele>
        <time>2013-10-12T13:56:36Z</time>
      </trkpt>
      <trkpt lat="43.38194" lon="6.10901">
        <ele>282.20001220703</ele>
        <time>2013-10-12T13:56:40Z</time>
      </trkpt>
      <trkpt lat="43.38191" lon="6.10918">
        <ele>282.20001220703</ele>
        <time>2013-10-12T13:56:44Z</time>
      </trkpt>
      <trkpt lat="43.3819" lon="6.10922">
        <ele>282.20001220703</ele>
        <time>2013-10-12T13:56:45Z</time>
      </trkpt>
      <trkpt lat="43.38184" lon="6.10952">
        <ele>282.20001220703</ele>
        <time>2013-10-12T13:56:52Z</time>
      </trkpt>
      <trkpt lat="43.38184" lon="6.10957">
        <ele>282.20001220703</ele>
        <time>2013-10-12T13:56:53Z</time>
      </trkpt>
      <trkpt lat="43.38181" lon="6.10969">
        <ele>283</ele>
        <time>2013-10-12T13:56:56Z</time>
      </trkpt>
      <trkpt lat="43.38178" lon="6.10982">
        <ele>284.20001220703</ele>
        <time>2013-10-12T13:56:59Z</time>
      </trkpt>
      <trkpt lat="43.38175" lon="6.10996">
        <ele>284.20001220703</ele>
        <time>2013-10-12T13:57:02Z</time>
      </trkpt>
      <trkpt lat="43.38171" lon="6.1102">
        <ele>284.20001220703</ele>
        <time>2013-10-12T13:57:08Z</time>
      </trkpt>
      <trkpt lat="43.38167" lon="6.11041">
        <ele>285.79998779297</ele>
        <time>2013-10-12T13:57:13Z</time>
      </trkpt>
      <trkpt lat="43.38156" lon="6.11085">
        <ele>286.20001220703</ele>
        <time>2013-10-12T13:57:25Z</time>
      </trkpt>
      <trkpt lat="43.38145" lon="6.11109">
        <ele>288.39999389648</ele>
        <time>2013-10-12T13:57:33Z</time>
      </trkpt>
      <trkpt lat="43.38141" lon="6.11115">
        <ele>288.39999389648</ele>
        <time>2013-10-12T13:57:35Z</time>
      </trkpt>
      <trkpt lat="43.38129" lon="6.11129">
        <ele>288.39999389648</ele>
        <time>2013-10-12T13:57:41Z</time>
      </trkpt>
      <trkpt lat="43.38117" lon="6.11146">
        <ele>288.39999389648</ele>
        <time>2013-10-12T13:57:48Z</time>
      </trkpt>
      <trkpt lat="43.38118" lon="6.11165">
        <ele>288.39999389648</ele>
        <time>2013-10-12T13:57:54Z</time>
      </trkpt>
      <trkpt lat="43.3812" lon="6.11201">
        <ele>290.60000610352</ele>
        <time>2013-10-12T13:58:05Z</time>
      </trkpt>
      <trkpt lat="43.38118" lon="6.11224">
        <ele>290.60000610352</ele>
        <time>2013-10-12T13:58:12Z</time>
      </trkpt>
      <trkpt lat="43.38116" lon="6.11245">
        <ele>291</ele>
        <time>2013-10-12T13:58:18Z</time>
      </trkpt>
      <trkpt lat="43.38117" lon="6.11259">
        <ele>292.60000610352</ele>
        <time>2013-10-12T13:58:22Z</time>
      </trkpt>
      <trkpt lat="43.38116" lon="6.1127">
        <ele>292.60000610352</ele>
        <time>2013-10-12T13:58:25Z</time>
      </trkpt>
      <trkpt lat="43.38112" lon="6.11314">
        <ele>292.60000610352</ele>
        <time>2013-10-12T13:58:37Z</time>
      </trkpt>
      <trkpt lat="43.38111" lon="6.11339">
        <ele>294.79998779297</ele>
        <time>2013-10-12T13:58:43Z</time>
      </trkpt>
      <trkpt lat="43.38109" lon="6.11366">
        <ele>294.79998779297</ele>
        <time>2013-10-12T13:58:50Z</time>
      </trkpt>
      <trkpt lat="43.38105" lon="6.11397">
        <ele>294.79998779297</ele>
        <time>2013-10-12T13:58:58Z</time>
      </trkpt>
      <trkpt lat="43.38102" lon="6.11415">
        <ele>295.20001220703</ele>
        <time>2013-10-12T13:59:03Z</time>
      </trkpt>
      <trkpt lat="43.38101" lon="6.11419">
        <ele>295.60000610352</ele>
        <time>2013-10-12T13:59:04Z</time>
      </trkpt>
      <trkpt lat="43.38095" lon="6.11447">
        <ele>296.79998779297</ele>
        <time>2013-10-12T13:59:11Z</time>
      </trkpt>
      <trkpt lat="43.38089" lon="6.11474">
        <ele>296.79998779297</ele>
        <time>2013-10-12T13:59:18Z</time>
      </trkpt>
      <trkpt lat="43.38087" lon="6.11487">
        <ele>297.20001220703</ele>
        <time>2013-10-12T13:59:21Z</time>
      </trkpt>
      <trkpt lat="43.38087" lon="6.11495">
        <ele>298</ele>
        <time>2013-10-12T13:59:23Z</time>
      </trkpt>
      <trkpt lat="43.38084" lon="6.11536">
        <ele>298.79998779297</ele>
        <time>2013-10-12T13:59:34Z</time>
      </trkpt>
      <trkpt lat="43.38082" lon="6.11557">
        <ele>299.39999389648</ele>
        <time>2013-10-12T13:59:40Z</time>
      </trkpt>
      <trkpt lat="43.3808" lon="6.11568">
        <ele>300.60000610352</ele>
        <time>2013-10-12T13:59:43Z</time>
      </trkpt>
      <trkpt lat="43.3808" lon="6.11601">
        <ele>301.20001220703</ele>
        <time>2013-10-12T13:59:52Z</time>
      </trkpt>
      <trkpt lat="43.38078" lon="6.11636">
        <ele>301.20001220703</ele>
        <time>2013-10-12T14:00:01Z</time>
      </trkpt>
      <trkpt lat="43.38077" lon="6.11643">
        <ele>301.60000610352</ele>
        <time>2013-10-12T14:00:03Z</time>
      </trkpt>
      <trkpt lat="43.38075" lon="6.1166">
        <ele>303.60000610352</ele>
        <time>2013-10-12T14:00:08Z</time>
      </trkpt>
      <trkpt lat="43.38073" lon="6.11678">
        <ele>303.60000610352</ele>
        <time>2013-10-12T14:00:14Z</time>
      </trkpt>
      <trkpt lat="43.38072" lon="6.11682">
        <ele>303.60000610352</ele>
        <time>2013-10-12T14:00:15Z</time>
      </trkpt>
      <trkpt lat="43.3807" lon="6.11698">
        <ele>304</ele>
        <time>2013-10-12T14:00:20Z</time>
      </trkpt>
      <trkpt lat="43.3807" lon="6.11708">
        <ele>305.20001220703</ele>
        <time>2013-10-12T14:00:23Z</time>
      </trkpt>
      <trkpt lat="43.38069" lon="6.11713">
        <ele>305.60000610352</ele>
        <time>2013-10-12T14:00:24Z</time>
      </trkpt>
      <trkpt lat="43.38068" lon="6.11723">
        <ele>305.60000610352</ele>
        <time>2013-10-12T14:00:27Z</time>
      </trkpt>
      <trkpt lat="43.38068" lon="6.11736">
        <ele>306</ele>
        <time>2013-10-12T14:00:31Z</time>
      </trkpt>
      <trkpt lat="43.38068" lon="6.11747">
        <ele>307.79998779297</ele>
        <time>2013-10-12T14:00:35Z</time>
      </trkpt>
      <trkpt lat="43.38068" lon="6.1176">
        <ele>307.79998779297</ele>
        <time>2013-10-12T14:00:40Z</time>
      </trkpt>
      <trkpt lat="43.38067" lon="6.11763">
        <ele>307.79998779297</ele>
        <time>2013-10-12T14:00:41Z</time>
      </trkpt>
      <trkpt lat="43.38076" lon="6.118">
        <ele>307.79998779297</ele>
        <time>2013-10-12T14:00:55Z</time>
      </trkpt>
      <trkpt lat="43.38078" lon="6.11825">
        <ele>308.79998779297</ele>
        <time>2013-10-12T14:01:04Z</time>
      </trkpt>
      <trkpt lat="43.38078" lon="6.11828">
        <ele>309.39999389648</ele>
        <time>2013-10-12T14:01:05Z</time>
      </trkpt>
      <trkpt lat="43.38077" lon="6.11852">
        <ele>310.20001220703</ele>
        <time>2013-10-12T14:01:15Z</time>
      </trkpt>
      <trkpt lat="43.38077" lon="6.11866">
        <ele>310.20001220703</ele>
        <time>2013-10-12T14:01:21Z</time>
      </trkpt>
      <trkpt lat="43.38078" lon="6.11876">
        <ele>310.60000610352</ele>
        <time>2013-10-12T14:01:25Z</time>
      </trkpt>
      <trkpt lat="43.38078" lon="6.11887">
        <ele>312.79998779297</ele>
        <time>2013-10-12T14:01:29Z</time>
      </trkpt>
      <trkpt lat="43.38078" lon="6.11889">
        <ele>313.60000610352</ele>
        <time>2013-10-12T14:01:30Z</time>
      </trkpt>
      <trkpt lat="43.38078" lon="6.11894">
        <ele>314.79998779297</ele>
        <time>2013-10-12T14:01:32Z</time>
      </trkpt>
      <trkpt lat="43.38076" lon="6.1191">
        <ele>314.79998779297</ele>
        <time>2013-10-12T14:01:38Z</time>
      </trkpt>
      <trkpt lat="43.38074" lon="6.11926">
        <ele>314.79998779297</ele>
        <time>2013-10-12T14:01:45Z</time>
      </trkpt>
      <trkpt lat="43.38073" lon="6.11953">
        <ele>314.79998779297</ele>
        <time>2013-10-12T14:01:56Z</time>
      </trkpt>
      <trkpt lat="43.38072" lon="6.11963">
        <ele>317.39999389648</ele>
        <time>2013-10-12T14:02:01Z</time>
      </trkpt>
      <trkpt lat="43.38072" lon="6.11969">
        <ele>317.39999389648</ele>
        <time>2013-10-12T14:02:04Z</time>
      </trkpt>
      <trkpt lat="43.38072" lon="6.11971">
        <ele>317.39999389648</ele>
        <time>2013-10-12T14:02:05Z</time>
      </trkpt>
      <trkpt lat="43.38071" lon="6.11978">
        <ele>318</ele>
        <time>2013-10-12T14:02:08Z</time>
      </trkpt>
      <trkpt lat="43.3807" lon="6.11982">
        <ele>318.79998779297</ele>
        <time>2013-10-12T14:02:10Z</time>
      </trkpt>
      <trkpt lat="43.38069" lon="6.11996">
        <ele>319.79998779297</ele>
        <time>2013-10-12T14:02:15Z</time>
      </trkpt>
      <trkpt lat="43.38066" lon="6.12004">
        <ele>319.79998779297</ele>
        <time>2013-10-12T14:02:19Z</time>
      </trkpt>
      <trkpt lat="43.38068" lon="6.12015">
        <ele>320.60000610352</ele>
        <time>2013-10-12T14:02:24Z</time>
      </trkpt>
      <trkpt lat="43.38066" lon="6.1202">
        <ele>321.39999389648</ele>
        <time>2013-10-12T14:02:26Z</time>
      </trkpt>
      <trkpt lat="43.38066" lon="6.1203">
        <ele>321.79998779297</ele>
        <time>2013-10-12T14:02:31Z</time>
      </trkpt>
      <trkpt lat="43.38066" lon="6.12038">
        <ele>321.79998779297</ele>
        <time>2013-10-12T14:02:35Z</time>
      </trkpt>
      <trkpt lat="43.38065" lon="6.12048">
        <ele>323.79998779297</ele>
        <time>2013-10-12T14:02:39Z</time>
      </trkpt>
      <trkpt lat="43.38064" lon="6.12055">
        <ele>324.39999389648</ele>
        <time>2013-10-12T14:02:42Z</time>
      </trkpt>
      <trkpt lat="43.38062" lon="6.12067">
        <ele>324.39999389648</ele>
        <time>2013-10-12T14:02:49Z</time>
      </trkpt>
      <trkpt lat="43.3806" lon="6.12072">
        <ele>325</ele>
        <time>2013-10-12T14:02:52Z</time>
      </trkpt>
      <trkpt lat="43.38058" lon="6.12081">
        <ele>327</ele>
        <time>2013-10-12T14:02:56Z</time>
      </trkpt>
      <trkpt lat="43.38055" lon="6.12098">
        <ele>327</ele>
        <time>2013-10-12T14:03:04Z</time>
      </trkpt>
      <trkpt lat="43.38053" lon="6.12109">
        <ele>327</ele>
        <time>2013-10-12T14:03:10Z</time>
      </trkpt>
      <trkpt lat="43.38042" lon="6.12123">
        <ele>328</ele>
        <time>2013-10-12T14:03:18Z</time>
      </trkpt>
      <trkpt lat="43.38042" lon="6.12125">
        <ele>328.39999389648</ele>
        <time>2013-10-12T14:03:19Z</time>
      </trkpt>
      <trkpt lat="43.38041" lon="6.12128">
        <ele>329.20001220703</ele>
        <time>2013-10-12T14:03:21Z</time>
      </trkpt>
      <trkpt lat="43.38038" lon="6.1214">
        <ele>329.20001220703</ele>
        <time>2013-10-12T14:03:27Z</time>
      </trkpt>
      <trkpt lat="43.38037" lon="6.12145">
        <ele>329.20001220703</ele>
        <time>2013-10-12T14:03:29Z</time>
      </trkpt>
      <trkpt lat="43.38037" lon="6.12146">
        <ele>329.79998779297</ele>
        <time>2013-10-12T14:03:32Z</time>
      </trkpt>
      <trkpt lat="43.38037" lon="6.12146">
        <ele>331.79998779297</ele>
        <time>2013-10-12T14:03:43Z</time>
      </trkpt>
      <trkpt lat="43.38037" lon="6.12146">
        <ele>331.79998779297</ele>
        <time>2013-10-12T14:03:55Z</time>
      </trkpt>
      <trkpt lat="43.38036" lon="6.12151">
        <ele>331.79998779297</ele>
        <time>2013-10-12T14:03:58Z</time>
      </trkpt>
      <trkpt lat="43.38035" lon="6.12154">
        <ele>331.79998779297</ele>
        <time>2013-10-12T14:04:00Z</time>
      </trkpt>
      <trkpt lat="43.38033" lon="6.12164">
        <ele>331.79998779297</ele>
        <time>2013-10-12T14:04:04Z</time>
      </trkpt>
      <trkpt lat="43.38031" lon="6.12176">
        <ele>331.79998779297</ele>
        <time>2013-10-12T14:04:10Z</time>
      </trkpt>
      <trkpt lat="43.38031" lon="6.12191">
        <ele>331.79998779297</ele>
        <time>2013-10-12T14:04:16Z</time>
      </trkpt>
      <trkpt lat="43.38031" lon="6.12201">
        <ele>331.79998779297</ele>
        <time>2013-10-12T14:04:21Z</time>
      </trkpt>
      <trkpt lat="43.38031" lon="6.12204">
        <ele>331.79998779297</ele>
        <time>2013-10-12T14:04:22Z</time>
      </trkpt>
      <trkpt lat="43.3804" lon="6.12227">
        <ele>334</ele>
        <time>2013-10-12T14:04:29Z</time>
      </trkpt>
      <trkpt lat="43.38043" lon="6.12235">
        <ele>334</ele>
        <time>2013-10-12T14:04:32Z</time>
      </trkpt>
      <trkpt lat="43.3805" lon="6.12266">
        <ele>334</ele>
        <time>2013-10-12T14:04:42Z</time>
      </trkpt>
      <trkpt lat="43.3805" lon="6.12274">
        <ele>334</ele>
        <time>2013-10-12T14:04:45Z</time>
      </trkpt>
      <trkpt lat="43.38051" lon="6.12288">
        <ele>336</ele>
        <time>2013-10-12T14:04:50Z</time>
      </trkpt>
      <trkpt lat="43.38051" lon="6.12296">
        <ele>336</ele>
        <time>2013-10-12T14:04:53Z</time>
      </trkpt>
      <trkpt lat="43.3805" lon="6.12298">
        <ele>336</ele>
        <time>2013-10-12T14:04:54Z</time>
      </trkpt>
      <trkpt lat="43.38049" lon="6.12302">
        <ele>336.39999389648</ele>
        <time>2013-10-12T14:04:56Z</time>
      </trkpt>
      <trkpt lat="43.38049" lon="6.12305">
        <ele>336.79998779297</ele>
        <time>2013-10-12T14:04:57Z</time>
      </trkpt>
      <trkpt lat="43.38049" lon="6.12307">
        <ele>337.20001220703</ele>
        <time>2013-10-12T14:04:58Z</time>
      </trkpt>
      <trkpt lat="43.3805" lon="6.12309">
        <ele>337.60000610352</ele>
        <time>2013-10-12T14:04:59Z</time>
      </trkpt>
      <trkpt lat="43.3805" lon="6.12311">
        <ele>338</ele>
        <time>2013-10-12T14:05:00Z</time>
      </trkpt>
      <trkpt lat="43.38051" lon="6.12312">
        <ele>338</ele>
        <time>2013-10-12T14:05:03Z</time>
      </trkpt>
      <trkpt lat="43.38051" lon="6.12312">
        <ele>338</ele>
        <time>2013-10-12T14:05:19Z</time>
      </trkpt>
      <trkpt lat="43.38051" lon="6.12312">
        <ele>338</ele>
        <time>2013-10-12T14:05:43Z</time>
      </trkpt>
      <trkpt lat="43.38051" lon="6.12312">
        <ele>338</ele>
        <time>2013-10-12T14:05:54Z</time>
      </trkpt>
      <trkpt lat="43.3805" lon="6.12316">
        <ele>338</ele>
        <time>2013-10-12T14:05:59Z</time>
      </trkpt>
      <trkpt lat="43.38049" lon="6.1232">
        <ele>338</ele>
        <time>2013-10-12T14:06:01Z</time>
      </trkpt>
      <trkpt lat="43.38047" lon="6.12328">
        <ele>338</ele>
        <time>2013-10-12T14:06:04Z</time>
      </trkpt>
      <trkpt lat="43.38045" lon="6.12333">
        <ele>338</ele>
        <time>2013-10-12T14:06:06Z</time>
      </trkpt>
      <trkpt lat="43.38045" lon="6.12338">
        <ele>338</ele>
        <time>2013-10-12T14:06:09Z</time>
      </trkpt>
      <trkpt lat="43.38045" lon="6.12346">
        <ele>338</ele>
        <time>2013-10-12T14:06:15Z</time>
      </trkpt>
      <trkpt lat="43.38044" lon="6.12359">
        <ele>339.20001220703</ele>
        <time>2013-10-12T14:06:22Z</time>
      </trkpt>
      <trkpt lat="43.38047" lon="6.12364">
        <ele>340.20001220703</ele>
        <time>2013-10-12T14:06:24Z</time>
      </trkpt>
      <trkpt lat="43.38052" lon="6.12378">
        <ele>340.20001220703</ele>
        <time>2013-10-12T14:06:29Z</time>
      </trkpt>
      <trkpt lat="43.38052" lon="6.12381">
        <ele>340.20001220703</ele>
        <time>2013-10-12T14:06:30Z</time>
      </trkpt>
      <trkpt lat="43.38052" lon="6.12388">
        <ele>340.60000610352</ele>
        <time>2013-10-12T14:06:32Z</time>
      </trkpt>
      <trkpt lat="43.38053" lon="6.12393">
        <ele>341.39999389648</ele>
        <time>2013-10-12T14:06:34Z</time>
      </trkpt>
      <trkpt lat="43.38055" lon="6.124">
        <ele>342.39999389648</ele>
        <time>2013-10-12T14:06:36Z</time>
      </trkpt>
      <trkpt lat="43.38056" lon="6.12408">
        <ele>343.79998779297</ele>
        <time>2013-10-12T14:06:40Z</time>
      </trkpt>
      <trkpt lat="43.38058" lon="6.12419">
        <ele>344.60000610352</ele>
        <time>2013-10-12T14:06:45Z</time>
      </trkpt>
      <trkpt lat="43.3806" lon="6.1243">
        <ele>345.20001220703</ele>
        <time>2013-10-12T14:06:50Z</time>
      </trkpt>
      <trkpt lat="43.3806" lon="6.12432">
        <ele>345.60000610352</ele>
        <time>2013-10-12T14:06:51Z</time>
      </trkpt>
      <trkpt lat="43.38061" lon="6.12435">
        <ele>346.39999389648</ele>
        <time>2013-10-12T14:06:53Z</time>
      </trkpt>
      <trkpt lat="43.38061" lon="6.12436">
        <ele>346.79998779297</ele>
        <time>2013-10-12T14:06:54Z</time>
      </trkpt>
      <trkpt lat="43.38062" lon="6.12437">
        <ele>346.79998779297</ele>
        <time>2013-10-12T14:06:57Z</time>
      </trkpt>
      <trkpt lat="43.38062" lon="6.12437">
        <ele>346.79998779297</ele>
        <time>2013-10-12T14:07:20Z</time>
      </trkpt>
      <trkpt lat="43.38062" lon="6.12437">
        <ele>346.79998779297</ele>
        <time>2013-10-12T14:07:34Z</time>
      </trkpt>
      <trkpt lat="43.38062" lon="6.1244">
        <ele>346.79998779297</ele>
        <time>2013-10-12T14:07:42Z</time>
      </trkpt>
      <trkpt lat="43.38062" lon="6.12443">
        <ele>346.79998779297</ele>
        <time>2013-10-12T14:07:45Z</time>
      </trkpt>
      <trkpt lat="43.38063" lon="6.12445">
        <ele>346.79998779297</ele>
        <time>2013-10-12T14:07:47Z</time>
      </trkpt>
      <trkpt lat="43.38063" lon="6.12448">
        <ele>346.79998779297</ele>
        <time>2013-10-12T14:07:52Z</time>
      </trkpt>
      <trkpt lat="43.38063" lon="6.12448">
        <ele>346.79998779297</ele>
        <time>2013-10-12T14:07:59Z</time>
      </trkpt>
      <trkpt lat="43.38063" lon="6.12449">
        <ele>346.79998779297</ele>
        <time>2013-10-12T14:08:06Z</time>
      </trkpt>
      <trkpt lat="43.38063" lon="6.12451">
        <ele>346.79998779297</ele>
        <time>2013-10-12T14:08:11Z</time>
      </trkpt>
      <trkpt lat="43.38065" lon="6.12464">
        <ele>346.79998779297</ele>
        <time>2013-10-12T14:08:17Z</time>
      </trkpt>
      <trkpt lat="43.38065" lon="6.12466">
        <ele>347.20001220703</ele>
        <time>2013-10-12T14:08:18Z</time>
      </trkpt>
      <trkpt lat="43.38064" lon="6.1247">
        <ele>348</ele>
        <time>2013-10-12T14:08:20Z</time>
      </trkpt>
      <trkpt lat="43.38064" lon="6.12472">
        <ele>348.39999389648</ele>
        <time>2013-10-12T14:08:21Z</time>
      </trkpt>
      <trkpt lat="43.38063" lon="6.12479">
        <ele>349</ele>
        <time>2013-10-12T14:08:24Z</time>
      </trkpt>
      <trkpt lat="43.38063" lon="6.12486">
        <ele>349</ele>
        <time>2013-10-12T14:08:27Z</time>
      </trkpt>
      <trkpt lat="43.38062" lon="6.12496">
        <ele>349</ele>
        <time>2013-10-12T14:08:33Z</time>
      </trkpt>
      <trkpt lat="43.38061" lon="6.12519">
        <ele>350.20001220703</ele>
        <time>2013-10-12T14:08:42Z</time>
      </trkpt>
      <trkpt lat="43.3806" lon="6.12524">
        <ele>351</ele>
        <time>2013-10-12T14:08:44Z</time>
      </trkpt>
      <trkpt lat="43.3806" lon="6.1253">
        <ele>351</ele>
        <time>2013-10-12T14:08:47Z</time>
      </trkpt>
      <trkpt lat="43.3806" lon="6.1254">
        <ele>351</ele>
        <time>2013-10-12T14:08:52Z</time>
      </trkpt>
      <trkpt lat="43.3806" lon="6.12543">
        <ele>351</ele>
        <time>2013-10-12T14:08:53Z</time>
      </trkpt>
      <trkpt lat="43.38058" lon="6.1255">
        <ele>351.39999389648</ele>
        <time>2013-10-12T14:08:57Z</time>
      </trkpt>
      <trkpt lat="43.38058" lon="6.12552">
        <ele>351.79998779297</ele>
        <time>2013-10-12T14:08:58Z</time>
      </trkpt>
      <trkpt lat="43.38058" lon="6.12554">
        <ele>353</ele>
        <time>2013-10-12T14:09:00Z</time>
      </trkpt>
      <trkpt lat="43.38058" lon="6.12554">
        <ele>353</ele>
        <time>2013-10-12T14:09:17Z</time>
      </trkpt>
      <trkpt lat="43.38058" lon="6.12554">
        <ele>353</ele>
        <time>2013-10-12T14:09:28Z</time>
      </trkpt>
      <trkpt lat="43.38056" lon="6.1256">
        <ele>353</ele>
        <time>2013-10-12T14:09:34Z</time>
      </trkpt>
      <trkpt lat="43.38055" lon="6.12569">
        <ele>353</ele>
        <time>2013-10-12T14:09:37Z</time>
      </trkpt>
      <trkpt lat="43.38056" lon="6.12575">
        <ele>353</ele>
        <time>2013-10-12T14:09:39Z</time>
      </trkpt>
      <trkpt lat="43.38055" lon="6.12583">
        <ele>353.39999389648</ele>
        <time>2013-10-12T14:09:42Z</time>
      </trkpt>
      <trkpt lat="43.38055" lon="6.12586">
        <ele>354</ele>
        <time>2013-10-12T14:09:43Z</time>
      </trkpt>
      <trkpt lat="43.38055" lon="6.12588">
        <ele>354.39999389648</ele>
        <time>2013-10-12T14:09:44Z</time>
      </trkpt>
      <trkpt lat="43.38054" lon="6.12591">
        <ele>354.79998779297</ele>
        <time>2013-10-12T14:09:45Z</time>
      </trkpt>
      <trkpt lat="43.38053" lon="6.12594">
        <ele>355.20001220703</ele>
        <time>2013-10-12T14:09:46Z</time>
      </trkpt>
      <trkpt lat="43.38052" lon="6.12599">
        <ele>355.20001220703</ele>
        <time>2013-10-12T14:09:49Z</time>
      </trkpt>
      <trkpt lat="43.38051" lon="6.12602">
        <ele>355.20001220703</ele>
        <time>2013-10-12T14:09:54Z</time>
      </trkpt>
      <trkpt lat="43.3805" lon="6.12603">
        <ele>355.20001220703</ele>
        <time>2013-10-12T14:09:58Z</time>
      </trkpt>
      <trkpt lat="43.3805" lon="6.12604">
        <ele>355.20001220703</ele>
        <time>2013-10-12T14:09:59Z</time>
      </trkpt>
      <trkpt lat="43.3805" lon="6.12605">
        <ele>355.60000610352</ele>
        <time>2013-10-12T14:10:00Z</time>
      </trkpt>
      <trkpt lat="43.3805" lon="6.12605">
        <ele>356</ele>
        <time>2013-10-12T14:10:01Z</time>
      </trkpt>
      <trkpt lat="43.3805" lon="6.12605">
        <ele>356.39999389648</ele>
        <time>2013-10-12T14:10:02Z</time>
      </trkpt>
      <trkpt lat="43.38051" lon="6.12607">
        <ele>357.39999389648</ele>
        <time>2013-10-12T14:10:04Z</time>
      </trkpt>
      <trkpt lat="43.38051" lon="6.12607">
        <ele>357.39999389648</ele>
        <time>2013-10-12T14:10:11Z</time>
      </trkpt>
      <trkpt lat="43.38051" lon="6.12607">
        <ele>357.39999389648</ele>
        <time>2013-10-12T14:10:33Z</time>
      </trkpt>
      <trkpt lat="43.38051" lon="6.12607">
        <ele>357.39999389648</ele>
        <time>2013-10-12T14:10:47Z</time>
      </trkpt>
      <trkpt lat="43.38051" lon="6.12608">
        <ele>357.39999389648</ele>
        <time>2013-10-12T14:10:53Z</time>
      </trkpt>
      <trkpt lat="43.38051" lon="6.12607">
        <ele>357.39999389648</ele>
        <time>2013-10-12T14:11:52Z</time>
      </trkpt>
      <trkpt lat="43.38051" lon="6.12608">
        <ele>357.39999389648</ele>
        <time>2013-10-12T14:12:19Z</time>
      </trkpt>
      <trkpt lat="43.38051" lon="6.12608">
        <ele>357.39999389648</ele>
        <time>2013-10-12T14:12:43Z</time>
      </trkpt>
      <trkpt lat="43.38051" lon="6.12608">
        <ele>357.39999389648</ele>
        <time>2013-10-12T14:13:07Z</time>
      </trkpt>
      <trkpt lat="43.3805" lon="6.12607">
        <ele>357.39999389648</ele>
        <time>2013-10-12T14:13:43Z</time>
      </trkpt>
      <trkpt lat="43.3805" lon="6.12607">
        <ele>357.39999389648</ele>
        <time>2013-10-12T14:14:01Z</time>
      </trkpt>
      <trkpt lat="43.3805" lon="6.12607">
        <ele>357.39999389648</ele>
        <time>2013-10-12T14:14:33Z</time>
      </trkpt>
      <trkpt lat="43.3805" lon="6.12607">
        <ele>357.39999389648</ele>
        <time>2013-10-12T14:15:41Z</time>
      </trkpt>
      <trkpt lat="43.3805" lon="6.12607">
        <ele>357.39999389648</ele>
        <time>2013-10-12T14:15:55Z</time>
      </trkpt>
      <trkpt lat="43.38049" lon="6.12607">
        <ele>357.39999389648</ele>
        <time>2013-10-12T14:16:12Z</time>
      </trkpt>
      <trkpt lat="43.38049" lon="6.12607">
        <ele>357.39999389648</ele>
        <time>2013-10-12T14:16:30Z</time>
      </trkpt>
      <trkpt lat="43.38049" lon="6.12608">
        <ele>359.39999389648</ele>
        <time>2013-10-12T14:16:54Z</time>
      </trkpt>
      <trkpt lat="43.38049" lon="6.12608">
        <ele>359.39999389648</ele>
        <time>2013-10-12T14:17:08Z</time>
      </trkpt>
      <trkpt lat="43.38049" lon="6.12608">
        <ele>359.39999389648</ele>
        <time>2013-10-12T14:17:22Z</time>
      </trkpt>
      <trkpt lat="43.38048" lon="6.12608">
        <ele>359.39999389648</ele>
        <time>2013-10-12T14:17:32Z</time>
      </trkpt>
      <trkpt lat="43.38048" lon="6.12608">
        <ele>359.39999389648</ele>
        <time>2013-10-12T14:17:45Z</time>
      </trkpt>
      <trkpt lat="43.38048" lon="6.12608">
        <ele>359.39999389648</ele>
        <time>2013-10-12T14:17:52Z</time>
      </trkpt>
      <trkpt lat="43.38049" lon="6.12608">
        <ele>359.39999389648</ele>
        <time>2013-10-12T14:17:56Z</time>
      </trkpt>
      <trkpt lat="43.38049" lon="6.12608">
        <ele>359.39999389648</ele>
        <time>2013-10-12T14:17:59Z</time>
      </trkpt>
      <trkpt lat="43.38048" lon="6.12611">
        <ele>359.39999389648</ele>
        <time>2013-10-12T14:18:09Z</time>
      </trkpt>
      <trkpt lat="43.38046" lon="6.12614">
        <ele>359.39999389648</ele>
        <time>2013-10-12T14:18:11Z</time>
      </trkpt>
      <trkpt lat="43.38046" lon="6.12621">
        <ele>359.39999389648</ele>
        <time>2013-10-12T14:18:14Z</time>
      </trkpt>
      <trkpt lat="43.38044" lon="6.12629">
        <ele>359.39999389648</ele>
        <time>2013-10-12T14:18:17Z</time>
      </trkpt>
      <trkpt lat="43.38043" lon="6.12635">
        <ele>359.39999389648</ele>
        <time>2013-10-12T14:18:19Z</time>
      </trkpt>
      <trkpt lat="43.38042" lon="6.12641">
        <ele>360.20001220703</ele>
        <time>2013-10-12T14:18:21Z</time>
      </trkpt>
      <trkpt lat="43.38041" lon="6.12644">
        <ele>360.60000610352</ele>
        <time>2013-10-12T14:18:22Z</time>
      </trkpt>
      <trkpt lat="43.38041" lon="6.12648">
        <ele>361</ele>
        <time>2013-10-12T14:18:23Z</time>
      </trkpt>
      <trkpt lat="43.38039" lon="6.12654">
        <ele>361.39999389648</ele>
        <time>2013-10-12T14:18:25Z</time>
      </trkpt>
      <trkpt lat="43.38036" lon="6.1267">
        <ele>361.39999389648</ele>
        <time>2013-10-12T14:18:31Z</time>
      </trkpt>
      <trkpt lat="43.38035" lon="6.12672">
        <ele>362.20001220703</ele>
        <time>2013-10-12T14:18:33Z</time>
      </trkpt>
      <trkpt lat="43.38035" lon="6.12673">
        <ele>362.60000610352</ele>
        <time>2013-10-12T14:18:34Z</time>
      </trkpt>
      <trkpt lat="43.38033" lon="6.12676">
        <ele>363.39999389648</ele>
        <time>2013-10-12T14:18:36Z</time>
      </trkpt>
      <trkpt lat="43.38028" lon="6.12686">
        <ele>363.39999389648</ele>
        <time>2013-10-12T14:18:40Z</time>
      </trkpt>
      <trkpt lat="43.38025" lon="6.12698">
        <ele>363.79998779297</ele>
        <time>2013-10-12T14:18:45Z</time>
      </trkpt>
      <trkpt lat="43.38023" lon="6.12703">
        <ele>364.60000610352</ele>
        <time>2013-10-12T14:18:47Z</time>
      </trkpt>
      <trkpt lat="43.38022" lon="6.12705">
        <ele>365</ele>
        <time>2013-10-12T14:18:48Z</time>
      </trkpt>
      <trkpt lat="43.38018" lon="6.1272">
        <ele>365.39999389648</ele>
        <time>2013-10-12T14:18:53Z</time>
      </trkpt>
      <trkpt lat="43.38017" lon="6.1273">
        <ele>365.39999389648</ele>
        <time>2013-10-12T14:18:58Z</time>
      </trkpt>
      <trkpt lat="43.38013" lon="6.12742">
        <ele>365.39999389648</ele>
        <time>2013-10-12T14:19:04Z</time>
      </trkpt>
      <trkpt lat="43.38012" lon="6.12746">
        <ele>366.20001220703</ele>
        <time>2013-10-12T14:19:06Z</time>
      </trkpt>
      <trkpt lat="43.38009" lon="6.12759">
        <ele>367.39999389648</ele>
        <time>2013-10-12T14:19:12Z</time>
      </trkpt>
      <trkpt lat="43.38006" lon="6.12776">
        <ele>367.79998779297</ele>
        <time>2013-10-12T14:19:19Z</time>
      </trkpt>
      <trkpt lat="43.38003" lon="6.12786">
        <ele>369.60000610352</ele>
        <time>2013-10-12T14:19:23Z</time>
      </trkpt>
      <trkpt lat="43.38001" lon="6.12793">
        <ele>369.60000610352</ele>
        <time>2013-10-12T14:19:27Z</time>
      </trkpt>
      <trkpt lat="43.37998" lon="6.12807">
        <ele>369.60000610352</ele>
        <time>2013-10-12T14:19:34Z</time>
      </trkpt>
      <trkpt lat="43.37994" lon="6.12819">
        <ele>369.60000610352</ele>
        <time>2013-10-12T14:19:41Z</time>
      </trkpt>
      <trkpt lat="43.37992" lon="6.12823">
        <ele>370.39999389648</ele>
        <time>2013-10-12T14:19:43Z</time>
      </trkpt>
      <trkpt lat="43.37991" lon="6.12826">
        <ele>371.20001220703</ele>
        <time>2013-10-12T14:19:45Z</time>
      </trkpt>
      <trkpt lat="43.3799" lon="6.12831">
        <ele>371.60000610352</ele>
        <time>2013-10-12T14:19:47Z</time>
      </trkpt>
      <trkpt lat="43.37989" lon="6.1284">
        <ele>371.60000610352</ele>
        <time>2013-10-12T14:19:51Z</time>
      </trkpt>
      <trkpt lat="43.37989" lon="6.12843">
        <ele>371.60000610352</ele>
        <time>2013-10-12T14:19:52Z</time>
      </trkpt>
      <trkpt lat="43.37989" lon="6.12855">
        <ele>371.60000610352</ele>
        <time>2013-10-12T14:19:57Z</time>
      </trkpt>
      <trkpt lat="43.37988" lon="6.12856">
        <ele>372.20001220703</ele>
        <time>2013-10-12T14:19:58Z</time>
      </trkpt>
      <trkpt lat="43.37986" lon="6.12862">
        <ele>373.39999389648</ele>
        <time>2013-10-12T14:20:01Z</time>
      </trkpt>
      <trkpt lat="43.37984" lon="6.12866">
        <ele>373.79998779297</ele>
        <time>2013-10-12T14:20:04Z</time>
      </trkpt>
      <trkpt lat="43.37983" lon="6.12868">
        <ele>373.79998779297</ele>
        <time>2013-10-12T14:20:05Z</time>
      </trkpt>
      <trkpt lat="43.37982" lon="6.12878">
        <ele>374.79998779297</ele>
        <time>2013-10-12T14:20:10Z</time>
      </trkpt>
      <trkpt lat="43.37981" lon="6.12881">
        <ele>375.60000610352</ele>
        <time>2013-10-12T14:20:12Z</time>
      </trkpt>
      <trkpt lat="43.3798" lon="6.12898">
        <ele>376</ele>
        <time>2013-10-12T14:20:20Z</time>
      </trkpt>
      <trkpt lat="43.37978" lon="6.12908">
        <ele>376</ele>
        <time>2013-10-12T14:20:25Z</time>
      </trkpt>
      <trkpt lat="43.37973" lon="6.12918">
        <ele>376.79998779297</ele>
        <time>2013-10-12T14:20:31Z</time>
      </trkpt>
      <trkpt lat="43.37969" lon="6.12931">
        <ele>378.20001220703</ele>
        <time>2013-10-12T14:20:38Z</time>
      </trkpt>
      <trkpt lat="43.37964" lon="6.12938">
        <ele>378.20001220703</ele>
        <time>2013-10-12T14:20:43Z</time>
      </trkpt>
      <trkpt lat="43.37961" lon="6.12942">
        <ele>378.60000610352</ele>
        <time>2013-10-12T14:20:46Z</time>
      </trkpt>
      <trkpt lat="43.37958" lon="6.12947">
        <ele>379.79998779297</ele>
        <time>2013-10-12T14:20:49Z</time>
      </trkpt>
      <trkpt lat="43.37958" lon="6.12955">
        <ele>380.20001220703</ele>
        <time>2013-10-12T14:20:53Z</time>
      </trkpt>
      <trkpt lat="43.37956" lon="6.12973">
        <ele>381.79998779297</ele>
        <time>2013-10-12T14:21:03Z</time>
      </trkpt>
      <trkpt lat="43.37955" lon="6.12975">
        <ele>382.20001220703</ele>
        <time>2013-10-12T14:21:04Z</time>
      </trkpt>
      <trkpt lat="43.37953" lon="6.12981">
        <ele>382.20001220703</ele>
        <time>2013-10-12T14:21:07Z</time>
      </trkpt>
      <trkpt lat="43.37949" lon="6.12992">
        <ele>382.20001220703</ele>
        <time>2013-10-12T14:21:14Z</time>
      </trkpt>
      <trkpt lat="43.37946" lon="6.13006">
        <ele>382.60000610352</ele>
        <time>2013-10-12T14:21:22Z</time>
      </trkpt>
      <trkpt lat="43.37943" lon="6.13012">
        <ele>384</ele>
        <time>2013-10-12T14:21:25Z</time>
      </trkpt>
      <trkpt lat="43.3794" lon="6.13018">
        <ele>384.39999389648</ele>
        <time>2013-10-12T14:21:28Z</time>
      </trkpt>
      <trkpt lat="43.37935" lon="6.13027">
        <ele>384.39999389648</ele>
        <time>2013-10-12T14:21:33Z</time>
      </trkpt>
      <trkpt lat="43.37925" lon="6.13035">
        <ele>384.39999389648</ele>
        <time>2013-10-12T14:21:40Z</time>
      </trkpt>
      <trkpt lat="43.37919" lon="6.13045">
        <ele>386.39999389648</ele>
        <time>2013-10-12T14:21:47Z</time>
      </trkpt>
      <trkpt lat="43.37914" lon="6.13054">
        <ele>386.39999389648</ele>
        <time>2013-10-12T14:21:52Z</time>
      </trkpt>
      <trkpt lat="43.37912" lon="6.13068">
        <ele>386.39999389648</ele>
        <time>2013-10-12T14:21:59Z</time>
      </trkpt>
      <trkpt lat="43.37911" lon="6.13074">
        <ele>386.79998779297</ele>
        <time>2013-10-12T14:22:03Z</time>
      </trkpt>
      <trkpt lat="43.37911" lon="6.13074">
        <ele>387.20001220703</ele>
        <time>2013-10-12T14:22:04Z</time>
      </trkpt>
      <trkpt lat="43.37911" lon="6.13074">
        <ele>388.39999389648</ele>
        <time>2013-10-12T14:22:23Z</time>
      </trkpt>
      <trkpt lat="43.37911" lon="6.13074">
        <ele>388.39999389648</ele>
        <time>2013-10-12T14:22:43Z</time>
      </trkpt>
      <trkpt lat="43.37911" lon="6.13074">
        <ele>388.39999389648</ele>
        <time>2013-10-12T14:22:46Z</time>
      </trkpt>
      <trkpt lat="43.37911" lon="6.13074">
        <ele>388.39999389648</ele>
        <time>2013-10-12T14:23:10Z</time>
      </trkpt>
      <trkpt lat="43.37911" lon="6.13074">
        <ele>388.39999389648</ele>
        <time>2013-10-12T14:24:11Z</time>
      </trkpt>
      <trkpt lat="43.37911" lon="6.13074">
        <ele>388.39999389648</ele>
        <time>2013-10-12T14:24:37Z</time>
      </trkpt>
      <trkpt lat="43.3791" lon="6.13074">
        <ele>388.39999389648</ele>
        <time>2013-10-12T14:24:50Z</time>
      </trkpt>
      <trkpt lat="43.3791" lon="6.13074">
        <ele>388.39999389648</ele>
        <time>2013-10-12T14:25:11Z</time>
      </trkpt>
      <trkpt lat="43.3791" lon="6.13075">
        <ele>388.39999389648</ele>
        <time>2013-10-12T14:25:41Z</time>
      </trkpt>
      <trkpt lat="43.3791" lon="6.13075">
        <ele>388.39999389648</ele>
        <time>2013-10-12T14:25:52Z</time>
      </trkpt>
      <trkpt lat="43.3791" lon="6.13075">
        <ele>388.39999389648</ele>
        <time>2013-10-12T14:25:58Z</time>
      </trkpt>
      <trkpt lat="43.3791" lon="6.13075">
        <ele>388.39999389648</ele>
        <time>2013-10-12T14:26:00Z</time>
      </trkpt>
      <trkpt lat="43.3791" lon="6.13078">
        <ele>388.39999389648</ele>
        <time>2013-10-12T14:26:06Z</time>
      </trkpt>
      <trkpt lat="43.37909" lon="6.13079">
        <ele>388.39999389648</ele>
        <time>2013-10-12T14:26:07Z</time>
      </trkpt>
      <trkpt lat="43.37908" lon="6.13079">
        <ele>388.39999389648</ele>
        <time>2013-10-12T14:26:10Z</time>
      </trkpt>
      <trkpt lat="43.37906" lon="6.13082">
        <ele>388.39999389648</ele>
        <time>2013-10-12T14:26:11Z</time>
      </trkpt>
      <trkpt lat="43.37904" lon="6.13083">
        <ele>388.39999389648</ele>
        <time>2013-10-12T14:26:12Z</time>
      </trkpt>
      <trkpt lat="43.37896" lon="6.13082">
        <ele>388.39999389648</ele>
        <time>2013-10-12T14:26:16Z</time>
      </trkpt>
      <trkpt lat="43.37894" lon="6.1308">
        <ele>388.39999389648</ele>
        <time>2013-10-12T14:26:18Z</time>
      </trkpt>
      <trkpt lat="43.37886" lon="6.13076">
        <ele>388.39999389648</ele>
        <time>2013-10-12T14:26:23Z</time>
      </trkpt>
      <trkpt lat="43.37885" lon="6.13076">
        <ele>388.39999389648</ele>
        <time>2013-10-12T14:26:24Z</time>
      </trkpt>
      <trkpt lat="43.37881" lon="6.13073">
        <ele>388.39999389648</ele>
        <time>2013-10-12T14:26:26Z</time>
      </trkpt>
      <trkpt lat="43.37877" lon="6.13068">
        <ele>388.39999389648</ele>
        <time>2013-10-12T14:26:29Z</time>
      </trkpt>
      <trkpt lat="43.37874" lon="6.13064">
        <ele>388.39999389648</ele>
        <time>2013-10-12T14:26:31Z</time>
      </trkpt>
      <trkpt lat="43.37864" lon="6.13049">
        <ele>388.39999389648</ele>
        <time>2013-10-12T14:26:36Z</time>
      </trkpt>
      <trkpt lat="43.37857" lon="6.13042">
        <ele>388.39999389648</ele>
        <time>2013-10-12T14:26:40Z</time>
      </trkpt>
      <trkpt lat="43.37851" lon="6.13038">
        <ele>387.20001220703</ele>
        <time>2013-10-12T14:26:43Z</time>
      </trkpt>
      <trkpt lat="43.37849" lon="6.13037">
        <ele>386.79998779297</ele>
        <time>2013-10-12T14:26:44Z</time>
      </trkpt>
      <trkpt lat="43.37848" lon="6.13037">
        <ele>386.39999389648</ele>
        <time>2013-10-12T14:26:45Z</time>
      </trkpt>
      <trkpt lat="43.37841" lon="6.13033">
        <ele>385.39999389648</ele>
        <time>2013-10-12T14:26:47Z</time>
      </trkpt>
      <trkpt lat="43.3783" lon="6.13027">
        <ele>383</ele>
        <time>2013-10-12T14:26:51Z</time>
      </trkpt>
      <trkpt lat="43.37823" lon="6.13021">
        <ele>381.39999389648</ele>
        <time>2013-10-12T14:26:53Z</time>
      </trkpt>
      <trkpt lat="43.3782" lon="6.1302">
        <ele>380.60000610352</ele>
        <time>2013-10-12T14:26:54Z</time>
      </trkpt>
      <trkpt lat="43.37819" lon="6.13019">
        <ele>380</ele>
        <time>2013-10-12T14:26:55Z</time>
      </trkpt>
      <trkpt lat="43.37817" lon="6.13019">
        <ele>379.20001220703</ele>
        <time>2013-10-12T14:26:56Z</time>
      </trkpt>
      <trkpt lat="43.37813" lon="6.13019">
        <ele>377.79998779297</ele>
        <time>2013-10-12T14:26:58Z</time>
      </trkpt>
      <trkpt lat="43.37811" lon="6.13019">
        <ele>377.20001220703</ele>
        <time>2013-10-12T14:26:59Z</time>
      </trkpt>
      <trkpt lat="43.37809" lon="6.13018">
        <ele>376.39999389648</ele>
        <time>2013-10-12T14:27:00Z</time>
      </trkpt>
      <trkpt lat="43.37806" lon="6.13015">
        <ele>375</ele>
        <time>2013-10-12T14:27:02Z</time>
      </trkpt>
      <trkpt lat="43.37802" lon="6.13013">
        <ele>372.79998779297</ele>
        <time>2013-10-12T14:27:04Z</time>
      </trkpt>
      <trkpt lat="43.37801" lon="6.13013">
        <ele>372.20001220703</ele>
        <time>2013-10-12T14:27:05Z</time>
      </trkpt>
      <trkpt lat="43.37799" lon="6.13012">
        <ele>371.39999389648</ele>
        <time>2013-10-12T14:27:06Z</time>
      </trkpt>
      <trkpt lat="43.37799" lon="6.13012">
        <ele>370.79998779297</ele>
        <time>2013-10-12T14:27:07Z</time>
      </trkpt>
      <trkpt lat="43.37798" lon="6.13012">
        <ele>370.20001220703</ele>
        <time>2013-10-12T14:27:08Z</time>
      </trkpt>
      <trkpt lat="43.37797" lon="6.13011">
        <ele>369.60000610352</ele>
        <time>2013-10-12T14:27:09Z</time>
      </trkpt>
      <trkpt lat="43.37797" lon="6.13011">
        <ele>369</ele>
        <time>2013-10-12T14:27:10Z</time>
      </trkpt>
      <trkpt lat="43.37797" lon="6.13011">
        <ele>368.39999389648</ele>
        <time>2013-10-12T14:27:11Z</time>
      </trkpt>
      <trkpt lat="43.37798" lon="6.13011">
        <ele>367.20001220703</ele>
        <time>2013-10-12T14:27:13Z</time>
      </trkpt>
      <trkpt lat="43.37797" lon="6.1301">
        <ele>367.20001220703</ele>
        <time>2013-10-12T14:27:19Z</time>
      </trkpt>
      <trkpt lat="43.37797" lon="6.13009">
        <ele>367.20001220703</ele>
        <time>2013-10-12T14:27:20Z</time>
      </trkpt>
      <trkpt lat="43.37791" lon="6.13004">
        <ele>366.79998779297</ele>
        <time>2013-10-12T14:27:22Z</time>
      </trkpt>
      <trkpt lat="43.37788" lon="6.13004">
        <ele>366.39999389648</ele>
        <time>2013-10-12T14:27:23Z</time>
      </trkpt>
      <trkpt lat="43.37785" lon="6.13002">
        <ele>366</ele>
        <time>2013-10-12T14:27:24Z</time>
      </trkpt>
      <trkpt lat="43.37784" lon="6.13001">
        <ele>365.39999389648</ele>
        <time>2013-10-12T14:27:25Z</time>
      </trkpt>
      <trkpt lat="43.37783" lon="6.12999">
        <ele>364.79998779297</ele>
        <time>2013-10-12T14:27:26Z</time>
      </trkpt>
      <trkpt lat="43.37783" lon="6.12997">
        <ele>364.39999389648</ele>
        <time>2013-10-12T14:27:27Z</time>
      </trkpt>
      <trkpt lat="43.37782" lon="6.12995">
        <ele>363.20001220703</ele>
        <time>2013-10-12T14:27:28Z</time>
      </trkpt>
      <trkpt lat="43.37782" lon="6.12993">
        <ele>363.20001220703</ele>
        <time>2013-10-12T14:27:29Z</time>
      </trkpt>
      <trkpt lat="43.37782" lon="6.12993">
        <ele>362.79998779297</ele>
        <time>2013-10-12T14:27:30Z</time>
      </trkpt>
      <trkpt lat="43.37782" lon="6.12993">
        <ele>362.20001220703</ele>
        <time>2013-10-12T14:27:31Z</time>
      </trkpt>
      <trkpt lat="43.37782" lon="6.12993">
        <ele>361.79998779297</ele>
        <time>2013-10-12T14:27:32Z</time>
      </trkpt>
      <trkpt lat="43.37782" lon="6.12993">
        <ele>361</ele>
        <time>2013-10-12T14:27:38Z</time>
      </trkpt>
      <trkpt lat="43.37782" lon="6.12992">
        <ele>361</ele>
        <time>2013-10-12T14:27:44Z</time>
      </trkpt>
      <trkpt lat="43.3778" lon="6.12988">
        <ele>361</ele>
        <time>2013-10-12T14:27:49Z</time>
      </trkpt>
      <trkpt lat="43.3778" lon="6.12988">
        <ele>361</ele>
        <time>2013-10-12T14:27:55Z</time>
      </trkpt>
      <trkpt lat="43.37776" lon="6.12984">
        <ele>361</ele>
        <time>2013-10-12T14:27:58Z</time>
      </trkpt>
      <trkpt lat="43.37773" lon="6.12983">
        <ele>361</ele>
        <time>2013-10-12T14:28:03Z</time>
      </trkpt>
      <trkpt lat="43.37773" lon="6.12983">
        <ele>361</ele>
        <time>2013-10-12T14:28:04Z</time>
      </trkpt>
      <trkpt lat="43.37767" lon="6.12982">
        <ele>359.79998779297</ele>
        <time>2013-10-12T14:28:11Z</time>
      </trkpt>
      <trkpt lat="43.37767" lon="6.12982">
        <ele>359</ele>
        <time>2013-10-12T14:28:13Z</time>
      </trkpt>
      <trkpt lat="43.37765" lon="6.12981">
        <ele>359</ele>
        <time>2013-10-12T14:28:15Z</time>
      </trkpt>
      <trkpt lat="43.37762" lon="6.12981">
        <ele>358.39999389648</ele>
        <time>2013-10-12T14:28:18Z</time>
      </trkpt>
      <trkpt lat="43.37762" lon="6.12981">
        <ele>358</ele>
        <time>2013-10-12T14:28:19Z</time>
      </trkpt>
      <trkpt lat="43.37762" lon="6.12981">
        <ele>357.60000610352</ele>
        <time>2013-10-12T14:28:20Z</time>
      </trkpt>
      <trkpt lat="43.37761" lon="6.12981">
        <ele>357.20001220703</ele>
        <time>2013-10-12T14:28:21Z</time>
      </trkpt>
      <trkpt lat="43.37761" lon="6.12981">
        <ele>356.60000610352</ele>
        <time>2013-10-12T14:28:22Z</time>
      </trkpt>
      <trkpt lat="43.37761" lon="6.12982">
        <ele>356.60000610352</ele>
        <time>2013-10-12T14:28:23Z</time>
      </trkpt>
      <trkpt lat="43.37758" lon="6.12984">
        <ele>356.60000610352</ele>
        <time>2013-10-12T14:28:26Z</time>
      </trkpt>
      <trkpt lat="43.37756" lon="6.12985">
        <ele>356.60000610352</ele>
        <time>2013-10-12T14:28:27Z</time>
      </trkpt>
      <trkpt lat="43.37751" lon="6.1298">
        <ele>355</ele>
        <time>2013-10-12T14:28:31Z</time>
      </trkpt>
      <trkpt lat="43.37751" lon="6.12979">
        <ele>354.60000610352</ele>
        <time>2013-10-12T14:28:32Z</time>
      </trkpt>
      <trkpt lat="43.37748" lon="6.12976">
        <ele>354</ele>
        <time>2013-10-12T14:28:34Z</time>
      </trkpt>
      <trkpt lat="43.37746" lon="6.12976">
        <ele>353.60000610352</ele>
        <time>2013-10-12T14:28:35Z</time>
      </trkpt>
      <trkpt lat="43.37743" lon="6.12977">
        <ele>352.60000610352</ele>
        <time>2013-10-12T14:28:37Z</time>
      </trkpt>
      <trkpt lat="43.37742" lon="6.12978">
        <ele>352.20001220703</ele>
        <time>2013-10-12T14:28:38Z</time>
      </trkpt>
      <trkpt lat="43.3774" lon="6.12979">
        <ele>351.60000610352</ele>
        <time>2013-10-12T14:28:39Z</time>
      </trkpt>
      <trkpt lat="43.37739" lon="6.12979">
        <ele>351.20001220703</ele>
        <time>2013-10-12T14:28:40Z</time>
      </trkpt>
      <trkpt lat="43.37738" lon="6.1298">
        <ele>350.20001220703</ele>
        <time>2013-10-12T14:28:42Z</time>
      </trkpt>
      <trkpt lat="43.37738" lon="6.1298">
        <ele>349.79998779297</ele>
        <time>2013-10-12T14:28:43Z</time>
      </trkpt>
      <trkpt lat="43.37737" lon="6.12979">
        <ele>349.79998779297</ele>
        <time>2013-10-12T14:28:48Z</time>
      </trkpt>
      <trkpt lat="43.37737" lon="6.12979">
        <ele>349.39999389648</ele>
        <time>2013-10-12T14:28:50Z</time>
      </trkpt>
      <trkpt lat="43.37737" lon="6.12979">
        <ele>347.79998779297</ele>
        <time>2013-10-12T14:29:04Z</time>
      </trkpt>
      <trkpt lat="43.37738" lon="6.12979">
        <ele>347.79998779297</ele>
        <time>2013-10-12T14:29:12Z</time>
      </trkpt>
      <trkpt lat="43.37736" lon="6.12979">
        <ele>347.79998779297</ele>
        <time>2013-10-12T14:29:19Z</time>
      </trkpt>
      <trkpt lat="43.37735" lon="6.12979">
        <ele>347.79998779297</ele>
        <time>2013-10-12T14:29:26Z</time>
      </trkpt>
      <trkpt lat="43.37733" lon="6.12979">
        <ele>347.79998779297</ele>
        <time>2013-10-12T14:29:28Z</time>
      </trkpt>
      <trkpt lat="43.37729" lon="6.12974">
        <ele>347.79998779297</ele>
        <time>2013-10-12T14:29:31Z</time>
      </trkpt>
      <trkpt lat="43.37727" lon="6.12972">
        <ele>346.79998779297</ele>
        <time>2013-10-12T14:29:33Z</time>
      </trkpt>
      <trkpt lat="43.37727" lon="6.12972">
        <ele>345.60000610352</ele>
        <time>2013-10-12T14:29:57Z</time>
      </trkpt>
      <trkpt lat="43.37728" lon="6.12972">
        <ele>345.60000610352</ele>
        <time>2013-10-12T14:30:14Z</time>
      </trkpt>
      <trkpt lat="43.37728" lon="6.12972">
        <ele>345.60000610352</ele>
        <time>2013-10-12T14:30:33Z</time>
      </trkpt>
      <trkpt lat="43.37728" lon="6.12972">
        <ele>345.60000610352</ele>
        <time>2013-10-12T14:30:55Z</time>
      </trkpt>
      <trkpt lat="43.37728" lon="6.12972">
        <ele>345.60000610352</ele>
        <time>2013-10-12T14:30:59Z</time>
      </trkpt>
      <trkpt lat="43.37727" lon="6.12971">
        <ele>345.60000610352</ele>
        <time>2013-10-12T14:31:03Z</time>
      </trkpt>
      <trkpt lat="43.37719" lon="6.12956">
        <ele>344.79998779297</ele>
        <time>2013-10-12T14:31:11Z</time>
      </trkpt>
      <trkpt lat="43.37718" lon="6.12955">
        <ele>344.39999389648</ele>
        <time>2013-10-12T14:31:12Z</time>
      </trkpt>
      <trkpt lat="43.37713" lon="6.12951">
        <ele>343.60000610352</ele>
        <time>2013-10-12T14:31:16Z</time>
      </trkpt>
      <trkpt lat="43.37712" lon="6.1295">
        <ele>343</ele>
        <time>2013-10-12T14:31:19Z</time>
      </trkpt>
      <trkpt lat="43.37712" lon="6.1295">
        <ele>341.39999389648</ele>
        <time>2013-10-12T14:31:25Z</time>
      </trkpt>
      <trkpt lat="43.37712" lon="6.1295">
        <ele>341.39999389648</ele>
        <time>2013-10-12T14:31:29Z</time>
      </trkpt>
      <trkpt lat="43.37712" lon="6.1295">
        <ele>341.39999389648</ele>
        <time>2013-10-12T14:31:37Z</time>
      </trkpt>
      <trkpt lat="43.37712" lon="6.1295">
        <ele>341.39999389648</ele>
        <time>2013-10-12T14:31:42Z</time>
      </trkpt>
      <trkpt lat="43.37712" lon="6.12949">
        <ele>341.39999389648</ele>
        <time>2013-10-12T14:31:52Z</time>
      </trkpt>
      <trkpt lat="43.37712" lon="6.12949">
        <ele>341.39999389648</ele>
        <time>2013-10-12T14:32:09Z</time>
      </trkpt>
      <trkpt lat="43.37712" lon="6.12949">
        <ele>341.39999389648</ele>
        <time>2013-10-12T14:32:20Z</time>
      </trkpt>
      <trkpt lat="43.37712" lon="6.12949">
        <ele>341.39999389648</ele>
        <time>2013-10-12T14:32:33Z</time>
      </trkpt>
      <trkpt lat="43.3771" lon="6.12947">
        <ele>341.39999389648</ele>
        <time>2013-10-12T14:32:40Z</time>
      </trkpt>
      <trkpt lat="43.37709" lon="6.12946">
        <ele>341.39999389648</ele>
        <time>2013-10-12T14:32:41Z</time>
      </trkpt>
      <trkpt lat="43.37706" lon="6.12943">
        <ele>341.39999389648</ele>
        <time>2013-10-12T14:32:47Z</time>
      </trkpt>
      <trkpt lat="43.37706" lon="6.12943">
        <ele>341.39999389648</ele>
        <time>2013-10-12T14:33:07Z</time>
      </trkpt>
      <trkpt lat="43.37706" lon="6.12943">
        <ele>341.39999389648</ele>
        <time>2013-10-12T14:33:18Z</time>
      </trkpt>
      <trkpt lat="43.37706" lon="6.12942">
        <ele>341.39999389648</ele>
        <time>2013-10-12T14:33:20Z</time>
      </trkpt>
      <trkpt lat="43.37705" lon="6.12941">
        <ele>341.39999389648</ele>
        <time>2013-10-12T14:33:23Z</time>
      </trkpt>
      <trkpt lat="43.37705" lon="6.12938">
        <ele>341.39999389648</ele>
        <time>2013-10-12T14:33:25Z</time>
      </trkpt>
      <trkpt lat="43.37706" lon="6.12931">
        <ele>341.39999389648</ele>
        <time>2013-10-12T14:33:29Z</time>
      </trkpt>
      <trkpt lat="43.37702" lon="6.12922">
        <ele>341.39999389648</ele>
        <time>2013-10-12T14:33:34Z</time>
      </trkpt>
      <trkpt lat="43.37702" lon="6.12921">
        <ele>341.39999389648</ele>
        <time>2013-10-12T14:33:35Z</time>
      </trkpt>
      <trkpt lat="43.37702" lon="6.12919">
        <ele>341.39999389648</ele>
        <time>2013-10-12T14:33:39Z</time>
      </trkpt>
      <trkpt lat="43.37702" lon="6.12919">
        <ele>341.39999389648</ele>
        <time>2013-10-12T14:34:01Z</time>
      </trkpt>
      <trkpt lat="43.37702" lon="6.12919">
        <ele>341.39999389648</ele>
        <time>2013-10-12T14:34:27Z</time>
      </trkpt>
      <trkpt lat="43.37702" lon="6.12919">
        <ele>341.39999389648</ele>
        <time>2013-10-12T14:34:41Z</time>
      </trkpt>
      <trkpt lat="43.37703" lon="6.12915">
        <ele>341.39999389648</ele>
        <time>2013-10-12T14:34:47Z</time>
      </trkpt>
      <trkpt lat="43.37705" lon="6.12896">
        <ele>341.39999389648</ele>
        <time>2013-10-12T14:34:54Z</time>
      </trkpt>
      <trkpt lat="43.37706" lon="6.12893">
        <ele>341.39999389648</ele>
        <time>2013-10-12T14:34:55Z</time>
      </trkpt>
      <trkpt lat="43.37708" lon="6.12882">
        <ele>341.39999389648</ele>
        <time>2013-10-12T14:34:58Z</time>
      </trkpt>
      <trkpt lat="43.37708" lon="6.12878">
        <ele>341.39999389648</ele>
        <time>2013-10-12T14:34:59Z</time>
      </trkpt>
      <trkpt lat="43.3771" lon="6.12861">
        <ele>341.39999389648</ele>
        <time>2013-10-12T14:35:03Z</time>
      </trkpt>
      <trkpt lat="43.3771" lon="6.12851">
        <ele>341</ele>
        <time>2013-10-12T14:35:05Z</time>
      </trkpt>
      <trkpt lat="43.37711" lon="6.12826">
        <ele>339.39999389648</ele>
        <time>2013-10-12T14:35:09Z</time>
      </trkpt>
      <trkpt lat="43.37709" lon="6.12805">
        <ele>339.39999389648</ele>
        <time>2013-10-12T14:35:12Z</time>
      </trkpt>
      <trkpt lat="43.37707" lon="6.12789">
        <ele>338.79998779297</ele>
        <time>2013-10-12T14:35:14Z</time>
      </trkpt>
      <trkpt lat="43.37705" lon="6.12782">
        <ele>338.39999389648</ele>
        <time>2013-10-12T14:35:15Z</time>
      </trkpt>
      <trkpt lat="43.37704" lon="6.12773">
        <ele>338</ele>
        <time>2013-10-12T14:35:16Z</time>
      </trkpt>
      <trkpt lat="43.37703" lon="6.12764">
        <ele>337.20001220703</ele>
        <time>2013-10-12T14:35:17Z</time>
      </trkpt>
      <trkpt lat="43.37702" lon="6.12755">
        <ele>337.20001220703</ele>
        <time>2013-10-12T14:35:18Z</time>
      </trkpt>
      <trkpt lat="43.37701" lon="6.12746">
        <ele>336.60000610352</ele>
        <time>2013-10-12T14:35:19Z</time>
      </trkpt>
      <trkpt lat="43.37701" lon="6.12736">
        <ele>336.20001220703</ele>
        <time>2013-10-12T14:35:20Z</time>
      </trkpt>
      <trkpt lat="43.37701" lon="6.12727">
        <ele>335.60000610352</ele>
        <time>2013-10-12T14:35:21Z</time>
      </trkpt>
      <trkpt lat="43.37702" lon="6.1271">
        <ele>334.60000610352</ele>
        <time>2013-10-12T14:35:23Z</time>
      </trkpt>
      <trkpt lat="43.37706" lon="6.12655">
        <ele>334.60000610352</ele>
        <time>2013-10-12T14:35:30Z</time>
      </trkpt>
      <trkpt lat="43.37708" lon="6.12632">
        <ele>334.20001220703</ele>
        <time>2013-10-12T14:35:33Z</time>
      </trkpt>
      <trkpt lat="43.37708" lon="6.12591">
        <ele>332.39999389648</ele>
        <time>2013-10-12T14:35:38Z</time>
      </trkpt>
      <trkpt lat="43.37709" lon="6.12551">
        <ele>332.39999389648</ele>
        <time>2013-10-12T14:35:43Z</time>
      </trkpt>
      <trkpt lat="43.3771" lon="6.12543">
        <ele>332</ele>
        <time>2013-10-12T14:35:44Z</time>
      </trkpt>
      <trkpt lat="43.37714" lon="6.12511">
        <ele>330.20001220703</ele>
        <time>2013-10-12T14:35:48Z</time>
      </trkpt>
      <trkpt lat="43.3772" lon="6.12482">
        <ele>330.20001220703</ele>
        <time>2013-10-12T14:35:52Z</time>
      </trkpt>
      <trkpt lat="43.37727" lon="6.12453">
        <ele>329.20001220703</ele>
        <time>2013-10-12T14:35:56Z</time>
      </trkpt>
      <trkpt lat="43.37729" lon="6.12445">
        <ele>328.79998779297</ele>
        <time>2013-10-12T14:35:57Z</time>
      </trkpt>
      <trkpt lat="43.37729" lon="6.12437">
        <ele>328.39999389648</ele>
        <time>2013-10-12T14:35:58Z</time>
      </trkpt>
      <trkpt lat="43.3773" lon="6.12429">
        <ele>328</ele>
        <time>2013-10-12T14:35:59Z</time>
      </trkpt>
      <trkpt lat="43.37732" lon="6.12395">
        <ele>327.60000610352</ele>
        <time>2013-10-12T14:36:03Z</time>
      </trkpt>
      <trkpt lat="43.37733" lon="6.12387">
        <ele>327</ele>
        <time>2013-10-12T14:36:04Z</time>
      </trkpt>
      <trkpt lat="43.37734" lon="6.12379">
        <ele>326.20001220703</ele>
        <time>2013-10-12T14:36:05Z</time>
      </trkpt>
      <trkpt lat="43.37735" lon="6.12372">
        <ele>325.79998779297</ele>
        <time>2013-10-12T14:36:06Z</time>
      </trkpt>
      <trkpt lat="43.37737" lon="6.12365">
        <ele>325.79998779297</ele>
        <time>2013-10-12T14:36:07Z</time>
      </trkpt>
      <trkpt lat="43.37741" lon="6.12346">
        <ele>325.79998779297</ele>
        <time>2013-10-12T14:36:10Z</time>
      </trkpt>
      <trkpt lat="43.37729" lon="6.12328">
        <ele>324.79998779297</ele>
        <time>2013-10-12T14:36:14Z</time>
      </trkpt>
      <trkpt lat="43.37727" lon="6.12323">
        <ele>324.20001220703</ele>
        <time>2013-10-12T14:36:15Z</time>
      </trkpt>
      <trkpt lat="43.37725" lon="6.12317">
        <ele>323.79998779297</ele>
        <time>2013-10-12T14:36:16Z</time>
      </trkpt>
      <trkpt lat="43.37725" lon="6.1231">
        <ele>323.39999389648</ele>
        <time>2013-10-12T14:36:17Z</time>
      </trkpt>
      <trkpt lat="43.37727" lon="6.12299">
        <ele>323.39999389648</ele>
        <time>2013-10-12T14:36:19Z</time>
      </trkpt>
      <trkpt lat="43.3773" lon="6.12291">
        <ele>323.39999389648</ele>
        <time>2013-10-12T14:36:21Z</time>
      </trkpt>
      <trkpt lat="43.37734" lon="6.12285">
        <ele>323.39999389648</ele>
        <time>2013-10-12T14:36:23Z</time>
      </trkpt>
      <trkpt lat="43.3774" lon="6.12276">
        <ele>323.39999389648</ele>
        <time>2013-10-12T14:36:25Z</time>
      </trkpt>
      <trkpt lat="43.37751" lon="6.1226">
        <ele>322.39999389648</ele>
        <time>2013-10-12T14:36:28Z</time>
      </trkpt>
      <trkpt lat="43.37763" lon="6.12243">
        <ele>321</ele>
        <time>2013-10-12T14:36:31Z</time>
      </trkpt>
      <trkpt lat="43.37766" lon="6.12238">
        <ele>321</ele>
        <time>2013-10-12T14:36:32Z</time>
      </trkpt>
      <trkpt lat="43.37774" lon="6.1222">
        <ele>321</ele>
        <time>2013-10-12T14:36:35Z</time>
      </trkpt>
      <trkpt lat="43.37786" lon="6.12193">
        <ele>321</ele>
        <time>2013-10-12T14:36:40Z</time>
      </trkpt>
      <trkpt lat="43.37789" lon="6.12182">
        <ele>321</ele>
        <time>2013-10-12T14:36:42Z</time>
      </trkpt>
      <trkpt lat="43.37794" lon="6.12167">
        <ele>320.60000610352</ele>
        <time>2013-10-12T14:36:44Z</time>
      </trkpt>
      <trkpt lat="43.378" lon="6.12149">
        <ele>319.79998779297</ele>
        <time>2013-10-12T14:36:46Z</time>
      </trkpt>
      <trkpt lat="43.37806" lon="6.1213">
        <ele>319</ele>
        <time>2013-10-12T14:36:48Z</time>
      </trkpt>
      <trkpt lat="43.37815" lon="6.12096">
        <ele>318.60000610352</ele>
        <time>2013-10-12T14:36:52Z</time>
      </trkpt>
      <trkpt lat="43.37817" lon="6.12088">
        <ele>318.20001220703</ele>
        <time>2013-10-12T14:36:53Z</time>
      </trkpt>
      <trkpt lat="43.37819" lon="6.1208">
        <ele>317.60000610352</ele>
        <time>2013-10-12T14:36:54Z</time>
      </trkpt>
      <trkpt lat="43.37827" lon="6.12049">
        <ele>316.79998779297</ele>
        <time>2013-10-12T14:36:58Z</time>
      </trkpt>
      <trkpt lat="43.37834" lon="6.12021">
        <ele>316.39999389648</ele>
        <time>2013-10-12T14:37:02Z</time>
      </trkpt>
      <trkpt lat="43.37836" lon="6.12013">
        <ele>316</ele>
        <time>2013-10-12T14:37:03Z</time>
      </trkpt>
      <trkpt lat="43.37837" lon="6.12005">
        <ele>315.60000610352</ele>
        <time>2013-10-12T14:37:04Z</time>
      </trkpt>
      <trkpt lat="43.3784" lon="6.11997">
        <ele>315.20001220703</ele>
        <time>2013-10-12T14:37:05Z</time>
      </trkpt>
      <trkpt lat="43.37842" lon="6.11989">
        <ele>314.79998779297</ele>
        <time>2013-10-12T14:37:06Z</time>
      </trkpt>
      <trkpt lat="43.37844" lon="6.11981">
        <ele>314.39999389648</ele>
        <time>2013-10-12T14:37:07Z</time>
      </trkpt>
      <trkpt lat="43.37849" lon="6.11966">
        <ele>313.39999389648</ele>
        <time>2013-10-12T14:37:09Z</time>
      </trkpt>
      <trkpt lat="43.37851" lon="6.11958">
        <ele>313</ele>
        <time>2013-10-12T14:37:10Z</time>
      </trkpt>
      <trkpt lat="43.37852" lon="6.11949">
        <ele>312.60000610352</ele>
        <time>2013-10-12T14:37:11Z</time>
      </trkpt>
      <trkpt lat="43.37852" lon="6.11939">
        <ele>312.60000610352</ele>
        <time>2013-10-12T14:37:12Z</time>
      </trkpt>
      <trkpt lat="43.37851" lon="6.11929">
        <ele>312.20001220703</ele>
        <time>2013-10-12T14:37:13Z</time>
      </trkpt>
      <trkpt lat="43.37849" lon="6.11919">
        <ele>311.79998779297</ele>
        <time>2013-10-12T14:37:14Z</time>
      </trkpt>
      <trkpt lat="43.37847" lon="6.11908">
        <ele>311.39999389648</ele>
        <time>2013-10-12T14:37:15Z</time>
      </trkpt>
      <trkpt lat="43.37842" lon="6.11887">
        <ele>310.60000610352</ele>
        <time>2013-10-12T14:37:17Z</time>
      </trkpt>
      <trkpt lat="43.37839" lon="6.11877">
        <ele>310.60000610352</ele>
        <time>2013-10-12T14:37:18Z</time>
      </trkpt>
      <trkpt lat="43.37836" lon="6.11868">
        <ele>309.79998779297</ele>
        <time>2013-10-12T14:37:19Z</time>
      </trkpt>
      <trkpt lat="43.37833" lon="6.11858">
        <ele>309.39999389648</ele>
        <time>2013-10-12T14:37:20Z</time>
      </trkpt>
      <trkpt lat="43.37831" lon="6.1185">
        <ele>308.79998779297</ele>
        <time>2013-10-12T14:37:21Z</time>
      </trkpt>
      <trkpt lat="43.37831" lon="6.11842">
        <ele>308.39999389648</ele>
        <time>2013-10-12T14:37:22Z</time>
      </trkpt>
      <trkpt lat="43.3784" lon="6.11821">
        <ele>307.20001220703</ele>
        <time>2013-10-12T14:37:25Z</time>
      </trkpt>
      <trkpt lat="43.37846" lon="6.11808">
        <ele>306.20001220703</ele>
        <time>2013-10-12T14:37:27Z</time>
      </trkpt>
      <trkpt lat="43.37862" lon="6.11776">
        <ele>306.20001220703</ele>
        <time>2013-10-12T14:37:32Z</time>
      </trkpt>
      <trkpt lat="43.37866" lon="6.11763">
        <ele>306.20001220703</ele>
        <time>2013-10-12T14:37:34Z</time>
      </trkpt>
      <trkpt lat="43.3788" lon="6.11692">
        <ele>303.60000610352</ele>
        <time>2013-10-12T14:37:43Z</time>
      </trkpt>
      <trkpt lat="43.37883" lon="6.11674">
        <ele>302.39999389648</ele>
        <time>2013-10-12T14:37:45Z</time>
      </trkpt>
      <trkpt lat="43.37884" lon="6.11665">
        <ele>301.79998779297</ele>
        <time>2013-10-12T14:37:46Z</time>
      </trkpt>
      <trkpt lat="43.37888" lon="6.11648">
        <ele>301.79998779297</ele>
        <time>2013-10-12T14:37:48Z</time>
      </trkpt>
      <trkpt lat="43.379" lon="6.1159">
        <ele>300.20001220703</ele>
        <time>2013-10-12T14:37:55Z</time>
      </trkpt>
      <trkpt lat="43.37902" lon="6.11582">
        <ele>299.79998779297</ele>
        <time>2013-10-12T14:37:56Z</time>
      </trkpt>
      <trkpt lat="43.37907" lon="6.11558">
        <ele>299.39999389648</ele>
        <time>2013-10-12T14:37:59Z</time>
      </trkpt>
      <trkpt lat="43.37913" lon="6.11526">
        <ele>297.79998779297</ele>
        <time>2013-10-12T14:38:03Z</time>
      </trkpt>
      <trkpt lat="43.37918" lon="6.11501">
        <ele>297.79998779297</ele>
        <time>2013-10-12T14:38:06Z</time>
      </trkpt>
      <trkpt lat="43.37922" lon="6.11475">
        <ele>297.79998779297</ele>
        <time>2013-10-12T14:38:09Z</time>
      </trkpt>
      <trkpt lat="43.37927" lon="6.1146">
        <ele>297.79998779297</ele>
        <time>2013-10-12T14:38:11Z</time>
      </trkpt>
      <trkpt lat="43.37932" lon="6.11444">
        <ele>297.79998779297</ele>
        <time>2013-10-12T14:38:13Z</time>
      </trkpt>
      <trkpt lat="43.37934" lon="6.11436">
        <ele>297.39999389648</ele>
        <time>2013-10-12T14:38:14Z</time>
      </trkpt>
      <trkpt lat="43.37939" lon="6.11419">
        <ele>296.60000610352</ele>
        <time>2013-10-12T14:38:16Z</time>
      </trkpt>
      <trkpt lat="43.37942" lon="6.11411">
        <ele>296</ele>
        <time>2013-10-12T14:38:17Z</time>
      </trkpt>
      <trkpt lat="43.37946" lon="6.11404">
        <ele>295.60000610352</ele>
        <time>2013-10-12T14:38:18Z</time>
      </trkpt>
      <trkpt lat="43.3795" lon="6.11399">
        <ele>295.60000610352</ele>
        <time>2013-10-12T14:38:19Z</time>
      </trkpt>
      <trkpt lat="43.37958" lon="6.11388">
        <ele>294.79998779297</ele>
        <time>2013-10-12T14:38:21Z</time>
      </trkpt>
      <trkpt lat="43.37967" lon="6.11378">
        <ele>294</ele>
        <time>2013-10-12T14:38:23Z</time>
      </trkpt>
      <trkpt lat="43.37978" lon="6.11363">
        <ele>293.60000610352</ele>
        <time>2013-10-12T14:38:26Z</time>
      </trkpt>
      <trkpt lat="43.37981" lon="6.11358">
        <ele>293.60000610352</ele>
        <time>2013-10-12T14:38:27Z</time>
      </trkpt>
      <trkpt lat="43.37997" lon="6.1133">
        <ele>293.60000610352</ele>
        <time>2013-10-12T14:38:33Z</time>
      </trkpt>
      <trkpt lat="43.38002" lon="6.11317">
        <ele>293.60000610352</ele>
        <time>2013-10-12T14:38:36Z</time>
      </trkpt>
      <trkpt lat="43.38006" lon="6.1131">
        <ele>293.60000610352</ele>
        <time>2013-10-12T14:38:38Z</time>
      </trkpt>
      <trkpt lat="43.38012" lon="6.11298">
        <ele>293.60000610352</ele>
        <time>2013-10-12T14:38:41Z</time>
      </trkpt>
      <trkpt lat="43.38018" lon="6.11286">
        <ele>293.60000610352</ele>
        <time>2013-10-12T14:38:44Z</time>
      </trkpt>
      <trkpt lat="43.38028" lon="6.11262">
        <ele>293.60000610352</ele>
        <time>2013-10-12T14:38:49Z</time>
      </trkpt>
      <trkpt lat="43.38031" lon="6.11257">
        <ele>293.60000610352</ele>
        <time>2013-10-12T14:38:50Z</time>
      </trkpt>
      <trkpt lat="43.38041" lon="6.11236">
        <ele>293.60000610352</ele>
        <time>2013-10-12T14:38:54Z</time>
      </trkpt>
      <trkpt lat="43.38048" lon="6.11222">
        <ele>293.60000610352</ele>
        <time>2013-10-12T14:38:57Z</time>
      </trkpt>
      <trkpt lat="43.38054" lon="6.11214">
        <ele>293.60000610352</ele>
        <time>2013-10-12T14:38:59Z</time>
      </trkpt>
      <trkpt lat="43.38068" lon="6.11199">
        <ele>293.60000610352</ele>
        <time>2013-10-12T14:39:03Z</time>
      </trkpt>
      <trkpt lat="43.38077" lon="6.11191">
        <ele>293.60000610352</ele>
        <time>2013-10-12T14:39:05Z</time>
      </trkpt>
      <trkpt lat="43.38105" lon="6.11161">
        <ele>293.60000610352</ele>
        <time>2013-10-12T14:39:11Z</time>
      </trkpt>
      <trkpt lat="43.3811" lon="6.11154">
        <ele>293.20001220703</ele>
        <time>2013-10-12T14:39:12Z</time>
      </trkpt>
      <trkpt lat="43.38116" lon="6.11148">
        <ele>292.79998779297</ele>
        <time>2013-10-12T14:39:13Z</time>
      </trkpt>
      <trkpt lat="43.38121" lon="6.11142">
        <ele>292.39999389648</ele>
        <time>2013-10-12T14:39:14Z</time>
      </trkpt>
      <trkpt lat="43.38133" lon="6.11129">
        <ele>291.39999389648</ele>
        <time>2013-10-12T14:39:16Z</time>
      </trkpt>
      <trkpt lat="43.38144" lon="6.11115">
        <ele>291.39999389648</ele>
        <time>2013-10-12T14:39:18Z</time>
      </trkpt>
      <trkpt lat="43.38153" lon="6.11098">
        <ele>290.60000610352</ele>
        <time>2013-10-12T14:39:20Z</time>
      </trkpt>
      <trkpt lat="43.38157" lon="6.11089">
        <ele>290.20001220703</ele>
        <time>2013-10-12T14:39:21Z</time>
      </trkpt>
      <trkpt lat="43.38163" lon="6.11071">
        <ele>289.39999389648</ele>
        <time>2013-10-12T14:39:23Z</time>
      </trkpt>
      <trkpt lat="43.38171" lon="6.11032">
        <ele>289</ele>
        <time>2013-10-12T14:39:27Z</time>
      </trkpt>
      <trkpt lat="43.38173" lon="6.11023">
        <ele>288.60000610352</ele>
        <time>2013-10-12T14:39:28Z</time>
      </trkpt>
      <trkpt lat="43.38177" lon="6.11003">
        <ele>287.79998779297</ele>
        <time>2013-10-12T14:39:30Z</time>
      </trkpt>
      <trkpt lat="43.38179" lon="6.10992">
        <ele>287.39999389648</ele>
        <time>2013-10-12T14:39:31Z</time>
      </trkpt>
      <trkpt lat="43.38181" lon="6.10982">
        <ele>287</ele>
        <time>2013-10-12T14:39:32Z</time>
      </trkpt>
      <trkpt lat="43.38183" lon="6.10971">
        <ele>286.60000610352</ele>
        <time>2013-10-12T14:39:33Z</time>
      </trkpt>
      <trkpt lat="43.38185" lon="6.10961">
        <ele>286.20001220703</ele>
        <time>2013-10-12T14:39:34Z</time>
      </trkpt>
      <trkpt lat="43.38187" lon="6.10951">
        <ele>285.60000610352</ele>
        <time>2013-10-12T14:39:35Z</time>
      </trkpt>
      <trkpt lat="43.38189" lon="6.10942">
        <ele>285.20001220703</ele>
        <time>2013-10-12T14:39:36Z</time>
      </trkpt>
      <trkpt lat="43.38194" lon="6.10914">
        <ele>285.20001220703</ele>
        <time>2013-10-12T14:39:39Z</time>
      </trkpt>
      <trkpt lat="43.38195" lon="6.10905">
        <ele>284.79998779297</ele>
        <time>2013-10-12T14:39:40Z</time>
      </trkpt>
      <trkpt lat="43.38195" lon="6.10897">
        <ele>284.39999389648</ele>
        <time>2013-10-12T14:39:41Z</time>
      </trkpt>
      <trkpt lat="43.38196" lon="6.1089">
        <ele>284</ele>
        <time>2013-10-12T14:39:42Z</time>
      </trkpt>
      <trkpt lat="43.38197" lon="6.10885">
        <ele>283.60000610352</ele>
        <time>2013-10-12T14:39:43Z</time>
      </trkpt>
      <trkpt lat="43.38197" lon="6.1088">
        <ele>283</ele>
        <time>2013-10-12T14:39:44Z</time>
      </trkpt>
      <trkpt lat="43.38201" lon="6.10841">
        <ele>283</ele>
        <time>2013-10-12T14:39:52Z</time>
      </trkpt>
      <trkpt lat="43.38205" lon="6.10827">
        <ele>283</ele>
        <time>2013-10-12T14:39:54Z</time>
      </trkpt>
      <trkpt lat="43.38209" lon="6.10811">
        <ele>283</ele>
        <time>2013-10-12T14:39:56Z</time>
      </trkpt>
      <trkpt lat="43.38211" lon="6.10803">
        <ele>283</ele>
        <time>2013-10-12T14:39:57Z</time>
      </trkpt>
      <trkpt lat="43.38219" lon="6.10777">
        <ele>283</ele>
        <time>2013-10-12T14:40:00Z</time>
      </trkpt>
      <trkpt lat="43.3823" lon="6.10745">
        <ele>283</ele>
        <time>2013-10-12T14:40:04Z</time>
      </trkpt>
      <trkpt lat="43.38232" lon="6.10737">
        <ele>283</ele>
        <time>2013-10-12T14:40:05Z</time>
      </trkpt>
      <trkpt lat="43.38241" lon="6.10714">
        <ele>282.60000610352</ele>
        <time>2013-10-12T14:40:08Z</time>
      </trkpt>
      <trkpt lat="43.38248" lon="6.10698">
        <ele>281.79998779297</ele>
        <time>2013-10-12T14:40:10Z</time>
      </trkpt>
      <trkpt lat="43.38275" lon="6.10643">
        <ele>281</ele>
        <time>2013-10-12T14:40:17Z</time>
      </trkpt>
      <trkpt lat="43.38287" lon="6.10617">
        <ele>280.60000610352</ele>
        <time>2013-10-12T14:40:20Z</time>
      </trkpt>
      <trkpt lat="43.38291" lon="6.10608">
        <ele>280.20001220703</ele>
        <time>2013-10-12T14:40:21Z</time>
      </trkpt>
      <trkpt lat="43.38295" lon="6.106">
        <ele>279.60000610352</ele>
        <time>2013-10-12T14:40:22Z</time>
      </trkpt>
      <trkpt lat="43.38298" lon="6.10591">
        <ele>279.20001220703</ele>
        <time>2013-10-12T14:40:23Z</time>
      </trkpt>
      <trkpt lat="43.38302" lon="6.10583">
        <ele>278.79998779297</ele>
        <time>2013-10-12T14:40:24Z</time>
      </trkpt>
      <trkpt lat="43.38312" lon="6.10559">
        <ele>278.79998779297</ele>
        <time>2013-10-12T14:40:27Z</time>
      </trkpt>
      <trkpt lat="43.38318" lon="6.10543">
        <ele>278.39999389648</ele>
        <time>2013-10-12T14:40:29Z</time>
      </trkpt>
      <trkpt lat="43.38321" lon="6.10535">
        <ele>278</ele>
        <time>2013-10-12T14:40:30Z</time>
      </trkpt>
      <trkpt lat="43.38324" lon="6.10528">
        <ele>277.39999389648</ele>
        <time>2013-10-12T14:40:31Z</time>
      </trkpt>
      <trkpt lat="43.38327" lon="6.10521">
        <ele>277</ele>
        <time>2013-10-12T14:40:32Z</time>
      </trkpt>
      <trkpt lat="43.38329" lon="6.10515">
        <ele>276.60000610352</ele>
        <time>2013-10-12T14:40:33Z</time>
      </trkpt>
      <trkpt lat="43.3833" lon="6.1051">
        <ele>276.60000610352</ele>
        <time>2013-10-12T14:40:34Z</time>
      </trkpt>
      <trkpt lat="43.38337" lon="6.10492">
        <ele>276.60000610352</ele>
        <time>2013-10-12T14:40:39Z</time>
      </trkpt>
      <trkpt lat="43.38338" lon="6.1049">
        <ele>276.60000610352</ele>
        <time>2013-10-12T14:40:41Z</time>
      </trkpt>
      <trkpt lat="43.38339" lon="6.10489">
        <ele>276.60000610352</ele>
        <time>2013-10-12T14:40:42Z</time>
      </trkpt>
      <trkpt lat="43.3834" lon="6.10489">
        <ele>276.60000610352</ele>
        <time>2013-10-12T14:40:43Z</time>
      </trkpt>
      <trkpt lat="43.38342" lon="6.10486">
        <ele>276.20001220703</ele>
        <time>2013-10-12T14:40:46Z</time>
      </trkpt>
      <trkpt lat="43.38343" lon="6.10486">
        <ele>275.79998779297</ele>
        <time>2013-10-12T14:40:47Z</time>
      </trkpt>
      <trkpt lat="43.38345" lon="6.10484">
        <ele>275</ele>
        <time>2013-10-12T14:40:49Z</time>
      </trkpt>
      <trkpt lat="43.38347" lon="6.10484">
        <ele>274.60000610352</ele>
        <time>2013-10-12T14:40:50Z</time>
      </trkpt>
      <trkpt lat="43.38359" lon="6.10481">
        <ele>274.60000610352</ele>
        <time>2013-10-12T14:40:55Z</time>
      </trkpt>
      <trkpt lat="43.38382" lon="6.10479">
        <ele>274.60000610352</ele>
        <time>2013-10-12T14:41:01Z</time>
      </trkpt>
      <trkpt lat="43.38395" lon="6.10478">
        <ele>274.60000610352</ele>
        <time>2013-10-12T14:41:04Z</time>
      </trkpt>
      <trkpt lat="43.38404" lon="6.10476">
        <ele>274.60000610352</ele>
        <time>2013-10-12T14:41:06Z</time>
      </trkpt>
      <trkpt lat="43.38414" lon="6.10475">
        <ele>274.60000610352</ele>
        <time>2013-10-12T14:41:08Z</time>
      </trkpt>
      <trkpt lat="43.38424" lon="6.10474">
        <ele>274.60000610352</ele>
        <time>2013-10-12T14:41:10Z</time>
      </trkpt>
      <trkpt lat="43.38428" lon="6.10472">
        <ele>274.60000610352</ele>
        <time>2013-10-12T14:41:11Z</time>
      </trkpt>
      <trkpt lat="43.38437" lon="6.10469">
        <ele>274.60000610352</ele>
        <time>2013-10-12T14:41:13Z</time>
      </trkpt>
      <trkpt lat="43.3844" lon="6.10466">
        <ele>274.60000610352</ele>
        <time>2013-10-12T14:41:14Z</time>
      </trkpt>
      <trkpt lat="43.38449" lon="6.10457">
        <ele>275</ele>
        <time>2013-10-12T14:41:17Z</time>
      </trkpt>
      <trkpt lat="43.38452" lon="6.10455">
        <ele>275.39999389648</ele>
        <time>2013-10-12T14:41:18Z</time>
      </trkpt>
      <trkpt lat="43.38465" lon="6.10444">
        <ele>277.79998779297</ele>
        <time>2013-10-12T14:41:24Z</time>
      </trkpt>
      <trkpt lat="43.3847" lon="6.10439">
        <ele>279</ele>
        <time>2013-10-12T14:41:26Z</time>
      </trkpt>
      <trkpt lat="43.38478" lon="6.10432">
        <ele>280.60000610352</ele>
        <time>2013-10-12T14:41:30Z</time>
      </trkpt>
      <trkpt lat="43.38484" lon="6.10424">
        <ele>282.39999389648</ele>
        <time>2013-10-12T14:41:34Z</time>
      </trkpt>
      <trkpt lat="43.38487" lon="6.1042">
        <ele>283.20001220703</ele>
        <time>2013-10-12T14:41:36Z</time>
      </trkpt>
      <trkpt lat="43.38492" lon="6.10413">
        <ele>284</ele>
        <time>2013-10-12T14:41:40Z</time>
      </trkpt>
      <trkpt lat="43.38494" lon="6.10411">
        <ele>284.79998779297</ele>
        <time>2013-10-12T14:41:42Z</time>
      </trkpt>
      <trkpt lat="43.38504" lon="6.10394">
        <ele>286.60000610352</ele>
        <time>2013-10-12T14:41:52Z</time>
      </trkpt>
      <trkpt lat="43.38506" lon="6.10391">
        <ele>287.60000610352</ele>
        <time>2013-10-12T14:41:54Z</time>
      </trkpt>
      <trkpt lat="43.38511" lon="6.10386">
        <ele>287.60000610352</ele>
        <time>2013-10-12T14:41:59Z</time>
      </trkpt>
      <trkpt lat="43.38512" lon="6.10384">
        <ele>287.60000610352</ele>
        <time>2013-10-12T14:42:01Z</time>
      </trkpt>
      <trkpt lat="43.38514" lon="6.1038">
        <ele>287.60000610352</ele>
        <time>2013-10-12T14:42:04Z</time>
      </trkpt>
      <trkpt lat="43.38516" lon="6.10378">
        <ele>288</ele>
        <time>2013-10-12T14:42:06Z</time>
      </trkpt>
      <trkpt lat="43.38517" lon="6.10377">
        <ele>288.39999389648</ele>
        <time>2013-10-12T14:42:07Z</time>
      </trkpt>
      <trkpt lat="43.38518" lon="6.10376">
        <ele>288.79998779297</ele>
        <time>2013-10-12T14:42:08Z</time>
      </trkpt>
      <trkpt lat="43.38518" lon="6.10376">
        <ele>289.20001220703</ele>
        <time>2013-10-12T14:42:09Z</time>
      </trkpt>
      <trkpt lat="43.38518" lon="6.10376">
        <ele>289.60000610352</ele>
        <time>2013-10-12T14:42:24Z</time>
      </trkpt>
      <trkpt lat="43.38518" lon="6.10376">
        <ele>289.60000610352</ele>
        <time>2013-10-12T14:42:46Z</time>
      </trkpt>
      <trkpt lat="43.38518" lon="6.10376">
        <ele>289.60000610352</ele>
        <time>2013-10-12T14:42:53Z</time>
      </trkpt>
      <trkpt lat="43.38518" lon="6.10376">
        <ele>289.60000610352</ele>
        <time>2013-10-12T14:43:11Z</time>
      </trkpt>
      <trkpt lat="43.38518" lon="6.10376">
        <ele>289.60000610352</ele>
        <time>2013-10-12T14:43:28Z</time>
      </trkpt>
      <trkpt lat="43.38518" lon="6.10376">
        <ele>289.60000610352</ele>
        <time>2013-10-12T14:43:30Z</time>
      </trkpt>
      <trkpt lat="43.38518" lon="6.10376">
        <ele>289.60000610352</ele>
        <time>2013-10-12T14:43:32Z</time>
      </trkpt>
      <trkpt lat="43.38518" lon="6.10376">
        <ele>289.60000610352</ele>
        <time>2013-10-12T14:43:34Z</time>
      </trkpt>
      <trkpt lat="43.38527" lon="6.10368">
        <ele>289.60000610352</ele>
        <time>2013-10-12T14:43:40Z</time>
      </trkpt>
      <trkpt lat="43.38532" lon="6.10364">
        <ele>289.60000610352</ele>
        <time>2013-10-12T14:43:44Z</time>
      </trkpt>
      <trkpt lat="43.38533" lon="6.10363">
        <ele>289.60000610352</ele>
        <time>2013-10-12T14:43:47Z</time>
      </trkpt>
      <trkpt lat="43.38533" lon="6.10363">
        <ele>289.60000610352</ele>
        <time>2013-10-12T14:44:09Z</time>
      </trkpt>
      <trkpt lat="43.38533" lon="6.10363">
        <ele>289.60000610352</ele>
        <time>2013-10-12T14:44:31Z</time>
      </trkpt>
      <trkpt lat="43.38533" lon="6.10363">
        <ele>289.60000610352</ele>
        <time>2013-10-12T14:44:41Z</time>
      </trkpt>
      <trkpt lat="43.38533" lon="6.10362">
        <ele>289.60000610352</ele>
        <time>2013-10-12T14:44:46Z</time>
      </trkpt>
      <trkpt lat="43.38533" lon="6.10362">
        <ele>289.60000610352</ele>
        <time>2013-10-12T14:45:02Z</time>
      </trkpt>
      <trkpt lat="43.38533" lon="6.10362">
        <ele>289.60000610352</ele>
        <time>2013-10-12T14:45:23Z</time>
      </trkpt>
      <trkpt lat="43.38533" lon="6.10362">
        <ele>289.60000610352</ele>
        <time>2013-10-12T14:45:31Z</time>
      </trkpt>
      <trkpt lat="43.38533" lon="6.10362">
        <ele>289.60000610352</ele>
        <time>2013-10-12T14:45:39Z</time>
      </trkpt>
      <trkpt lat="43.38533" lon="6.10361">
        <ele>289.60000610352</ele>
        <time>2013-10-12T14:45:46Z</time>
      </trkpt>
      <trkpt lat="43.38533" lon="6.1036">
        <ele>289.60000610352</ele>
        <time>2013-10-12T14:45:52Z</time>
      </trkpt>
      <trkpt lat="43.38533" lon="6.1036">
        <ele>289.60000610352</ele>
        <time>2013-10-12T14:46:11Z</time>
      </trkpt>
      <trkpt lat="43.38533" lon="6.1036">
        <ele>289.60000610352</ele>
        <time>2013-10-12T14:46:24Z</time>
      </trkpt>
      <trkpt lat="43.38534" lon="6.1036">
        <ele>289.60000610352</ele>
        <time>2013-10-12T14:46:31Z</time>
      </trkpt>
      <trkpt lat="43.38534" lon="6.1036">
        <ele>289.60000610352</ele>
        <time>2013-10-12T14:46:42Z</time>
      </trkpt>
      <trkpt lat="43.38534" lon="6.1036">
        <ele>289.60000610352</ele>
        <time>2013-10-12T14:46:52Z</time>
      </trkpt>
      <trkpt lat="43.38535" lon="6.1036">
        <ele>289.60000610352</ele>
        <time>2013-10-12T14:47:00Z</time>
      </trkpt>
      <trkpt lat="43.38535" lon="6.1036">
        <ele>289.60000610352</ele>
        <time>2013-10-12T14:47:13Z</time>
      </trkpt>
      <trkpt lat="43.38535" lon="6.1036">
        <ele>289.60000610352</ele>
        <time>2013-10-12T14:47:24Z</time>
      </trkpt>
      <trkpt lat="43.38535" lon="6.10359">
        <ele>289.60000610352</ele>
        <time>2013-10-12T14:47:31Z</time>
      </trkpt>
      <trkpt lat="43.38536" lon="6.10358">
        <ele>289.60000610352</ele>
        <time>2013-10-12T14:47:37Z</time>
      </trkpt>
      <trkpt lat="43.38536" lon="6.10359">
        <ele>289.60000610352</ele>
        <time>2013-10-12T14:47:43Z</time>
      </trkpt>
      <trkpt lat="43.38537" lon="6.10359">
        <ele>289.60000610352</ele>
        <time>2013-10-12T14:47:47Z</time>
      </trkpt>
      <trkpt lat="43.3854" lon="6.10358">
        <ele>289.60000610352</ele>
        <time>2013-10-12T14:47:49Z</time>
      </trkpt>
      <trkpt lat="43.38544" lon="6.10356">
        <ele>290.39999389648</ele>
        <time>2013-10-12T14:47:52Z</time>
      </trkpt>
      <trkpt lat="43.38544" lon="6.10355">
        <ele>291</ele>
        <time>2013-10-12T14:47:53Z</time>
      </trkpt>
      <trkpt lat="43.38546" lon="6.10353">
        <ele>291.39999389648</ele>
        <time>2013-10-12T14:47:54Z</time>
      </trkpt>
      <trkpt lat="43.38547" lon="6.10352">
        <ele>291.79998779297</ele>
        <time>2013-10-12T14:47:55Z</time>
      </trkpt>
      <trkpt lat="43.38557" lon="6.10344">
        <ele>291.79998779297</ele>
        <time>2013-10-12T14:48:02Z</time>
      </trkpt>
      <trkpt lat="43.38565" lon="6.10335">
        <ele>291.79998779297</ele>
        <time>2013-10-12T14:48:08Z</time>
      </trkpt>
      <trkpt lat="43.38573" lon="6.10328">
        <ele>292.60000610352</ele>
        <time>2013-10-12T14:48:14Z</time>
      </trkpt>
      <trkpt lat="43.38577" lon="6.10326">
        <ele>293.39999389648</ele>
        <time>2013-10-12T14:48:16Z</time>
      </trkpt>
      <trkpt lat="43.38584" lon="6.10321">
        <ele>293.79998779297</ele>
        <time>2013-10-12T14:48:21Z</time>
      </trkpt>
      <trkpt lat="43.38592" lon="6.10317">
        <ele>293.79998779297</ele>
        <time>2013-10-12T14:48:26Z</time>
      </trkpt>
      <trkpt lat="43.38604" lon="6.10311">
        <ele>293.79998779297</ele>
        <time>2013-10-12T14:48:32Z</time>
      </trkpt>
      <trkpt lat="43.38608" lon="6.1031">
        <ele>293.79998779297</ele>
        <time>2013-10-12T14:48:34Z</time>
      </trkpt>
      <trkpt lat="43.3862" lon="6.1031">
        <ele>293.79998779297</ele>
        <time>2013-10-12T14:48:39Z</time>
      </trkpt>
      <trkpt lat="43.38637" lon="6.1031">
        <ele>293.79998779297</ele>
        <time>2013-10-12T14:48:46Z</time>
      </trkpt>
      <trkpt lat="43.38647" lon="6.1031">
        <ele>293.79998779297</ele>
        <time>2013-10-12T14:48:51Z</time>
      </trkpt>
      <trkpt lat="43.38663" lon="6.10306">
        <ele>293.79998779297</ele>
        <time>2013-10-12T14:48:58Z</time>
      </trkpt>
      <trkpt lat="43.38678" lon="6.10291">
        <ele>293.79998779297</ele>
        <time>2013-10-12T14:49:05Z</time>
      </trkpt>
      <trkpt lat="43.38682" lon="6.10272">
        <ele>293.79998779297</ele>
        <time>2013-10-12T14:49:11Z</time>
      </trkpt>
      <trkpt lat="43.38683" lon="6.10265">
        <ele>294.60000610352</ele>
        <time>2013-10-12T14:49:13Z</time>
      </trkpt>
      <trkpt lat="43.38683" lon="6.10262">
        <ele>295</ele>
        <time>2013-10-12T14:49:14Z</time>
      </trkpt>
      <trkpt lat="43.38684" lon="6.10248">
        <ele>295.79998779297</ele>
        <time>2013-10-12T14:49:18Z</time>
      </trkpt>
      <trkpt lat="43.38683" lon="6.10239">
        <ele>295.79998779297</ele>
        <time>2013-10-12T14:49:21Z</time>
      </trkpt>
      <trkpt lat="43.38683" lon="6.10234">
        <ele>295.79998779297</ele>
        <time>2013-10-12T14:49:23Z</time>
      </trkpt>
      <trkpt lat="43.38682" lon="6.1022">
        <ele>295.79998779297</ele>
        <time>2013-10-12T14:49:29Z</time>
      </trkpt>
      <trkpt lat="43.38683" lon="6.1022">
        <ele>295.79998779297</ele>
        <time>2013-10-12T14:49:30Z</time>
      </trkpt>
      <trkpt lat="43.38683" lon="6.1022">
        <ele>295.79998779297</ele>
        <time>2013-10-12T14:49:39Z</time>
      </trkpt>
      <trkpt lat="43.38683" lon="6.10219">
        <ele>295.79998779297</ele>
        <time>2013-10-12T14:49:44Z</time>
      </trkpt>
      <trkpt lat="43.38687" lon="6.10215">
        <ele>295.79998779297</ele>
        <time>2013-10-12T14:49:46Z</time>
      </trkpt>
      <trkpt lat="43.38694" lon="6.10213">
        <ele>295.79998779297</ele>
        <time>2013-10-12T14:49:48Z</time>
      </trkpt>
      <trkpt lat="43.38701" lon="6.1021">
        <ele>295.79998779297</ele>
        <time>2013-10-12T14:49:50Z</time>
      </trkpt>
      <trkpt lat="43.38712" lon="6.10206">
        <ele>295.79998779297</ele>
        <time>2013-10-12T14:49:53Z</time>
      </trkpt>
      <trkpt lat="43.3872" lon="6.10203">
        <ele>296.39999389648</ele>
        <time>2013-10-12T14:49:55Z</time>
      </trkpt>
      <trkpt lat="43.38723" lon="6.10202">
        <ele>296.79998779297</ele>
        <time>2013-10-12T14:49:56Z</time>
      </trkpt>
      <trkpt lat="43.38726" lon="6.102">
        <ele>297.20001220703</ele>
        <time>2013-10-12T14:49:57Z</time>
      </trkpt>
      <trkpt lat="43.38733" lon="6.10197">
        <ele>298.20001220703</ele>
        <time>2013-10-12T14:49:59Z</time>
      </trkpt>
      <trkpt lat="43.38739" lon="6.10195">
        <ele>298.20001220703</ele>
        <time>2013-10-12T14:50:01Z</time>
      </trkpt>
      <trkpt lat="43.38756" lon="6.10189">
        <ele>298.20001220703</ele>
        <time>2013-10-12T14:50:06Z</time>
      </trkpt>
      <trkpt lat="43.38763" lon="6.10186">
        <ele>299</ele>
        <time>2013-10-12T14:50:08Z</time>
      </trkpt>
      <trkpt lat="43.3877" lon="6.10184">
        <ele>300</ele>
        <time>2013-10-12T14:50:10Z</time>
      </trkpt>
      <trkpt lat="43.38773" lon="6.10183">
        <ele>300.39999389648</ele>
        <time>2013-10-12T14:50:11Z</time>
      </trkpt>
      <trkpt lat="43.38789" lon="6.10178">
        <ele>300.39999389648</ele>
        <time>2013-10-12T14:50:17Z</time>
      </trkpt>
      <trkpt lat="43.38791" lon="6.10177">
        <ele>300.79998779297</ele>
        <time>2013-10-12T14:50:18Z</time>
      </trkpt>
      <trkpt lat="43.38796" lon="6.10176">
        <ele>302</ele>
        <time>2013-10-12T14:50:21Z</time>
      </trkpt>
      <trkpt lat="43.38815" lon="6.10168">
        <ele>302.39999389648</ele>
        <time>2013-10-12T14:50:29Z</time>
      </trkpt>
      <trkpt lat="43.38824" lon="6.10169">
        <ele>302.39999389648</ele>
        <time>2013-10-12T14:50:34Z</time>
      </trkpt>
      <trkpt lat="43.38826" lon="6.10175">
        <ele>302.39999389648</ele>
        <time>2013-10-12T14:50:38Z</time>
      </trkpt>
      <trkpt lat="43.38826" lon="6.10176">
        <ele>302.39999389648</ele>
        <time>2013-10-12T14:50:39Z</time>
      </trkpt>
      <trkpt lat="43.38826" lon="6.10178">
        <ele>302.39999389648</ele>
        <time>2013-10-12T14:50:43Z</time>
      </trkpt>
      <trkpt lat="43.38826" lon="6.10178">
        <ele>302.39999389648</ele>
        <time>2013-10-12T14:51:01Z</time>
      </trkpt>
      <trkpt lat="43.38826" lon="6.10178">
        <ele>302.39999389648</ele>
        <time>2013-10-12T14:51:13Z</time>
      </trkpt>
      <trkpt lat="43.38825" lon="6.10181">
        <ele>302.39999389648</ele>
        <time>2013-10-12T14:51:16Z</time>
      </trkpt>
      <trkpt lat="43.3882" lon="6.10193">
        <ele>302.79998779297</ele>
        <time>2013-10-12T14:51:20Z</time>
      </trkpt>
      <trkpt lat="43.38819" lon="6.10196">
        <ele>303.39999389648</ele>
        <time>2013-10-12T14:51:21Z</time>
      </trkpt>
      <trkpt lat="43.38819" lon="6.102">
        <ele>303.79998779297</ele>
        <time>2013-10-12T14:51:22Z</time>
      </trkpt>
      <trkpt lat="43.38818" lon="6.10206">
        <ele>304.60000610352</ele>
        <time>2013-10-12T14:51:24Z</time>
      </trkpt>
      <trkpt lat="43.38818" lon="6.10213">
        <ele>304.60000610352</ele>
        <time>2013-10-12T14:51:26Z</time>
      </trkpt>
      <trkpt lat="43.38818" lon="6.10217">
        <ele>304.60000610352</ele>
        <time>2013-10-12T14:51:27Z</time>
      </trkpt>
      <trkpt lat="43.38823" lon="6.10235">
        <ele>304.60000610352</ele>
        <time>2013-10-12T14:51:33Z</time>
      </trkpt>
      <trkpt lat="43.38825" lon="6.10256">
        <ele>304.60000610352</ele>
        <time>2013-10-12T14:51:37Z</time>
      </trkpt>
      <trkpt lat="43.38829" lon="6.10283">
        <ele>304.60000610352</ele>
        <time>2013-10-12T14:51:41Z</time>
      </trkpt>
      <trkpt lat="43.38829" lon="6.1029">
        <ele>304.60000610352</ele>
        <time>2013-10-12T14:51:42Z</time>
      </trkpt>
      <trkpt lat="43.3883" lon="6.10304">
        <ele>304.20001220703</ele>
        <time>2013-10-12T14:51:44Z</time>
      </trkpt>
      <trkpt lat="43.3883" lon="6.10318">
        <ele>303.39999389648</ele>
        <time>2013-10-12T14:51:46Z</time>
      </trkpt>
      <trkpt lat="43.3883" lon="6.10331">
        <ele>302.60000610352</ele>
        <time>2013-10-12T14:51:48Z</time>
      </trkpt>
      <trkpt lat="43.38831" lon="6.10362">
        <ele>302.60000610352</ele>
        <time>2013-10-12T14:51:53Z</time>
      </trkpt>
      <trkpt lat="43.38831" lon="6.10374">
        <ele>302.60000610352</ele>
        <time>2013-10-12T14:51:55Z</time>
      </trkpt>
      <trkpt lat="43.38831" lon="6.10399">
        <ele>302.20001220703</ele>
        <time>2013-10-12T14:51:59Z</time>
      </trkpt>
      <trkpt lat="43.38831" lon="6.10411">
        <ele>301.39999389648</ele>
        <time>2013-10-12T14:52:01Z</time>
      </trkpt>
      <trkpt lat="43.38826" lon="6.10438">
        <ele>300.60000610352</ele>
        <time>2013-10-12T14:52:05Z</time>
      </trkpt>
      <trkpt lat="43.38825" lon="6.10445">
        <ele>300.60000610352</ele>
        <time>2013-10-12T14:52:06Z</time>
      </trkpt>
      <trkpt lat="43.38825" lon="6.1046">
        <ele>300</ele>
        <time>2013-10-12T14:52:08Z</time>
      </trkpt>
      <trkpt lat="43.38824" lon="6.10475">
        <ele>298.79998779297</ele>
        <time>2013-10-12T14:52:10Z</time>
      </trkpt>
      <trkpt lat="43.38823" lon="6.10483">
        <ele>298.39999389648</ele>
        <time>2013-10-12T14:52:11Z</time>
      </trkpt>
      <trkpt lat="43.3882" lon="6.10496">
        <ele>298.39999389648</ele>
        <time>2013-10-12T14:52:13Z</time>
      </trkpt>
      <trkpt lat="43.38815" lon="6.10517">
        <ele>297.79998779297</ele>
        <time>2013-10-12T14:52:16Z</time>
      </trkpt>
      <trkpt lat="43.38813" lon="6.10523">
        <ele>297.39999389648</ele>
        <time>2013-10-12T14:52:17Z</time>
      </trkpt>
      <trkpt lat="43.38813" lon="6.10544">
        <ele>296.20001220703</ele>
        <time>2013-10-12T14:52:20Z</time>
      </trkpt>
      <trkpt lat="43.38806" lon="6.1056">
        <ele>296.20001220703</ele>
        <time>2013-10-12T14:52:23Z</time>
      </trkpt>
      <trkpt lat="43.38805" lon="6.10572">
        <ele>296.20001220703</ele>
        <time>2013-10-12T14:52:26Z</time>
      </trkpt>
      <trkpt lat="43.38803" lon="6.10589">
        <ele>295.20001220703</ele>
        <time>2013-10-12T14:52:29Z</time>
      </trkpt>
      <trkpt lat="43.388" lon="6.10601">
        <ele>294.39999389648</ele>
        <time>2013-10-12T14:52:31Z</time>
      </trkpt>
      <trkpt lat="43.38794" lon="6.10639">
        <ele>292.60000610352</ele>
        <time>2013-10-12T14:52:37Z</time>
      </trkpt>
      <trkpt lat="43.38784" lon="6.10678">
        <ele>291.79998779297</ele>
        <time>2013-10-12T14:52:44Z</time>
      </trkpt>
      <trkpt lat="43.38783" lon="6.10684">
        <ele>291.39999389648</ele>
        <time>2013-10-12T14:52:45Z</time>
      </trkpt>
      <trkpt lat="43.38781" lon="6.1069">
        <ele>291</ele>
        <time>2013-10-12T14:52:46Z</time>
      </trkpt>
      <trkpt lat="43.38779" lon="6.10697">
        <ele>290.60000610352</ele>
        <time>2013-10-12T14:52:47Z</time>
      </trkpt>
      <trkpt lat="43.38778" lon="6.10703">
        <ele>290</ele>
        <time>2013-10-12T14:52:48Z</time>
      </trkpt>
      <trkpt lat="43.38777" lon="6.1071">
        <ele>289.60000610352</ele>
        <time>2013-10-12T14:52:49Z</time>
      </trkpt>
      <trkpt lat="43.38776" lon="6.10718">
        <ele>289.60000610352</ele>
        <time>2013-10-12T14:52:50Z</time>
      </trkpt>
      <trkpt lat="43.38775" lon="6.10724">
        <ele>289.60000610352</ele>
        <time>2013-10-12T14:52:51Z</time>
      </trkpt>
      <trkpt lat="43.38771" lon="6.10741">
        <ele>289.60000610352</ele>
        <time>2013-10-12T14:52:54Z</time>
      </trkpt>
      <trkpt lat="43.38772" lon="6.10745">
        <ele>289.20001220703</ele>
        <time>2013-10-12T14:52:57Z</time>
      </trkpt>
      <trkpt lat="43.38773" lon="6.10746">
        <ele>288.39999389648</ele>
        <time>2013-10-12T14:52:58Z</time>
      </trkpt>
      <trkpt lat="43.38773" lon="6.10746">
        <ele>288</ele>
        <time>2013-10-12T14:52:59Z</time>
      </trkpt>
      <trkpt lat="43.38773" lon="6.10746">
        <ele>287.60000610352</ele>
        <time>2013-10-12T14:53:00Z</time>
      </trkpt>
      <trkpt lat="43.38773" lon="6.10746">
        <ele>287.60000610352</ele>
        <time>2013-10-12T14:53:17Z</time>
      </trkpt>
      <trkpt lat="43.38773" lon="6.10746">
        <ele>287.60000610352</ele>
        <time>2013-10-12T14:53:21Z</time>
      </trkpt>
      <trkpt lat="43.38772" lon="6.10746">
        <ele>287.60000610352</ele>
        <time>2013-10-12T14:53:28Z</time>
      </trkpt>
      <trkpt lat="43.38772" lon="6.10746">
        <ele>287.60000610352</ele>
        <time>2013-10-12T14:53:51Z</time>
      </trkpt>
      <trkpt lat="43.38772" lon="6.10746">
        <ele>287.60000610352</ele>
        <time>2013-10-12T14:54:04Z</time>
      </trkpt>
      <trkpt lat="43.38773" lon="6.10746">
        <ele>287.60000610352</ele>
        <time>2013-10-12T14:54:07Z</time>
      </trkpt>
      <trkpt lat="43.38773" lon="6.10746">
        <ele>287.60000610352</ele>
        <time>2013-10-12T14:54:35Z</time>
      </trkpt>
      <trkpt lat="43.38773" lon="6.10746">
        <ele>287.60000610352</ele>
        <time>2013-10-12T14:54:42Z</time>
      </trkpt>
      <trkpt lat="43.38773" lon="6.10746">
        <ele>287.60000610352</ele>
        <time>2013-10-12T14:54:49Z</time>
      </trkpt>
      <trkpt lat="43.38773" lon="6.10746">
        <ele>287.60000610352</ele>
        <time>2013-10-12T14:55:09Z</time>
      </trkpt>
      <trkpt lat="43.38773" lon="6.10745">
        <ele>287.60000610352</ele>
        <time>2013-10-12T14:55:54Z</time>
      </trkpt>
      <trkpt lat="43.38773" lon="6.10745">
        <ele>287.60000610352</ele>
        <time>2013-10-12T14:56:06Z</time>
      </trkpt>
      <trkpt lat="43.38773" lon="6.10745">
        <ele>287.60000610352</ele>
        <time>2013-10-12T14:56:07Z</time>
      </trkpt>
      <trkpt lat="43.38773" lon="6.10745">
        <ele>287.60000610352</ele>
        <time>2013-10-12T14:56:22Z</time>
      </trkpt>
      <trkpt lat="43.38773" lon="6.10745">
        <ele>287.60000610352</ele>
        <time>2013-10-12T14:56:29Z</time>
      </trkpt>
      <trkpt lat="43.38774" lon="6.10747">
        <ele>287.60000610352</ele>
        <time>2013-10-12T14:56:35Z</time>
      </trkpt>
      <trkpt lat="43.38774" lon="6.10747">
        <ele>287.60000610352</ele>
        <time>2013-10-12T14:56:38Z</time>
      </trkpt>
      <trkpt lat="43.38774" lon="6.10747">
        <ele>287.60000610352</ele>
        <time>2013-10-12T14:56:46Z</time>
      </trkpt>
      <trkpt lat="43.38778" lon="6.1075">
        <ele>287.60000610352</ele>
        <time>2013-10-12T14:56:49Z</time>
      </trkpt>
      <trkpt lat="43.38781" lon="6.10754">
        <ele>287.60000610352</ele>
        <time>2013-10-12T14:56:51Z</time>
      </trkpt>
      <trkpt lat="43.38798" lon="6.10755">
        <ele>287.20001220703</ele>
        <time>2013-10-12T14:56:55Z</time>
      </trkpt>
      <trkpt lat="43.38803" lon="6.10755">
        <ele>286.79998779297</ele>
        <time>2013-10-12T14:56:56Z</time>
      </trkpt>
      <trkpt lat="43.38808" lon="6.10755">
        <ele>286.39999389648</ele>
        <time>2013-10-12T14:56:57Z</time>
      </trkpt>
      <trkpt lat="43.38812" lon="6.10755">
        <ele>285.79998779297</ele>
        <time>2013-10-12T14:56:58Z</time>
      </trkpt>
      <trkpt lat="43.38817" lon="6.10754">
        <ele>285.39999389648</ele>
        <time>2013-10-12T14:56:59Z</time>
      </trkpt>
      <trkpt lat="43.38835" lon="6.10753">
        <ele>285.39999389648</ele>
        <time>2013-10-12T14:57:03Z</time>
      </trkpt>
      <trkpt lat="43.38845" lon="6.10753">
        <ele>284.60000610352</ele>
        <time>2013-10-12T14:57:05Z</time>
      </trkpt>
      <trkpt lat="43.3886" lon="6.10753">
        <ele>283.39999389648</ele>
        <time>2013-10-12T14:57:08Z</time>
      </trkpt>
      <trkpt lat="43.38866" lon="6.10753">
        <ele>283.39999389648</ele>
        <time>2013-10-12T14:57:09Z</time>
      </trkpt>
      <trkpt lat="43.38887" lon="6.10759">
        <ele>283.39999389648</ele>
        <time>2013-10-12T14:57:13Z</time>
      </trkpt>
      <trkpt lat="43.38893" lon="6.1076">
        <ele>283.39999389648</ele>
        <time>2013-10-12T14:57:14Z</time>
      </trkpt>
      <trkpt lat="43.38909" lon="6.10768">
        <ele>283.39999389648</ele>
        <time>2013-10-12T14:57:17Z</time>
      </trkpt>
      <trkpt lat="43.38917" lon="6.10779">
        <ele>283.39999389648</ele>
        <time>2013-10-12T14:57:19Z</time>
      </trkpt>
      <trkpt lat="43.38928" lon="6.10812">
        <ele>283.39999389648</ele>
        <time>2013-10-12T14:57:24Z</time>
      </trkpt>
      <trkpt lat="43.3894" lon="6.10826">
        <ele>282.60000610352</ele>
        <time>2013-10-12T14:57:27Z</time>
      </trkpt>
      <trkpt lat="43.38954" lon="6.10832">
        <ele>281.39999389648</ele>
        <time>2013-10-12T14:57:30Z</time>
      </trkpt>
      <trkpt lat="43.38964" lon="6.10836">
        <ele>281.39999389648</ele>
        <time>2013-10-12T14:57:32Z</time>
      </trkpt>
      <trkpt lat="43.38996" lon="6.10847">
        <ele>281.39999389648</ele>
        <time>2013-10-12T14:57:39Z</time>
      </trkpt>
      <trkpt lat="43.39045" lon="6.1083">
        <ele>281.39999389648</ele>
        <time>2013-10-12T14:57:49Z</time>
      </trkpt>
      <trkpt lat="43.39056" lon="6.10826">
        <ele>280.60000610352</ele>
        <time>2013-10-12T14:57:51Z</time>
      </trkpt>
      <trkpt lat="43.3907" lon="6.10821">
        <ele>279.39999389648</ele>
        <time>2013-10-12T14:57:54Z</time>
      </trkpt>
      <trkpt lat="43.39087" lon="6.10809">
        <ele>279.39999389648</ele>
        <time>2013-10-12T14:57:58Z</time>
      </trkpt>
      <trkpt lat="43.39098" lon="6.10797">
        <ele>279.39999389648</ele>
        <time>2013-10-12T14:58:01Z</time>
      </trkpt>
      <trkpt lat="43.39108" lon="6.10785">
        <ele>279.39999389648</ele>
        <time>2013-10-12T14:58:04Z</time>
      </trkpt>
      <trkpt lat="43.39126" lon="6.10771">
        <ele>279.39999389648</ele>
        <time>2013-10-12T14:58:08Z</time>
      </trkpt>
      <trkpt lat="43.39131" lon="6.10767">
        <ele>279.39999389648</ele>
        <time>2013-10-12T14:58:09Z</time>
      </trkpt>
      <trkpt lat="43.39159" lon="6.10748">
        <ele>279.39999389648</ele>
        <time>2013-10-12T14:58:14Z</time>
      </trkpt>
      <trkpt lat="43.39162" lon="6.10745">
        <ele>279</ele>
        <time>2013-10-12T14:58:15Z</time>
      </trkpt>
      <trkpt lat="43.39166" lon="6.10738">
        <ele>278.39999389648</ele>
        <time>2013-10-12T14:58:16Z</time>
      </trkpt>
      <trkpt lat="43.39169" lon="6.10729">
        <ele>278</ele>
        <time>2013-10-12T14:58:17Z</time>
      </trkpt>
      <trkpt lat="43.39171" lon="6.1072">
        <ele>277.60000610352</ele>
        <time>2013-10-12T14:58:18Z</time>
      </trkpt>
      <trkpt lat="43.39174" lon="6.10711">
        <ele>277.20001220703</ele>
        <time>2013-10-12T14:58:19Z</time>
      </trkpt>
      <trkpt lat="43.39178" lon="6.10693">
        <ele>276.79998779297</ele>
        <time>2013-10-12T14:58:21Z</time>
      </trkpt>
      <trkpt lat="43.3918" lon="6.10683">
        <ele>276.39999389648</ele>
        <time>2013-10-12T14:58:22Z</time>
      </trkpt>
      <trkpt lat="43.39183" lon="6.10675">
        <ele>275.79998779297</ele>
        <time>2013-10-12T14:58:23Z</time>
      </trkpt>
      <trkpt lat="43.39186" lon="6.10667">
        <ele>275.39999389648</ele>
        <time>2013-10-12T14:58:24Z</time>
      </trkpt>
      <trkpt lat="43.39191" lon="6.1066">
        <ele>275</ele>
        <time>2013-10-12T14:58:25Z</time>
      </trkpt>
      <trkpt lat="43.39202" lon="6.10651">
        <ele>275</ele>
        <time>2013-10-12T14:58:27Z</time>
      </trkpt>
      <trkpt lat="43.39212" lon="6.10639">
        <ele>275</ele>
        <time>2013-10-12T14:58:29Z</time>
      </trkpt>
      <trkpt lat="43.39226" lon="6.1062">
        <ele>275</ele>
        <time>2013-10-12T14:58:33Z</time>
      </trkpt>
      <trkpt lat="43.39236" lon="6.10608">
        <ele>275</ele>
        <time>2013-10-12T14:58:36Z</time>
      </trkpt>
      <trkpt lat="43.3924" lon="6.10604">
        <ele>275</ele>
        <time>2013-10-12T14:58:37Z</time>
      </trkpt>
      <trkpt lat="43.39251" lon="6.10599">
        <ele>275</ele>
        <time>2013-10-12T14:58:40Z</time>
      </trkpt>
      <trkpt lat="43.39264" lon="6.10579">
        <ele>275</ele>
        <time>2013-10-12T14:58:44Z</time>
      </trkpt>
      <trkpt lat="43.39273" lon="6.10554">
        <ele>275</ele>
        <time>2013-10-12T14:58:48Z</time>
      </trkpt>
      <trkpt lat="43.39276" lon="6.10542">
        <ele>275</ele>
        <time>2013-10-12T14:58:50Z</time>
      </trkpt>
      <trkpt lat="43.39285" lon="6.10523">
        <ele>275</ele>
        <time>2013-10-12T14:58:53Z</time>
      </trkpt>
      <trkpt lat="43.39294" lon="6.10495">
        <ele>275</ele>
        <time>2013-10-12T14:58:57Z</time>
      </trkpt>
      <trkpt lat="43.39297" lon="6.10489">
        <ele>275</ele>
        <time>2013-10-12T14:58:58Z</time>
      </trkpt>
      <trkpt lat="43.39308" lon="6.10471">
        <ele>274.60000610352</ele>
        <time>2013-10-12T14:59:01Z</time>
      </trkpt>
      <trkpt lat="43.39312" lon="6.10464">
        <ele>274.20001220703</ele>
        <time>2013-10-12T14:59:02Z</time>
      </trkpt>
      <trkpt lat="43.39315" lon="6.10457">
        <ele>273.60000610352</ele>
        <time>2013-10-12T14:59:03Z</time>
      </trkpt>
      <trkpt lat="43.39318" lon="6.10451">
        <ele>273.20001220703</ele>
        <time>2013-10-12T14:59:04Z</time>
      </trkpt>
      <trkpt lat="43.39322" lon="6.10444">
        <ele>272.79998779297</ele>
        <time>2013-10-12T14:59:05Z</time>
      </trkpt>
      <trkpt lat="43.3934" lon="6.10423">
        <ele>272</ele>
        <time>2013-10-12T14:59:09Z</time>
      </trkpt>
      <trkpt lat="43.39349" lon="6.1042">
        <ele>271</ele>
        <time>2013-10-12T14:59:11Z</time>
      </trkpt>
      <trkpt lat="43.39352" lon="6.10422">
        <ele>270.60000610352</ele>
        <time>2013-10-12T14:59:12Z</time>
      </trkpt>
      <trkpt lat="43.39361" lon="6.10423">
        <ele>270.60000610352</ele>
        <time>2013-10-12T14:59:14Z</time>
      </trkpt>
      <trkpt lat="43.39368" lon="6.10415">
        <ele>270.60000610352</ele>
        <time>2013-10-12T14:59:16Z</time>
      </trkpt>
      <trkpt lat="43.39372" lon="6.10396">
        <ele>270.60000610352</ele>
        <time>2013-10-12T14:59:19Z</time>
      </trkpt>
      <trkpt lat="43.39384" lon="6.10374">
        <ele>269.39999389648</ele>
        <time>2013-10-12T14:59:23Z</time>
      </trkpt>
      <trkpt lat="43.39391" lon="6.10361">
        <ele>268.60000610352</ele>
        <time>2013-10-12T14:59:25Z</time>
      </trkpt>
      <trkpt lat="43.39401" lon="6.10341">
        <ele>268.60000610352</ele>
        <time>2013-10-12T14:59:28Z</time>
      </trkpt>
      <trkpt lat="43.39424" lon="6.10308">
        <ele>268.60000610352</ele>
        <time>2013-10-12T14:59:34Z</time>
      </trkpt>
      <trkpt lat="43.39429" lon="6.10304">
        <ele>268.60000610352</ele>
        <time>2013-10-12T14:59:35Z</time>
      </trkpt>
      <trkpt lat="43.39454" lon="6.10281">
        <ele>268.60000610352</ele>
        <time>2013-10-12T14:59:40Z</time>
      </trkpt>
      <trkpt lat="43.39484" lon="6.10251">
        <ele>266.60000610352</ele>
        <time>2013-10-12T14:59:46Z</time>
      </trkpt>
      <trkpt lat="43.39487" lon="6.10244">
        <ele>266.20001220703</ele>
        <time>2013-10-12T14:59:47Z</time>
      </trkpt>
      <trkpt lat="43.39494" lon="6.10232">
        <ele>265.79998779297</ele>
        <time>2013-10-12T14:59:49Z</time>
      </trkpt>
      <trkpt lat="43.39505" lon="6.10196">
        <ele>264</ele>
        <time>2013-10-12T14:59:54Z</time>
      </trkpt>
      <trkpt lat="43.39518" lon="6.10152">
        <ele>262.39999389648</ele>
        <time>2013-10-12T15:00:00Z</time>
      </trkpt>
      <trkpt lat="43.39526" lon="6.10125">
        <ele>262</ele>
        <time>2013-10-12T15:00:04Z</time>
      </trkpt>
      <trkpt lat="43.39528" lon="6.10118">
        <ele>262</ele>
        <time>2013-10-12T15:00:05Z</time>
      </trkpt>
      <trkpt lat="43.39537" lon="6.10098">
        <ele>262</ele>
        <time>2013-10-12T15:00:08Z</time>
      </trkpt>
      <trkpt lat="43.39542" lon="6.10094">
        <ele>261.60000610352</ele>
        <time>2013-10-12T15:00:09Z</time>
      </trkpt>
      <trkpt lat="43.39544" lon="6.10087">
        <ele>261.20001220703</ele>
        <time>2013-10-12T15:00:10Z</time>
      </trkpt>
      <trkpt lat="43.39547" lon="6.1008">
        <ele>260.79998779297</ele>
        <time>2013-10-12T15:00:11Z</time>
      </trkpt>
      <trkpt lat="43.39548" lon="6.10072">
        <ele>260.39999389648</ele>
        <time>2013-10-12T15:00:12Z</time>
      </trkpt>
      <trkpt lat="43.3955" lon="6.10064">
        <ele>259.79998779297</ele>
        <time>2013-10-12T15:00:13Z</time>
      </trkpt>
      <trkpt lat="43.39552" lon="6.10057">
        <ele>259.79998779297</ele>
        <time>2013-10-12T15:00:14Z</time>
      </trkpt>
      <trkpt lat="43.39561" lon="6.10021">
        <ele>259.79998779297</ele>
        <time>2013-10-12T15:00:19Z</time>
      </trkpt>
      <trkpt lat="43.39558" lon="6.10015">
        <ele>259.79998779297</ele>
        <time>2013-10-12T15:00:20Z</time>
      </trkpt>
      <trkpt lat="43.39554" lon="6.1">
        <ele>259.79998779297</ele>
        <time>2013-10-12T15:00:23Z</time>
      </trkpt>
      <trkpt lat="43.39555" lon="6.09973">
        <ele>259.79998779297</ele>
        <time>2013-10-12T15:00:28Z</time>
      </trkpt>
      <trkpt lat="43.39554" lon="6.09946">
        <ele>259.79998779297</ele>
        <time>2013-10-12T15:00:34Z</time>
      </trkpt>
      <trkpt lat="43.3955" lon="6.09935">
        <ele>259.79998779297</ele>
        <time>2013-10-12T15:00:37Z</time>
      </trkpt>
      <trkpt lat="43.39547" lon="6.0993">
        <ele>259.79998779297</ele>
        <time>2013-10-12T15:00:39Z</time>
      </trkpt>
      <trkpt lat="43.39545" lon="6.09925">
        <ele>259.79998779297</ele>
        <time>2013-10-12T15:00:41Z</time>
      </trkpt>
      <trkpt lat="43.39543" lon="6.09915">
        <ele>261.20001220703</ele>
        <time>2013-10-12T15:00:44Z</time>
      </trkpt>
      <trkpt lat="43.39544" lon="6.09908">
        <ele>262</ele>
        <time>2013-10-12T15:00:46Z</time>
      </trkpt>
      <trkpt lat="43.39548" lon="6.09899">
        <ele>262</ele>
        <time>2013-10-12T15:00:49Z</time>
      </trkpt>
      <trkpt lat="43.39556" lon="6.09886">
        <ele>262</ele>
        <time>2013-10-12T15:00:54Z</time>
      </trkpt>
      <trkpt lat="43.39558" lon="6.09863">
        <ele>262</ele>
        <time>2013-10-12T15:00:59Z</time>
      </trkpt>
      <trkpt lat="43.3956" lon="6.09837">
        <ele>262</ele>
        <time>2013-10-12T15:01:04Z</time>
      </trkpt>
      <trkpt lat="43.39565" lon="6.09812">
        <ele>262</ele>
        <time>2013-10-12T15:01:10Z</time>
      </trkpt>
      <trkpt lat="43.39569" lon="6.09789">
        <ele>262</ele>
        <time>2013-10-12T15:01:16Z</time>
      </trkpt>
      <trkpt lat="43.39574" lon="6.09765">
        <ele>262</ele>
        <time>2013-10-12T15:01:21Z</time>
      </trkpt>
      <trkpt lat="43.39582" lon="6.09742">
        <ele>262</ele>
        <time>2013-10-12T15:01:26Z</time>
      </trkpt>
      <trkpt lat="43.39592" lon="6.09704">
        <ele>262</ele>
        <time>2013-10-12T15:01:33Z</time>
      </trkpt>
      <trkpt lat="43.39596" lon="6.09688">
        <ele>262</ele>
        <time>2013-10-12T15:01:36Z</time>
      </trkpt>
      <trkpt lat="43.39598" lon="6.09674">
        <ele>262</ele>
        <time>2013-10-12T15:01:39Z</time>
      </trkpt>
      <trkpt lat="43.39609" lon="6.09625">
        <ele>262</ele>
        <time>2013-10-12T15:01:49Z</time>
      </trkpt>
      <trkpt lat="43.39615" lon="6.096">
        <ele>262</ele>
        <time>2013-10-12T15:01:55Z</time>
      </trkpt>
      <trkpt lat="43.39623" lon="6.09576">
        <ele>262</ele>
        <time>2013-10-12T15:02:01Z</time>
      </trkpt>
      <trkpt lat="43.39633" lon="6.09548">
        <ele>262</ele>
        <time>2013-10-12T15:02:06Z</time>
      </trkpt>
      <trkpt lat="43.39645" lon="6.09533">
        <ele>262</ele>
        <time>2013-10-12T15:02:09Z</time>
      </trkpt>
      <trkpt lat="43.39649" lon="6.09527">
        <ele>262</ele>
        <time>2013-10-12T15:02:10Z</time>
      </trkpt>
      <trkpt lat="43.39653" lon="6.0952">
        <ele>261.60000610352</ele>
        <time>2013-10-12T15:02:11Z</time>
      </trkpt>
      <trkpt lat="43.39657" lon="6.09513">
        <ele>261</ele>
        <time>2013-10-12T15:02:12Z</time>
      </trkpt>
      <trkpt lat="43.39661" lon="6.09505">
        <ele>260.60000610352</ele>
        <time>2013-10-12T15:02:13Z</time>
      </trkpt>
      <trkpt lat="43.39664" lon="6.09497">
        <ele>260</ele>
        <time>2013-10-12T15:02:14Z</time>
      </trkpt>
      <trkpt lat="43.39678" lon="6.09455">
        <ele>256.79998779297</ele>
        <time>2013-10-12T15:02:19Z</time>
      </trkpt>
      <trkpt lat="43.39681" lon="6.09448">
        <ele>256.20001220703</ele>
        <time>2013-10-12T15:02:20Z</time>
      </trkpt>
      <trkpt lat="43.39685" lon="6.09441">
        <ele>255.39999389648</ele>
        <time>2013-10-12T15:02:21Z</time>
      </trkpt>
      <trkpt lat="43.3969" lon="6.09434">
        <ele>254.80000305176</ele>
        <time>2013-10-12T15:02:22Z</time>
      </trkpt>
      <trkpt lat="43.39702" lon="6.09424">
        <ele>253.39999389648</ele>
        <time>2013-10-12T15:02:24Z</time>
      </trkpt>
      <trkpt lat="43.39724" lon="6.09415">
        <ele>250.39999389648</ele>
        <time>2013-10-12T15:02:27Z</time>
      </trkpt>
      <trkpt lat="43.3973" lon="6.09408">
        <ele>249.60000610352</ele>
        <time>2013-10-12T15:02:28Z</time>
      </trkpt>
      <trkpt lat="43.39734" lon="6.09401">
        <ele>248.80000305176</ele>
        <time>2013-10-12T15:02:29Z</time>
      </trkpt>
      <trkpt lat="43.39738" lon="6.09393">
        <ele>248</ele>
        <time>2013-10-12T15:02:30Z</time>
      </trkpt>
      <trkpt lat="43.39761" lon="6.09352">
        <ele>248</ele>
        <time>2013-10-12T15:02:36Z</time>
      </trkpt>
      <trkpt lat="43.39771" lon="6.09333">
        <ele>248</ele>
        <time>2013-10-12T15:02:39Z</time>
      </trkpt>
      <trkpt lat="43.39777" lon="6.09319">
        <ele>247.60000610352</ele>
        <time>2013-10-12T15:02:41Z</time>
      </trkpt>
      <trkpt lat="43.39783" lon="6.09306">
        <ele>246.80000305176</ele>
        <time>2013-10-12T15:02:43Z</time>
      </trkpt>
      <trkpt lat="43.39785" lon="6.093">
        <ele>246.39999389648</ele>
        <time>2013-10-12T15:02:44Z</time>
      </trkpt>
      <trkpt lat="43.39788" lon="6.09287">
        <ele>246</ele>
        <time>2013-10-12T15:02:46Z</time>
      </trkpt>
      <trkpt lat="43.39791" lon="6.09273">
        <ele>246</ele>
        <time>2013-10-12T15:02:48Z</time>
      </trkpt>
      <trkpt lat="43.39792" lon="6.09267">
        <ele>246</ele>
        <time>2013-10-12T15:02:49Z</time>
      </trkpt>
      <trkpt lat="43.39795" lon="6.09248">
        <ele>246</ele>
        <time>2013-10-12T15:02:52Z</time>
      </trkpt>
      <trkpt lat="43.39798" lon="6.09228">
        <ele>246</ele>
        <time>2013-10-12T15:02:55Z</time>
      </trkpt>
      <trkpt lat="43.39798" lon="6.09222">
        <ele>246</ele>
        <time>2013-10-12T15:02:56Z</time>
      </trkpt>
      <trkpt lat="43.39798" lon="6.09215">
        <ele>246</ele>
        <time>2013-10-12T15:02:59Z</time>
      </trkpt>
      <trkpt lat="43.39798" lon="6.09216">
        <ele>246</ele>
        <time>2013-10-12T15:03:05Z</time>
      </trkpt>
      <trkpt lat="43.39798" lon="6.09216">
        <ele>246</ele>
        <time>2013-10-12T15:03:15Z</time>
      </trkpt>
      <trkpt lat="43.39798" lon="6.09215">
        <ele>246</ele>
        <time>2013-10-12T15:03:21Z</time>
      </trkpt>
      <trkpt lat="43.39798" lon="6.09215">
        <ele>246</ele>
        <time>2013-10-12T15:03:32Z</time>
      </trkpt>
      <trkpt lat="43.39798" lon="6.09215">
        <ele>246</ele>
        <time>2013-10-12T15:03:48Z</time>
      </trkpt>
      <trkpt lat="43.39798" lon="6.09214">
        <ele>246</ele>
        <time>2013-10-12T15:03:53Z</time>
      </trkpt>
      <trkpt lat="43.39799" lon="6.09214">
        <ele>246</ele>
        <time>2013-10-12T15:03:54Z</time>
      </trkpt>
      <trkpt lat="43.39802" lon="6.09215">
        <ele>246</ele>
        <time>2013-10-12T15:03:59Z</time>
      </trkpt>
      <trkpt lat="43.39801" lon="6.09215">
        <ele>246</ele>
        <time>2013-10-12T15:04:04Z</time>
      </trkpt>
      <trkpt lat="43.39801" lon="6.09215">
        <ele>246</ele>
        <time>2013-10-12T15:04:31Z</time>
      </trkpt>
      <trkpt lat="43.39802" lon="6.09215">
        <ele>246</ele>
        <time>2013-10-12T15:04:56Z</time>
      </trkpt>
      <trkpt lat="43.39802" lon="6.09215">
        <ele>246</ele>
        <time>2013-10-12T15:05:10Z</time>
      </trkpt>
      <trkpt lat="43.39802" lon="6.09215">
        <ele>246</ele>
        <time>2013-10-12T15:05:22Z</time>
      </trkpt>
      <trkpt lat="43.39801" lon="6.09214">
        <ele>246</ele>
        <time>2013-10-12T15:05:24Z</time>
      </trkpt>
      <trkpt lat="43.39801" lon="6.09214">
        <ele>246</ele>
        <time>2013-10-12T15:05:50Z</time>
      </trkpt>
      <trkpt lat="43.39801" lon="6.09214">
        <ele>246</ele>
        <time>2013-10-12T15:07:41Z</time>
      </trkpt>
      <trkpt lat="43.39801" lon="6.09214">
        <ele>246</ele>
        <time>2013-10-12T15:07:50Z</time>
      </trkpt>
      <trkpt lat="43.39801" lon="6.09214">
        <ele>246</ele>
        <time>2013-10-12T15:07:55Z</time>
      </trkpt>
      <trkpt lat="43.39801" lon="6.09213">
        <ele>246</ele>
        <time>2013-10-12T15:08:01Z</time>
      </trkpt>
      <trkpt lat="43.39801" lon="6.09208">
        <ele>246</ele>
        <time>2013-10-12T15:08:03Z</time>
      </trkpt>
      <trkpt lat="43.398" lon="6.09195">
        <ele>246</ele>
        <time>2013-10-12T15:08:07Z</time>
      </trkpt>
      <trkpt lat="43.39799" lon="6.09187">
        <ele>246</ele>
        <time>2013-10-12T15:08:09Z</time>
      </trkpt>
      <trkpt lat="43.39799" lon="6.09166">
        <ele>246</ele>
        <time>2013-10-12T15:08:14Z</time>
      </trkpt>
      <trkpt lat="43.39799" lon="6.09161">
        <ele>246</ele>
        <time>2013-10-12T15:08:15Z</time>
      </trkpt>
      <trkpt lat="43.398" lon="6.09145">
        <ele>246</ele>
        <time>2013-10-12T15:08:18Z</time>
      </trkpt>
      <trkpt lat="43.39802" lon="6.0913">
        <ele>246</ele>
        <time>2013-10-12T15:08:21Z</time>
      </trkpt>
      <trkpt lat="43.39805" lon="6.09118">
        <ele>246.39999389648</ele>
        <time>2013-10-12T15:08:24Z</time>
      </trkpt>
      <trkpt lat="43.39809" lon="6.09105">
        <ele>248</ele>
        <time>2013-10-12T15:08:28Z</time>
      </trkpt>
      <trkpt lat="43.39814" lon="6.09084">
        <ele>248</ele>
        <time>2013-10-12T15:08:34Z</time>
      </trkpt>
      <trkpt lat="43.39823" lon="6.09066">
        <ele>248</ele>
        <time>2013-10-12T15:08:40Z</time>
      </trkpt>
      <trkpt lat="43.3983" lon="6.09049">
        <ele>248</ele>
        <time>2013-10-12T15:08:44Z</time>
      </trkpt>
      <trkpt lat="43.3987" lon="6.09004">
        <ele>247.60000610352</ele>
        <time>2013-10-12T15:08:57Z</time>
      </trkpt>
      <trkpt lat="43.39874" lon="6.09">
        <ele>247.19999694824</ele>
        <time>2013-10-12T15:08:58Z</time>
      </trkpt>
      <trkpt lat="43.39882" lon="6.08994">
        <ele>246.39999389648</ele>
        <time>2013-10-12T15:09:00Z</time>
      </trkpt>
      <trkpt lat="43.39897" lon="6.08989">
        <ele>246</ele>
        <time>2013-10-12T15:09:03Z</time>
      </trkpt>
      <trkpt lat="43.39912" lon="6.08989">
        <ele>246</ele>
        <time>2013-10-12T15:09:06Z</time>
      </trkpt>
      <trkpt lat="43.39925" lon="6.0899">
        <ele>245.60000610352</ele>
        <time>2013-10-12T15:09:08Z</time>
      </trkpt>
      <trkpt lat="43.39931" lon="6.08989">
        <ele>245.19999694824</ele>
        <time>2013-10-12T15:09:09Z</time>
      </trkpt>
      <trkpt lat="43.39939" lon="6.08988">
        <ele>244.60000610352</ele>
        <time>2013-10-12T15:09:10Z</time>
      </trkpt>
      <trkpt lat="43.39952" lon="6.08986">
        <ele>243.80000305176</ele>
        <time>2013-10-12T15:09:12Z</time>
      </trkpt>
      <trkpt lat="43.39965" lon="6.08983">
        <ele>242.80000305176</ele>
        <time>2013-10-12T15:09:14Z</time>
      </trkpt>
      <trkpt lat="43.39971" lon="6.08982">
        <ele>242.39999389648</ele>
        <time>2013-10-12T15:09:15Z</time>
      </trkpt>
      <trkpt lat="43.39977" lon="6.0898">
        <ele>242</ele>
        <time>2013-10-12T15:09:16Z</time>
      </trkpt>
      <trkpt lat="43.39984" lon="6.0898">
        <ele>241.60000610352</ele>
        <time>2013-10-12T15:09:17Z</time>
      </trkpt>
      <trkpt lat="43.40001" lon="6.08977">
        <ele>241.60000610352</ele>
        <time>2013-10-12T15:09:20Z</time>
      </trkpt>
      <trkpt lat="43.40014" lon="6.08972">
        <ele>241.60000610352</ele>
        <time>2013-10-12T15:09:22Z</time>
      </trkpt>
      <trkpt lat="43.40023" lon="6.08963">
        <ele>241.60000610352</ele>
        <time>2013-10-12T15:09:24Z</time>
      </trkpt>
      <trkpt lat="43.40031" lon="6.08944">
        <ele>241.60000610352</ele>
        <time>2013-10-12T15:09:27Z</time>
      </trkpt>
      <trkpt lat="43.40044" lon="6.08897">
        <ele>241.60000610352</ele>
        <time>2013-10-12T15:09:34Z</time>
      </trkpt>
      <trkpt lat="43.40052" lon="6.08866">
        <ele>241.60000610352</ele>
        <time>2013-10-12T15:09:39Z</time>
      </trkpt>
      <trkpt lat="43.40055" lon="6.0886">
        <ele>241.60000610352</ele>
        <time>2013-10-12T15:09:40Z</time>
      </trkpt>
      <trkpt lat="43.40063" lon="6.08837">
        <ele>241.60000610352</ele>
        <time>2013-10-12T15:09:44Z</time>
      </trkpt>
      <trkpt lat="43.40077" lon="6.08801">
        <ele>241.60000610352</ele>
        <time>2013-10-12T15:09:50Z</time>
      </trkpt>
      <trkpt lat="43.40087" lon="6.08769">
        <ele>241.60000610352</ele>
        <time>2013-10-12T15:09:55Z</time>
      </trkpt>
      <trkpt lat="43.40098" lon="6.08726">
        <ele>241.60000610352</ele>
        <time>2013-10-12T15:10:01Z</time>
      </trkpt>
      <trkpt lat="43.40099" lon="6.08718">
        <ele>241.60000610352</ele>
        <time>2013-10-12T15:10:02Z</time>
      </trkpt>
      <trkpt lat="43.40103" lon="6.08694">
        <ele>241.60000610352</ele>
        <time>2013-10-12T15:10:05Z</time>
      </trkpt>
      <trkpt lat="43.40103" lon="6.08686">
        <ele>241.60000610352</ele>
        <time>2013-10-12T15:10:06Z</time>
      </trkpt>
      <trkpt lat="43.401" lon="6.08669">
        <ele>241.19999694824</ele>
        <time>2013-10-12T15:10:08Z</time>
      </trkpt>
      <trkpt lat="43.40099" lon="6.08652">
        <ele>240.19999694824</ele>
        <time>2013-10-12T15:10:10Z</time>
      </trkpt>
      <trkpt lat="43.40103" lon="6.08637">
        <ele>239.39999389648</ele>
        <time>2013-10-12T15:10:12Z</time>
      </trkpt>
      <trkpt lat="43.40107" lon="6.08631">
        <ele>238.80000305176</ele>
        <time>2013-10-12T15:10:13Z</time>
      </trkpt>
      <trkpt lat="43.40111" lon="6.08625">
        <ele>238.39999389648</ele>
        <time>2013-10-12T15:10:14Z</time>
      </trkpt>
      <trkpt lat="43.4012" lon="6.08617">
        <ele>237.19999694824</ele>
        <time>2013-10-12T15:10:16Z</time>
      </trkpt>
      <trkpt lat="43.40134" lon="6.08604">
        <ele>237.19999694824</ele>
        <time>2013-10-12T15:10:19Z</time>
      </trkpt>
      <trkpt lat="43.40144" lon="6.08596">
        <ele>237.19999694824</ele>
        <time>2013-10-12T15:10:21Z</time>
      </trkpt>
      <trkpt lat="43.40163" lon="6.08586">
        <ele>237.19999694824</ele>
        <time>2013-10-12T15:10:25Z</time>
      </trkpt>
      <trkpt lat="43.40169" lon="6.08575">
        <ele>237.19999694824</ele>
        <time>2013-10-12T15:10:27Z</time>
      </trkpt>
      <trkpt lat="43.40168" lon="6.08519">
        <ele>237.19999694824</ele>
        <time>2013-10-12T15:10:36Z</time>
      </trkpt>
      <trkpt lat="43.40169" lon="6.08491">
        <ele>237.19999694824</ele>
        <time>2013-10-12T15:10:41Z</time>
      </trkpt>
      <trkpt lat="43.40171" lon="6.08481">
        <ele>237.19999694824</ele>
        <time>2013-10-12T15:10:43Z</time>
      </trkpt>
      <trkpt lat="43.40173" lon="6.08454">
        <ele>237.19999694824</ele>
        <time>2013-10-12T15:10:48Z</time>
      </trkpt>
      <trkpt lat="43.40176" lon="6.08417">
        <ele>237.19999694824</ele>
        <time>2013-10-12T15:10:54Z</time>
      </trkpt>
      <trkpt lat="43.40178" lon="6.08386">
        <ele>237.19999694824</ele>
        <time>2013-10-12T15:10:59Z</time>
      </trkpt>
      <trkpt lat="43.40179" lon="6.0838">
        <ele>237.19999694824</ele>
        <time>2013-10-12T15:11:00Z</time>
      </trkpt>
      <trkpt lat="43.4018" lon="6.08341">
        <ele>237.19999694824</ele>
        <time>2013-10-12T15:11:06Z</time>
      </trkpt>
      <trkpt lat="43.40181" lon="6.08309">
        <ele>237.19999694824</ele>
        <time>2013-10-12T15:11:11Z</time>
      </trkpt>
      <trkpt lat="43.40182" lon="6.08298">
        <ele>237.19999694824</ele>
        <time>2013-10-12T15:11:13Z</time>
      </trkpt>
      <trkpt lat="43.40184" lon="6.08283">
        <ele>237.19999694824</ele>
        <time>2013-10-12T15:11:16Z</time>
      </trkpt>
      <trkpt lat="43.40186" lon="6.0827">
        <ele>237.19999694824</ele>
        <time>2013-10-12T15:11:19Z</time>
      </trkpt>
      <trkpt lat="43.40186" lon="6.08267">
        <ele>237.19999694824</ele>
        <time>2013-10-12T15:11:20Z</time>
      </trkpt>
      <trkpt lat="43.40186" lon="6.08267">
        <ele>237.19999694824</ele>
        <time>2013-10-12T15:11:24Z</time>
      </trkpt>
      <trkpt lat="43.40186" lon="6.08267">
        <ele>237.19999694824</ele>
        <time>2013-10-12T15:11:30Z</time>
      </trkpt>
      <trkpt lat="43.40185" lon="6.08265">
        <ele>237.19999694824</ele>
        <time>2013-10-12T15:11:33Z</time>
      </trkpt>
      <trkpt lat="43.40185" lon="6.08265">
        <ele>237.19999694824</ele>
        <time>2013-10-12T15:11:37Z</time>
      </trkpt>
      <trkpt lat="43.40184" lon="6.08261">
        <ele>237.19999694824</ele>
        <time>2013-10-12T15:11:41Z</time>
      </trkpt>
      <trkpt lat="43.40182" lon="6.08245">
        <ele>237.19999694824</ele>
        <time>2013-10-12T15:11:45Z</time>
      </trkpt>
      <trkpt lat="43.40183" lon="6.08231">
        <ele>236.80000305176</ele>
        <time>2013-10-12T15:11:48Z</time>
      </trkpt>
      <trkpt lat="43.40185" lon="6.08221">
        <ele>236</ele>
        <time>2013-10-12T15:11:50Z</time>
      </trkpt>
      <trkpt lat="43.40187" lon="6.08216">
        <ele>235.60000610352</ele>
        <time>2013-10-12T15:11:51Z</time>
      </trkpt>
      <trkpt lat="43.40188" lon="6.08211">
        <ele>235.19999694824</ele>
        <time>2013-10-12T15:11:52Z</time>
      </trkpt>
      <trkpt lat="43.40194" lon="6.08184">
        <ele>235.19999694824</ele>
        <time>2013-10-12T15:11:57Z</time>
      </trkpt>
      <trkpt lat="43.40197" lon="6.08172">
        <ele>235.19999694824</ele>
        <time>2013-10-12T15:11:59Z</time>
      </trkpt>
      <trkpt lat="43.40198" lon="6.08151">
        <ele>235.19999694824</ele>
        <time>2013-10-12T15:12:02Z</time>
      </trkpt>
      <trkpt lat="43.40198" lon="6.08129">
        <ele>235.19999694824</ele>
        <time>2013-10-12T15:12:05Z</time>
      </trkpt>
      <trkpt lat="43.40192" lon="6.08111">
        <ele>234</ele>
        <time>2013-10-12T15:12:09Z</time>
      </trkpt>
      <trkpt lat="43.40191" lon="6.08101">
        <ele>233.19999694824</ele>
        <time>2013-10-12T15:12:11Z</time>
      </trkpt>
      <trkpt lat="43.402" lon="6.08071">
        <ele>233.19999694824</ele>
        <time>2013-10-12T15:12:16Z</time>
      </trkpt>
      <trkpt lat="43.40207" lon="6.0806">
        <ele>233.19999694824</ele>
        <time>2013-10-12T15:12:18Z</time>
      </trkpt>
      <trkpt lat="43.40214" lon="6.0805">
        <ele>232.80000305176</ele>
        <time>2013-10-12T15:12:20Z</time>
      </trkpt>
      <trkpt lat="43.40223" lon="6.0804">
        <ele>232</ele>
        <time>2013-10-12T15:12:22Z</time>
      </trkpt>
      <trkpt lat="43.40232" lon="6.08029">
        <ele>231</ele>
        <time>2013-10-12T15:12:24Z</time>
      </trkpt>
      <trkpt lat="43.40249" lon="6.08006">
        <ele>231</ele>
        <time>2013-10-12T15:12:28Z</time>
      </trkpt>
      <trkpt lat="43.40265" lon="6.07982">
        <ele>230.60000610352</ele>
        <time>2013-10-12T15:12:32Z</time>
      </trkpt>
      <trkpt lat="43.40279" lon="6.07956">
        <ele>229</ele>
        <time>2013-10-12T15:12:36Z</time>
      </trkpt>
      <trkpt lat="43.40282" lon="6.07949">
        <ele>229</ele>
        <time>2013-10-12T15:12:37Z</time>
      </trkpt>
      <trkpt lat="43.40289" lon="6.07927">
        <ele>229</ele>
        <time>2013-10-12T15:12:40Z</time>
      </trkpt>
      <trkpt lat="43.40293" lon="6.07905">
        <ele>229</ele>
        <time>2013-10-12T15:12:43Z</time>
      </trkpt>
      <trkpt lat="43.40295" lon="6.0789">
        <ele>228.19999694824</ele>
        <time>2013-10-12T15:12:45Z</time>
      </trkpt>
      <trkpt lat="43.40298" lon="6.07866">
        <ele>226.80000305176</ele>
        <time>2013-10-12T15:12:48Z</time>
      </trkpt>
      <trkpt lat="43.40306" lon="6.07789">
        <ele>226.39999389648</ele>
        <time>2013-10-12T15:12:57Z</time>
      </trkpt>
      <trkpt lat="43.40309" lon="6.07772">
        <ele>225.60000610352</ele>
        <time>2013-10-12T15:12:59Z</time>
      </trkpt>
      <trkpt lat="43.40311" lon="6.07754">
        <ele>224.80000305176</ele>
        <time>2013-10-12T15:13:01Z</time>
      </trkpt>
      <trkpt lat="43.40322" lon="6.07712">
        <ele>224.80000305176</ele>
        <time>2013-10-12T15:13:06Z</time>
      </trkpt>
      <trkpt lat="43.40335" lon="6.07691">
        <ele>224</ele>
        <time>2013-10-12T15:13:09Z</time>
      </trkpt>
      <trkpt lat="43.40349" lon="6.07676">
        <ele>222.80000305176</ele>
        <time>2013-10-12T15:13:12Z</time>
      </trkpt>
      <trkpt lat="43.40362" lon="6.07661">
        <ele>222.80000305176</ele>
        <time>2013-10-12T15:13:15Z</time>
      </trkpt>
      <trkpt lat="43.40365" lon="6.07654">
        <ele>222.80000305176</ele>
        <time>2013-10-12T15:13:16Z</time>
      </trkpt>
      <trkpt lat="43.40371" lon="6.07631">
        <ele>222.80000305176</ele>
        <time>2013-10-12T15:13:19Z</time>
      </trkpt>
      <trkpt lat="43.40372" lon="6.07624">
        <ele>222.80000305176</ele>
        <time>2013-10-12T15:13:20Z</time>
      </trkpt>
      <trkpt lat="43.40373" lon="6.07609">
        <ele>222.80000305176</ele>
        <time>2013-10-12T15:13:22Z</time>
      </trkpt>
      <trkpt lat="43.40374" lon="6.07589">
        <ele>222.80000305176</ele>
        <time>2013-10-12T15:13:25Z</time>
      </trkpt>
      <trkpt lat="43.40375" lon="6.07572">
        <ele>222.80000305176</ele>
        <time>2013-10-12T15:13:29Z</time>
      </trkpt>
      <trkpt lat="43.40375" lon="6.07569">
        <ele>222.80000305176</ele>
        <time>2013-10-12T15:13:30Z</time>
      </trkpt>
      <trkpt lat="43.40375" lon="6.07567">
        <ele>222.80000305176</ele>
        <time>2013-10-12T15:13:34Z</time>
      </trkpt>
      <trkpt lat="43.40375" lon="6.07567">
        <ele>222.80000305176</ele>
        <time>2013-10-12T15:13:39Z</time>
      </trkpt>
      <trkpt lat="43.40375" lon="6.07565">
        <ele>222.80000305176</ele>
        <time>2013-10-12T15:13:42Z</time>
      </trkpt>
      <trkpt lat="43.40376" lon="6.07555">
        <ele>222.80000305176</ele>
        <time>2013-10-12T15:13:46Z</time>
      </trkpt>
      <trkpt lat="43.40376" lon="6.07548">
        <ele>222.80000305176</ele>
        <time>2013-10-12T15:13:48Z</time>
      </trkpt>
      <trkpt lat="43.40377" lon="6.07521">
        <ele>222.80000305176</ele>
        <time>2013-10-12T15:13:53Z</time>
      </trkpt>
      <trkpt lat="43.40379" lon="6.07502">
        <ele>222.80000305176</ele>
        <time>2013-10-12T15:13:56Z</time>
      </trkpt>
      <trkpt lat="43.4038" lon="6.07496">
        <ele>222.80000305176</ele>
        <time>2013-10-12T15:13:57Z</time>
      </trkpt>
      <trkpt lat="43.40387" lon="6.07465">
        <ele>222.80000305176</ele>
        <time>2013-10-12T15:14:03Z</time>
      </trkpt>
      <trkpt lat="43.40391" lon="6.07416">
        <ele>222.80000305176</ele>
        <time>2013-10-12T15:14:11Z</time>
      </trkpt>
      <trkpt lat="43.4039" lon="6.07364">
        <ele>222.80000305176</ele>
        <time>2013-10-12T15:14:19Z</time>
      </trkpt>
      <trkpt lat="43.40384" lon="6.07317">
        <ele>222.80000305176</ele>
        <time>2013-10-12T15:14:26Z</time>
      </trkpt>
      <trkpt lat="43.40383" lon="6.07303">
        <ele>222.19999694824</ele>
        <time>2013-10-12T15:14:28Z</time>
      </trkpt>
      <trkpt lat="43.40388" lon="6.07288">
        <ele>221.39999389648</ele>
        <time>2013-10-12T15:14:30Z</time>
      </trkpt>
      <trkpt lat="43.40392" lon="6.07274">
        <ele>220.60000610352</ele>
        <time>2013-10-12T15:14:32Z</time>
      </trkpt>
      <trkpt lat="43.40392" lon="6.07259">
        <ele>220.60000610352</ele>
        <time>2013-10-12T15:14:34Z</time>
      </trkpt>
      <trkpt lat="43.40389" lon="6.07244">
        <ele>219.60000610352</ele>
        <time>2013-10-12T15:14:36Z</time>
      </trkpt>
      <trkpt lat="43.40388" lon="6.07236">
        <ele>219.19999694824</ele>
        <time>2013-10-12T15:14:37Z</time>
      </trkpt>
      <trkpt lat="43.40387" lon="6.07229">
        <ele>218.60000610352</ele>
        <time>2013-10-12T15:14:38Z</time>
      </trkpt>
      <trkpt lat="43.40388" lon="6.07221">
        <ele>218.19999694824</ele>
        <time>2013-10-12T15:14:39Z</time>
      </trkpt>
      <trkpt lat="43.40392" lon="6.07169">
        <ele>218.19999694824</ele>
        <time>2013-10-12T15:14:46Z</time>
      </trkpt>
      <trkpt lat="43.40398" lon="6.07119">
        <ele>218.19999694824</ele>
        <time>2013-10-12T15:14:54Z</time>
      </trkpt>
      <trkpt lat="43.40403" lon="6.07083">
        <ele>218.19999694824</ele>
        <time>2013-10-12T15:15:01Z</time>
      </trkpt>
      <trkpt lat="43.40405" lon="6.07076">
        <ele>219</ele>
        <time>2013-10-12T15:15:03Z</time>
      </trkpt>
      <trkpt lat="43.40406" lon="6.07068">
        <ele>220</ele>
        <time>2013-10-12T15:15:05Z</time>
      </trkpt>
      <trkpt lat="43.40406" lon="6.07064">
        <ele>220.39999389648</ele>
        <time>2013-10-12T15:15:06Z</time>
      </trkpt>
      <trkpt lat="43.4041" lon="6.07045">
        <ele>220.39999389648</ele>
        <time>2013-10-12T15:15:12Z</time>
      </trkpt>
      <trkpt lat="43.40414" lon="6.07024">
        <ele>220.39999389648</ele>
        <time>2013-10-12T15:15:19Z</time>
      </trkpt>
      <trkpt lat="43.40416" lon="6.07018">
        <ele>221.19999694824</ele>
        <time>2013-10-12T15:15:21Z</time>
      </trkpt>
      <trkpt lat="43.40416" lon="6.07011">
        <ele>222</ele>
        <time>2013-10-12T15:15:23Z</time>
      </trkpt>
      <trkpt lat="43.40419" lon="6.06985">
        <ele>222.39999389648</ele>
        <time>2013-10-12T15:15:31Z</time>
      </trkpt>
      <trkpt lat="43.40422" lon="6.06964">
        <ele>222.39999389648</ele>
        <time>2013-10-12T15:15:37Z</time>
      </trkpt>
      <trkpt lat="43.4043" lon="6.0694">
        <ele>222.39999389648</ele>
        <time>2013-10-12T15:15:43Z</time>
      </trkpt>
      <trkpt lat="43.40442" lon="6.06915">
        <ele>222.39999389648</ele>
        <time>2013-10-12T15:15:50Z</time>
      </trkpt>
      <trkpt lat="43.40451" lon="6.06898">
        <ele>222.39999389648</ele>
        <time>2013-10-12T15:15:57Z</time>
      </trkpt>
      <trkpt lat="43.40455" lon="6.06892">
        <ele>222.39999389648</ele>
        <time>2013-10-12T15:16:00Z</time>
      </trkpt>
      <trkpt lat="43.40457" lon="6.06881">
        <ele>222.39999389648</ele>
        <time>2013-10-12T15:16:03Z</time>
      </trkpt>
      <trkpt lat="43.40459" lon="6.06869">
        <ele>222.39999389648</ele>
        <time>2013-10-12T15:16:06Z</time>
      </trkpt>
      <trkpt lat="43.40462" lon="6.06846">
        <ele>222.39999389648</ele>
        <time>2013-10-12T15:16:11Z</time>
      </trkpt>
      <trkpt lat="43.40463" lon="6.06834">
        <ele>222.39999389648</ele>
        <time>2013-10-12T15:16:14Z</time>
      </trkpt>
      <trkpt lat="43.40464" lon="6.06781">
        <ele>222.39999389648</ele>
        <time>2013-10-12T15:16:27Z</time>
      </trkpt>
      <trkpt lat="43.40463" lon="6.06722">
        <ele>222.39999389648</ele>
        <time>2013-10-12T15:16:41Z</time>
      </trkpt>
      <trkpt lat="43.40464" lon="6.06713">
        <ele>222.39999389648</ele>
        <time>2013-10-12T15:16:43Z</time>
      </trkpt>
      <trkpt lat="43.40467" lon="6.06701">
        <ele>222.39999389648</ele>
        <time>2013-10-12T15:16:46Z</time>
      </trkpt>
      <trkpt lat="43.40472" lon="6.06687">
        <ele>222.39999389648</ele>
        <time>2013-10-12T15:16:50Z</time>
      </trkpt>
      <trkpt lat="43.4048" lon="6.06661">
        <ele>222.39999389648</ele>
        <time>2013-10-12T15:16:57Z</time>
      </trkpt>
      <trkpt lat="43.40482" lon="6.06652">
        <ele>222.39999389648</ele>
        <time>2013-10-12T15:17:01Z</time>
      </trkpt>
      <trkpt lat="43.40482" lon="6.06651">
        <ele>222.39999389648</ele>
        <time>2013-10-12T15:17:02Z</time>
      </trkpt>
      <trkpt lat="43.40482" lon="6.06651">
        <ele>222.39999389648</ele>
        <time>2013-10-12T15:17:14Z</time>
      </trkpt>
      <trkpt lat="43.40483" lon="6.0665">
        <ele>222.39999389648</ele>
        <time>2013-10-12T15:17:19Z</time>
      </trkpt>
      <trkpt lat="43.40485" lon="6.06645">
        <ele>222.39999389648</ele>
        <time>2013-10-12T15:17:23Z</time>
      </trkpt>
      <trkpt lat="43.40485" lon="6.06643">
        <ele>222.39999389648</ele>
        <time>2013-10-12T15:17:24Z</time>
      </trkpt>
      <trkpt lat="43.40489" lon="6.06634">
        <ele>222.39999389648</ele>
        <time>2013-10-12T15:17:31Z</time>
      </trkpt>
      <trkpt lat="43.4049" lon="6.06633">
        <ele>222.39999389648</ele>
        <time>2013-10-12T15:17:32Z</time>
      </trkpt>
      <trkpt lat="43.40492" lon="6.06621">
        <ele>222.39999389648</ele>
        <time>2013-10-12T15:17:40Z</time>
      </trkpt>
      <trkpt lat="43.40488" lon="6.066">
        <ele>222.39999389648</ele>
        <time>2013-10-12T15:17:52Z</time>
      </trkpt>
      <trkpt lat="43.40485" lon="6.0659">
        <ele>222.39999389648</ele>
        <time>2013-10-12T15:17:58Z</time>
      </trkpt>
      <trkpt lat="43.40477" lon="6.06583">
        <ele>222.39999389648</ele>
        <time>2013-10-12T15:18:06Z</time>
      </trkpt>
      <trkpt lat="43.40471" lon="6.0658">
        <ele>222.39999389648</ele>
        <time>2013-10-12T15:18:12Z</time>
      </trkpt>
      <trkpt lat="43.40452" lon="6.06573">
        <ele>222.39999389648</ele>
        <time>2013-10-12T15:18:27Z</time>
      </trkpt>
      <trkpt lat="43.40447" lon="6.06572">
        <ele>222.80000305176</ele>
        <time>2013-10-12T15:18:31Z</time>
      </trkpt>
      <trkpt lat="43.40438" lon="6.06572">
        <ele>224.39999389648</ele>
        <time>2013-10-12T15:18:38Z</time>
      </trkpt>
      <trkpt lat="43.40435" lon="6.06571">
        <ele>224.39999389648</ele>
        <time>2013-10-12T15:18:41Z</time>
      </trkpt>
      <trkpt lat="43.40429" lon="6.06569">
        <ele>224.39999389648</ele>
        <time>2013-10-12T15:18:46Z</time>
      </trkpt>
      <trkpt lat="43.4042" lon="6.06566">
        <ele>224.39999389648</ele>
        <time>2013-10-12T15:18:53Z</time>
      </trkpt>
      <trkpt lat="43.40412" lon="6.06562">
        <ele>224.39999389648</ele>
        <time>2013-10-12T15:19:00Z</time>
      </trkpt>
      <trkpt lat="43.40406" lon="6.06558">
        <ele>224.39999389648</ele>
        <time>2013-10-12T15:19:06Z</time>
      </trkpt>
      <trkpt lat="43.40404" lon="6.06557">
        <ele>224.39999389648</ele>
        <time>2013-10-12T15:19:08Z</time>
      </trkpt>
      <trkpt lat="43.40401" lon="6.06553">
        <ele>224.39999389648</ele>
        <time>2013-10-12T15:19:15Z</time>
      </trkpt>
      <trkpt lat="43.40402" lon="6.0655">
        <ele>224.39999389648</ele>
        <time>2013-10-12T15:19:22Z</time>
      </trkpt>
      <trkpt lat="43.40402" lon="6.0655">
        <ele>224.39999389648</ele>
        <time>2013-10-12T15:19:26Z</time>
      </trkpt>
      <trkpt lat="43.40402" lon="6.06549">
        <ele>224.39999389648</ele>
        <time>2013-10-12T15:19:31Z</time>
      </trkpt>
      <trkpt lat="43.40402" lon="6.06549">
        <ele>226.39999389648</ele>
        <time>2013-10-12T15:19:42Z</time>
      </trkpt>
      <trkpt lat="43.40402" lon="6.0655">
        <ele>226.39999389648</ele>
        <time>2013-10-12T15:23:13Z</time>
      </trkpt>
      <trkpt lat="43.40402" lon="6.0655">
        <ele>226.39999389648</ele>
        <time>2013-10-12T15:23:30Z</time>
      </trkpt>
      <trkpt lat="43.40402" lon="6.06549">
        <ele>226.39999389648</ele>
        <time>2013-10-12T15:23:34Z</time>
      </trkpt>
      <trkpt lat="43.40402" lon="6.06549">
        <ele>226.39999389648</ele>
        <time>2013-10-12T15:23:58Z</time>
      </trkpt>
      <trkpt lat="43.40402" lon="6.06549">
        <ele>226.39999389648</ele>
        <time>2013-10-12T15:24:12Z</time>
      </trkpt>
      <trkpt lat="43.40402" lon="6.06548">
        <ele>226.39999389648</ele>
        <time>2013-10-12T15:24:17Z</time>
      </trkpt>
      <trkpt lat="43.40402" lon="6.06548">
        <ele>226.39999389648</ele>
        <time>2013-10-12T15:24:39Z</time>
      </trkpt>
      <trkpt lat="43.40402" lon="6.06548">
        <ele>226.39999389648</ele>
        <time>2013-10-12T15:24:49Z</time>
      </trkpt>
      <trkpt lat="43.40402" lon="6.06548">
        <ele>226.39999389648</ele>
        <time>2013-10-12T15:24:56Z</time>
      </trkpt>
      <trkpt lat="43.40402" lon="6.06548">
        <ele>226.39999389648</ele>
        <time>2013-10-12T15:25:13Z</time>
      </trkpt>
      <trkpt lat="43.40402" lon="6.06548">
        <ele>226.39999389648</ele>
        <time>2013-10-12T15:25:30Z</time>
      </trkpt>
      <trkpt lat="43.40403" lon="6.06548">
        <ele>226.39999389648</ele>
        <time>2013-10-12T15:25:40Z</time>
      </trkpt>
      <trkpt lat="43.40403" lon="6.06548">
        <ele>226.39999389648</ele>
        <time>2013-10-12T15:25:59Z</time>
      </trkpt>
    </trkseg>
  </trk>
</gpx>